<?xml version="1.0" encoding="UTF-8" standalone="no" ?>
<gpx xmlns="http://www.topografix.com/GPX/1/1" xmlns:xsi="http://www.w3.org/2001/XMLSchema-instance" xsi:schemaLocation="http://www.topografix.com/GPX/1/1 http://www.topografix.com/GPX/1/1/gpx.xsd" version="1.1" creator="VisuGPX - https://www.visugpx.com">
  <metadata>
    <name>Les Landes de Locarn</name>
    <desc><![CDATA[Une balade bien connue au c%u0153ur des landes de Locarn. Un sentier de découverte d'environ 6 km dans un petit paradis où la flore et la faune locale sont préservées.]]></desc>
  </metadata>
  <trk>
    <name><![CDATA[Landes de Locarn]]></name>
    <trkseg>
      <trkpt lat="48.33343" lon="-3.36703">
        <ele>268</ele>
        <time>2014-06-23T12:05:27Z</time>
      </trkpt>
      <trkpt lat="48.33341" lon="-3.36744">
        <ele>265</ele>
        <time>2014-06-23T12:05:59Z</time>
      </trkpt>
      <trkpt lat="48.3334" lon="-3.36746">
        <ele>265</ele>
        <time>2014-06-23T12:06:02Z</time>
      </trkpt>
      <trkpt lat="48.3334" lon="-3.36749">
        <ele>265</ele>
        <time>2014-06-23T12:06:04Z</time>
      </trkpt>
      <trkpt lat="48.33339" lon="-3.36752">
        <ele>265</ele>
        <time>2014-06-23T12:06:06Z</time>
      </trkpt>
      <trkpt lat="48.33338" lon="-3.36754">
        <ele>265</ele>
        <time>2014-06-23T12:06:08Z</time>
      </trkpt>
      <trkpt lat="48.33338" lon="-3.36756">
        <ele>265</ele>
        <time>2014-06-23T12:06:10Z</time>
      </trkpt>
      <trkpt lat="48.33338" lon="-3.36758">
        <ele>265</ele>
        <time>2014-06-23T12:06:14Z</time>
      </trkpt>
      <trkpt lat="48.33336" lon="-3.36762">
        <ele>265</ele>
        <time>2014-06-23T12:06:16Z</time>
      </trkpt>
      <trkpt lat="48.33335" lon="-3.36764">
        <ele>265</ele>
        <time>2014-06-23T12:06:18Z</time>
      </trkpt>
      <trkpt lat="48.33334" lon="-3.36766">
        <ele>265</ele>
        <time>2014-06-23T12:06:20Z</time>
      </trkpt>
      <trkpt lat="48.33333" lon="-3.36769">
        <ele>265</ele>
        <time>2014-06-23T12:06:22Z</time>
      </trkpt>
      <trkpt lat="48.33332" lon="-3.36771">
        <ele>264</ele>
        <time>2014-06-23T12:06:24Z</time>
      </trkpt>
      <trkpt lat="48.33331" lon="-3.36774">
        <ele>264</ele>
        <time>2014-06-23T12:06:26Z</time>
      </trkpt>
      <trkpt lat="48.3333" lon="-3.36777">
        <ele>264</ele>
        <time>2014-06-23T12:06:28Z</time>
      </trkpt>
      <trkpt lat="48.33329" lon="-3.3678">
        <ele>263</ele>
        <time>2014-06-23T12:06:30Z</time>
      </trkpt>
      <trkpt lat="48.33328" lon="-3.36783">
        <ele>263</ele>
        <time>2014-06-23T12:06:32Z</time>
      </trkpt>
      <trkpt lat="48.33328" lon="-3.36784">
        <ele>263</ele>
        <time>2014-06-23T12:06:35Z</time>
      </trkpt>
      <trkpt lat="48.33329" lon="-3.36786">
        <ele>261</ele>
        <time>2014-06-23T12:06:53Z</time>
      </trkpt>
      <trkpt lat="48.33328" lon="-3.36787">
        <ele>257</ele>
        <time>2014-06-23T12:07:09Z</time>
      </trkpt>
      <trkpt lat="48.33328" lon="-3.36789">
        <ele>257</ele>
        <time>2014-06-23T12:07:12Z</time>
      </trkpt>
      <trkpt lat="48.33327" lon="-3.36791">
        <ele>257</ele>
        <time>2014-06-23T12:07:16Z</time>
      </trkpt>
      <trkpt lat="48.33326" lon="-3.36793">
        <ele>257</ele>
        <time>2014-06-23T12:07:20Z</time>
      </trkpt>
      <trkpt lat="48.33325" lon="-3.36795">
        <ele>257</ele>
        <time>2014-06-23T12:07:24Z</time>
      </trkpt>
      <trkpt lat="48.33324" lon="-3.36798">
        <ele>257</ele>
        <time>2014-06-23T12:07:27Z</time>
      </trkpt>
      <trkpt lat="48.33323" lon="-3.368">
        <ele>257</ele>
        <time>2014-06-23T12:07:29Z</time>
      </trkpt>
      <trkpt lat="48.33321" lon="-3.36801">
        <ele>257</ele>
        <time>2014-06-23T12:07:31Z</time>
      </trkpt>
      <trkpt lat="48.33321" lon="-3.36803">
        <ele>257</ele>
        <time>2014-06-23T12:07:33Z</time>
      </trkpt>
      <trkpt lat="48.33321" lon="-3.36806">
        <ele>257</ele>
        <time>2014-06-23T12:07:35Z</time>
      </trkpt>
      <trkpt lat="48.3332" lon="-3.36808">
        <ele>257</ele>
        <time>2014-06-23T12:07:37Z</time>
      </trkpt>
      <trkpt lat="48.33319" lon="-3.3681">
        <ele>257</ele>
        <time>2014-06-23T12:07:39Z</time>
      </trkpt>
      <trkpt lat="48.33319" lon="-3.36812">
        <ele>257</ele>
        <time>2014-06-23T12:07:44Z</time>
      </trkpt>
      <trkpt lat="48.33319" lon="-3.36814">
        <ele>257</ele>
        <time>2014-06-23T12:07:46Z</time>
      </trkpt>
      <trkpt lat="48.33317" lon="-3.36817">
        <ele>257</ele>
        <time>2014-06-23T12:07:49Z</time>
      </trkpt>
      <trkpt lat="48.33316" lon="-3.36819">
        <ele>257</ele>
        <time>2014-06-23T12:07:51Z</time>
      </trkpt>
      <trkpt lat="48.33316" lon="-3.36821">
        <ele>257</ele>
        <time>2014-06-23T12:07:53Z</time>
      </trkpt>
      <trkpt lat="48.33315" lon="-3.36823">
        <ele>257</ele>
        <time>2014-06-23T12:07:55Z</time>
      </trkpt>
      <trkpt lat="48.33315" lon="-3.36825">
        <ele>257</ele>
        <time>2014-06-23T12:07:57Z</time>
      </trkpt>
      <trkpt lat="48.33314" lon="-3.36827">
        <ele>257</ele>
        <time>2014-06-23T12:07:59Z</time>
      </trkpt>
      <trkpt lat="48.33314" lon="-3.36829">
        <ele>257</ele>
        <time>2014-06-23T12:08:01Z</time>
      </trkpt>
      <trkpt lat="48.33313" lon="-3.36831">
        <ele>257</ele>
        <time>2014-06-23T12:08:03Z</time>
      </trkpt>
      <trkpt lat="48.33313" lon="-3.36833">
        <ele>257</ele>
        <time>2014-06-23T12:08:05Z</time>
      </trkpt>
      <trkpt lat="48.33311" lon="-3.36836">
        <ele>257</ele>
        <time>2014-06-23T12:08:08Z</time>
      </trkpt>
      <trkpt lat="48.33311" lon="-3.36837">
        <ele>257</ele>
        <time>2014-06-23T12:08:10Z</time>
      </trkpt>
      <trkpt lat="48.3331" lon="-3.36839">
        <ele>257</ele>
        <time>2014-06-23T12:08:12Z</time>
      </trkpt>
      <trkpt lat="48.3331" lon="-3.36841">
        <ele>257</ele>
        <time>2014-06-23T12:08:14Z</time>
      </trkpt>
      <trkpt lat="48.33309" lon="-3.36843">
        <ele>257</ele>
        <time>2014-06-23T12:08:16Z</time>
      </trkpt>
      <trkpt lat="48.33309" lon="-3.36846">
        <ele>257</ele>
        <time>2014-06-23T12:08:18Z</time>
      </trkpt>
      <trkpt lat="48.33308" lon="-3.36848">
        <ele>257</ele>
        <time>2014-06-23T12:08:20Z</time>
      </trkpt>
      <trkpt lat="48.33307" lon="-3.36849">
        <ele>257</ele>
        <time>2014-06-23T12:08:22Z</time>
      </trkpt>
      <trkpt lat="48.33305" lon="-3.36851">
        <ele>257</ele>
        <time>2014-06-23T12:08:25Z</time>
      </trkpt>
      <trkpt lat="48.33305" lon="-3.36853">
        <ele>257</ele>
        <time>2014-06-23T12:08:27Z</time>
      </trkpt>
      <trkpt lat="48.33304" lon="-3.36856">
        <ele>257</ele>
        <time>2014-06-23T12:08:29Z</time>
      </trkpt>
      <trkpt lat="48.33303" lon="-3.36859">
        <ele>257</ele>
        <time>2014-06-23T12:08:31Z</time>
      </trkpt>
      <trkpt lat="48.33302" lon="-3.36861">
        <ele>257</ele>
        <time>2014-06-23T12:08:33Z</time>
      </trkpt>
      <trkpt lat="48.33301" lon="-3.36863">
        <ele>257</ele>
        <time>2014-06-23T12:08:35Z</time>
      </trkpt>
      <trkpt lat="48.333" lon="-3.36866">
        <ele>257</ele>
        <time>2014-06-23T12:08:37Z</time>
      </trkpt>
      <trkpt lat="48.33299" lon="-3.36868">
        <ele>257</ele>
        <time>2014-06-23T12:08:39Z</time>
      </trkpt>
      <trkpt lat="48.33299" lon="-3.3687">
        <ele>257</ele>
        <time>2014-06-23T12:08:41Z</time>
      </trkpt>
      <trkpt lat="48.33298" lon="-3.36873">
        <ele>256</ele>
        <time>2014-06-23T12:08:43Z</time>
      </trkpt>
      <trkpt lat="48.33298" lon="-3.36876">
        <ele>256</ele>
        <time>2014-06-23T12:08:45Z</time>
      </trkpt>
      <trkpt lat="48.33297" lon="-3.36878">
        <ele>256</ele>
        <time>2014-06-23T12:08:47Z</time>
      </trkpt>
      <trkpt lat="48.33296" lon="-3.3688">
        <ele>255</ele>
        <time>2014-06-23T12:08:49Z</time>
      </trkpt>
      <trkpt lat="48.33295" lon="-3.36883">
        <ele>255</ele>
        <time>2014-06-23T12:08:51Z</time>
      </trkpt>
      <trkpt lat="48.33295" lon="-3.36885">
        <ele>254</ele>
        <time>2014-06-23T12:08:53Z</time>
      </trkpt>
      <trkpt lat="48.33294" lon="-3.36887">
        <ele>254</ele>
        <time>2014-06-23T12:08:55Z</time>
      </trkpt>
      <trkpt lat="48.33294" lon="-3.3689">
        <ele>253</ele>
        <time>2014-06-23T12:08:57Z</time>
      </trkpt>
      <trkpt lat="48.33293" lon="-3.36893">
        <ele>253</ele>
        <time>2014-06-23T12:08:59Z</time>
      </trkpt>
      <trkpt lat="48.33292" lon="-3.36896">
        <ele>253</ele>
        <time>2014-06-23T12:09:01Z</time>
      </trkpt>
      <trkpt lat="48.33292" lon="-3.36898">
        <ele>253</ele>
        <time>2014-06-23T12:09:03Z</time>
      </trkpt>
      <trkpt lat="48.33292" lon="-3.369">
        <ele>253</ele>
        <time>2014-06-23T12:09:04Z</time>
      </trkpt>
      <trkpt lat="48.33291" lon="-3.36903">
        <ele>253</ele>
        <time>2014-06-23T12:09:06Z</time>
      </trkpt>
      <trkpt lat="48.3329" lon="-3.36906">
        <ele>253</ele>
        <time>2014-06-23T12:09:08Z</time>
      </trkpt>
      <trkpt lat="48.33289" lon="-3.36909">
        <ele>253</ele>
        <time>2014-06-23T12:09:10Z</time>
      </trkpt>
      <trkpt lat="48.33289" lon="-3.36912">
        <ele>253</ele>
        <time>2014-06-23T12:09:12Z</time>
      </trkpt>
      <trkpt lat="48.33289" lon="-3.36914">
        <ele>253</ele>
        <time>2014-06-23T12:09:14Z</time>
      </trkpt>
      <trkpt lat="48.33288" lon="-3.36916">
        <ele>253</ele>
        <time>2014-06-23T12:09:16Z</time>
      </trkpt>
      <trkpt lat="48.33288" lon="-3.36919">
        <ele>253</ele>
        <time>2014-06-23T12:09:18Z</time>
      </trkpt>
      <trkpt lat="48.33288" lon="-3.36921">
        <ele>253</ele>
        <time>2014-06-23T12:09:20Z</time>
      </trkpt>
      <trkpt lat="48.33287" lon="-3.36924">
        <ele>253</ele>
        <time>2014-06-23T12:09:22Z</time>
      </trkpt>
      <trkpt lat="48.33286" lon="-3.36927">
        <ele>253</ele>
        <time>2014-06-23T12:09:24Z</time>
      </trkpt>
      <trkpt lat="48.33286" lon="-3.3693">
        <ele>253</ele>
        <time>2014-06-23T12:09:26Z</time>
      </trkpt>
      <trkpt lat="48.33286" lon="-3.36932">
        <ele>253</ele>
        <time>2014-06-23T12:09:28Z</time>
      </trkpt>
      <trkpt lat="48.33286" lon="-3.36935">
        <ele>253</ele>
        <time>2014-06-23T12:09:30Z</time>
      </trkpt>
      <trkpt lat="48.33286" lon="-3.36937">
        <ele>253</ele>
        <time>2014-06-23T12:09:32Z</time>
      </trkpt>
      <trkpt lat="48.33286" lon="-3.3694">
        <ele>253</ele>
        <time>2014-06-23T12:09:34Z</time>
      </trkpt>
      <trkpt lat="48.33286" lon="-3.36942">
        <ele>253</ele>
        <time>2014-06-23T12:09:36Z</time>
      </trkpt>
      <trkpt lat="48.33286" lon="-3.36944">
        <ele>253</ele>
        <time>2014-06-23T12:09:37Z</time>
      </trkpt>
      <trkpt lat="48.33286" lon="-3.36947">
        <ele>253</ele>
        <time>2014-06-23T12:09:39Z</time>
      </trkpt>
      <trkpt lat="48.33286" lon="-3.36949">
        <ele>253</ele>
        <time>2014-06-23T12:09:41Z</time>
      </trkpt>
      <trkpt lat="48.33286" lon="-3.36951">
        <ele>253</ele>
        <time>2014-06-23T12:09:42Z</time>
      </trkpt>
      <trkpt lat="48.33286" lon="-3.36954">
        <ele>253</ele>
        <time>2014-06-23T12:09:44Z</time>
      </trkpt>
      <trkpt lat="48.33286" lon="-3.36957">
        <ele>253</ele>
        <time>2014-06-23T12:09:46Z</time>
      </trkpt>
      <trkpt lat="48.33286" lon="-3.3696">
        <ele>253</ele>
        <time>2014-06-23T12:09:48Z</time>
      </trkpt>
      <trkpt lat="48.33286" lon="-3.36962">
        <ele>253</ele>
        <time>2014-06-23T12:09:50Z</time>
      </trkpt>
      <trkpt lat="48.33286" lon="-3.36965">
        <ele>253</ele>
        <time>2014-06-23T12:09:52Z</time>
      </trkpt>
      <trkpt lat="48.33286" lon="-3.36967">
        <ele>253</ele>
        <time>2014-06-23T12:09:53Z</time>
      </trkpt>
      <trkpt lat="48.33286" lon="-3.36968">
        <ele>253</ele>
        <time>2014-06-23T12:09:54Z</time>
      </trkpt>
      <trkpt lat="48.33287" lon="-3.36971">
        <ele>253</ele>
        <time>2014-06-23T12:09:56Z</time>
      </trkpt>
      <trkpt lat="48.33287" lon="-3.36973">
        <ele>253</ele>
        <time>2014-06-23T12:09:57Z</time>
      </trkpt>
      <trkpt lat="48.33287" lon="-3.36975">
        <ele>253</ele>
        <time>2014-06-23T12:09:58Z</time>
      </trkpt>
      <trkpt lat="48.33287" lon="-3.36978">
        <ele>253</ele>
        <time>2014-06-23T12:10:00Z</time>
      </trkpt>
      <trkpt lat="48.33287" lon="-3.36981">
        <ele>253</ele>
        <time>2014-06-23T12:10:02Z</time>
      </trkpt>
      <trkpt lat="48.33287" lon="-3.36982">
        <ele>253</ele>
        <time>2014-06-23T12:10:03Z</time>
      </trkpt>
      <trkpt lat="48.33287" lon="-3.36985">
        <ele>252</ele>
        <time>2014-06-23T12:10:05Z</time>
      </trkpt>
      <trkpt lat="48.33287" lon="-3.36988">
        <ele>252</ele>
        <time>2014-06-23T12:10:07Z</time>
      </trkpt>
      <trkpt lat="48.33287" lon="-3.36991">
        <ele>252</ele>
        <time>2014-06-23T12:10:09Z</time>
      </trkpt>
      <trkpt lat="48.33287" lon="-3.36994">
        <ele>252</ele>
        <time>2014-06-23T12:10:11Z</time>
      </trkpt>
      <trkpt lat="48.33287" lon="-3.36997">
        <ele>252</ele>
        <time>2014-06-23T12:10:13Z</time>
      </trkpt>
      <trkpt lat="48.33286" lon="-3.37">
        <ele>252</ele>
        <time>2014-06-23T12:10:15Z</time>
      </trkpt>
      <trkpt lat="48.33286" lon="-3.37003">
        <ele>252</ele>
        <time>2014-06-23T12:10:17Z</time>
      </trkpt>
      <trkpt lat="48.33286" lon="-3.37004">
        <ele>252</ele>
        <time>2014-06-23T12:10:18Z</time>
      </trkpt>
      <trkpt lat="48.33286" lon="-3.37006">
        <ele>252</ele>
        <time>2014-06-23T12:10:19Z</time>
      </trkpt>
      <trkpt lat="48.33286" lon="-3.37008">
        <ele>252</ele>
        <time>2014-06-23T12:10:20Z</time>
      </trkpt>
      <trkpt lat="48.33286" lon="-3.37011">
        <ele>252</ele>
        <time>2014-06-23T12:10:22Z</time>
      </trkpt>
      <trkpt lat="48.33285" lon="-3.37012">
        <ele>252</ele>
        <time>2014-06-23T12:10:23Z</time>
      </trkpt>
      <trkpt lat="48.33285" lon="-3.37015">
        <ele>252</ele>
        <time>2014-06-23T12:10:25Z</time>
      </trkpt>
      <trkpt lat="48.33285" lon="-3.37017">
        <ele>252</ele>
        <time>2014-06-23T12:10:26Z</time>
      </trkpt>
      <trkpt lat="48.33284" lon="-3.37019">
        <ele>252</ele>
        <time>2014-06-23T12:10:28Z</time>
      </trkpt>
      <trkpt lat="48.33284" lon="-3.37022">
        <ele>252</ele>
        <time>2014-06-23T12:10:30Z</time>
      </trkpt>
      <trkpt lat="48.33283" lon="-3.37025">
        <ele>252</ele>
        <time>2014-06-23T12:10:32Z</time>
      </trkpt>
      <trkpt lat="48.33283" lon="-3.37027">
        <ele>252</ele>
        <time>2014-06-23T12:10:33Z</time>
      </trkpt>
      <trkpt lat="48.33283" lon="-3.37029">
        <ele>252</ele>
        <time>2014-06-23T12:10:34Z</time>
      </trkpt>
      <trkpt lat="48.33283" lon="-3.3703">
        <ele>252</ele>
        <time>2014-06-23T12:10:35Z</time>
      </trkpt>
      <trkpt lat="48.33283" lon="-3.37032">
        <ele>252</ele>
        <time>2014-06-23T12:10:36Z</time>
      </trkpt>
      <trkpt lat="48.33283" lon="-3.37034">
        <ele>252</ele>
        <time>2014-06-23T12:10:37Z</time>
      </trkpt>
      <trkpt lat="48.33283" lon="-3.37036">
        <ele>252</ele>
        <time>2014-06-23T12:10:38Z</time>
      </trkpt>
      <trkpt lat="48.33282" lon="-3.37037">
        <ele>252</ele>
        <time>2014-06-23T12:10:39Z</time>
      </trkpt>
      <trkpt lat="48.33282" lon="-3.37039">
        <ele>252</ele>
        <time>2014-06-23T12:10:40Z</time>
      </trkpt>
      <trkpt lat="48.33282" lon="-3.37042">
        <ele>252</ele>
        <time>2014-06-23T12:10:42Z</time>
      </trkpt>
      <trkpt lat="48.33281" lon="-3.37045">
        <ele>252</ele>
        <time>2014-06-23T12:10:44Z</time>
      </trkpt>
      <trkpt lat="48.33281" lon="-3.37047">
        <ele>252</ele>
        <time>2014-06-23T12:10:45Z</time>
      </trkpt>
      <trkpt lat="48.33281" lon="-3.37049">
        <ele>252</ele>
        <time>2014-06-23T12:10:46Z</time>
      </trkpt>
      <trkpt lat="48.33281" lon="-3.37051">
        <ele>252</ele>
        <time>2014-06-23T12:10:48Z</time>
      </trkpt>
      <trkpt lat="48.33281" lon="-3.37053">
        <ele>252</ele>
        <time>2014-06-23T12:10:49Z</time>
      </trkpt>
      <trkpt lat="48.3328" lon="-3.37056">
        <ele>252</ele>
        <time>2014-06-23T12:10:51Z</time>
      </trkpt>
      <trkpt lat="48.3328" lon="-3.37059">
        <ele>252</ele>
        <time>2014-06-23T12:10:53Z</time>
      </trkpt>
      <trkpt lat="48.33279" lon="-3.37062">
        <ele>252</ele>
        <time>2014-06-23T12:10:55Z</time>
      </trkpt>
      <trkpt lat="48.33279" lon="-3.37064">
        <ele>252</ele>
        <time>2014-06-23T12:10:56Z</time>
      </trkpt>
      <trkpt lat="48.33279" lon="-3.37067">
        <ele>252</ele>
        <time>2014-06-23T12:10:58Z</time>
      </trkpt>
      <trkpt lat="48.33278" lon="-3.37068">
        <ele>252</ele>
        <time>2014-06-23T12:10:59Z</time>
      </trkpt>
      <trkpt lat="48.33278" lon="-3.37071">
        <ele>252</ele>
        <time>2014-06-23T12:11:01Z</time>
      </trkpt>
      <trkpt lat="48.33278" lon="-3.37074">
        <ele>252</ele>
        <time>2014-06-23T12:11:03Z</time>
      </trkpt>
      <trkpt lat="48.33278" lon="-3.37075">
        <ele>252</ele>
        <time>2014-06-23T12:11:04Z</time>
      </trkpt>
      <trkpt lat="48.33277" lon="-3.37078">
        <ele>252</ele>
        <time>2014-06-23T12:11:06Z</time>
      </trkpt>
      <trkpt lat="48.33277" lon="-3.37081">
        <ele>252</ele>
        <time>2014-06-23T12:11:08Z</time>
      </trkpt>
      <trkpt lat="48.33277" lon="-3.37083">
        <ele>252</ele>
        <time>2014-06-23T12:11:09Z</time>
      </trkpt>
      <trkpt lat="48.33276" lon="-3.37086">
        <ele>252</ele>
        <time>2014-06-23T12:11:11Z</time>
      </trkpt>
      <trkpt lat="48.33276" lon="-3.37089">
        <ele>252</ele>
        <time>2014-06-23T12:11:13Z</time>
      </trkpt>
      <trkpt lat="48.33276" lon="-3.37092">
        <ele>252</ele>
        <time>2014-06-23T12:11:15Z</time>
      </trkpt>
      <trkpt lat="48.33276" lon="-3.37093">
        <ele>252</ele>
        <time>2014-06-23T12:11:16Z</time>
      </trkpt>
      <trkpt lat="48.33276" lon="-3.37095">
        <ele>252</ele>
        <time>2014-06-23T12:11:17Z</time>
      </trkpt>
      <trkpt lat="48.33276" lon="-3.37097">
        <ele>252</ele>
        <time>2014-06-23T12:11:18Z</time>
      </trkpt>
      <trkpt lat="48.33276" lon="-3.37099">
        <ele>252</ele>
        <time>2014-06-23T12:11:20Z</time>
      </trkpt>
      <trkpt lat="48.33275" lon="-3.37103">
        <ele>252</ele>
        <time>2014-06-23T12:11:22Z</time>
      </trkpt>
      <trkpt lat="48.33275" lon="-3.37105">
        <ele>252</ele>
        <time>2014-06-23T12:11:24Z</time>
      </trkpt>
      <trkpt lat="48.33275" lon="-3.37107">
        <ele>252</ele>
        <time>2014-06-23T12:11:25Z</time>
      </trkpt>
      <trkpt lat="48.33274" lon="-3.3711">
        <ele>252</ele>
        <time>2014-06-23T12:11:27Z</time>
      </trkpt>
      <trkpt lat="48.33274" lon="-3.37113">
        <ele>252</ele>
        <time>2014-06-23T12:11:29Z</time>
      </trkpt>
      <trkpt lat="48.33274" lon="-3.37115">
        <ele>252</ele>
        <time>2014-06-23T12:11:30Z</time>
      </trkpt>
      <trkpt lat="48.33274" lon="-3.37118">
        <ele>252</ele>
        <time>2014-06-23T12:11:32Z</time>
      </trkpt>
      <trkpt lat="48.33273" lon="-3.37121">
        <ele>252</ele>
        <time>2014-06-23T12:11:34Z</time>
      </trkpt>
      <trkpt lat="48.33273" lon="-3.37123">
        <ele>252</ele>
        <time>2014-06-23T12:11:36Z</time>
      </trkpt>
      <trkpt lat="48.33273" lon="-3.37126">
        <ele>252</ele>
        <time>2014-06-23T12:11:38Z</time>
      </trkpt>
      <trkpt lat="48.33273" lon="-3.37128">
        <ele>252</ele>
        <time>2014-06-23T12:11:40Z</time>
      </trkpt>
      <trkpt lat="48.33272" lon="-3.37132">
        <ele>252</ele>
        <time>2014-06-23T12:11:42Z</time>
      </trkpt>
      <trkpt lat="48.33272" lon="-3.37133">
        <ele>252</ele>
        <time>2014-06-23T12:11:43Z</time>
      </trkpt>
      <trkpt lat="48.33272" lon="-3.37136">
        <ele>252</ele>
        <time>2014-06-23T12:11:45Z</time>
      </trkpt>
      <trkpt lat="48.33271" lon="-3.37139">
        <ele>252</ele>
        <time>2014-06-23T12:11:47Z</time>
      </trkpt>
      <trkpt lat="48.33271" lon="-3.37142">
        <ele>252</ele>
        <time>2014-06-23T12:11:49Z</time>
      </trkpt>
      <trkpt lat="48.33271" lon="-3.37145">
        <ele>251</ele>
        <time>2014-06-23T12:11:51Z</time>
      </trkpt>
      <trkpt lat="48.3327" lon="-3.37148">
        <ele>251</ele>
        <time>2014-06-23T12:11:53Z</time>
      </trkpt>
      <trkpt lat="48.3327" lon="-3.3715">
        <ele>251</ele>
        <time>2014-06-23T12:11:54Z</time>
      </trkpt>
      <trkpt lat="48.3327" lon="-3.37152">
        <ele>251</ele>
        <time>2014-06-23T12:11:55Z</time>
      </trkpt>
      <trkpt lat="48.33269" lon="-3.37154">
        <ele>251</ele>
        <time>2014-06-23T12:11:57Z</time>
      </trkpt>
      <trkpt lat="48.33269" lon="-3.37156">
        <ele>251</ele>
        <time>2014-06-23T12:11:58Z</time>
      </trkpt>
      <trkpt lat="48.33269" lon="-3.37158">
        <ele>251</ele>
        <time>2014-06-23T12:11:59Z</time>
      </trkpt>
      <trkpt lat="48.33269" lon="-3.3716">
        <ele>251</ele>
        <time>2014-06-23T12:12:01Z</time>
      </trkpt>
      <trkpt lat="48.33269" lon="-3.37163">
        <ele>251</ele>
        <time>2014-06-23T12:12:03Z</time>
      </trkpt>
      <trkpt lat="48.33269" lon="-3.37165">
        <ele>251</ele>
        <time>2014-06-23T12:12:05Z</time>
      </trkpt>
      <trkpt lat="48.33269" lon="-3.37168">
        <ele>251</ele>
        <time>2014-06-23T12:12:07Z</time>
      </trkpt>
      <trkpt lat="48.33268" lon="-3.37171">
        <ele>251</ele>
        <time>2014-06-23T12:12:09Z</time>
      </trkpt>
      <trkpt lat="48.33268" lon="-3.37174">
        <ele>251</ele>
        <time>2014-06-23T12:12:11Z</time>
      </trkpt>
      <trkpt lat="48.33268" lon="-3.37176">
        <ele>251</ele>
        <time>2014-06-23T12:12:12Z</time>
      </trkpt>
      <trkpt lat="48.33268" lon="-3.37179">
        <ele>251</ele>
        <time>2014-06-23T12:12:14Z</time>
      </trkpt>
      <trkpt lat="48.33268" lon="-3.37182">
        <ele>250</ele>
        <time>2014-06-23T12:12:16Z</time>
      </trkpt>
      <trkpt lat="48.33268" lon="-3.37183">
        <ele>250</ele>
        <time>2014-06-23T12:12:17Z</time>
      </trkpt>
      <trkpt lat="48.33268" lon="-3.37185">
        <ele>250</ele>
        <time>2014-06-23T12:12:18Z</time>
      </trkpt>
      <trkpt lat="48.33267" lon="-3.37188">
        <ele>250</ele>
        <time>2014-06-23T12:12:20Z</time>
      </trkpt>
      <trkpt lat="48.33267" lon="-3.37191">
        <ele>250</ele>
        <time>2014-06-23T12:12:22Z</time>
      </trkpt>
      <trkpt lat="48.33266" lon="-3.37194">
        <ele>249</ele>
        <time>2014-06-23T12:12:24Z</time>
      </trkpt>
      <trkpt lat="48.33266" lon="-3.37196">
        <ele>249</ele>
        <time>2014-06-23T12:12:26Z</time>
      </trkpt>
      <trkpt lat="48.33266" lon="-3.37199">
        <ele>249</ele>
        <time>2014-06-23T12:12:28Z</time>
      </trkpt>
      <trkpt lat="48.33266" lon="-3.37202">
        <ele>249</ele>
        <time>2014-06-23T12:12:30Z</time>
      </trkpt>
      <trkpt lat="48.33266" lon="-3.37205">
        <ele>248</ele>
        <time>2014-06-23T12:12:32Z</time>
      </trkpt>
      <trkpt lat="48.33265" lon="-3.37208">
        <ele>248</ele>
        <time>2014-06-23T12:12:34Z</time>
      </trkpt>
      <trkpt lat="48.33265" lon="-3.3721">
        <ele>248</ele>
        <time>2014-06-23T12:12:36Z</time>
      </trkpt>
      <trkpt lat="48.33265" lon="-3.37213">
        <ele>247</ele>
        <time>2014-06-23T12:12:38Z</time>
      </trkpt>
      <trkpt lat="48.33265" lon="-3.37216">
        <ele>247</ele>
        <time>2014-06-23T12:12:40Z</time>
      </trkpt>
      <trkpt lat="48.33266" lon="-3.37218">
        <ele>247</ele>
        <time>2014-06-23T12:12:41Z</time>
      </trkpt>
      <trkpt lat="48.33265" lon="-3.3722">
        <ele>247</ele>
        <time>2014-06-23T12:12:42Z</time>
      </trkpt>
      <trkpt lat="48.33266" lon="-3.37223">
        <ele>246</ele>
        <time>2014-06-23T12:12:44Z</time>
      </trkpt>
      <trkpt lat="48.33265" lon="-3.37226">
        <ele>246</ele>
        <time>2014-06-23T12:12:46Z</time>
      </trkpt>
      <trkpt lat="48.33265" lon="-3.37228">
        <ele>246</ele>
        <time>2014-06-23T12:12:47Z</time>
      </trkpt>
      <trkpt lat="48.33265" lon="-3.37229">
        <ele>246</ele>
        <time>2014-06-23T12:12:48Z</time>
      </trkpt>
      <trkpt lat="48.33265" lon="-3.37232">
        <ele>246</ele>
        <time>2014-06-23T12:12:50Z</time>
      </trkpt>
      <trkpt lat="48.33264" lon="-3.37235">
        <ele>245</ele>
        <time>2014-06-23T12:12:52Z</time>
      </trkpt>
      <trkpt lat="48.33264" lon="-3.37239">
        <ele>245</ele>
        <time>2014-06-23T12:12:54Z</time>
      </trkpt>
      <trkpt lat="48.33264" lon="-3.3724">
        <ele>245</ele>
        <time>2014-06-23T12:12:55Z</time>
      </trkpt>
      <trkpt lat="48.33264" lon="-3.37243">
        <ele>244</ele>
        <time>2014-06-23T12:12:57Z</time>
      </trkpt>
      <trkpt lat="48.33264" lon="-3.37245">
        <ele>244</ele>
        <time>2014-06-23T12:12:58Z</time>
      </trkpt>
      <trkpt lat="48.33263" lon="-3.37246">
        <ele>244</ele>
        <time>2014-06-23T12:12:59Z</time>
      </trkpt>
      <trkpt lat="48.33263" lon="-3.37248">
        <ele>244</ele>
        <time>2014-06-23T12:13:00Z</time>
      </trkpt>
      <trkpt lat="48.33263" lon="-3.3725">
        <ele>244</ele>
        <time>2014-06-23T12:13:01Z</time>
      </trkpt>
      <trkpt lat="48.33263" lon="-3.37253">
        <ele>244</ele>
        <time>2014-06-23T12:13:03Z</time>
      </trkpt>
      <trkpt lat="48.33263" lon="-3.37256">
        <ele>244</ele>
        <time>2014-06-23T12:13:05Z</time>
      </trkpt>
      <trkpt lat="48.33262" lon="-3.37259">
        <ele>244</ele>
        <time>2014-06-23T12:13:07Z</time>
      </trkpt>
      <trkpt lat="48.33262" lon="-3.37262">
        <ele>244</ele>
        <time>2014-06-23T12:13:09Z</time>
      </trkpt>
      <trkpt lat="48.33261" lon="-3.37265">
        <ele>244</ele>
        <time>2014-06-23T12:13:11Z</time>
      </trkpt>
      <trkpt lat="48.33262" lon="-3.37267">
        <ele>244</ele>
        <time>2014-06-23T12:13:12Z</time>
      </trkpt>
      <trkpt lat="48.33261" lon="-3.3727">
        <ele>244</ele>
        <time>2014-06-23T12:13:14Z</time>
      </trkpt>
      <trkpt lat="48.33261" lon="-3.37273">
        <ele>244</ele>
        <time>2014-06-23T12:13:16Z</time>
      </trkpt>
      <trkpt lat="48.33261" lon="-3.37276">
        <ele>244</ele>
        <time>2014-06-23T12:13:18Z</time>
      </trkpt>
      <trkpt lat="48.33261" lon="-3.37279">
        <ele>244</ele>
        <time>2014-06-23T12:13:20Z</time>
      </trkpt>
      <trkpt lat="48.33261" lon="-3.3728">
        <ele>244</ele>
        <time>2014-06-23T12:13:21Z</time>
      </trkpt>
      <trkpt lat="48.33261" lon="-3.37282">
        <ele>244</ele>
        <time>2014-06-23T12:13:22Z</time>
      </trkpt>
      <trkpt lat="48.33262" lon="-3.37283">
        <ele>244</ele>
        <time>2014-06-23T12:13:23Z</time>
      </trkpt>
      <trkpt lat="48.33262" lon="-3.37285">
        <ele>244</ele>
        <time>2014-06-23T12:13:25Z</time>
      </trkpt>
      <trkpt lat="48.33263" lon="-3.37287">
        <ele>244</ele>
        <time>2014-06-23T12:13:27Z</time>
      </trkpt>
      <trkpt lat="48.33265" lon="-3.37289">
        <ele>244</ele>
        <time>2014-06-23T12:13:30Z</time>
      </trkpt>
      <trkpt lat="48.33266" lon="-3.37291">
        <ele>244</ele>
        <time>2014-06-23T12:13:32Z</time>
      </trkpt>
      <trkpt lat="48.33267" lon="-3.37294">
        <ele>244</ele>
        <time>2014-06-23T12:13:34Z</time>
      </trkpt>
      <trkpt lat="48.33268" lon="-3.37296">
        <ele>244</ele>
        <time>2014-06-23T12:13:36Z</time>
      </trkpt>
      <trkpt lat="48.33269" lon="-3.37298">
        <ele>244</ele>
        <time>2014-06-23T12:13:37Z</time>
      </trkpt>
      <trkpt lat="48.33269" lon="-3.37299">
        <ele>244</ele>
        <time>2014-06-23T12:13:38Z</time>
      </trkpt>
      <trkpt lat="48.33269" lon="-3.37301">
        <ele>244</ele>
        <time>2014-06-23T12:13:39Z</time>
      </trkpt>
      <trkpt lat="48.33268" lon="-3.37304">
        <ele>244</ele>
        <time>2014-06-23T12:13:41Z</time>
      </trkpt>
      <trkpt lat="48.33268" lon="-3.37306">
        <ele>244</ele>
        <time>2014-06-23T12:13:42Z</time>
      </trkpt>
      <trkpt lat="48.33268" lon="-3.37308">
        <ele>244</ele>
        <time>2014-06-23T12:13:43Z</time>
      </trkpt>
      <trkpt lat="48.33268" lon="-3.3731">
        <ele>244</ele>
        <time>2014-06-23T12:13:44Z</time>
      </trkpt>
      <trkpt lat="48.33268" lon="-3.37312">
        <ele>244</ele>
        <time>2014-06-23T12:13:45Z</time>
      </trkpt>
      <trkpt lat="48.33268" lon="-3.37314">
        <ele>244</ele>
        <time>2014-06-23T12:13:46Z</time>
      </trkpt>
      <trkpt lat="48.33267" lon="-3.37316">
        <ele>244</ele>
        <time>2014-06-23T12:13:48Z</time>
      </trkpt>
      <trkpt lat="48.33266" lon="-3.37319">
        <ele>244</ele>
        <time>2014-06-23T12:13:50Z</time>
      </trkpt>
      <trkpt lat="48.33266" lon="-3.37321">
        <ele>244</ele>
        <time>2014-06-23T12:13:52Z</time>
      </trkpt>
      <trkpt lat="48.33266" lon="-3.37324">
        <ele>244</ele>
        <time>2014-06-23T12:13:54Z</time>
      </trkpt>
      <trkpt lat="48.33266" lon="-3.37325">
        <ele>244</ele>
        <time>2014-06-23T12:13:55Z</time>
      </trkpt>
      <trkpt lat="48.33265" lon="-3.37328">
        <ele>244</ele>
        <time>2014-06-23T12:13:57Z</time>
      </trkpt>
      <trkpt lat="48.33265" lon="-3.3733">
        <ele>244</ele>
        <time>2014-06-23T12:13:58Z</time>
      </trkpt>
      <trkpt lat="48.33265" lon="-3.37331">
        <ele>244</ele>
        <time>2014-06-23T12:13:59Z</time>
      </trkpt>
      <trkpt lat="48.33265" lon="-3.37333">
        <ele>244</ele>
        <time>2014-06-23T12:14:00Z</time>
      </trkpt>
      <trkpt lat="48.33265" lon="-3.37335">
        <ele>244</ele>
        <time>2014-06-23T12:14:01Z</time>
      </trkpt>
      <trkpt lat="48.33265" lon="-3.37338">
        <ele>244</ele>
        <time>2014-06-23T12:14:03Z</time>
      </trkpt>
      <trkpt lat="48.33266" lon="-3.37341">
        <ele>244</ele>
        <time>2014-06-23T12:14:05Z</time>
      </trkpt>
      <trkpt lat="48.33267" lon="-3.37343">
        <ele>244</ele>
        <time>2014-06-23T12:14:07Z</time>
      </trkpt>
      <trkpt lat="48.33268" lon="-3.37346">
        <ele>244</ele>
        <time>2014-06-23T12:14:09Z</time>
      </trkpt>
      <trkpt lat="48.33269" lon="-3.37348">
        <ele>243</ele>
        <time>2014-06-23T12:14:11Z</time>
      </trkpt>
      <trkpt lat="48.33271" lon="-3.3735">
        <ele>243</ele>
        <time>2014-06-23T12:14:13Z</time>
      </trkpt>
      <trkpt lat="48.33272" lon="-3.37352">
        <ele>243</ele>
        <time>2014-06-23T12:14:15Z</time>
      </trkpt>
      <trkpt lat="48.33274" lon="-3.37354">
        <ele>243</ele>
        <time>2014-06-23T12:14:17Z</time>
      </trkpt>
      <trkpt lat="48.33276" lon="-3.37355">
        <ele>243</ele>
        <time>2014-06-23T12:14:20Z</time>
      </trkpt>
      <trkpt lat="48.33277" lon="-3.37354">
        <ele>243</ele>
        <time>2014-06-23T12:14:22Z</time>
      </trkpt>
      <trkpt lat="48.33278" lon="-3.37355">
        <ele>243</ele>
        <time>2014-06-23T12:14:25Z</time>
      </trkpt>
      <trkpt lat="48.33279" lon="-3.37355">
        <ele>243</ele>
        <time>2014-06-23T12:14:27Z</time>
      </trkpt>
      <trkpt lat="48.33281" lon="-3.37356">
        <ele>243</ele>
        <time>2014-06-23T12:14:29Z</time>
      </trkpt>
      <trkpt lat="48.33282" lon="-3.37358">
        <ele>243</ele>
        <time>2014-06-23T12:14:31Z</time>
      </trkpt>
      <trkpt lat="48.33284" lon="-3.37359">
        <ele>243</ele>
        <time>2014-06-23T12:14:33Z</time>
      </trkpt>
      <trkpt lat="48.33286" lon="-3.37361">
        <ele>243</ele>
        <time>2014-06-23T12:14:35Z</time>
      </trkpt>
      <trkpt lat="48.33288" lon="-3.37362">
        <ele>243</ele>
        <time>2014-06-23T12:14:37Z</time>
      </trkpt>
      <trkpt lat="48.33289" lon="-3.37363">
        <ele>243</ele>
        <time>2014-06-23T12:14:39Z</time>
      </trkpt>
      <trkpt lat="48.33291" lon="-3.37364">
        <ele>243</ele>
        <time>2014-06-23T12:14:41Z</time>
      </trkpt>
      <trkpt lat="48.33292" lon="-3.37365">
        <ele>243</ele>
        <time>2014-06-23T12:14:43Z</time>
      </trkpt>
      <trkpt lat="48.33294" lon="-3.37365">
        <ele>243</ele>
        <time>2014-06-23T12:14:44Z</time>
      </trkpt>
      <trkpt lat="48.33295" lon="-3.37367">
        <ele>243</ele>
        <time>2014-06-23T12:14:46Z</time>
      </trkpt>
      <trkpt lat="48.33297" lon="-3.37368">
        <ele>243</ele>
        <time>2014-06-23T12:14:48Z</time>
      </trkpt>
      <trkpt lat="48.33299" lon="-3.37368">
        <ele>243</ele>
        <time>2014-06-23T12:14:50Z</time>
      </trkpt>
      <trkpt lat="48.33301" lon="-3.37368">
        <ele>243</ele>
        <time>2014-06-23T12:14:51Z</time>
      </trkpt>
      <trkpt lat="48.33303" lon="-3.37368">
        <ele>243</ele>
        <time>2014-06-23T12:14:53Z</time>
      </trkpt>
      <trkpt lat="48.33305" lon="-3.37368">
        <ele>243</ele>
        <time>2014-06-23T12:14:54Z</time>
      </trkpt>
      <trkpt lat="48.33306" lon="-3.37368">
        <ele>243</ele>
        <time>2014-06-23T12:14:55Z</time>
      </trkpt>
      <trkpt lat="48.33307" lon="-3.37369">
        <ele>243</ele>
        <time>2014-06-23T12:14:57Z</time>
      </trkpt>
      <trkpt lat="48.33309" lon="-3.37369">
        <ele>243</ele>
        <time>2014-06-23T12:14:59Z</time>
      </trkpt>
      <trkpt lat="48.33311" lon="-3.37368">
        <ele>243</ele>
        <time>2014-06-23T12:15:01Z</time>
      </trkpt>
      <trkpt lat="48.33312" lon="-3.37368">
        <ele>243</ele>
        <time>2014-06-23T12:15:02Z</time>
      </trkpt>
      <trkpt lat="48.33313" lon="-3.37367">
        <ele>243</ele>
        <time>2014-06-23T12:15:03Z</time>
      </trkpt>
      <trkpt lat="48.33316" lon="-3.37367">
        <ele>243</ele>
        <time>2014-06-23T12:15:05Z</time>
      </trkpt>
      <trkpt lat="48.33317" lon="-3.37366">
        <ele>243</ele>
        <time>2014-06-23T12:15:06Z</time>
      </trkpt>
      <trkpt lat="48.33319" lon="-3.37366">
        <ele>243</ele>
        <time>2014-06-23T12:15:08Z</time>
      </trkpt>
      <trkpt lat="48.33321" lon="-3.37366">
        <ele>243</ele>
        <time>2014-06-23T12:15:10Z</time>
      </trkpt>
      <trkpt lat="48.33323" lon="-3.37366">
        <ele>243</ele>
        <time>2014-06-23T12:15:12Z</time>
      </trkpt>
      <trkpt lat="48.33324" lon="-3.37366">
        <ele>243</ele>
        <time>2014-06-23T12:15:13Z</time>
      </trkpt>
      <trkpt lat="48.33326" lon="-3.37367">
        <ele>243</ele>
        <time>2014-06-23T12:15:15Z</time>
      </trkpt>
      <trkpt lat="48.33328" lon="-3.37368">
        <ele>243</ele>
        <time>2014-06-23T12:15:17Z</time>
      </trkpt>
      <trkpt lat="48.33329" lon="-3.37369">
        <ele>243</ele>
        <time>2014-06-23T12:15:19Z</time>
      </trkpt>
      <trkpt lat="48.33331" lon="-3.3737">
        <ele>243</ele>
        <time>2014-06-23T12:15:21Z</time>
      </trkpt>
      <trkpt lat="48.33333" lon="-3.37371">
        <ele>243</ele>
        <time>2014-06-23T12:15:23Z</time>
      </trkpt>
      <trkpt lat="48.33335" lon="-3.37372">
        <ele>243</ele>
        <time>2014-06-23T12:15:25Z</time>
      </trkpt>
      <trkpt lat="48.33337" lon="-3.37373">
        <ele>243</ele>
        <time>2014-06-23T12:15:27Z</time>
      </trkpt>
      <trkpt lat="48.33338" lon="-3.37374">
        <ele>243</ele>
        <time>2014-06-23T12:15:29Z</time>
      </trkpt>
      <trkpt lat="48.3334" lon="-3.37375">
        <ele>244</ele>
        <time>2014-06-23T12:15:31Z</time>
      </trkpt>
      <trkpt lat="48.33341" lon="-3.37375">
        <ele>244</ele>
        <time>2014-06-23T12:15:32Z</time>
      </trkpt>
      <trkpt lat="48.33343" lon="-3.37376">
        <ele>244</ele>
        <time>2014-06-23T12:15:34Z</time>
      </trkpt>
      <trkpt lat="48.33345" lon="-3.37377">
        <ele>245</ele>
        <time>2014-06-23T12:15:36Z</time>
      </trkpt>
      <trkpt lat="48.33347" lon="-3.37378">
        <ele>245</ele>
        <time>2014-06-23T12:15:38Z</time>
      </trkpt>
      <trkpt lat="48.33349" lon="-3.37379">
        <ele>246</ele>
        <time>2014-06-23T12:15:40Z</time>
      </trkpt>
      <trkpt lat="48.3335" lon="-3.3738">
        <ele>246</ele>
        <time>2014-06-23T12:15:42Z</time>
      </trkpt>
      <trkpt lat="48.33352" lon="-3.37381">
        <ele>246</ele>
        <time>2014-06-23T12:15:44Z</time>
      </trkpt>
      <trkpt lat="48.33354" lon="-3.37382">
        <ele>246</ele>
        <time>2014-06-23T12:15:46Z</time>
      </trkpt>
      <trkpt lat="48.33356" lon="-3.37383">
        <ele>246</ele>
        <time>2014-06-23T12:15:47Z</time>
      </trkpt>
      <trkpt lat="48.33357" lon="-3.37385">
        <ele>246</ele>
        <time>2014-06-23T12:15:50Z</time>
      </trkpt>
      <trkpt lat="48.33359" lon="-3.37386">
        <ele>246</ele>
        <time>2014-06-23T12:15:52Z</time>
      </trkpt>
      <trkpt lat="48.33361" lon="-3.37386">
        <ele>246</ele>
        <time>2014-06-23T12:15:54Z</time>
      </trkpt>
      <trkpt lat="48.33363" lon="-3.37387">
        <ele>246</ele>
        <time>2014-06-23T12:15:56Z</time>
      </trkpt>
      <trkpt lat="48.33364" lon="-3.37387">
        <ele>247</ele>
        <time>2014-06-23T12:15:57Z</time>
      </trkpt>
      <trkpt lat="48.33366" lon="-3.37388">
        <ele>247</ele>
        <time>2014-06-23T12:15:59Z</time>
      </trkpt>
      <trkpt lat="48.33368" lon="-3.37389">
        <ele>247</ele>
        <time>2014-06-23T12:16:01Z</time>
      </trkpt>
      <trkpt lat="48.3337" lon="-3.3739">
        <ele>247</ele>
        <time>2014-06-23T12:16:03Z</time>
      </trkpt>
      <trkpt lat="48.33371" lon="-3.3739">
        <ele>247</ele>
        <time>2014-06-23T12:16:05Z</time>
      </trkpt>
      <trkpt lat="48.33373" lon="-3.37391">
        <ele>247</ele>
        <time>2014-06-23T12:16:07Z</time>
      </trkpt>
      <trkpt lat="48.33374" lon="-3.37392">
        <ele>247</ele>
        <time>2014-06-23T12:16:08Z</time>
      </trkpt>
      <trkpt lat="48.33376" lon="-3.37392">
        <ele>247</ele>
        <time>2014-06-23T12:16:10Z</time>
      </trkpt>
      <trkpt lat="48.33378" lon="-3.37393">
        <ele>248</ele>
        <time>2014-06-23T12:16:12Z</time>
      </trkpt>
      <trkpt lat="48.3338" lon="-3.37393">
        <ele>248</ele>
        <time>2014-06-23T12:16:14Z</time>
      </trkpt>
      <trkpt lat="48.33381" lon="-3.37393">
        <ele>248</ele>
        <time>2014-06-23T12:16:15Z</time>
      </trkpt>
      <trkpt lat="48.33383" lon="-3.37393">
        <ele>248</ele>
        <time>2014-06-23T12:16:17Z</time>
      </trkpt>
      <trkpt lat="48.33385" lon="-3.37393">
        <ele>248</ele>
        <time>2014-06-23T12:16:18Z</time>
      </trkpt>
      <trkpt lat="48.33386" lon="-3.37393">
        <ele>249</ele>
        <time>2014-06-23T12:16:21Z</time>
      </trkpt>
      <trkpt lat="48.33387" lon="-3.37393">
        <ele>249</ele>
        <time>2014-06-23T12:16:23Z</time>
      </trkpt>
      <trkpt lat="48.33388" lon="-3.37393">
        <ele>250</ele>
        <time>2014-06-23T12:16:45Z</time>
      </trkpt>
      <trkpt lat="48.3339" lon="-3.37392">
        <ele>250</ele>
        <time>2014-06-23T12:16:51Z</time>
      </trkpt>
      <trkpt lat="48.33391" lon="-3.37391">
        <ele>250</ele>
        <time>2014-06-23T12:16:54Z</time>
      </trkpt>
      <trkpt lat="48.33392" lon="-3.37391">
        <ele>250</ele>
        <time>2014-06-23T12:16:59Z</time>
      </trkpt>
      <trkpt lat="48.33394" lon="-3.37391">
        <ele>250</ele>
        <time>2014-06-23T12:17:00Z</time>
      </trkpt>
      <trkpt lat="48.33395" lon="-3.37391">
        <ele>250</ele>
        <time>2014-06-23T12:17:02Z</time>
      </trkpt>
      <trkpt lat="48.33396" lon="-3.37391">
        <ele>250</ele>
        <time>2014-06-23T12:17:05Z</time>
      </trkpt>
      <trkpt lat="48.33398" lon="-3.37391">
        <ele>250</ele>
        <time>2014-06-23T12:17:06Z</time>
      </trkpt>
      <trkpt lat="48.334" lon="-3.37391">
        <ele>250</ele>
        <time>2014-06-23T12:17:08Z</time>
      </trkpt>
      <trkpt lat="48.33401" lon="-3.37391">
        <ele>250</ele>
        <time>2014-06-23T12:17:11Z</time>
      </trkpt>
      <trkpt lat="48.33403" lon="-3.37391">
        <ele>250</ele>
        <time>2014-06-23T12:17:12Z</time>
      </trkpt>
      <trkpt lat="48.33405" lon="-3.37391">
        <ele>250</ele>
        <time>2014-06-23T12:17:14Z</time>
      </trkpt>
      <trkpt lat="48.33406" lon="-3.37392">
        <ele>250</ele>
        <time>2014-06-23T12:17:17Z</time>
      </trkpt>
      <trkpt lat="48.33408" lon="-3.37393">
        <ele>250</ele>
        <time>2014-06-23T12:17:17Z</time>
      </trkpt>
      <trkpt lat="48.3341" lon="-3.37393">
        <ele>251</ele>
        <time>2014-06-23T12:17:19Z</time>
      </trkpt>
      <trkpt lat="48.33411" lon="-3.37393">
        <ele>251</ele>
        <time>2014-06-23T12:17:22Z</time>
      </trkpt>
      <trkpt lat="48.33413" lon="-3.37394">
        <ele>251</ele>
        <time>2014-06-23T12:17:23Z</time>
      </trkpt>
      <trkpt lat="48.33416" lon="-3.37395">
        <ele>251</ele>
        <time>2014-06-23T12:17:25Z</time>
      </trkpt>
      <trkpt lat="48.33417" lon="-3.37395">
        <ele>251</ele>
        <time>2014-06-23T12:17:28Z</time>
      </trkpt>
      <trkpt lat="48.33419" lon="-3.37396">
        <ele>251</ele>
        <time>2014-06-23T12:17:29Z</time>
      </trkpt>
      <trkpt lat="48.33421" lon="-3.37396">
        <ele>251</ele>
        <time>2014-06-23T12:17:31Z</time>
      </trkpt>
      <trkpt lat="48.33423" lon="-3.37397">
        <ele>251</ele>
        <time>2014-06-23T12:17:34Z</time>
      </trkpt>
      <trkpt lat="48.33425" lon="-3.37398">
        <ele>251</ele>
        <time>2014-06-23T12:17:35Z</time>
      </trkpt>
      <trkpt lat="48.33427" lon="-3.37398">
        <ele>251</ele>
        <time>2014-06-23T12:17:37Z</time>
      </trkpt>
      <trkpt lat="48.33429" lon="-3.374">
        <ele>251</ele>
        <time>2014-06-23T12:17:40Z</time>
      </trkpt>
      <trkpt lat="48.3343" lon="-3.37402">
        <ele>251</ele>
        <time>2014-06-23T12:17:41Z</time>
      </trkpt>
      <trkpt lat="48.33431" lon="-3.37404">
        <ele>251</ele>
        <time>2014-06-23T12:17:43Z</time>
      </trkpt>
      <trkpt lat="48.33433" lon="-3.37406">
        <ele>251</ele>
        <time>2014-06-23T12:17:46Z</time>
      </trkpt>
      <trkpt lat="48.33435" lon="-3.37409">
        <ele>252</ele>
        <time>2014-06-23T12:17:47Z</time>
      </trkpt>
      <trkpt lat="48.33436" lon="-3.37411">
        <ele>252</ele>
        <time>2014-06-23T12:17:49Z</time>
      </trkpt>
      <trkpt lat="48.33438" lon="-3.37413">
        <ele>252</ele>
        <time>2014-06-23T12:17:52Z</time>
      </trkpt>
      <trkpt lat="48.33439" lon="-3.37415">
        <ele>253</ele>
        <time>2014-06-23T12:17:53Z</time>
      </trkpt>
      <trkpt lat="48.33441" lon="-3.37417">
        <ele>253</ele>
        <time>2014-06-23T12:17:55Z</time>
      </trkpt>
      <trkpt lat="48.33442" lon="-3.3742">
        <ele>253</ele>
        <time>2014-06-23T12:17:58Z</time>
      </trkpt>
      <trkpt lat="48.33443" lon="-3.37423">
        <ele>253</ele>
        <time>2014-06-23T12:17:59Z</time>
      </trkpt>
      <trkpt lat="48.33443" lon="-3.37425">
        <ele>253</ele>
        <time>2014-06-23T12:18:01Z</time>
      </trkpt>
      <trkpt lat="48.33443" lon="-3.37428">
        <ele>253</ele>
        <time>2014-06-23T12:18:04Z</time>
      </trkpt>
      <trkpt lat="48.33443" lon="-3.37432">
        <ele>253</ele>
        <time>2014-06-23T12:18:05Z</time>
      </trkpt>
      <trkpt lat="48.33443" lon="-3.37434">
        <ele>253</ele>
        <time>2014-06-23T12:18:07Z</time>
      </trkpt>
      <trkpt lat="48.33443" lon="-3.37436">
        <ele>253</ele>
        <time>2014-06-23T12:18:09Z</time>
      </trkpt>
      <trkpt lat="48.33443" lon="-3.37438">
        <ele>253</ele>
        <time>2014-06-23T12:18:09Z</time>
      </trkpt>
      <trkpt lat="48.33443" lon="-3.37439">
        <ele>253</ele>
        <time>2014-06-23T12:18:10Z</time>
      </trkpt>
      <trkpt lat="48.33443" lon="-3.37441">
        <ele>253</ele>
        <time>2014-06-23T12:18:11Z</time>
      </trkpt>
      <trkpt lat="48.33443" lon="-3.37444">
        <ele>253</ele>
        <time>2014-06-23T12:18:14Z</time>
      </trkpt>
      <trkpt lat="48.33444" lon="-3.37446">
        <ele>253</ele>
        <time>2014-06-23T12:18:14Z</time>
      </trkpt>
      <trkpt lat="48.33444" lon="-3.37448">
        <ele>253</ele>
        <time>2014-06-23T12:18:15Z</time>
      </trkpt>
      <trkpt lat="48.33445" lon="-3.37451">
        <ele>253</ele>
        <time>2014-06-23T12:18:17Z</time>
      </trkpt>
      <trkpt lat="48.33446" lon="-3.37454">
        <ele>253</ele>
        <time>2014-06-23T12:18:20Z</time>
      </trkpt>
      <trkpt lat="48.33448" lon="-3.37457">
        <ele>253</ele>
        <time>2014-06-23T12:18:21Z</time>
      </trkpt>
      <trkpt lat="48.33449" lon="-3.37459">
        <ele>253</ele>
        <time>2014-06-23T12:18:23Z</time>
      </trkpt>
      <trkpt lat="48.3345" lon="-3.37462">
        <ele>253</ele>
        <time>2014-06-23T12:18:26Z</time>
      </trkpt>
      <trkpt lat="48.33452" lon="-3.37465">
        <ele>253</ele>
        <time>2014-06-23T12:18:27Z</time>
      </trkpt>
      <trkpt lat="48.33453" lon="-3.37467">
        <ele>253</ele>
        <time>2014-06-23T12:18:29Z</time>
      </trkpt>
      <trkpt lat="48.33454" lon="-3.37469">
        <ele>253</ele>
        <time>2014-06-23T12:18:32Z</time>
      </trkpt>
      <trkpt lat="48.33455" lon="-3.37472">
        <ele>253</ele>
        <time>2014-06-23T12:18:33Z</time>
      </trkpt>
      <trkpt lat="48.33456" lon="-3.37475">
        <ele>253</ele>
        <time>2014-06-23T12:18:35Z</time>
      </trkpt>
      <trkpt lat="48.33457" lon="-3.37478">
        <ele>253</ele>
        <time>2014-06-23T12:18:38Z</time>
      </trkpt>
      <trkpt lat="48.33457" lon="-3.37481">
        <ele>253</ele>
        <time>2014-06-23T12:18:39Z</time>
      </trkpt>
      <trkpt lat="48.33457" lon="-3.37484">
        <ele>253</ele>
        <time>2014-06-23T12:18:41Z</time>
      </trkpt>
      <trkpt lat="48.33458" lon="-3.37487">
        <ele>253</ele>
        <time>2014-06-23T12:18:44Z</time>
      </trkpt>
      <trkpt lat="48.33458" lon="-3.37489">
        <ele>253</ele>
        <time>2014-06-23T12:18:44Z</time>
      </trkpt>
      <trkpt lat="48.33458" lon="-3.3749">
        <ele>253</ele>
        <time>2014-06-23T12:18:45Z</time>
      </trkpt>
      <trkpt lat="48.33457" lon="-3.37492">
        <ele>253</ele>
        <time>2014-06-23T12:18:47Z</time>
      </trkpt>
      <trkpt lat="48.33457" lon="-3.37495">
        <ele>253</ele>
        <time>2014-06-23T12:18:50Z</time>
      </trkpt>
      <trkpt lat="48.33456" lon="-3.37498">
        <ele>253</ele>
        <time>2014-06-23T12:18:51Z</time>
      </trkpt>
      <trkpt lat="48.33456" lon="-3.37501">
        <ele>253</ele>
        <time>2014-06-23T12:18:53Z</time>
      </trkpt>
      <trkpt lat="48.33456" lon="-3.37503">
        <ele>253</ele>
        <time>2014-06-23T12:18:55Z</time>
      </trkpt>
      <trkpt lat="48.33455" lon="-3.37506">
        <ele>253</ele>
        <time>2014-06-23T12:18:56Z</time>
      </trkpt>
      <trkpt lat="48.33456" lon="-3.37508">
        <ele>253</ele>
        <time>2014-06-23T12:18:57Z</time>
      </trkpt>
      <trkpt lat="48.33456" lon="-3.37509">
        <ele>253</ele>
        <time>2014-06-23T12:18:58Z</time>
      </trkpt>
      <trkpt lat="48.33455" lon="-3.37511">
        <ele>253</ele>
        <time>2014-06-23T12:19:00Z</time>
      </trkpt>
      <trkpt lat="48.33455" lon="-3.37514">
        <ele>253</ele>
        <time>2014-06-23T12:19:01Z</time>
      </trkpt>
      <trkpt lat="48.33455" lon="-3.37517">
        <ele>253</ele>
        <time>2014-06-23T12:19:03Z</time>
      </trkpt>
      <trkpt lat="48.33455" lon="-3.37519">
        <ele>253</ele>
        <time>2014-06-23T12:19:05Z</time>
      </trkpt>
      <trkpt lat="48.33455" lon="-3.37522">
        <ele>253</ele>
        <time>2014-06-23T12:19:06Z</time>
      </trkpt>
      <trkpt lat="48.33454" lon="-3.37524">
        <ele>252</ele>
        <time>2014-06-23T12:19:07Z</time>
      </trkpt>
      <trkpt lat="48.33454" lon="-3.37525">
        <ele>252</ele>
        <time>2014-06-23T12:19:08Z</time>
      </trkpt>
      <trkpt lat="48.33454" lon="-3.37529">
        <ele>251</ele>
        <time>2014-06-23T12:19:11Z</time>
      </trkpt>
      <trkpt lat="48.33454" lon="-3.37531">
        <ele>250</ele>
        <time>2014-06-23T12:19:12Z</time>
      </trkpt>
      <trkpt lat="48.33454" lon="-3.37533">
        <ele>250</ele>
        <time>2014-06-23T12:19:13Z</time>
      </trkpt>
      <trkpt lat="48.33454" lon="-3.37535">
        <ele>250</ele>
        <time>2014-06-23T12:19:16Z</time>
      </trkpt>
      <trkpt lat="48.33454" lon="-3.37537">
        <ele>250</ele>
        <time>2014-06-23T12:19:19Z</time>
      </trkpt>
      <trkpt lat="48.33456" lon="-3.37536">
        <ele>250</ele>
        <time>2014-06-23T12:19:25Z</time>
      </trkpt>
      <trkpt lat="48.33457" lon="-3.37537">
        <ele>251</ele>
        <time>2014-06-23T12:19:31Z</time>
      </trkpt>
      <trkpt lat="48.33457" lon="-3.37539">
        <ele>252</ele>
        <time>2014-06-23T12:19:32Z</time>
      </trkpt>
      <trkpt lat="48.33455" lon="-3.3754">
        <ele>255</ele>
        <time>2014-06-23T12:19:43Z</time>
      </trkpt>
      <trkpt lat="48.33454" lon="-3.37542">
        <ele>255</ele>
        <time>2014-06-23T12:19:45Z</time>
      </trkpt>
      <trkpt lat="48.33453" lon="-3.37544">
        <ele>255</ele>
        <time>2014-06-23T12:19:48Z</time>
      </trkpt>
      <trkpt lat="48.33452" lon="-3.37546">
        <ele>255</ele>
        <time>2014-06-23T12:19:49Z</time>
      </trkpt>
      <trkpt lat="48.33451" lon="-3.37548">
        <ele>255</ele>
        <time>2014-06-23T12:19:51Z</time>
      </trkpt>
      <trkpt lat="48.3345" lon="-3.3755">
        <ele>255</ele>
        <time>2014-06-23T12:19:54Z</time>
      </trkpt>
      <trkpt lat="48.33449" lon="-3.37552">
        <ele>255</ele>
        <time>2014-06-23T12:19:55Z</time>
      </trkpt>
      <trkpt lat="48.33448" lon="-3.37553">
        <ele>255</ele>
        <time>2014-06-23T12:19:59Z</time>
      </trkpt>
      <trkpt lat="48.33447" lon="-3.37555">
        <ele>255</ele>
        <time>2014-06-23T12:20:01Z</time>
      </trkpt>
      <trkpt lat="48.33445" lon="-3.37556">
        <ele>255</ele>
        <time>2014-06-23T12:20:03Z</time>
      </trkpt>
      <trkpt lat="48.33444" lon="-3.37557">
        <ele>255</ele>
        <time>2014-06-23T12:20:05Z</time>
      </trkpt>
      <trkpt lat="48.33442" lon="-3.37557">
        <ele>255</ele>
        <time>2014-06-23T12:20:07Z</time>
      </trkpt>
      <trkpt lat="48.33442" lon="-3.37559">
        <ele>255</ele>
        <time>2014-06-23T12:20:11Z</time>
      </trkpt>
      <trkpt lat="48.3344" lon="-3.37559">
        <ele>255</ele>
        <time>2014-06-23T12:20:16Z</time>
      </trkpt>
      <trkpt lat="48.33439" lon="-3.37559">
        <ele>255</ele>
        <time>2014-06-23T12:20:17Z</time>
      </trkpt>
      <trkpt lat="48.33437" lon="-3.3756">
        <ele>255</ele>
        <time>2014-06-23T12:20:19Z</time>
      </trkpt>
      <trkpt lat="48.33436" lon="-3.37561">
        <ele>255</ele>
        <time>2014-06-23T12:20:20Z</time>
      </trkpt>
      <trkpt lat="48.33435" lon="-3.37561">
        <ele>255</ele>
        <time>2014-06-23T12:20:22Z</time>
      </trkpt>
      <trkpt lat="48.33434" lon="-3.37561">
        <ele>255</ele>
        <time>2014-06-23T12:20:22Z</time>
      </trkpt>
      <trkpt lat="48.33431" lon="-3.37561">
        <ele>255</ele>
        <time>2014-06-23T12:20:24Z</time>
      </trkpt>
      <trkpt lat="48.33429" lon="-3.3756">
        <ele>255</ele>
        <time>2014-06-23T12:20:25Z</time>
      </trkpt>
      <trkpt lat="48.33427" lon="-3.37561">
        <ele>255</ele>
        <time>2014-06-23T12:20:27Z</time>
      </trkpt>
      <trkpt lat="48.33426" lon="-3.37562">
        <ele>255</ele>
        <time>2014-06-23T12:20:29Z</time>
      </trkpt>
      <trkpt lat="48.33424" lon="-3.37564">
        <ele>255</ele>
        <time>2014-06-23T12:20:31Z</time>
      </trkpt>
      <trkpt lat="48.33422" lon="-3.37566">
        <ele>255</ele>
        <time>2014-06-23T12:20:34Z</time>
      </trkpt>
      <trkpt lat="48.33422" lon="-3.37568">
        <ele>255</ele>
        <time>2014-06-23T12:20:34Z</time>
      </trkpt>
      <trkpt lat="48.33421" lon="-3.37569">
        <ele>255</ele>
        <time>2014-06-23T12:20:35Z</time>
      </trkpt>
      <trkpt lat="48.3342" lon="-3.37572">
        <ele>255</ele>
        <time>2014-06-23T12:20:37Z</time>
      </trkpt>
      <trkpt lat="48.33419" lon="-3.37575">
        <ele>254</ele>
        <time>2014-06-23T12:20:39Z</time>
      </trkpt>
      <trkpt lat="48.33418" lon="-3.37577">
        <ele>254</ele>
        <time>2014-06-23T12:20:41Z</time>
      </trkpt>
      <trkpt lat="48.33418" lon="-3.37579">
        <ele>254</ele>
        <time>2014-06-23T12:20:42Z</time>
      </trkpt>
      <trkpt lat="48.33417" lon="-3.37581">
        <ele>254</ele>
        <time>2014-06-23T12:20:44Z</time>
      </trkpt>
      <trkpt lat="48.33416" lon="-3.37584">
        <ele>254</ele>
        <time>2014-06-23T12:20:46Z</time>
      </trkpt>
      <trkpt lat="48.33415" lon="-3.37586">
        <ele>254</ele>
        <time>2014-06-23T12:20:48Z</time>
      </trkpt>
      <trkpt lat="48.33415" lon="-3.37588">
        <ele>254</ele>
        <time>2014-06-23T12:20:50Z</time>
      </trkpt>
      <trkpt lat="48.33414" lon="-3.3759">
        <ele>254</ele>
        <time>2014-06-23T12:20:50Z</time>
      </trkpt>
      <trkpt lat="48.33413" lon="-3.37593">
        <ele>254</ele>
        <time>2014-06-23T12:20:52Z</time>
      </trkpt>
      <trkpt lat="48.33412" lon="-3.37595">
        <ele>254</ele>
        <time>2014-06-23T12:20:55Z</time>
      </trkpt>
      <trkpt lat="48.33411" lon="-3.37598">
        <ele>254</ele>
        <time>2014-06-23T12:20:56Z</time>
      </trkpt>
      <trkpt lat="48.3341" lon="-3.37599">
        <ele>254</ele>
        <time>2014-06-23T12:20:57Z</time>
      </trkpt>
      <trkpt lat="48.3341" lon="-3.37602">
        <ele>254</ele>
        <time>2014-06-23T12:21:00Z</time>
      </trkpt>
      <trkpt lat="48.33409" lon="-3.37605">
        <ele>254</ele>
        <time>2014-06-23T12:21:01Z</time>
      </trkpt>
      <trkpt lat="48.33408" lon="-3.37607">
        <ele>254</ele>
        <time>2014-06-23T12:21:03Z</time>
      </trkpt>
      <trkpt lat="48.33407" lon="-3.3761">
        <ele>254</ele>
        <time>2014-06-23T12:21:06Z</time>
      </trkpt>
      <trkpt lat="48.33406" lon="-3.37612">
        <ele>254</ele>
        <time>2014-06-23T12:21:07Z</time>
      </trkpt>
      <trkpt lat="48.33405" lon="-3.37614">
        <ele>254</ele>
        <time>2014-06-23T12:21:09Z</time>
      </trkpt>
      <trkpt lat="48.33403" lon="-3.37616">
        <ele>254</ele>
        <time>2014-06-23T12:21:11Z</time>
      </trkpt>
      <trkpt lat="48.33401" lon="-3.37618">
        <ele>254</ele>
        <time>2014-06-23T12:21:13Z</time>
      </trkpt>
      <trkpt lat="48.334" lon="-3.3762">
        <ele>254</ele>
        <time>2014-06-23T12:21:15Z</time>
      </trkpt>
      <trkpt lat="48.33399" lon="-3.37623">
        <ele>254</ele>
        <time>2014-06-23T12:21:18Z</time>
      </trkpt>
      <trkpt lat="48.33397" lon="-3.37625">
        <ele>254</ele>
        <time>2014-06-23T12:21:19Z</time>
      </trkpt>
      <trkpt lat="48.33396" lon="-3.37627">
        <ele>254</ele>
        <time>2014-06-23T12:21:21Z</time>
      </trkpt>
      <trkpt lat="48.33395" lon="-3.37629">
        <ele>254</ele>
        <time>2014-06-23T12:21:23Z</time>
      </trkpt>
      <trkpt lat="48.33394" lon="-3.37632">
        <ele>254</ele>
        <time>2014-06-23T12:21:25Z</time>
      </trkpt>
      <trkpt lat="48.33393" lon="-3.37635">
        <ele>254</ele>
        <time>2014-06-23T12:21:27Z</time>
      </trkpt>
      <trkpt lat="48.33392" lon="-3.37638">
        <ele>254</ele>
        <time>2014-06-23T12:21:30Z</time>
      </trkpt>
      <trkpt lat="48.33392" lon="-3.3764">
        <ele>254</ele>
        <time>2014-06-23T12:21:31Z</time>
      </trkpt>
      <trkpt lat="48.33391" lon="-3.37643">
        <ele>254</ele>
        <time>2014-06-23T12:21:33Z</time>
      </trkpt>
      <trkpt lat="48.33391" lon="-3.37645">
        <ele>254</ele>
        <time>2014-06-23T12:21:35Z</time>
      </trkpt>
      <trkpt lat="48.33391" lon="-3.37647">
        <ele>254</ele>
        <time>2014-06-23T12:21:37Z</time>
      </trkpt>
      <trkpt lat="48.33389" lon="-3.37649">
        <ele>254</ele>
        <time>2014-06-23T12:21:39Z</time>
      </trkpt>
      <trkpt lat="48.33388" lon="-3.37651">
        <ele>254</ele>
        <time>2014-06-23T12:21:42Z</time>
      </trkpt>
      <trkpt lat="48.33387" lon="-3.37653">
        <ele>254</ele>
        <time>2014-06-23T12:21:43Z</time>
      </trkpt>
      <trkpt lat="48.33385" lon="-3.37655">
        <ele>254</ele>
        <time>2014-06-23T12:21:45Z</time>
      </trkpt>
      <trkpt lat="48.33384" lon="-3.37656">
        <ele>254</ele>
        <time>2014-06-23T12:21:47Z</time>
      </trkpt>
      <trkpt lat="48.33382" lon="-3.37658">
        <ele>254</ele>
        <time>2014-06-23T12:21:49Z</time>
      </trkpt>
      <trkpt lat="48.3338" lon="-3.3766">
        <ele>254</ele>
        <time>2014-06-23T12:21:51Z</time>
      </trkpt>
      <trkpt lat="48.33379" lon="-3.37662">
        <ele>254</ele>
        <time>2014-06-23T12:21:54Z</time>
      </trkpt>
      <trkpt lat="48.33377" lon="-3.37664">
        <ele>254</ele>
        <time>2014-06-23T12:21:55Z</time>
      </trkpt>
      <trkpt lat="48.33376" lon="-3.37666">
        <ele>254</ele>
        <time>2014-06-23T12:21:57Z</time>
      </trkpt>
      <trkpt lat="48.33374" lon="-3.37667">
        <ele>254</ele>
        <time>2014-06-23T12:21:59Z</time>
      </trkpt>
      <trkpt lat="48.33372" lon="-3.37669">
        <ele>254</ele>
        <time>2014-06-23T12:22:01Z</time>
      </trkpt>
      <trkpt lat="48.33371" lon="-3.37671">
        <ele>254</ele>
        <time>2014-06-23T12:22:03Z</time>
      </trkpt>
      <trkpt lat="48.33369" lon="-3.37672">
        <ele>254</ele>
        <time>2014-06-23T12:22:05Z</time>
      </trkpt>
      <trkpt lat="48.33367" lon="-3.37674">
        <ele>254</ele>
        <time>2014-06-23T12:22:07Z</time>
      </trkpt>
      <trkpt lat="48.33366" lon="-3.37677">
        <ele>254</ele>
        <time>2014-06-23T12:22:09Z</time>
      </trkpt>
      <trkpt lat="48.33364" lon="-3.37678">
        <ele>254</ele>
        <time>2014-06-23T12:22:11Z</time>
      </trkpt>
      <trkpt lat="48.33363" lon="-3.3768">
        <ele>254</ele>
        <time>2014-06-23T12:22:13Z</time>
      </trkpt>
      <trkpt lat="48.33361" lon="-3.37682">
        <ele>254</ele>
        <time>2014-06-23T12:22:15Z</time>
      </trkpt>
      <trkpt lat="48.3336" lon="-3.37684">
        <ele>254</ele>
        <time>2014-06-23T12:22:17Z</time>
      </trkpt>
      <trkpt lat="48.33358" lon="-3.37686">
        <ele>254</ele>
        <time>2014-06-23T12:22:19Z</time>
      </trkpt>
      <trkpt lat="48.33357" lon="-3.37688">
        <ele>254</ele>
        <time>2014-06-23T12:22:21Z</time>
      </trkpt>
      <trkpt lat="48.33355" lon="-3.37689">
        <ele>254</ele>
        <time>2014-06-23T12:22:23Z</time>
      </trkpt>
      <trkpt lat="48.33354" lon="-3.37692">
        <ele>254</ele>
        <time>2014-06-23T12:22:25Z</time>
      </trkpt>
      <trkpt lat="48.33352" lon="-3.37694">
        <ele>254</ele>
        <time>2014-06-23T12:22:27Z</time>
      </trkpt>
      <trkpt lat="48.33351" lon="-3.37696">
        <ele>254</ele>
        <time>2014-06-23T12:22:29Z</time>
      </trkpt>
      <trkpt lat="48.33349" lon="-3.37698">
        <ele>254</ele>
        <time>2014-06-23T12:22:31Z</time>
      </trkpt>
      <trkpt lat="48.33348" lon="-3.377">
        <ele>254</ele>
        <time>2014-06-23T12:22:33Z</time>
      </trkpt>
      <trkpt lat="48.33346" lon="-3.37701">
        <ele>254</ele>
        <time>2014-06-23T12:22:35Z</time>
      </trkpt>
      <trkpt lat="48.33345" lon="-3.37703">
        <ele>254</ele>
        <time>2014-06-23T12:22:37Z</time>
      </trkpt>
      <trkpt lat="48.33344" lon="-3.37704">
        <ele>254</ele>
        <time>2014-06-23T12:22:39Z</time>
      </trkpt>
      <trkpt lat="48.33342" lon="-3.37706">
        <ele>254</ele>
        <time>2014-06-23T12:22:41Z</time>
      </trkpt>
      <trkpt lat="48.33341" lon="-3.37708">
        <ele>254</ele>
        <time>2014-06-23T12:22:43Z</time>
      </trkpt>
      <trkpt lat="48.33339" lon="-3.37709">
        <ele>254</ele>
        <time>2014-06-23T12:22:45Z</time>
      </trkpt>
      <trkpt lat="48.33338" lon="-3.37711">
        <ele>254</ele>
        <time>2014-06-23T12:22:47Z</time>
      </trkpt>
      <trkpt lat="48.33337" lon="-3.37714">
        <ele>254</ele>
        <time>2014-06-23T12:22:49Z</time>
      </trkpt>
      <trkpt lat="48.33336" lon="-3.37716">
        <ele>254</ele>
        <time>2014-06-23T12:22:51Z</time>
      </trkpt>
      <trkpt lat="48.33335" lon="-3.37718">
        <ele>254</ele>
        <time>2014-06-23T12:22:53Z</time>
      </trkpt>
      <trkpt lat="48.33335" lon="-3.3772">
        <ele>254</ele>
        <time>2014-06-23T12:22:55Z</time>
      </trkpt>
      <trkpt lat="48.33334" lon="-3.37723">
        <ele>254</ele>
        <time>2014-06-23T12:22:57Z</time>
      </trkpt>
      <trkpt lat="48.33334" lon="-3.37725">
        <ele>254</ele>
        <time>2014-06-23T12:22:59Z</time>
      </trkpt>
      <trkpt lat="48.33334" lon="-3.37728">
        <ele>254</ele>
        <time>2014-06-23T12:23:01Z</time>
      </trkpt>
      <trkpt lat="48.33334" lon="-3.3773">
        <ele>254</ele>
        <time>2014-06-23T12:23:03Z</time>
      </trkpt>
      <trkpt lat="48.33335" lon="-3.37733">
        <ele>254</ele>
        <time>2014-06-23T12:23:06Z</time>
      </trkpt>
      <trkpt lat="48.33336" lon="-3.37735">
        <ele>254</ele>
        <time>2014-06-23T12:23:07Z</time>
      </trkpt>
      <trkpt lat="48.33336" lon="-3.37737">
        <ele>254</ele>
        <time>2014-06-23T12:23:09Z</time>
      </trkpt>
      <trkpt lat="48.33335" lon="-3.37739">
        <ele>254</ele>
        <time>2014-06-23T12:23:11Z</time>
      </trkpt>
      <trkpt lat="48.33335" lon="-3.37742">
        <ele>254</ele>
        <time>2014-06-23T12:23:13Z</time>
      </trkpt>
      <trkpt lat="48.33334" lon="-3.37744">
        <ele>254</ele>
        <time>2014-06-23T12:23:15Z</time>
      </trkpt>
      <trkpt lat="48.33334" lon="-3.37748">
        <ele>254</ele>
        <time>2014-06-23T12:23:17Z</time>
      </trkpt>
      <trkpt lat="48.33334" lon="-3.37749">
        <ele>254</ele>
        <time>2014-06-23T12:23:18Z</time>
      </trkpt>
      <trkpt lat="48.33335" lon="-3.37752">
        <ele>255</ele>
        <time>2014-06-23T12:23:20Z</time>
      </trkpt>
      <trkpt lat="48.33335" lon="-3.37754">
        <ele>255</ele>
        <time>2014-06-23T12:23:22Z</time>
      </trkpt>
      <trkpt lat="48.33335" lon="-3.37756">
        <ele>256</ele>
        <time>2014-06-23T12:23:28Z</time>
      </trkpt>
      <trkpt lat="48.33336" lon="-3.37757">
        <ele>256</ele>
        <time>2014-06-23T12:23:32Z</time>
      </trkpt>
      <trkpt lat="48.33337" lon="-3.37759">
        <ele>256</ele>
        <time>2014-06-23T12:23:43Z</time>
      </trkpt>
      <trkpt lat="48.33337" lon="-3.37761">
        <ele>256</ele>
        <time>2014-06-23T12:23:44Z</time>
      </trkpt>
      <trkpt lat="48.33338" lon="-3.37763">
        <ele>257</ele>
        <time>2014-06-23T12:23:46Z</time>
      </trkpt>
      <trkpt lat="48.3334" lon="-3.37765">
        <ele>257</ele>
        <time>2014-06-23T12:23:48Z</time>
      </trkpt>
      <trkpt lat="48.33341" lon="-3.37767">
        <ele>257</ele>
        <time>2014-06-23T12:23:50Z</time>
      </trkpt>
      <trkpt lat="48.33343" lon="-3.37768">
        <ele>257</ele>
        <time>2014-06-23T12:23:52Z</time>
      </trkpt>
      <trkpt lat="48.33345" lon="-3.37769">
        <ele>257</ele>
        <time>2014-06-23T12:23:55Z</time>
      </trkpt>
      <trkpt lat="48.33346" lon="-3.3777">
        <ele>257</ele>
        <time>2014-06-23T12:23:56Z</time>
      </trkpt>
      <trkpt lat="48.33348" lon="-3.37771">
        <ele>257</ele>
        <time>2014-06-23T12:23:58Z</time>
      </trkpt>
      <trkpt lat="48.3335" lon="-3.37773">
        <ele>257</ele>
        <time>2014-06-23T12:24:01Z</time>
      </trkpt>
      <trkpt lat="48.33351" lon="-3.37774">
        <ele>257</ele>
        <time>2014-06-23T12:24:02Z</time>
      </trkpt>
      <trkpt lat="48.33353" lon="-3.37775">
        <ele>257</ele>
        <time>2014-06-23T12:24:04Z</time>
      </trkpt>
      <trkpt lat="48.33355" lon="-3.37777">
        <ele>257</ele>
        <time>2014-06-23T12:24:06Z</time>
      </trkpt>
      <trkpt lat="48.33356" lon="-3.37779">
        <ele>257</ele>
        <time>2014-06-23T12:24:08Z</time>
      </trkpt>
      <trkpt lat="48.33358" lon="-3.37781">
        <ele>257</ele>
        <time>2014-06-23T12:24:10Z</time>
      </trkpt>
      <trkpt lat="48.3336" lon="-3.37783">
        <ele>257</ele>
        <time>2014-06-23T12:24:13Z</time>
      </trkpt>
      <trkpt lat="48.33362" lon="-3.37786">
        <ele>257</ele>
        <time>2014-06-23T12:24:14Z</time>
      </trkpt>
      <trkpt lat="48.33363" lon="-3.37788">
        <ele>257</ele>
        <time>2014-06-23T12:24:16Z</time>
      </trkpt>
      <trkpt lat="48.33364" lon="-3.37791">
        <ele>257</ele>
        <time>2014-06-23T12:24:18Z</time>
      </trkpt>
      <trkpt lat="48.33366" lon="-3.37793">
        <ele>257</ele>
        <time>2014-06-23T12:24:20Z</time>
      </trkpt>
      <trkpt lat="48.33366" lon="-3.37795">
        <ele>257</ele>
        <time>2014-06-23T12:24:22Z</time>
      </trkpt>
      <trkpt lat="48.33367" lon="-3.37798">
        <ele>257</ele>
        <time>2014-06-23T12:24:24Z</time>
      </trkpt>
      <trkpt lat="48.33368" lon="-3.378">
        <ele>257</ele>
        <time>2014-06-23T12:24:26Z</time>
      </trkpt>
      <trkpt lat="48.33368" lon="-3.37802">
        <ele>257</ele>
        <time>2014-06-23T12:24:28Z</time>
      </trkpt>
      <trkpt lat="48.33367" lon="-3.37804">
        <ele>257</ele>
        <time>2014-06-23T12:24:30Z</time>
      </trkpt>
      <trkpt lat="48.33368" lon="-3.37806">
        <ele>257</ele>
        <time>2014-06-23T12:24:32Z</time>
      </trkpt>
      <trkpt lat="48.33368" lon="-3.37808">
        <ele>257</ele>
        <time>2014-06-23T12:24:34Z</time>
      </trkpt>
      <trkpt lat="48.33368" lon="-3.3781">
        <ele>257</ele>
        <time>2014-06-23T12:24:36Z</time>
      </trkpt>
      <trkpt lat="48.33367" lon="-3.37813">
        <ele>257</ele>
        <time>2014-06-23T12:24:38Z</time>
      </trkpt>
      <trkpt lat="48.33368" lon="-3.37815">
        <ele>257</ele>
        <time>2014-06-23T12:24:40Z</time>
      </trkpt>
      <trkpt lat="48.33368" lon="-3.37818">
        <ele>257</ele>
        <time>2014-06-23T12:24:42Z</time>
      </trkpt>
      <trkpt lat="48.33368" lon="-3.3782">
        <ele>257</ele>
        <time>2014-06-23T12:24:44Z</time>
      </trkpt>
      <trkpt lat="48.33368" lon="-3.37823">
        <ele>257</ele>
        <time>2014-06-23T12:24:46Z</time>
      </trkpt>
      <trkpt lat="48.33368" lon="-3.37825">
        <ele>257</ele>
        <time>2014-06-23T12:24:48Z</time>
      </trkpt>
      <trkpt lat="48.33369" lon="-3.37828">
        <ele>257</ele>
        <time>2014-06-23T12:24:50Z</time>
      </trkpt>
      <trkpt lat="48.33369" lon="-3.37831">
        <ele>257</ele>
        <time>2014-06-23T12:24:52Z</time>
      </trkpt>
      <trkpt lat="48.33371" lon="-3.37834">
        <ele>257</ele>
        <time>2014-06-23T12:24:54Z</time>
      </trkpt>
      <trkpt lat="48.33372" lon="-3.37837">
        <ele>257</ele>
        <time>2014-06-23T12:24:56Z</time>
      </trkpt>
      <trkpt lat="48.33374" lon="-3.37838">
        <ele>256</ele>
        <time>2014-06-23T12:24:58Z</time>
      </trkpt>
      <trkpt lat="48.33376" lon="-3.3784">
        <ele>256</ele>
        <time>2014-06-23T12:25:00Z</time>
      </trkpt>
      <trkpt lat="48.33378" lon="-3.37842">
        <ele>255</ele>
        <time>2014-06-23T12:25:02Z</time>
      </trkpt>
      <trkpt lat="48.33379" lon="-3.37842">
        <ele>255</ele>
        <time>2014-06-23T12:25:04Z</time>
      </trkpt>
      <trkpt lat="48.33381" lon="-3.37843">
        <ele>255</ele>
        <time>2014-06-23T12:25:06Z</time>
      </trkpt>
      <trkpt lat="48.33382" lon="-3.37845">
        <ele>255</ele>
        <time>2014-06-23T12:25:08Z</time>
      </trkpt>
      <trkpt lat="48.33384" lon="-3.37846">
        <ele>254</ele>
        <time>2014-06-23T12:25:10Z</time>
      </trkpt>
      <trkpt lat="48.33385" lon="-3.37848">
        <ele>254</ele>
        <time>2014-06-23T12:25:12Z</time>
      </trkpt>
      <trkpt lat="48.33387" lon="-3.37849">
        <ele>253</ele>
        <time>2014-06-23T12:25:14Z</time>
      </trkpt>
      <trkpt lat="48.33389" lon="-3.3785">
        <ele>253</ele>
        <time>2014-06-23T12:25:16Z</time>
      </trkpt>
      <trkpt lat="48.33391" lon="-3.37851">
        <ele>253</ele>
        <time>2014-06-23T12:25:19Z</time>
      </trkpt>
      <trkpt lat="48.33392" lon="-3.37852">
        <ele>253</ele>
        <time>2014-06-23T12:25:21Z</time>
      </trkpt>
      <trkpt lat="48.33394" lon="-3.37852">
        <ele>253</ele>
        <time>2014-06-23T12:25:23Z</time>
      </trkpt>
      <trkpt lat="48.33395" lon="-3.37852">
        <ele>253</ele>
        <time>2014-06-23T12:25:24Z</time>
      </trkpt>
      <trkpt lat="48.33397" lon="-3.37853">
        <ele>253</ele>
        <time>2014-06-23T12:25:26Z</time>
      </trkpt>
      <trkpt lat="48.33399" lon="-3.37853">
        <ele>253</ele>
        <time>2014-06-23T12:25:28Z</time>
      </trkpt>
      <trkpt lat="48.334" lon="-3.37853">
        <ele>253</ele>
        <time>2014-06-23T12:25:29Z</time>
      </trkpt>
      <trkpt lat="48.33403" lon="-3.37853">
        <ele>253</ele>
        <time>2014-06-23T12:25:31Z</time>
      </trkpt>
      <trkpt lat="48.33405" lon="-3.37854">
        <ele>253</ele>
        <time>2014-06-23T12:25:33Z</time>
      </trkpt>
      <trkpt lat="48.33406" lon="-3.37854">
        <ele>253</ele>
        <time>2014-06-23T12:25:34Z</time>
      </trkpt>
      <trkpt lat="48.33407" lon="-3.37854">
        <ele>253</ele>
        <time>2014-06-23T12:25:35Z</time>
      </trkpt>
      <trkpt lat="48.33409" lon="-3.37855">
        <ele>253</ele>
        <time>2014-06-23T12:25:37Z</time>
      </trkpt>
      <trkpt lat="48.33411" lon="-3.37855">
        <ele>253</ele>
        <time>2014-06-23T12:25:39Z</time>
      </trkpt>
      <trkpt lat="48.33412" lon="-3.37856">
        <ele>253</ele>
        <time>2014-06-23T12:25:41Z</time>
      </trkpt>
      <trkpt lat="48.33414" lon="-3.37857">
        <ele>253</ele>
        <time>2014-06-23T12:25:43Z</time>
      </trkpt>
      <trkpt lat="48.33416" lon="-3.37857">
        <ele>253</ele>
        <time>2014-06-23T12:25:45Z</time>
      </trkpt>
      <trkpt lat="48.33418" lon="-3.37859">
        <ele>253</ele>
        <time>2014-06-23T12:25:47Z</time>
      </trkpt>
      <trkpt lat="48.33419" lon="-3.37861">
        <ele>253</ele>
        <time>2014-06-23T12:25:49Z</time>
      </trkpt>
      <trkpt lat="48.33421" lon="-3.37863">
        <ele>253</ele>
        <time>2014-06-23T12:25:51Z</time>
      </trkpt>
      <trkpt lat="48.33423" lon="-3.37865">
        <ele>253</ele>
        <time>2014-06-23T12:25:53Z</time>
      </trkpt>
      <trkpt lat="48.33424" lon="-3.37867">
        <ele>253</ele>
        <time>2014-06-23T12:25:55Z</time>
      </trkpt>
      <trkpt lat="48.33426" lon="-3.3787">
        <ele>253</ele>
        <time>2014-06-23T12:25:57Z</time>
      </trkpt>
      <trkpt lat="48.33427" lon="-3.37872">
        <ele>253</ele>
        <time>2014-06-23T12:25:59Z</time>
      </trkpt>
      <trkpt lat="48.33429" lon="-3.37874">
        <ele>252</ele>
        <time>2014-06-23T12:26:01Z</time>
      </trkpt>
      <trkpt lat="48.3343" lon="-3.37876">
        <ele>252</ele>
        <time>2014-06-23T12:26:03Z</time>
      </trkpt>
      <trkpt lat="48.33431" lon="-3.37878">
        <ele>251</ele>
        <time>2014-06-23T12:26:05Z</time>
      </trkpt>
      <trkpt lat="48.33432" lon="-3.37881">
        <ele>251</ele>
        <time>2014-06-23T12:26:07Z</time>
      </trkpt>
      <trkpt lat="48.33433" lon="-3.37884">
        <ele>251</ele>
        <time>2014-06-23T12:26:09Z</time>
      </trkpt>
      <trkpt lat="48.33435" lon="-3.37886">
        <ele>251</ele>
        <time>2014-06-23T12:26:11Z</time>
      </trkpt>
      <trkpt lat="48.33436" lon="-3.37889">
        <ele>251</ele>
        <time>2014-06-23T12:26:13Z</time>
      </trkpt>
      <trkpt lat="48.33438" lon="-3.37891">
        <ele>251</ele>
        <time>2014-06-23T12:26:15Z</time>
      </trkpt>
      <trkpt lat="48.33439" lon="-3.37893">
        <ele>251</ele>
        <time>2014-06-23T12:26:17Z</time>
      </trkpt>
      <trkpt lat="48.3344" lon="-3.37896">
        <ele>251</ele>
        <time>2014-06-23T12:26:19Z</time>
      </trkpt>
      <trkpt lat="48.33442" lon="-3.37898">
        <ele>251</ele>
        <time>2014-06-23T12:26:21Z</time>
      </trkpt>
      <trkpt lat="48.33443" lon="-3.37901">
        <ele>251</ele>
        <time>2014-06-23T12:26:23Z</time>
      </trkpt>
      <trkpt lat="48.33444" lon="-3.37903">
        <ele>251</ele>
        <time>2014-06-23T12:26:25Z</time>
      </trkpt>
      <trkpt lat="48.33446" lon="-3.37904">
        <ele>251</ele>
        <time>2014-06-23T12:26:27Z</time>
      </trkpt>
      <trkpt lat="48.33447" lon="-3.37907">
        <ele>251</ele>
        <time>2014-06-23T12:26:29Z</time>
      </trkpt>
      <trkpt lat="48.33449" lon="-3.37909">
        <ele>251</ele>
        <time>2014-06-23T12:26:31Z</time>
      </trkpt>
      <trkpt lat="48.3345" lon="-3.37912">
        <ele>251</ele>
        <time>2014-06-23T12:26:33Z</time>
      </trkpt>
      <trkpt lat="48.33451" lon="-3.37914">
        <ele>251</ele>
        <time>2014-06-23T12:26:35Z</time>
      </trkpt>
      <trkpt lat="48.33452" lon="-3.37916">
        <ele>251</ele>
        <time>2014-06-23T12:26:37Z</time>
      </trkpt>
      <trkpt lat="48.33453" lon="-3.37919">
        <ele>251</ele>
        <time>2014-06-23T12:26:39Z</time>
      </trkpt>
      <trkpt lat="48.33455" lon="-3.37921">
        <ele>251</ele>
        <time>2014-06-23T12:26:41Z</time>
      </trkpt>
      <trkpt lat="48.33456" lon="-3.37923">
        <ele>251</ele>
        <time>2014-06-23T12:26:43Z</time>
      </trkpt>
      <trkpt lat="48.33458" lon="-3.37925">
        <ele>251</ele>
        <time>2014-06-23T12:26:45Z</time>
      </trkpt>
      <trkpt lat="48.3346" lon="-3.37927">
        <ele>251</ele>
        <time>2014-06-23T12:26:47Z</time>
      </trkpt>
      <trkpt lat="48.33461" lon="-3.37928">
        <ele>251</ele>
        <time>2014-06-23T12:26:48Z</time>
      </trkpt>
      <trkpt lat="48.33462" lon="-3.37929">
        <ele>251</ele>
        <time>2014-06-23T12:26:49Z</time>
      </trkpt>
      <trkpt lat="48.33463" lon="-3.3793">
        <ele>251</ele>
        <time>2014-06-23T12:26:50Z</time>
      </trkpt>
      <trkpt lat="48.33465" lon="-3.37931">
        <ele>251</ele>
        <time>2014-06-23T12:26:52Z</time>
      </trkpt>
      <trkpt lat="48.33467" lon="-3.37932">
        <ele>251</ele>
        <time>2014-06-23T12:26:54Z</time>
      </trkpt>
      <trkpt lat="48.33469" lon="-3.37933">
        <ele>251</ele>
        <time>2014-06-23T12:26:56Z</time>
      </trkpt>
      <trkpt lat="48.33471" lon="-3.37934">
        <ele>251</ele>
        <time>2014-06-23T12:26:58Z</time>
      </trkpt>
      <trkpt lat="48.33472" lon="-3.37935">
        <ele>251</ele>
        <time>2014-06-23T12:27:00Z</time>
      </trkpt>
      <trkpt lat="48.33474" lon="-3.37935">
        <ele>251</ele>
        <time>2014-06-23T12:27:02Z</time>
      </trkpt>
      <trkpt lat="48.33476" lon="-3.37936">
        <ele>251</ele>
        <time>2014-06-23T12:27:04Z</time>
      </trkpt>
      <trkpt lat="48.33478" lon="-3.37937">
        <ele>251</ele>
        <time>2014-06-23T12:27:06Z</time>
      </trkpt>
      <trkpt lat="48.3348" lon="-3.37938">
        <ele>251</ele>
        <time>2014-06-23T12:27:08Z</time>
      </trkpt>
      <trkpt lat="48.33481" lon="-3.37939">
        <ele>251</ele>
        <time>2014-06-23T12:27:10Z</time>
      </trkpt>
      <trkpt lat="48.33483" lon="-3.3794">
        <ele>251</ele>
        <time>2014-06-23T12:27:12Z</time>
      </trkpt>
      <trkpt lat="48.33485" lon="-3.37941">
        <ele>251</ele>
        <time>2014-06-23T12:27:14Z</time>
      </trkpt>
      <trkpt lat="48.33486" lon="-3.37941">
        <ele>251</ele>
        <time>2014-06-23T12:27:16Z</time>
      </trkpt>
      <trkpt lat="48.33488" lon="-3.37942">
        <ele>251</ele>
        <time>2014-06-23T12:27:18Z</time>
      </trkpt>
      <trkpt lat="48.3349" lon="-3.37943">
        <ele>251</ele>
        <time>2014-06-23T12:27:20Z</time>
      </trkpt>
      <trkpt lat="48.33492" lon="-3.37945">
        <ele>251</ele>
        <time>2014-06-23T12:27:22Z</time>
      </trkpt>
      <trkpt lat="48.33493" lon="-3.37945">
        <ele>251</ele>
        <time>2014-06-23T12:27:24Z</time>
      </trkpt>
      <trkpt lat="48.33495" lon="-3.37946">
        <ele>251</ele>
        <time>2014-06-23T12:27:26Z</time>
      </trkpt>
      <trkpt lat="48.33497" lon="-3.37947">
        <ele>251</ele>
        <time>2014-06-23T12:27:28Z</time>
      </trkpt>
      <trkpt lat="48.33498" lon="-3.37947">
        <ele>251</ele>
        <time>2014-06-23T12:27:30Z</time>
      </trkpt>
      <trkpt lat="48.335" lon="-3.37947">
        <ele>251</ele>
        <time>2014-06-23T12:27:32Z</time>
      </trkpt>
      <trkpt lat="48.33501" lon="-3.37948">
        <ele>251</ele>
        <time>2014-06-23T12:27:34Z</time>
      </trkpt>
      <trkpt lat="48.33503" lon="-3.37949">
        <ele>251</ele>
        <time>2014-06-23T12:27:36Z</time>
      </trkpt>
      <trkpt lat="48.33505" lon="-3.3795">
        <ele>251</ele>
        <time>2014-06-23T12:27:38Z</time>
      </trkpt>
      <trkpt lat="48.33507" lon="-3.3795">
        <ele>251</ele>
        <time>2014-06-23T12:27:40Z</time>
      </trkpt>
      <trkpt lat="48.33509" lon="-3.37951">
        <ele>251</ele>
        <time>2014-06-23T12:27:42Z</time>
      </trkpt>
      <trkpt lat="48.33511" lon="-3.37952">
        <ele>251</ele>
        <time>2014-06-23T12:27:44Z</time>
      </trkpt>
      <trkpt lat="48.33512" lon="-3.37953">
        <ele>251</ele>
        <time>2014-06-23T12:27:46Z</time>
      </trkpt>
      <trkpt lat="48.33514" lon="-3.37952">
        <ele>251</ele>
        <time>2014-06-23T12:27:48Z</time>
      </trkpt>
      <trkpt lat="48.33516" lon="-3.37952">
        <ele>251</ele>
        <time>2014-06-23T12:27:49Z</time>
      </trkpt>
      <trkpt lat="48.33518" lon="-3.37952">
        <ele>251</ele>
        <time>2014-06-23T12:27:51Z</time>
      </trkpt>
      <trkpt lat="48.3352" lon="-3.37952">
        <ele>251</ele>
        <time>2014-06-23T12:27:53Z</time>
      </trkpt>
      <trkpt lat="48.33522" lon="-3.37952">
        <ele>251</ele>
        <time>2014-06-23T12:27:55Z</time>
      </trkpt>
      <trkpt lat="48.33523" lon="-3.37951">
        <ele>251</ele>
        <time>2014-06-23T12:27:57Z</time>
      </trkpt>
      <trkpt lat="48.33525" lon="-3.37951">
        <ele>251</ele>
        <time>2014-06-23T12:27:59Z</time>
      </trkpt>
      <trkpt lat="48.33526" lon="-3.37951">
        <ele>251</ele>
        <time>2014-06-23T12:28:01Z</time>
      </trkpt>
      <trkpt lat="48.33528" lon="-3.3795">
        <ele>251</ele>
        <time>2014-06-23T12:28:03Z</time>
      </trkpt>
      <trkpt lat="48.3353" lon="-3.3795">
        <ele>251</ele>
        <time>2014-06-23T12:28:05Z</time>
      </trkpt>
      <trkpt lat="48.33531" lon="-3.3795">
        <ele>251</ele>
        <time>2014-06-23T12:28:07Z</time>
      </trkpt>
      <trkpt lat="48.33532" lon="-3.37949">
        <ele>251</ele>
        <time>2014-06-23T12:28:09Z</time>
      </trkpt>
      <trkpt lat="48.33535" lon="-3.37949">
        <ele>251</ele>
        <time>2014-06-23T12:28:11Z</time>
      </trkpt>
      <trkpt lat="48.33536" lon="-3.37948">
        <ele>251</ele>
        <time>2014-06-23T12:28:13Z</time>
      </trkpt>
      <trkpt lat="48.33538" lon="-3.37947">
        <ele>251</ele>
        <time>2014-06-23T12:28:15Z</time>
      </trkpt>
      <trkpt lat="48.3354" lon="-3.37947">
        <ele>251</ele>
        <time>2014-06-23T12:28:17Z</time>
      </trkpt>
      <trkpt lat="48.33541" lon="-3.37948">
        <ele>251</ele>
        <time>2014-06-23T12:28:19Z</time>
      </trkpt>
      <trkpt lat="48.33543" lon="-3.37948">
        <ele>252</ele>
        <time>2014-06-23T12:28:21Z</time>
      </trkpt>
      <trkpt lat="48.33545" lon="-3.37949">
        <ele>252</ele>
        <time>2014-06-23T12:28:23Z</time>
      </trkpt>
      <trkpt lat="48.33546" lon="-3.37952">
        <ele>252</ele>
        <time>2014-06-23T12:28:25Z</time>
      </trkpt>
      <trkpt lat="48.33546" lon="-3.37954">
        <ele>252</ele>
        <time>2014-06-23T12:28:26Z</time>
      </trkpt>
      <trkpt lat="48.33546" lon="-3.37957">
        <ele>252</ele>
        <time>2014-06-23T12:28:28Z</time>
      </trkpt>
      <trkpt lat="48.33545" lon="-3.37959">
        <ele>252</ele>
        <time>2014-06-23T12:28:30Z</time>
      </trkpt>
      <trkpt lat="48.33545" lon="-3.37962">
        <ele>252</ele>
        <time>2014-06-23T12:28:32Z</time>
      </trkpt>
      <trkpt lat="48.33544" lon="-3.37965">
        <ele>252</ele>
        <time>2014-06-23T12:28:34Z</time>
      </trkpt>
      <trkpt lat="48.33543" lon="-3.37968">
        <ele>252</ele>
        <time>2014-06-23T12:28:36Z</time>
      </trkpt>
      <trkpt lat="48.33542" lon="-3.3797">
        <ele>252</ele>
        <time>2014-06-23T12:28:38Z</time>
      </trkpt>
      <trkpt lat="48.33542" lon="-3.37973">
        <ele>252</ele>
        <time>2014-06-23T12:28:40Z</time>
      </trkpt>
      <trkpt lat="48.33541" lon="-3.37976">
        <ele>252</ele>
        <time>2014-06-23T12:28:42Z</time>
      </trkpt>
      <trkpt lat="48.3354" lon="-3.37978">
        <ele>252</ele>
        <time>2014-06-23T12:28:44Z</time>
      </trkpt>
      <trkpt lat="48.33539" lon="-3.3798">
        <ele>252</ele>
        <time>2014-06-23T12:28:46Z</time>
      </trkpt>
      <trkpt lat="48.33538" lon="-3.37983">
        <ele>252</ele>
        <time>2014-06-23T12:28:48Z</time>
      </trkpt>
      <trkpt lat="48.33537" lon="-3.37985">
        <ele>252</ele>
        <time>2014-06-23T12:28:50Z</time>
      </trkpt>
      <trkpt lat="48.33536" lon="-3.37988">
        <ele>252</ele>
        <time>2014-06-23T12:28:52Z</time>
      </trkpt>
      <trkpt lat="48.33535" lon="-3.3799">
        <ele>252</ele>
        <time>2014-06-23T12:28:54Z</time>
      </trkpt>
      <trkpt lat="48.33534" lon="-3.37993">
        <ele>252</ele>
        <time>2014-06-23T12:28:56Z</time>
      </trkpt>
      <trkpt lat="48.33533" lon="-3.37996">
        <ele>252</ele>
        <time>2014-06-23T12:28:58Z</time>
      </trkpt>
      <trkpt lat="48.33532" lon="-3.37998">
        <ele>252</ele>
        <time>2014-06-23T12:29:00Z</time>
      </trkpt>
      <trkpt lat="48.33531" lon="-3.38">
        <ele>252</ele>
        <time>2014-06-23T12:29:02Z</time>
      </trkpt>
      <trkpt lat="48.3353" lon="-3.38003">
        <ele>252</ele>
        <time>2014-06-23T12:29:04Z</time>
      </trkpt>
      <trkpt lat="48.33529" lon="-3.38005">
        <ele>252</ele>
        <time>2014-06-23T12:29:06Z</time>
      </trkpt>
      <trkpt lat="48.33528" lon="-3.38008">
        <ele>252</ele>
        <time>2014-06-23T12:29:08Z</time>
      </trkpt>
      <trkpt lat="48.33527" lon="-3.3801">
        <ele>252</ele>
        <time>2014-06-23T12:29:10Z</time>
      </trkpt>
      <trkpt lat="48.33526" lon="-3.38012">
        <ele>252</ele>
        <time>2014-06-23T12:29:12Z</time>
      </trkpt>
      <trkpt lat="48.33525" lon="-3.38015">
        <ele>252</ele>
        <time>2014-06-23T12:29:14Z</time>
      </trkpt>
      <trkpt lat="48.33525" lon="-3.38017">
        <ele>252</ele>
        <time>2014-06-23T12:29:16Z</time>
      </trkpt>
      <trkpt lat="48.33524" lon="-3.38019">
        <ele>252</ele>
        <time>2014-06-23T12:29:18Z</time>
      </trkpt>
      <trkpt lat="48.33524" lon="-3.3802">
        <ele>251</ele>
        <time>2014-06-23T12:29:20Z</time>
      </trkpt>
      <trkpt lat="48.33523" lon="-3.38022">
        <ele>251</ele>
        <time>2014-06-23T12:29:22Z</time>
      </trkpt>
      <trkpt lat="48.33522" lon="-3.38024">
        <ele>251</ele>
        <time>2014-06-23T12:29:24Z</time>
      </trkpt>
      <trkpt lat="48.3352" lon="-3.38026">
        <ele>251</ele>
        <time>2014-06-23T12:29:26Z</time>
      </trkpt>
      <trkpt lat="48.33519" lon="-3.38028">
        <ele>250</ele>
        <time>2014-06-23T12:29:28Z</time>
      </trkpt>
      <trkpt lat="48.33518" lon="-3.3803">
        <ele>250</ele>
        <time>2014-06-23T12:29:30Z</time>
      </trkpt>
      <trkpt lat="48.33517" lon="-3.38032">
        <ele>250</ele>
        <time>2014-06-23T12:29:32Z</time>
      </trkpt>
      <trkpt lat="48.33516" lon="-3.38034">
        <ele>249</ele>
        <time>2014-06-23T12:29:34Z</time>
      </trkpt>
      <trkpt lat="48.33516" lon="-3.38036">
        <ele>249</ele>
        <time>2014-06-23T12:29:36Z</time>
      </trkpt>
      <trkpt lat="48.33515" lon="-3.38038">
        <ele>249</ele>
        <time>2014-06-23T12:29:39Z</time>
      </trkpt>
      <trkpt lat="48.33515" lon="-3.3804">
        <ele>248</ele>
        <time>2014-06-23T12:29:41Z</time>
      </trkpt>
      <trkpt lat="48.33515" lon="-3.38042">
        <ele>248</ele>
        <time>2014-06-23T12:29:43Z</time>
      </trkpt>
      <trkpt lat="48.33515" lon="-3.38045">
        <ele>248</ele>
        <time>2014-06-23T12:29:45Z</time>
      </trkpt>
      <trkpt lat="48.33514" lon="-3.38047">
        <ele>247</ele>
        <time>2014-06-23T12:29:47Z</time>
      </trkpt>
      <trkpt lat="48.33513" lon="-3.38048">
        <ele>247</ele>
        <time>2014-06-23T12:29:49Z</time>
      </trkpt>
      <trkpt lat="48.33512" lon="-3.3805">
        <ele>247</ele>
        <time>2014-06-23T12:29:51Z</time>
      </trkpt>
      <trkpt lat="48.3351" lon="-3.38051">
        <ele>246</ele>
        <time>2014-06-23T12:29:53Z</time>
      </trkpt>
      <trkpt lat="48.33509" lon="-3.38052">
        <ele>246</ele>
        <time>2014-06-23T12:29:55Z</time>
      </trkpt>
      <trkpt lat="48.33507" lon="-3.38054">
        <ele>246</ele>
        <time>2014-06-23T12:29:57Z</time>
      </trkpt>
      <trkpt lat="48.33506" lon="-3.38055">
        <ele>245</ele>
        <time>2014-06-23T12:29:59Z</time>
      </trkpt>
      <trkpt lat="48.33505" lon="-3.38057">
        <ele>245</ele>
        <time>2014-06-23T12:30:01Z</time>
      </trkpt>
      <trkpt lat="48.33504" lon="-3.3806">
        <ele>245</ele>
        <time>2014-06-23T12:30:03Z</time>
      </trkpt>
      <trkpt lat="48.33503" lon="-3.38063">
        <ele>244</ele>
        <time>2014-06-23T12:30:05Z</time>
      </trkpt>
      <trkpt lat="48.33504" lon="-3.38065">
        <ele>244</ele>
        <time>2014-06-23T12:30:07Z</time>
      </trkpt>
      <trkpt lat="48.33506" lon="-3.38068">
        <ele>244</ele>
        <time>2014-06-23T12:30:09Z</time>
      </trkpt>
      <trkpt lat="48.33507" lon="-3.38069">
        <ele>243</ele>
        <time>2014-06-23T12:30:11Z</time>
      </trkpt>
      <trkpt lat="48.33509" lon="-3.3807">
        <ele>242</ele>
        <time>2014-06-23T12:30:13Z</time>
      </trkpt>
      <trkpt lat="48.33511" lon="-3.38072">
        <ele>242</ele>
        <time>2014-06-23T12:30:15Z</time>
      </trkpt>
      <trkpt lat="48.33512" lon="-3.38073">
        <ele>241</ele>
        <time>2014-06-23T12:30:17Z</time>
      </trkpt>
      <trkpt lat="48.33514" lon="-3.38075">
        <ele>240</ele>
        <time>2014-06-23T12:30:19Z</time>
      </trkpt>
      <trkpt lat="48.33516" lon="-3.38077">
        <ele>240</ele>
        <time>2014-06-23T12:30:21Z</time>
      </trkpt>
      <trkpt lat="48.33517" lon="-3.38079">
        <ele>240</ele>
        <time>2014-06-23T12:30:23Z</time>
      </trkpt>
      <trkpt lat="48.33519" lon="-3.3808">
        <ele>240</ele>
        <time>2014-06-23T12:30:25Z</time>
      </trkpt>
      <trkpt lat="48.33521" lon="-3.38082">
        <ele>240</ele>
        <time>2014-06-23T12:30:27Z</time>
      </trkpt>
      <trkpt lat="48.33523" lon="-3.38083">
        <ele>240</ele>
        <time>2014-06-23T12:30:29Z</time>
      </trkpt>
      <trkpt lat="48.33525" lon="-3.38084">
        <ele>239</ele>
        <time>2014-06-23T12:30:31Z</time>
      </trkpt>
      <trkpt lat="48.33527" lon="-3.38086">
        <ele>239</ele>
        <time>2014-06-23T12:30:33Z</time>
      </trkpt>
      <trkpt lat="48.33528" lon="-3.38087">
        <ele>239</ele>
        <time>2014-06-23T12:30:35Z</time>
      </trkpt>
      <trkpt lat="48.3353" lon="-3.38089">
        <ele>239</ele>
        <time>2014-06-23T12:30:37Z</time>
      </trkpt>
      <trkpt lat="48.33531" lon="-3.38091">
        <ele>239</ele>
        <time>2014-06-23T12:30:39Z</time>
      </trkpt>
      <trkpt lat="48.33533" lon="-3.38094">
        <ele>239</ele>
        <time>2014-06-23T12:30:41Z</time>
      </trkpt>
      <trkpt lat="48.33535" lon="-3.38095">
        <ele>238</ele>
        <time>2014-06-23T12:30:43Z</time>
      </trkpt>
      <trkpt lat="48.33536" lon="-3.38097">
        <ele>238</ele>
        <time>2014-06-23T12:30:45Z</time>
      </trkpt>
      <trkpt lat="48.33538" lon="-3.38099">
        <ele>238</ele>
        <time>2014-06-23T12:30:47Z</time>
      </trkpt>
      <trkpt lat="48.33539" lon="-3.38101">
        <ele>238</ele>
        <time>2014-06-23T12:30:49Z</time>
      </trkpt>
      <trkpt lat="48.3354" lon="-3.38104">
        <ele>238</ele>
        <time>2014-06-23T12:30:51Z</time>
      </trkpt>
      <trkpt lat="48.33541" lon="-3.38106">
        <ele>238</ele>
        <time>2014-06-23T12:30:53Z</time>
      </trkpt>
      <trkpt lat="48.33542" lon="-3.38109">
        <ele>238</ele>
        <time>2014-06-23T12:30:55Z</time>
      </trkpt>
      <trkpt lat="48.33543" lon="-3.38111">
        <ele>238</ele>
        <time>2014-06-23T12:30:57Z</time>
      </trkpt>
      <trkpt lat="48.33543" lon="-3.38113">
        <ele>238</ele>
        <time>2014-06-23T12:30:59Z</time>
      </trkpt>
      <trkpt lat="48.33544" lon="-3.38116">
        <ele>238</ele>
        <time>2014-06-23T12:31:01Z</time>
      </trkpt>
      <trkpt lat="48.33544" lon="-3.38118">
        <ele>238</ele>
        <time>2014-06-23T12:31:03Z</time>
      </trkpt>
      <trkpt lat="48.33544" lon="-3.3812">
        <ele>238</ele>
        <time>2014-06-23T12:31:05Z</time>
      </trkpt>
      <trkpt lat="48.33544" lon="-3.38122">
        <ele>238</ele>
        <time>2014-06-23T12:31:08Z</time>
      </trkpt>
      <trkpt lat="48.33543" lon="-3.38125">
        <ele>238</ele>
        <time>2014-06-23T12:31:11Z</time>
      </trkpt>
      <trkpt lat="48.33542" lon="-3.38126">
        <ele>238</ele>
        <time>2014-06-23T12:31:13Z</time>
      </trkpt>
      <trkpt lat="48.33541" lon="-3.38128">
        <ele>238</ele>
        <time>2014-06-23T12:31:15Z</time>
      </trkpt>
      <trkpt lat="48.3354" lon="-3.3813">
        <ele>238</ele>
        <time>2014-06-23T12:31:17Z</time>
      </trkpt>
      <trkpt lat="48.3354" lon="-3.38133">
        <ele>238</ele>
        <time>2014-06-23T12:31:19Z</time>
      </trkpt>
      <trkpt lat="48.33539" lon="-3.38135">
        <ele>238</ele>
        <time>2014-06-23T12:31:21Z</time>
      </trkpt>
      <trkpt lat="48.33538" lon="-3.38138">
        <ele>238</ele>
        <time>2014-06-23T12:31:23Z</time>
      </trkpt>
      <trkpt lat="48.33538" lon="-3.3814">
        <ele>237</ele>
        <time>2014-06-23T12:31:25Z</time>
      </trkpt>
      <trkpt lat="48.33539" lon="-3.38143">
        <ele>237</ele>
        <time>2014-06-23T12:31:27Z</time>
      </trkpt>
      <trkpt lat="48.3354" lon="-3.38145">
        <ele>236</ele>
        <time>2014-06-23T12:31:29Z</time>
      </trkpt>
      <trkpt lat="48.33541" lon="-3.38147">
        <ele>235</ele>
        <time>2014-06-23T12:31:31Z</time>
      </trkpt>
      <trkpt lat="48.33541" lon="-3.38149">
        <ele>235</ele>
        <time>2014-06-23T12:31:32Z</time>
      </trkpt>
      <trkpt lat="48.33542" lon="-3.38152">
        <ele>235</ele>
        <time>2014-06-23T12:31:34Z</time>
      </trkpt>
      <trkpt lat="48.33542" lon="-3.38154">
        <ele>235</ele>
        <time>2014-06-23T12:31:36Z</time>
      </trkpt>
      <trkpt lat="48.33543" lon="-3.38156">
        <ele>234</ele>
        <time>2014-06-23T12:31:38Z</time>
      </trkpt>
      <trkpt lat="48.33544" lon="-3.38158">
        <ele>234</ele>
        <time>2014-06-23T12:31:40Z</time>
      </trkpt>
      <trkpt lat="48.33544" lon="-3.38161">
        <ele>234</ele>
        <time>2014-06-23T12:31:42Z</time>
      </trkpt>
      <trkpt lat="48.33545" lon="-3.38164">
        <ele>233</ele>
        <time>2014-06-23T12:31:44Z</time>
      </trkpt>
      <trkpt lat="48.33545" lon="-3.38166">
        <ele>233</ele>
        <time>2014-06-23T12:31:46Z</time>
      </trkpt>
      <trkpt lat="48.33545" lon="-3.38168">
        <ele>232</ele>
        <time>2014-06-23T12:31:48Z</time>
      </trkpt>
      <trkpt lat="48.33546" lon="-3.3817">
        <ele>232</ele>
        <time>2014-06-23T12:31:50Z</time>
      </trkpt>
      <trkpt lat="48.33546" lon="-3.38173">
        <ele>231</ele>
        <time>2014-06-23T12:31:52Z</time>
      </trkpt>
      <trkpt lat="48.33547" lon="-3.38175">
        <ele>230</ele>
        <time>2014-06-23T12:31:54Z</time>
      </trkpt>
      <trkpt lat="48.33547" lon="-3.38177">
        <ele>229</ele>
        <time>2014-06-23T12:31:56Z</time>
      </trkpt>
      <trkpt lat="48.33548" lon="-3.3818">
        <ele>229</ele>
        <time>2014-06-23T12:31:58Z</time>
      </trkpt>
      <trkpt lat="48.33548" lon="-3.38182">
        <ele>229</ele>
        <time>2014-06-23T12:31:59Z</time>
      </trkpt>
      <trkpt lat="48.33548" lon="-3.38185">
        <ele>228</ele>
        <time>2014-06-23T12:32:01Z</time>
      </trkpt>
      <trkpt lat="48.33547" lon="-3.38187">
        <ele>228</ele>
        <time>2014-06-23T12:32:02Z</time>
      </trkpt>
      <trkpt lat="48.33547" lon="-3.3819">
        <ele>228</ele>
        <time>2014-06-23T12:32:04Z</time>
      </trkpt>
      <trkpt lat="48.33546" lon="-3.38192">
        <ele>228</ele>
        <time>2014-06-23T12:32:06Z</time>
      </trkpt>
      <trkpt lat="48.33546" lon="-3.38195">
        <ele>228</ele>
        <time>2014-06-23T12:32:08Z</time>
      </trkpt>
      <trkpt lat="48.33546" lon="-3.38197">
        <ele>228</ele>
        <time>2014-06-23T12:32:09Z</time>
      </trkpt>
      <trkpt lat="48.33546" lon="-3.38199">
        <ele>228</ele>
        <time>2014-06-23T12:32:10Z</time>
      </trkpt>
      <trkpt lat="48.33546" lon="-3.38202">
        <ele>228</ele>
        <time>2014-06-23T12:32:12Z</time>
      </trkpt>
      <trkpt lat="48.33546" lon="-3.38204">
        <ele>228</ele>
        <time>2014-06-23T12:32:13Z</time>
      </trkpt>
      <trkpt lat="48.33546" lon="-3.38206">
        <ele>228</ele>
        <time>2014-06-23T12:32:15Z</time>
      </trkpt>
      <trkpt lat="48.33547" lon="-3.38209">
        <ele>228</ele>
        <time>2014-06-23T12:32:17Z</time>
      </trkpt>
      <trkpt lat="48.33548" lon="-3.38211">
        <ele>228</ele>
        <time>2014-06-23T12:32:19Z</time>
      </trkpt>
      <trkpt lat="48.3355" lon="-3.38214">
        <ele>228</ele>
        <time>2014-06-23T12:32:21Z</time>
      </trkpt>
      <trkpt lat="48.33551" lon="-3.38215">
        <ele>228</ele>
        <time>2014-06-23T12:32:23Z</time>
      </trkpt>
      <trkpt lat="48.33552" lon="-3.38217">
        <ele>227</ele>
        <time>2014-06-23T12:32:25Z</time>
      </trkpt>
      <trkpt lat="48.33554" lon="-3.38219">
        <ele>227</ele>
        <time>2014-06-23T12:32:27Z</time>
      </trkpt>
      <trkpt lat="48.33556" lon="-3.38221">
        <ele>226</ele>
        <time>2014-06-23T12:32:29Z</time>
      </trkpt>
      <trkpt lat="48.33557" lon="-3.38224">
        <ele>226</ele>
        <time>2014-06-23T12:32:31Z</time>
      </trkpt>
      <trkpt lat="48.33558" lon="-3.38226">
        <ele>225</ele>
        <time>2014-06-23T12:32:33Z</time>
      </trkpt>
      <trkpt lat="48.33559" lon="-3.38229">
        <ele>225</ele>
        <time>2014-06-23T12:32:35Z</time>
      </trkpt>
      <trkpt lat="48.33561" lon="-3.38231">
        <ele>225</ele>
        <time>2014-06-23T12:32:37Z</time>
      </trkpt>
      <trkpt lat="48.33561" lon="-3.38233">
        <ele>225</ele>
        <time>2014-06-23T12:32:41Z</time>
      </trkpt>
      <trkpt lat="48.33562" lon="-3.38235">
        <ele>224</ele>
        <time>2014-06-23T12:32:43Z</time>
      </trkpt>
      <trkpt lat="48.33563" lon="-3.38237">
        <ele>224</ele>
        <time>2014-06-23T12:32:45Z</time>
      </trkpt>
      <trkpt lat="48.33565" lon="-3.38239">
        <ele>224</ele>
        <time>2014-06-23T12:32:47Z</time>
      </trkpt>
      <trkpt lat="48.33566" lon="-3.38242">
        <ele>224</ele>
        <time>2014-06-23T12:32:49Z</time>
      </trkpt>
      <trkpt lat="48.33567" lon="-3.38244">
        <ele>223</ele>
        <time>2014-06-23T12:32:51Z</time>
      </trkpt>
      <trkpt lat="48.33568" lon="-3.38246">
        <ele>223</ele>
        <time>2014-06-23T12:32:53Z</time>
      </trkpt>
      <trkpt lat="48.33569" lon="-3.38249">
        <ele>223</ele>
        <time>2014-06-23T12:32:55Z</time>
      </trkpt>
      <trkpt lat="48.3357" lon="-3.38251">
        <ele>223</ele>
        <time>2014-06-23T12:32:57Z</time>
      </trkpt>
      <trkpt lat="48.33572" lon="-3.38254">
        <ele>223</ele>
        <time>2014-06-23T12:32:59Z</time>
      </trkpt>
      <trkpt lat="48.33572" lon="-3.38257">
        <ele>223</ele>
        <time>2014-06-23T12:33:01Z</time>
      </trkpt>
      <trkpt lat="48.33573" lon="-3.38259">
        <ele>223</ele>
        <time>2014-06-23T12:33:02Z</time>
      </trkpt>
      <trkpt lat="48.33574" lon="-3.38261">
        <ele>223</ele>
        <time>2014-06-23T12:33:04Z</time>
      </trkpt>
      <trkpt lat="48.33575" lon="-3.38264">
        <ele>223</ele>
        <time>2014-06-23T12:33:06Z</time>
      </trkpt>
      <trkpt lat="48.33577" lon="-3.38266">
        <ele>223</ele>
        <time>2014-06-23T12:33:08Z</time>
      </trkpt>
      <trkpt lat="48.33578" lon="-3.38268">
        <ele>223</ele>
        <time>2014-06-23T12:33:10Z</time>
      </trkpt>
      <trkpt lat="48.3358" lon="-3.38271">
        <ele>223</ele>
        <time>2014-06-23T12:33:12Z</time>
      </trkpt>
      <trkpt lat="48.3358" lon="-3.38273">
        <ele>223</ele>
        <time>2014-06-23T12:33:13Z</time>
      </trkpt>
      <trkpt lat="48.33582" lon="-3.38276">
        <ele>223</ele>
        <time>2014-06-23T12:33:15Z</time>
      </trkpt>
      <trkpt lat="48.33583" lon="-3.3828">
        <ele>223</ele>
        <time>2014-06-23T12:33:17Z</time>
      </trkpt>
      <trkpt lat="48.33584" lon="-3.38282">
        <ele>223</ele>
        <time>2014-06-23T12:33:19Z</time>
      </trkpt>
      <trkpt lat="48.33586" lon="-3.38284">
        <ele>223</ele>
        <time>2014-06-23T12:33:21Z</time>
      </trkpt>
      <trkpt lat="48.33587" lon="-3.38286">
        <ele>223</ele>
        <time>2014-06-23T12:33:23Z</time>
      </trkpt>
      <trkpt lat="48.33589" lon="-3.38289">
        <ele>223</ele>
        <time>2014-06-23T12:33:25Z</time>
      </trkpt>
      <trkpt lat="48.3359" lon="-3.38291">
        <ele>223</ele>
        <time>2014-06-23T12:33:27Z</time>
      </trkpt>
      <trkpt lat="48.33591" lon="-3.38294">
        <ele>223</ele>
        <time>2014-06-23T12:33:29Z</time>
      </trkpt>
      <trkpt lat="48.33593" lon="-3.38296">
        <ele>223</ele>
        <time>2014-06-23T12:33:31Z</time>
      </trkpt>
      <trkpt lat="48.33594" lon="-3.38298">
        <ele>223</ele>
        <time>2014-06-23T12:33:33Z</time>
      </trkpt>
      <trkpt lat="48.33596" lon="-3.383">
        <ele>223</ele>
        <time>2014-06-23T12:33:35Z</time>
      </trkpt>
      <trkpt lat="48.33597" lon="-3.38302">
        <ele>223</ele>
        <time>2014-06-23T12:33:37Z</time>
      </trkpt>
      <trkpt lat="48.33598" lon="-3.38305">
        <ele>223</ele>
        <time>2014-06-23T12:33:39Z</time>
      </trkpt>
      <trkpt lat="48.33598" lon="-3.38308">
        <ele>223</ele>
        <time>2014-06-23T12:33:41Z</time>
      </trkpt>
      <trkpt lat="48.33599" lon="-3.3831">
        <ele>223</ele>
        <time>2014-06-23T12:33:43Z</time>
      </trkpt>
      <trkpt lat="48.336" lon="-3.38312">
        <ele>223</ele>
        <time>2014-06-23T12:33:45Z</time>
      </trkpt>
      <trkpt lat="48.336" lon="-3.38313">
        <ele>223</ele>
        <time>2014-06-23T12:33:46Z</time>
      </trkpt>
      <trkpt lat="48.33601" lon="-3.38316">
        <ele>222</ele>
        <time>2014-06-23T12:33:48Z</time>
      </trkpt>
      <trkpt lat="48.33602" lon="-3.38318">
        <ele>222</ele>
        <time>2014-06-23T12:33:50Z</time>
      </trkpt>
      <trkpt lat="48.33603" lon="-3.38321">
        <ele>222</ele>
        <time>2014-06-23T12:33:52Z</time>
      </trkpt>
      <trkpt lat="48.33604" lon="-3.38324">
        <ele>221</ele>
        <time>2014-06-23T12:33:54Z</time>
      </trkpt>
      <trkpt lat="48.33605" lon="-3.38327">
        <ele>221</ele>
        <time>2014-06-23T12:33:56Z</time>
      </trkpt>
      <trkpt lat="48.33606" lon="-3.38329">
        <ele>221</ele>
        <time>2014-06-23T12:33:58Z</time>
      </trkpt>
      <trkpt lat="48.33607" lon="-3.38332">
        <ele>221</ele>
        <time>2014-06-23T12:34:00Z</time>
      </trkpt>
      <trkpt lat="48.33608" lon="-3.38335">
        <ele>221</ele>
        <time>2014-06-23T12:34:02Z</time>
      </trkpt>
      <trkpt lat="48.33609" lon="-3.38338">
        <ele>221</ele>
        <time>2014-06-23T12:34:04Z</time>
      </trkpt>
      <trkpt lat="48.33611" lon="-3.3834">
        <ele>221</ele>
        <time>2014-06-23T12:34:06Z</time>
      </trkpt>
      <trkpt lat="48.33612" lon="-3.38342">
        <ele>221</ele>
        <time>2014-06-23T12:34:08Z</time>
      </trkpt>
      <trkpt lat="48.33613" lon="-3.38345">
        <ele>221</ele>
        <time>2014-06-23T12:34:10Z</time>
      </trkpt>
      <trkpt lat="48.33615" lon="-3.38347">
        <ele>221</ele>
        <time>2014-06-23T12:34:12Z</time>
      </trkpt>
      <trkpt lat="48.33616" lon="-3.38348">
        <ele>221</ele>
        <time>2014-06-23T12:34:14Z</time>
      </trkpt>
      <trkpt lat="48.33617" lon="-3.38351">
        <ele>221</ele>
        <time>2014-06-23T12:34:16Z</time>
      </trkpt>
      <trkpt lat="48.33619" lon="-3.38353">
        <ele>221</ele>
        <time>2014-06-23T12:34:18Z</time>
      </trkpt>
      <trkpt lat="48.3362" lon="-3.38355">
        <ele>221</ele>
        <time>2014-06-23T12:34:20Z</time>
      </trkpt>
      <trkpt lat="48.33621" lon="-3.38358">
        <ele>221</ele>
        <time>2014-06-23T12:34:22Z</time>
      </trkpt>
      <trkpt lat="48.33622" lon="-3.38361">
        <ele>221</ele>
        <time>2014-06-23T12:34:24Z</time>
      </trkpt>
      <trkpt lat="48.33623" lon="-3.38363">
        <ele>221</ele>
        <time>2014-06-23T12:34:26Z</time>
      </trkpt>
      <trkpt lat="48.33623" lon="-3.38365">
        <ele>221</ele>
        <time>2014-06-23T12:34:28Z</time>
      </trkpt>
      <trkpt lat="48.33623" lon="-3.38367">
        <ele>221</ele>
        <time>2014-06-23T12:34:31Z</time>
      </trkpt>
      <trkpt lat="48.33623" lon="-3.38369">
        <ele>221</ele>
        <time>2014-06-23T12:34:33Z</time>
      </trkpt>
      <trkpt lat="48.33622" lon="-3.38371">
        <ele>221</ele>
        <time>2014-06-23T12:34:35Z</time>
      </trkpt>
      <trkpt lat="48.33623" lon="-3.38374">
        <ele>221</ele>
        <time>2014-06-23T12:34:37Z</time>
      </trkpt>
      <trkpt lat="48.33622" lon="-3.38376">
        <ele>221</ele>
        <time>2014-06-23T12:34:38Z</time>
      </trkpt>
      <trkpt lat="48.33621" lon="-3.38379">
        <ele>220</ele>
        <time>2014-06-23T12:34:40Z</time>
      </trkpt>
      <trkpt lat="48.3362" lon="-3.38381">
        <ele>220</ele>
        <time>2014-06-23T12:34:42Z</time>
      </trkpt>
      <trkpt lat="48.33619" lon="-3.38382">
        <ele>220</ele>
        <time>2014-06-23T12:34:43Z</time>
      </trkpt>
      <trkpt lat="48.33618" lon="-3.38382">
        <ele>219</ele>
        <time>2014-06-23T12:34:44Z</time>
      </trkpt>
      <trkpt lat="48.33616" lon="-3.38383">
        <ele>219</ele>
        <time>2014-06-23T12:34:46Z</time>
      </trkpt>
      <trkpt lat="48.33614" lon="-3.38384">
        <ele>219</ele>
        <time>2014-06-23T12:34:48Z</time>
      </trkpt>
      <trkpt lat="48.33612" lon="-3.38384">
        <ele>219</ele>
        <time>2014-06-23T12:34:50Z</time>
      </trkpt>
      <trkpt lat="48.33611" lon="-3.38384">
        <ele>219</ele>
        <time>2014-06-23T12:34:51Z</time>
      </trkpt>
      <trkpt lat="48.33609" lon="-3.38384">
        <ele>219</ele>
        <time>2014-06-23T12:34:52Z</time>
      </trkpt>
      <trkpt lat="48.33607" lon="-3.38385">
        <ele>219</ele>
        <time>2014-06-23T12:34:54Z</time>
      </trkpt>
      <trkpt lat="48.33606" lon="-3.38385">
        <ele>219</ele>
        <time>2014-06-23T12:34:55Z</time>
      </trkpt>
      <trkpt lat="48.33604" lon="-3.38386">
        <ele>219</ele>
        <time>2014-06-23T12:34:57Z</time>
      </trkpt>
      <trkpt lat="48.33603" lon="-3.38387">
        <ele>219</ele>
        <time>2014-06-23T12:34:59Z</time>
      </trkpt>
      <trkpt lat="48.33601" lon="-3.38389">
        <ele>219</ele>
        <time>2014-06-23T12:35:02Z</time>
      </trkpt>
      <trkpt lat="48.33599" lon="-3.38389">
        <ele>219</ele>
        <time>2014-06-23T12:35:04Z</time>
      </trkpt>
      <trkpt lat="48.33597" lon="-3.38389">
        <ele>219</ele>
        <time>2014-06-23T12:35:06Z</time>
      </trkpt>
      <trkpt lat="48.33596" lon="-3.38389">
        <ele>219</ele>
        <time>2014-06-23T12:35:07Z</time>
      </trkpt>
      <trkpt lat="48.33595" lon="-3.38389">
        <ele>219</ele>
        <time>2014-06-23T12:35:08Z</time>
      </trkpt>
      <trkpt lat="48.33593" lon="-3.3839">
        <ele>219</ele>
        <time>2014-06-23T12:35:10Z</time>
      </trkpt>
      <trkpt lat="48.33592" lon="-3.3839">
        <ele>219</ele>
        <time>2014-06-23T12:35:11Z</time>
      </trkpt>
      <trkpt lat="48.3359" lon="-3.3839">
        <ele>219</ele>
        <time>2014-06-23T12:35:13Z</time>
      </trkpt>
      <trkpt lat="48.33588" lon="-3.3839">
        <ele>219</ele>
        <time>2014-06-23T12:35:14Z</time>
      </trkpt>
      <trkpt lat="48.33587" lon="-3.38389">
        <ele>219</ele>
        <time>2014-06-23T12:35:15Z</time>
      </trkpt>
      <trkpt lat="48.33585" lon="-3.38391">
        <ele>219</ele>
        <time>2014-06-23T12:35:18Z</time>
      </trkpt>
      <trkpt lat="48.33583" lon="-3.38394">
        <ele>219</ele>
        <time>2014-06-23T12:35:20Z</time>
      </trkpt>
      <trkpt lat="48.33583" lon="-3.38397">
        <ele>219</ele>
        <time>2014-06-23T12:35:22Z</time>
      </trkpt>
      <trkpt lat="48.33581" lon="-3.384">
        <ele>219</ele>
        <time>2014-06-23T12:35:24Z</time>
      </trkpt>
      <trkpt lat="48.3358" lon="-3.38402">
        <ele>219</ele>
        <time>2014-06-23T12:35:26Z</time>
      </trkpt>
      <trkpt lat="48.3358" lon="-3.38404">
        <ele>219</ele>
        <time>2014-06-23T12:35:28Z</time>
      </trkpt>
      <trkpt lat="48.33579" lon="-3.38407">
        <ele>218</ele>
        <time>2014-06-23T12:35:30Z</time>
      </trkpt>
      <trkpt lat="48.33578" lon="-3.38409">
        <ele>217</ele>
        <time>2014-06-23T12:35:32Z</time>
      </trkpt>
      <trkpt lat="48.33579" lon="-3.38411">
        <ele>217</ele>
        <time>2014-06-23T12:35:33Z</time>
      </trkpt>
      <trkpt lat="48.33578" lon="-3.38412">
        <ele>217</ele>
        <time>2014-06-23T12:35:34Z</time>
      </trkpt>
      <trkpt lat="48.33577" lon="-3.38415">
        <ele>216</ele>
        <time>2014-06-23T12:35:36Z</time>
      </trkpt>
      <trkpt lat="48.33577" lon="-3.38417">
        <ele>216</ele>
        <time>2014-06-23T12:35:38Z</time>
      </trkpt>
      <trkpt lat="48.33577" lon="-3.38419">
        <ele>216</ele>
        <time>2014-06-23T12:35:39Z</time>
      </trkpt>
      <trkpt lat="48.33577" lon="-3.38421">
        <ele>216</ele>
        <time>2014-06-23T12:35:42Z</time>
      </trkpt>
      <trkpt lat="48.33577" lon="-3.38424">
        <ele>216</ele>
        <time>2014-06-23T12:35:44Z</time>
      </trkpt>
      <trkpt lat="48.33577" lon="-3.38426">
        <ele>216</ele>
        <time>2014-06-23T12:35:45Z</time>
      </trkpt>
      <trkpt lat="48.33577" lon="-3.38429">
        <ele>216</ele>
        <time>2014-06-23T12:35:47Z</time>
      </trkpt>
      <trkpt lat="48.33577" lon="-3.38431">
        <ele>216</ele>
        <time>2014-06-23T12:35:49Z</time>
      </trkpt>
      <trkpt lat="48.33578" lon="-3.38433">
        <ele>216</ele>
        <time>2014-06-23T12:35:51Z</time>
      </trkpt>
      <trkpt lat="48.33578" lon="-3.38435">
        <ele>216</ele>
        <time>2014-06-23T12:35:53Z</time>
      </trkpt>
      <trkpt lat="48.3358" lon="-3.38437">
        <ele>216</ele>
        <time>2014-06-23T12:35:55Z</time>
      </trkpt>
      <trkpt lat="48.33582" lon="-3.38439">
        <ele>216</ele>
        <time>2014-06-23T12:35:57Z</time>
      </trkpt>
      <trkpt lat="48.33584" lon="-3.38439">
        <ele>216</ele>
        <time>2014-06-23T12:35:59Z</time>
      </trkpt>
      <trkpt lat="48.33585" lon="-3.3844">
        <ele>216</ele>
        <time>2014-06-23T12:36:00Z</time>
      </trkpt>
      <trkpt lat="48.33587" lon="-3.3844">
        <ele>216</ele>
        <time>2014-06-23T12:36:02Z</time>
      </trkpt>
      <trkpt lat="48.33588" lon="-3.3844">
        <ele>216</ele>
        <time>2014-06-23T12:36:04Z</time>
      </trkpt>
      <trkpt lat="48.3359" lon="-3.38441">
        <ele>216</ele>
        <time>2014-06-23T12:36:06Z</time>
      </trkpt>
      <trkpt lat="48.33592" lon="-3.38441">
        <ele>216</ele>
        <time>2014-06-23T12:36:08Z</time>
      </trkpt>
      <trkpt lat="48.33593" lon="-3.3844">
        <ele>216</ele>
        <time>2014-06-23T12:36:09Z</time>
      </trkpt>
      <trkpt lat="48.33594" lon="-3.3844">
        <ele>216</ele>
        <time>2014-06-23T12:36:10Z</time>
      </trkpt>
      <trkpt lat="48.33596" lon="-3.3844">
        <ele>216</ele>
        <time>2014-06-23T12:36:12Z</time>
      </trkpt>
      <trkpt lat="48.33597" lon="-3.38441">
        <ele>216</ele>
        <time>2014-06-23T12:36:13Z</time>
      </trkpt>
      <trkpt lat="48.33598" lon="-3.38441">
        <ele>216</ele>
        <time>2014-06-23T12:36:14Z</time>
      </trkpt>
      <trkpt lat="48.336" lon="-3.38441">
        <ele>216</ele>
        <time>2014-06-23T12:36:15Z</time>
      </trkpt>
      <trkpt lat="48.33602" lon="-3.38442">
        <ele>216</ele>
        <time>2014-06-23T12:36:17Z</time>
      </trkpt>
      <trkpt lat="48.33604" lon="-3.38442">
        <ele>216</ele>
        <time>2014-06-23T12:36:19Z</time>
      </trkpt>
      <trkpt lat="48.33605" lon="-3.38443">
        <ele>216</ele>
        <time>2014-06-23T12:36:20Z</time>
      </trkpt>
      <trkpt lat="48.33607" lon="-3.38443">
        <ele>216</ele>
        <time>2014-06-23T12:36:22Z</time>
      </trkpt>
      <trkpt lat="48.33609" lon="-3.38443">
        <ele>216</ele>
        <time>2014-06-23T12:36:24Z</time>
      </trkpt>
      <trkpt lat="48.3361" lon="-3.38443">
        <ele>216</ele>
        <time>2014-06-23T12:36:25Z</time>
      </trkpt>
      <trkpt lat="48.33611" lon="-3.38443">
        <ele>216</ele>
        <time>2014-06-23T12:36:26Z</time>
      </trkpt>
      <trkpt lat="48.33612" lon="-3.38442">
        <ele>216</ele>
        <time>2014-06-23T12:36:27Z</time>
      </trkpt>
      <trkpt lat="48.33614" lon="-3.38442">
        <ele>216</ele>
        <time>2014-06-23T12:36:29Z</time>
      </trkpt>
      <trkpt lat="48.33616" lon="-3.38442">
        <ele>216</ele>
        <time>2014-06-23T12:36:31Z</time>
      </trkpt>
      <trkpt lat="48.33618" lon="-3.38442">
        <ele>216</ele>
        <time>2014-06-23T12:36:33Z</time>
      </trkpt>
      <trkpt lat="48.3362" lon="-3.38442">
        <ele>216</ele>
        <time>2014-06-23T12:36:35Z</time>
      </trkpt>
      <trkpt lat="48.33622" lon="-3.38443">
        <ele>216</ele>
        <time>2014-06-23T12:36:37Z</time>
      </trkpt>
      <trkpt lat="48.33624" lon="-3.38443">
        <ele>216</ele>
        <time>2014-06-23T12:36:38Z</time>
      </trkpt>
      <trkpt lat="48.33625" lon="-3.38444">
        <ele>216</ele>
        <time>2014-06-23T12:36:39Z</time>
      </trkpt>
      <trkpt lat="48.33626" lon="-3.38444">
        <ele>216</ele>
        <time>2014-06-23T12:36:40Z</time>
      </trkpt>
      <trkpt lat="48.33628" lon="-3.38444">
        <ele>216</ele>
        <time>2014-06-23T12:36:42Z</time>
      </trkpt>
      <trkpt lat="48.3363" lon="-3.38444">
        <ele>216</ele>
        <time>2014-06-23T12:36:44Z</time>
      </trkpt>
      <trkpt lat="48.33632" lon="-3.38444">
        <ele>216</ele>
        <time>2014-06-23T12:36:46Z</time>
      </trkpt>
      <trkpt lat="48.33633" lon="-3.38444">
        <ele>216</ele>
        <time>2014-06-23T12:36:48Z</time>
      </trkpt>
      <trkpt lat="48.33635" lon="-3.38444">
        <ele>216</ele>
        <time>2014-06-23T12:36:50Z</time>
      </trkpt>
      <trkpt lat="48.33636" lon="-3.38444">
        <ele>216</ele>
        <time>2014-06-23T12:36:51Z</time>
      </trkpt>
      <trkpt lat="48.33638" lon="-3.38444">
        <ele>216</ele>
        <time>2014-06-23T12:36:52Z</time>
      </trkpt>
      <trkpt lat="48.33639" lon="-3.38444">
        <ele>216</ele>
        <time>2014-06-23T12:36:54Z</time>
      </trkpt>
      <trkpt lat="48.33642" lon="-3.38444">
        <ele>216</ele>
        <time>2014-06-23T12:36:56Z</time>
      </trkpt>
      <trkpt lat="48.33644" lon="-3.38444">
        <ele>216</ele>
        <time>2014-06-23T12:36:58Z</time>
      </trkpt>
      <trkpt lat="48.33646" lon="-3.38445">
        <ele>216</ele>
        <time>2014-06-23T12:37:00Z</time>
      </trkpt>
      <trkpt lat="48.33648" lon="-3.38445">
        <ele>216</ele>
        <time>2014-06-23T12:37:02Z</time>
      </trkpt>
      <trkpt lat="48.33649" lon="-3.38445">
        <ele>216</ele>
        <time>2014-06-23T12:37:03Z</time>
      </trkpt>
      <trkpt lat="48.33651" lon="-3.38445">
        <ele>216</ele>
        <time>2014-06-23T12:37:05Z</time>
      </trkpt>
      <trkpt lat="48.33652" lon="-3.38445">
        <ele>216</ele>
        <time>2014-06-23T12:37:06Z</time>
      </trkpt>
      <trkpt lat="48.33654" lon="-3.38445">
        <ele>216</ele>
        <time>2014-06-23T12:37:08Z</time>
      </trkpt>
      <trkpt lat="48.33656" lon="-3.38445">
        <ele>216</ele>
        <time>2014-06-23T12:37:10Z</time>
      </trkpt>
      <trkpt lat="48.33657" lon="-3.38444">
        <ele>216</ele>
        <time>2014-06-23T12:37:11Z</time>
      </trkpt>
      <trkpt lat="48.33659" lon="-3.38444">
        <ele>216</ele>
        <time>2014-06-23T12:37:13Z</time>
      </trkpt>
      <trkpt lat="48.33661" lon="-3.38444">
        <ele>216</ele>
        <time>2014-06-23T12:37:15Z</time>
      </trkpt>
      <trkpt lat="48.33663" lon="-3.38443">
        <ele>216</ele>
        <time>2014-06-23T12:37:17Z</time>
      </trkpt>
      <trkpt lat="48.33665" lon="-3.38443">
        <ele>216</ele>
        <time>2014-06-23T12:37:19Z</time>
      </trkpt>
      <trkpt lat="48.33666" lon="-3.38443">
        <ele>216</ele>
        <time>2014-06-23T12:37:20Z</time>
      </trkpt>
      <trkpt lat="48.33668" lon="-3.38442">
        <ele>216</ele>
        <time>2014-06-23T12:37:22Z</time>
      </trkpt>
      <trkpt lat="48.3367" lon="-3.38442">
        <ele>216</ele>
        <time>2014-06-23T12:37:24Z</time>
      </trkpt>
      <trkpt lat="48.33672" lon="-3.38442">
        <ele>216</ele>
        <time>2014-06-23T12:37:26Z</time>
      </trkpt>
      <trkpt lat="48.33674" lon="-3.38441">
        <ele>216</ele>
        <time>2014-06-23T12:37:28Z</time>
      </trkpt>
      <trkpt lat="48.33675" lon="-3.38442">
        <ele>216</ele>
        <time>2014-06-23T12:37:29Z</time>
      </trkpt>
      <trkpt lat="48.33677" lon="-3.38442">
        <ele>216</ele>
        <time>2014-06-23T12:37:30Z</time>
      </trkpt>
      <trkpt lat="48.33679" lon="-3.38442">
        <ele>216</ele>
        <time>2014-06-23T12:37:32Z</time>
      </trkpt>
      <trkpt lat="48.3368" lon="-3.38441">
        <ele>216</ele>
        <time>2014-06-23T12:37:34Z</time>
      </trkpt>
      <trkpt lat="48.33682" lon="-3.38441">
        <ele>216</ele>
        <time>2014-06-23T12:37:36Z</time>
      </trkpt>
      <trkpt lat="48.33683" lon="-3.38442">
        <ele>216</ele>
        <time>2014-06-23T12:37:38Z</time>
      </trkpt>
      <trkpt lat="48.33685" lon="-3.38442">
        <ele>216</ele>
        <time>2014-06-23T12:37:40Z</time>
      </trkpt>
      <trkpt lat="48.33687" lon="-3.38444">
        <ele>216</ele>
        <time>2014-06-23T12:37:42Z</time>
      </trkpt>
      <trkpt lat="48.33688" lon="-3.38444">
        <ele>216</ele>
        <time>2014-06-23T12:37:44Z</time>
      </trkpt>
      <trkpt lat="48.33689" lon="-3.38445">
        <ele>216</ele>
        <time>2014-06-23T12:37:45Z</time>
      </trkpt>
      <trkpt lat="48.33691" lon="-3.38446">
        <ele>216</ele>
        <time>2014-06-23T12:37:47Z</time>
      </trkpt>
      <trkpt lat="48.33693" lon="-3.38447">
        <ele>216</ele>
        <time>2014-06-23T12:37:49Z</time>
      </trkpt>
      <trkpt lat="48.33694" lon="-3.38448">
        <ele>216</ele>
        <time>2014-06-23T12:37:51Z</time>
      </trkpt>
      <trkpt lat="48.33696" lon="-3.38449">
        <ele>216</ele>
        <time>2014-06-23T12:37:53Z</time>
      </trkpt>
      <trkpt lat="48.33698" lon="-3.3845">
        <ele>216</ele>
        <time>2014-06-23T12:37:55Z</time>
      </trkpt>
      <trkpt lat="48.33699" lon="-3.3845">
        <ele>216</ele>
        <time>2014-06-23T12:37:57Z</time>
      </trkpt>
      <trkpt lat="48.33701" lon="-3.3845">
        <ele>216</ele>
        <time>2014-06-23T12:37:59Z</time>
      </trkpt>
      <trkpt lat="48.33702" lon="-3.38451">
        <ele>216</ele>
        <time>2014-06-23T12:38:01Z</time>
      </trkpt>
      <trkpt lat="48.33704" lon="-3.38452">
        <ele>216</ele>
        <time>2014-06-23T12:38:03Z</time>
      </trkpt>
      <trkpt lat="48.33705" lon="-3.38453">
        <ele>216</ele>
        <time>2014-06-23T12:38:05Z</time>
      </trkpt>
      <trkpt lat="48.33707" lon="-3.38454">
        <ele>216</ele>
        <time>2014-06-23T12:38:07Z</time>
      </trkpt>
      <trkpt lat="48.33708" lon="-3.38456">
        <ele>216</ele>
        <time>2014-06-23T12:38:09Z</time>
      </trkpt>
      <trkpt lat="48.33709" lon="-3.38458">
        <ele>216</ele>
        <time>2014-06-23T12:38:11Z</time>
      </trkpt>
      <trkpt lat="48.33711" lon="-3.38461">
        <ele>216</ele>
        <time>2014-06-23T12:38:13Z</time>
      </trkpt>
      <trkpt lat="48.33712" lon="-3.38463">
        <ele>216</ele>
        <time>2014-06-23T12:38:15Z</time>
      </trkpt>
      <trkpt lat="48.33715" lon="-3.38464">
        <ele>216</ele>
        <time>2014-06-23T12:38:17Z</time>
      </trkpt>
      <trkpt lat="48.33716" lon="-3.38464">
        <ele>216</ele>
        <time>2014-06-23T12:38:19Z</time>
      </trkpt>
      <trkpt lat="48.33717" lon="-3.38464">
        <ele>216</ele>
        <time>2014-06-23T12:38:20Z</time>
      </trkpt>
      <trkpt lat="48.33719" lon="-3.38465">
        <ele>216</ele>
        <time>2014-06-23T12:38:21Z</time>
      </trkpt>
      <trkpt lat="48.3372" lon="-3.38465">
        <ele>216</ele>
        <time>2014-06-23T12:38:22Z</time>
      </trkpt>
      <trkpt lat="48.33722" lon="-3.38466">
        <ele>216</ele>
        <time>2014-06-23T12:38:24Z</time>
      </trkpt>
      <trkpt lat="48.33724" lon="-3.38467">
        <ele>216</ele>
        <time>2014-06-23T12:38:26Z</time>
      </trkpt>
      <trkpt lat="48.33726" lon="-3.38466">
        <ele>216</ele>
        <time>2014-06-23T12:38:28Z</time>
      </trkpt>
      <trkpt lat="48.33728" lon="-3.38466">
        <ele>216</ele>
        <time>2014-06-23T12:38:30Z</time>
      </trkpt>
      <trkpt lat="48.33729" lon="-3.38466">
        <ele>216</ele>
        <time>2014-06-23T12:38:32Z</time>
      </trkpt>
      <trkpt lat="48.33731" lon="-3.38466">
        <ele>216</ele>
        <time>2014-06-23T12:38:34Z</time>
      </trkpt>
      <trkpt lat="48.33733" lon="-3.38467">
        <ele>216</ele>
        <time>2014-06-23T12:38:35Z</time>
      </trkpt>
      <trkpt lat="48.33734" lon="-3.38467">
        <ele>216</ele>
        <time>2014-06-23T12:38:36Z</time>
      </trkpt>
      <trkpt lat="48.33736" lon="-3.38467">
        <ele>216</ele>
        <time>2014-06-23T12:38:38Z</time>
      </trkpt>
      <trkpt lat="48.33737" lon="-3.38468">
        <ele>217</ele>
        <time>2014-06-23T12:38:39Z</time>
      </trkpt>
      <trkpt lat="48.33738" lon="-3.38467">
        <ele>217</ele>
        <time>2014-06-23T12:38:41Z</time>
      </trkpt>
      <trkpt lat="48.3374" lon="-3.38466">
        <ele>217</ele>
        <time>2014-06-23T12:38:43Z</time>
      </trkpt>
      <trkpt lat="48.33741" lon="-3.38464">
        <ele>217</ele>
        <time>2014-06-23T12:38:45Z</time>
      </trkpt>
      <trkpt lat="48.33743" lon="-3.38463">
        <ele>217</ele>
        <time>2014-06-23T12:38:47Z</time>
      </trkpt>
      <trkpt lat="48.33744" lon="-3.38463">
        <ele>217</ele>
        <time>2014-06-23T12:38:49Z</time>
      </trkpt>
      <trkpt lat="48.33746" lon="-3.38462">
        <ele>218</ele>
        <time>2014-06-23T12:38:51Z</time>
      </trkpt>
      <trkpt lat="48.33748" lon="-3.38462">
        <ele>218</ele>
        <time>2014-06-23T12:38:53Z</time>
      </trkpt>
      <trkpt lat="48.33749" lon="-3.3846">
        <ele>218</ele>
        <time>2014-06-23T12:38:56Z</time>
      </trkpt>
      <trkpt lat="48.33751" lon="-3.38459">
        <ele>218</ele>
        <time>2014-06-23T12:38:58Z</time>
      </trkpt>
      <trkpt lat="48.33752" lon="-3.38458">
        <ele>218</ele>
        <time>2014-06-23T12:39:00Z</time>
      </trkpt>
      <trkpt lat="48.33754" lon="-3.38457">
        <ele>218</ele>
        <time>2014-06-23T12:39:02Z</time>
      </trkpt>
      <trkpt lat="48.33755" lon="-3.38457">
        <ele>218</ele>
        <time>2014-06-23T12:39:05Z</time>
      </trkpt>
      <trkpt lat="48.33756" lon="-3.38457">
        <ele>218</ele>
        <time>2014-06-23T12:39:07Z</time>
      </trkpt>
      <trkpt lat="48.33757" lon="-3.38456">
        <ele>218</ele>
        <time>2014-06-23T12:39:09Z</time>
      </trkpt>
      <trkpt lat="48.33759" lon="-3.38456">
        <ele>218</ele>
        <time>2014-06-23T12:39:11Z</time>
      </trkpt>
      <trkpt lat="48.3376" lon="-3.38455">
        <ele>218</ele>
        <time>2014-06-23T12:39:13Z</time>
      </trkpt>
      <trkpt lat="48.33762" lon="-3.38454">
        <ele>218</ele>
        <time>2014-06-23T12:39:15Z</time>
      </trkpt>
      <trkpt lat="48.33764" lon="-3.38453">
        <ele>218</ele>
        <time>2014-06-23T12:39:17Z</time>
      </trkpt>
      <trkpt lat="48.33766" lon="-3.38451">
        <ele>218</ele>
        <time>2014-06-23T12:39:19Z</time>
      </trkpt>
      <trkpt lat="48.33768" lon="-3.38451">
        <ele>218</ele>
        <time>2014-06-23T12:39:21Z</time>
      </trkpt>
      <trkpt lat="48.33769" lon="-3.3845">
        <ele>218</ele>
        <time>2014-06-23T12:39:22Z</time>
      </trkpt>
      <trkpt lat="48.33771" lon="-3.3845">
        <ele>218</ele>
        <time>2014-06-23T12:39:24Z</time>
      </trkpt>
      <trkpt lat="48.33773" lon="-3.38449">
        <ele>218</ele>
        <time>2014-06-23T12:39:26Z</time>
      </trkpt>
      <trkpt lat="48.33774" lon="-3.38448">
        <ele>218</ele>
        <time>2014-06-23T12:39:28Z</time>
      </trkpt>
      <trkpt lat="48.33776" lon="-3.38447">
        <ele>218</ele>
        <time>2014-06-23T12:39:30Z</time>
      </trkpt>
      <trkpt lat="48.33777" lon="-3.38446">
        <ele>218</ele>
        <time>2014-06-23T12:39:32Z</time>
      </trkpt>
      <trkpt lat="48.33779" lon="-3.38445">
        <ele>219</ele>
        <time>2014-06-23T12:39:34Z</time>
      </trkpt>
      <trkpt lat="48.3378" lon="-3.38445">
        <ele>219</ele>
        <time>2014-06-23T12:39:36Z</time>
      </trkpt>
      <trkpt lat="48.33782" lon="-3.38445">
        <ele>219</ele>
        <time>2014-06-23T12:39:38Z</time>
      </trkpt>
      <trkpt lat="48.33783" lon="-3.38445">
        <ele>219</ele>
        <time>2014-06-23T12:39:40Z</time>
      </trkpt>
      <trkpt lat="48.33785" lon="-3.38445">
        <ele>220</ele>
        <time>2014-06-23T12:39:42Z</time>
      </trkpt>
      <trkpt lat="48.33787" lon="-3.38444">
        <ele>220</ele>
        <time>2014-06-23T12:39:44Z</time>
      </trkpt>
      <trkpt lat="48.33789" lon="-3.38443">
        <ele>221</ele>
        <time>2014-06-23T12:39:46Z</time>
      </trkpt>
      <trkpt lat="48.33791" lon="-3.38443">
        <ele>221</ele>
        <time>2014-06-23T12:39:48Z</time>
      </trkpt>
      <trkpt lat="48.33792" lon="-3.38442">
        <ele>221</ele>
        <time>2014-06-23T12:39:50Z</time>
      </trkpt>
      <trkpt lat="48.33794" lon="-3.38442">
        <ele>221</ele>
        <time>2014-06-23T12:39:52Z</time>
      </trkpt>
      <trkpt lat="48.33796" lon="-3.38441">
        <ele>221</ele>
        <time>2014-06-23T12:39:54Z</time>
      </trkpt>
      <trkpt lat="48.33797" lon="-3.3844">
        <ele>221</ele>
        <time>2014-06-23T12:39:56Z</time>
      </trkpt>
      <trkpt lat="48.33799" lon="-3.3844">
        <ele>221</ele>
        <time>2014-06-23T12:39:58Z</time>
      </trkpt>
      <trkpt lat="48.33801" lon="-3.38439">
        <ele>221</ele>
        <time>2014-06-23T12:40:00Z</time>
      </trkpt>
      <trkpt lat="48.33803" lon="-3.38439">
        <ele>221</ele>
        <time>2014-06-23T12:40:02Z</time>
      </trkpt>
      <trkpt lat="48.33805" lon="-3.38438">
        <ele>221</ele>
        <time>2014-06-23T12:40:04Z</time>
      </trkpt>
      <trkpt lat="48.33807" lon="-3.38437">
        <ele>221</ele>
        <time>2014-06-23T12:40:06Z</time>
      </trkpt>
      <trkpt lat="48.33808" lon="-3.38437">
        <ele>221</ele>
        <time>2014-06-23T12:40:08Z</time>
      </trkpt>
      <trkpt lat="48.3381" lon="-3.38436">
        <ele>221</ele>
        <time>2014-06-23T12:40:10Z</time>
      </trkpt>
      <trkpt lat="48.33812" lon="-3.38436">
        <ele>221</ele>
        <time>2014-06-23T12:40:12Z</time>
      </trkpt>
      <trkpt lat="48.33813" lon="-3.38436">
        <ele>221</ele>
        <time>2014-06-23T12:40:13Z</time>
      </trkpt>
      <trkpt lat="48.33815" lon="-3.38436">
        <ele>221</ele>
        <time>2014-06-23T12:40:15Z</time>
      </trkpt>
      <trkpt lat="48.33817" lon="-3.38435">
        <ele>221</ele>
        <time>2014-06-23T12:40:17Z</time>
      </trkpt>
      <trkpt lat="48.33818" lon="-3.38435">
        <ele>221</ele>
        <time>2014-06-23T12:40:19Z</time>
      </trkpt>
      <trkpt lat="48.3382" lon="-3.38435">
        <ele>221</ele>
        <time>2014-06-23T12:40:21Z</time>
      </trkpt>
      <trkpt lat="48.33822" lon="-3.38434">
        <ele>221</ele>
        <time>2014-06-23T12:40:23Z</time>
      </trkpt>
      <trkpt lat="48.33824" lon="-3.38433">
        <ele>221</ele>
        <time>2014-06-23T12:40:25Z</time>
      </trkpt>
      <trkpt lat="48.33826" lon="-3.38433">
        <ele>221</ele>
        <time>2014-06-23T12:40:28Z</time>
      </trkpt>
      <trkpt lat="48.33827" lon="-3.38432">
        <ele>221</ele>
        <time>2014-06-23T12:40:29Z</time>
      </trkpt>
      <trkpt lat="48.33829" lon="-3.38431">
        <ele>221</ele>
        <time>2014-06-23T12:40:31Z</time>
      </trkpt>
      <trkpt lat="48.33831" lon="-3.38429">
        <ele>222</ele>
        <time>2014-06-23T12:40:33Z</time>
      </trkpt>
      <trkpt lat="48.33832" lon="-3.38428">
        <ele>222</ele>
        <time>2014-06-23T12:40:35Z</time>
      </trkpt>
      <trkpt lat="48.33834" lon="-3.38426">
        <ele>222</ele>
        <time>2014-06-23T12:40:37Z</time>
      </trkpt>
      <trkpt lat="48.33835" lon="-3.38425">
        <ele>222</ele>
        <time>2014-06-23T12:40:39Z</time>
      </trkpt>
      <trkpt lat="48.33837" lon="-3.38424">
        <ele>222</ele>
        <time>2014-06-23T12:40:41Z</time>
      </trkpt>
      <trkpt lat="48.33839" lon="-3.38423">
        <ele>222</ele>
        <time>2014-06-23T12:40:43Z</time>
      </trkpt>
      <trkpt lat="48.3384" lon="-3.38423">
        <ele>222</ele>
        <time>2014-06-23T12:40:45Z</time>
      </trkpt>
      <trkpt lat="48.33842" lon="-3.38423">
        <ele>222</ele>
        <time>2014-06-23T12:40:47Z</time>
      </trkpt>
      <trkpt lat="48.33843" lon="-3.38425">
        <ele>223</ele>
        <time>2014-06-23T12:40:49Z</time>
      </trkpt>
      <trkpt lat="48.33844" lon="-3.38427">
        <ele>224</ele>
        <time>2014-06-23T12:40:53Z</time>
      </trkpt>
      <trkpt lat="48.33844" lon="-3.38429">
        <ele>224</ele>
        <time>2014-06-23T12:40:55Z</time>
      </trkpt>
      <trkpt lat="48.33845" lon="-3.38431">
        <ele>224</ele>
        <time>2014-06-23T12:40:57Z</time>
      </trkpt>
      <trkpt lat="48.33845" lon="-3.38433">
        <ele>224</ele>
        <time>2014-06-23T12:40:59Z</time>
      </trkpt>
      <trkpt lat="48.33845" lon="-3.38435">
        <ele>224</ele>
        <time>2014-06-23T12:41:02Z</time>
      </trkpt>
      <trkpt lat="48.33846" lon="-3.38435">
        <ele>224</ele>
        <time>2014-06-23T12:41:10Z</time>
      </trkpt>
      <trkpt lat="48.33847" lon="-3.38437">
        <ele>225</ele>
        <time>2014-06-23T12:41:25Z</time>
      </trkpt>
      <trkpt lat="48.33846" lon="-3.38436">
        <ele>225</ele>
        <time>2014-06-23T12:41:34Z</time>
      </trkpt>
      <trkpt lat="48.33846" lon="-3.38434">
        <ele>225</ele>
        <time>2014-06-23T12:41:53Z</time>
      </trkpt>
      <trkpt lat="48.33845" lon="-3.38434">
        <ele>226</ele>
        <time>2014-06-23T12:42:09Z</time>
      </trkpt>
      <trkpt lat="48.33843" lon="-3.38435">
        <ele>226</ele>
        <time>2014-06-23T12:42:12Z</time>
      </trkpt>
      <trkpt lat="48.33841" lon="-3.38436">
        <ele>226</ele>
        <time>2014-06-23T12:42:14Z</time>
      </trkpt>
      <trkpt lat="48.33842" lon="-3.38435">
        <ele>225</ele>
        <time>2014-06-23T12:42:18Z</time>
      </trkpt>
      <trkpt lat="48.33844" lon="-3.38434">
        <ele>225</ele>
        <time>2014-06-23T12:42:25Z</time>
      </trkpt>
      <trkpt lat="48.33845" lon="-3.38433">
        <ele>225</ele>
        <time>2014-06-23T12:42:36Z</time>
      </trkpt>
      <trkpt lat="48.33846" lon="-3.38433">
        <ele>225</ele>
        <time>2014-06-23T12:42:37Z</time>
      </trkpt>
      <trkpt lat="48.33845" lon="-3.38433">
        <ele>226</ele>
        <time>2014-06-23T12:42:58Z</time>
      </trkpt>
      <trkpt lat="48.33844" lon="-3.38433">
        <ele>226</ele>
        <time>2014-06-23T12:43:03Z</time>
      </trkpt>
      <trkpt lat="48.33845" lon="-3.38432">
        <ele>226</ele>
        <time>2014-06-23T12:43:13Z</time>
      </trkpt>
      <trkpt lat="48.33846" lon="-3.38431">
        <ele>226</ele>
        <time>2014-06-23T12:43:21Z</time>
      </trkpt>
      <trkpt lat="48.33848" lon="-3.38431">
        <ele>227</ele>
        <time>2014-06-23T12:43:31Z</time>
      </trkpt>
      <trkpt lat="48.33849" lon="-3.38431">
        <ele>227</ele>
        <time>2014-06-23T12:43:33Z</time>
      </trkpt>
      <trkpt lat="48.3385" lon="-3.38431">
        <ele>227</ele>
        <time>2014-06-23T12:43:35Z</time>
      </trkpt>
      <trkpt lat="48.33852" lon="-3.38431">
        <ele>227</ele>
        <time>2014-06-23T12:43:39Z</time>
      </trkpt>
      <trkpt lat="48.33853" lon="-3.3843">
        <ele>228</ele>
        <time>2014-06-23T12:43:41Z</time>
      </trkpt>
      <trkpt lat="48.33855" lon="-3.3843">
        <ele>228</ele>
        <time>2014-06-23T12:43:43Z</time>
      </trkpt>
      <trkpt lat="48.33853" lon="-3.38431">
        <ele>228</ele>
        <time>2014-06-23T12:43:49Z</time>
      </trkpt>
      <trkpt lat="48.33852" lon="-3.38432">
        <ele>228</ele>
        <time>2014-06-23T12:43:51Z</time>
      </trkpt>
      <trkpt lat="48.33849" lon="-3.38432">
        <ele>228</ele>
        <time>2014-06-23T12:43:53Z</time>
      </trkpt>
      <trkpt lat="48.33848" lon="-3.38432">
        <ele>228</ele>
        <time>2014-06-23T12:43:56Z</time>
      </trkpt>
      <trkpt lat="48.33846" lon="-3.38433">
        <ele>228</ele>
        <time>2014-06-23T12:44:03Z</time>
      </trkpt>
      <trkpt lat="48.33844" lon="-3.38433">
        <ele>228</ele>
        <time>2014-06-23T12:44:06Z</time>
      </trkpt>
      <trkpt lat="48.33843" lon="-3.38433">
        <ele>228</ele>
        <time>2014-06-23T12:44:11Z</time>
      </trkpt>
      <trkpt lat="48.33842" lon="-3.38433">
        <ele>228</ele>
        <time>2014-06-23T12:44:19Z</time>
      </trkpt>
      <trkpt lat="48.33843" lon="-3.38432">
        <ele>228</ele>
        <time>2014-06-23T12:44:28Z</time>
      </trkpt>
      <trkpt lat="48.33842" lon="-3.3843">
        <ele>228</ele>
        <time>2014-06-23T12:44:40Z</time>
      </trkpt>
      <trkpt lat="48.33844" lon="-3.38432">
        <ele>228</ele>
        <time>2014-06-23T12:44:54Z</time>
      </trkpt>
      <trkpt lat="48.33845" lon="-3.38433">
        <ele>225</ele>
        <time>2014-06-23T12:45:00Z</time>
      </trkpt>
      <trkpt lat="48.33846" lon="-3.38433">
        <ele>223</ele>
        <time>2014-06-23T12:45:07Z</time>
      </trkpt>
      <trkpt lat="48.33845" lon="-3.38434">
        <ele>224</ele>
        <time>2014-06-23T12:45:49Z</time>
      </trkpt>
      <trkpt lat="48.33844" lon="-3.38434">
        <ele>224</ele>
        <time>2014-06-23T12:46:15Z</time>
      </trkpt>
      <trkpt lat="48.33845" lon="-3.38435">
        <ele>226</ele>
        <time>2014-06-23T12:47:10Z</time>
      </trkpt>
      <trkpt lat="48.33846" lon="-3.38435">
        <ele>225</ele>
        <time>2014-06-23T12:47:55Z</time>
      </trkpt>
      <trkpt lat="48.33845" lon="-3.38434">
        <ele>225</ele>
        <time>2014-06-23T12:48:35Z</time>
      </trkpt>
      <trkpt lat="48.33846" lon="-3.38433">
        <ele>223</ele>
        <time>2014-06-23T12:49:07Z</time>
      </trkpt>
      <trkpt lat="48.33845" lon="-3.38434">
        <ele>223</ele>
        <time>2014-06-23T12:49:15Z</time>
      </trkpt>
      <trkpt lat="48.33846" lon="-3.38434">
        <ele>223</ele>
        <time>2014-06-23T12:49:35Z</time>
      </trkpt>
      <trkpt lat="48.33847" lon="-3.38433">
        <ele>223</ele>
        <time>2014-06-23T12:49:38Z</time>
      </trkpt>
      <trkpt lat="48.33849" lon="-3.38431">
        <ele>223</ele>
        <time>2014-06-23T12:49:40Z</time>
      </trkpt>
      <trkpt lat="48.3385" lon="-3.3843">
        <ele>223</ele>
        <time>2014-06-23T12:49:43Z</time>
      </trkpt>
      <trkpt lat="48.33851" lon="-3.38429">
        <ele>223</ele>
        <time>2014-06-23T12:49:45Z</time>
      </trkpt>
      <trkpt lat="48.33853" lon="-3.38428">
        <ele>223</ele>
        <time>2014-06-23T12:49:47Z</time>
      </trkpt>
      <trkpt lat="48.33855" lon="-3.38427">
        <ele>223</ele>
        <time>2014-06-23T12:49:49Z</time>
      </trkpt>
      <trkpt lat="48.33856" lon="-3.38426">
        <ele>223</ele>
        <time>2014-06-23T12:49:51Z</time>
      </trkpt>
      <trkpt lat="48.33858" lon="-3.38426">
        <ele>223</ele>
        <time>2014-06-23T12:49:53Z</time>
      </trkpt>
      <trkpt lat="48.3386" lon="-3.38425">
        <ele>223</ele>
        <time>2014-06-23T12:49:55Z</time>
      </trkpt>
      <trkpt lat="48.33862" lon="-3.38424">
        <ele>223</ele>
        <time>2014-06-23T12:49:57Z</time>
      </trkpt>
      <trkpt lat="48.33863" lon="-3.38423">
        <ele>223</ele>
        <time>2014-06-23T12:49:59Z</time>
      </trkpt>
      <trkpt lat="48.33865" lon="-3.38423">
        <ele>223</ele>
        <time>2014-06-23T12:50:00Z</time>
      </trkpt>
      <trkpt lat="48.33866" lon="-3.38422">
        <ele>223</ele>
        <time>2014-06-23T12:50:01Z</time>
      </trkpt>
      <trkpt lat="48.33868" lon="-3.38422">
        <ele>223</ele>
        <time>2014-06-23T12:50:03Z</time>
      </trkpt>
      <trkpt lat="48.33869" lon="-3.38421">
        <ele>223</ele>
        <time>2014-06-23T12:50:04Z</time>
      </trkpt>
      <trkpt lat="48.3387" lon="-3.38421">
        <ele>223</ele>
        <time>2014-06-23T12:50:05Z</time>
      </trkpt>
      <trkpt lat="48.33871" lon="-3.38421">
        <ele>223</ele>
        <time>2014-06-23T12:50:06Z</time>
      </trkpt>
      <trkpt lat="48.33873" lon="-3.3842">
        <ele>223</ele>
        <time>2014-06-23T12:50:07Z</time>
      </trkpt>
      <trkpt lat="48.33875" lon="-3.3842">
        <ele>223</ele>
        <time>2014-06-23T12:50:09Z</time>
      </trkpt>
      <trkpt lat="48.33877" lon="-3.38419">
        <ele>224</ele>
        <time>2014-06-23T12:50:11Z</time>
      </trkpt>
      <trkpt lat="48.33879" lon="-3.38418">
        <ele>224</ele>
        <time>2014-06-23T12:50:13Z</time>
      </trkpt>
      <trkpt lat="48.33881" lon="-3.38418">
        <ele>225</ele>
        <time>2014-06-23T12:50:15Z</time>
      </trkpt>
      <trkpt lat="48.33882" lon="-3.38417">
        <ele>225</ele>
        <time>2014-06-23T12:50:16Z</time>
      </trkpt>
      <trkpt lat="48.33883" lon="-3.38417">
        <ele>225</ele>
        <time>2014-06-23T12:50:17Z</time>
      </trkpt>
      <trkpt lat="48.33885" lon="-3.38417">
        <ele>226</ele>
        <time>2014-06-23T12:50:19Z</time>
      </trkpt>
      <trkpt lat="48.33886" lon="-3.38417">
        <ele>226</ele>
        <time>2014-06-23T12:50:20Z</time>
      </trkpt>
      <trkpt lat="48.33888" lon="-3.38417">
        <ele>226</ele>
        <time>2014-06-23T12:50:21Z</time>
      </trkpt>
      <trkpt lat="48.33889" lon="-3.38417">
        <ele>226</ele>
        <time>2014-06-23T12:50:22Z</time>
      </trkpt>
      <trkpt lat="48.33891" lon="-3.38417">
        <ele>226</ele>
        <time>2014-06-23T12:50:24Z</time>
      </trkpt>
      <trkpt lat="48.33892" lon="-3.38416">
        <ele>226</ele>
        <time>2014-06-23T12:50:26Z</time>
      </trkpt>
      <trkpt lat="48.33894" lon="-3.38416">
        <ele>226</ele>
        <time>2014-06-23T12:50:28Z</time>
      </trkpt>
      <trkpt lat="48.33896" lon="-3.38415">
        <ele>226</ele>
        <time>2014-06-23T12:50:30Z</time>
      </trkpt>
      <trkpt lat="48.33898" lon="-3.38414">
        <ele>226</ele>
        <time>2014-06-23T12:50:32Z</time>
      </trkpt>
      <trkpt lat="48.339" lon="-3.38413">
        <ele>226</ele>
        <time>2014-06-23T12:50:34Z</time>
      </trkpt>
      <trkpt lat="48.33902" lon="-3.38412">
        <ele>226</ele>
        <time>2014-06-23T12:50:36Z</time>
      </trkpt>
      <trkpt lat="48.33903" lon="-3.38412">
        <ele>226</ele>
        <time>2014-06-23T12:50:37Z</time>
      </trkpt>
      <trkpt lat="48.33905" lon="-3.38411">
        <ele>226</ele>
        <time>2014-06-23T12:50:39Z</time>
      </trkpt>
      <trkpt lat="48.33907" lon="-3.38411">
        <ele>227</ele>
        <time>2014-06-23T12:50:41Z</time>
      </trkpt>
      <trkpt lat="48.33909" lon="-3.38411">
        <ele>227</ele>
        <time>2014-06-23T12:50:42Z</time>
      </trkpt>
      <trkpt lat="48.3391" lon="-3.38411">
        <ele>227</ele>
        <time>2014-06-23T12:50:43Z</time>
      </trkpt>
      <trkpt lat="48.33913" lon="-3.38411">
        <ele>228</ele>
        <time>2014-06-23T12:50:45Z</time>
      </trkpt>
      <trkpt lat="48.33915" lon="-3.3841">
        <ele>228</ele>
        <time>2014-06-23T12:50:47Z</time>
      </trkpt>
      <trkpt lat="48.33916" lon="-3.38411">
        <ele>228</ele>
        <time>2014-06-23T12:50:48Z</time>
      </trkpt>
      <trkpt lat="48.33917" lon="-3.38411">
        <ele>228</ele>
        <time>2014-06-23T12:50:49Z</time>
      </trkpt>
      <trkpt lat="48.33918" lon="-3.38411">
        <ele>228</ele>
        <time>2014-06-23T12:50:50Z</time>
      </trkpt>
      <trkpt lat="48.3392" lon="-3.3841">
        <ele>228</ele>
        <time>2014-06-23T12:50:51Z</time>
      </trkpt>
      <trkpt lat="48.33921" lon="-3.38409">
        <ele>229</ele>
        <time>2014-06-23T12:50:53Z</time>
      </trkpt>
      <trkpt lat="48.33923" lon="-3.38408">
        <ele>229</ele>
        <time>2014-06-23T12:50:55Z</time>
      </trkpt>
      <trkpt lat="48.33925" lon="-3.38408">
        <ele>229</ele>
        <time>2014-06-23T12:50:57Z</time>
      </trkpt>
      <trkpt lat="48.33926" lon="-3.38408">
        <ele>229</ele>
        <time>2014-06-23T12:50:58Z</time>
      </trkpt>
      <trkpt lat="48.33928" lon="-3.38407">
        <ele>229</ele>
        <time>2014-06-23T12:50:59Z</time>
      </trkpt>
      <trkpt lat="48.3393" lon="-3.38407">
        <ele>229</ele>
        <time>2014-06-23T12:51:01Z</time>
      </trkpt>
      <trkpt lat="48.33931" lon="-3.38407">
        <ele>229</ele>
        <time>2014-06-23T12:51:02Z</time>
      </trkpt>
      <trkpt lat="48.33933" lon="-3.38406">
        <ele>229</ele>
        <time>2014-06-23T12:51:04Z</time>
      </trkpt>
      <trkpt lat="48.33934" lon="-3.38406">
        <ele>229</ele>
        <time>2014-06-23T12:51:05Z</time>
      </trkpt>
      <trkpt lat="48.33935" lon="-3.38407">
        <ele>229</ele>
        <time>2014-06-23T12:51:06Z</time>
      </trkpt>
      <trkpt lat="48.33936" lon="-3.38407">
        <ele>229</ele>
        <time>2014-06-23T12:51:07Z</time>
      </trkpt>
      <trkpt lat="48.33938" lon="-3.38408">
        <ele>229</ele>
        <time>2014-06-23T12:51:09Z</time>
      </trkpt>
      <trkpt lat="48.33941" lon="-3.38407">
        <ele>229</ele>
        <time>2014-06-23T12:51:11Z</time>
      </trkpt>
      <trkpt lat="48.33943" lon="-3.38407">
        <ele>229</ele>
        <time>2014-06-23T12:51:13Z</time>
      </trkpt>
      <trkpt lat="48.33944" lon="-3.38407">
        <ele>229</ele>
        <time>2014-06-23T12:51:14Z</time>
      </trkpt>
      <trkpt lat="48.33946" lon="-3.38407">
        <ele>229</ele>
        <time>2014-06-23T12:51:16Z</time>
      </trkpt>
      <trkpt lat="48.33947" lon="-3.38408">
        <ele>229</ele>
        <time>2014-06-23T12:51:18Z</time>
      </trkpt>
      <trkpt lat="48.33948" lon="-3.38409">
        <ele>229</ele>
        <time>2014-06-23T12:51:20Z</time>
      </trkpt>
      <trkpt lat="48.3395" lon="-3.3841">
        <ele>229</ele>
        <time>2014-06-23T12:51:22Z</time>
      </trkpt>
      <trkpt lat="48.33952" lon="-3.3841">
        <ele>229</ele>
        <time>2014-06-23T12:51:23Z</time>
      </trkpt>
      <trkpt lat="48.33953" lon="-3.3841">
        <ele>229</ele>
        <time>2014-06-23T12:51:24Z</time>
      </trkpt>
      <trkpt lat="48.33955" lon="-3.38411">
        <ele>229</ele>
        <time>2014-06-23T12:51:26Z</time>
      </trkpt>
      <trkpt lat="48.33956" lon="-3.38411">
        <ele>229</ele>
        <time>2014-06-23T12:51:27Z</time>
      </trkpt>
      <trkpt lat="48.33957" lon="-3.38412">
        <ele>229</ele>
        <time>2014-06-23T12:51:28Z</time>
      </trkpt>
      <trkpt lat="48.33958" lon="-3.38412">
        <ele>229</ele>
        <time>2014-06-23T12:51:29Z</time>
      </trkpt>
      <trkpt lat="48.3396" lon="-3.38414">
        <ele>229</ele>
        <time>2014-06-23T12:51:30Z</time>
      </trkpt>
      <trkpt lat="48.33961" lon="-3.38415">
        <ele>229</ele>
        <time>2014-06-23T12:51:32Z</time>
      </trkpt>
      <trkpt lat="48.33963" lon="-3.38416">
        <ele>229</ele>
        <time>2014-06-23T12:51:34Z</time>
      </trkpt>
      <trkpt lat="48.33964" lon="-3.38416">
        <ele>229</ele>
        <time>2014-06-23T12:51:35Z</time>
      </trkpt>
      <trkpt lat="48.33966" lon="-3.38416">
        <ele>229</ele>
        <time>2014-06-23T12:51:36Z</time>
      </trkpt>
      <trkpt lat="48.33967" lon="-3.38417">
        <ele>229</ele>
        <time>2014-06-23T12:51:37Z</time>
      </trkpt>
      <trkpt lat="48.33969" lon="-3.38418">
        <ele>229</ele>
        <time>2014-06-23T12:51:39Z</time>
      </trkpt>
      <trkpt lat="48.3397" lon="-3.38418">
        <ele>229</ele>
        <time>2014-06-23T12:51:40Z</time>
      </trkpt>
      <trkpt lat="48.33971" lon="-3.38419">
        <ele>229</ele>
        <time>2014-06-23T12:51:41Z</time>
      </trkpt>
      <trkpt lat="48.33972" lon="-3.38419">
        <ele>229</ele>
        <time>2014-06-23T12:51:42Z</time>
      </trkpt>
      <trkpt lat="48.33974" lon="-3.3842">
        <ele>229</ele>
        <time>2014-06-23T12:51:44Z</time>
      </trkpt>
      <trkpt lat="48.33975" lon="-3.3842">
        <ele>229</ele>
        <time>2014-06-23T12:51:45Z</time>
      </trkpt>
      <trkpt lat="48.33976" lon="-3.3842">
        <ele>229</ele>
        <time>2014-06-23T12:51:46Z</time>
      </trkpt>
      <trkpt lat="48.33978" lon="-3.38421">
        <ele>229</ele>
        <time>2014-06-23T12:51:47Z</time>
      </trkpt>
      <trkpt lat="48.33979" lon="-3.38421">
        <ele>229</ele>
        <time>2014-06-23T12:51:48Z</time>
      </trkpt>
      <trkpt lat="48.33981" lon="-3.38423">
        <ele>229</ele>
        <time>2014-06-23T12:51:50Z</time>
      </trkpt>
      <trkpt lat="48.33982" lon="-3.38425">
        <ele>229</ele>
        <time>2014-06-23T12:51:52Z</time>
      </trkpt>
      <trkpt lat="48.33984" lon="-3.38428">
        <ele>229</ele>
        <time>2014-06-23T12:51:54Z</time>
      </trkpt>
      <trkpt lat="48.33985" lon="-3.38431">
        <ele>229</ele>
        <time>2014-06-23T12:51:56Z</time>
      </trkpt>
      <trkpt lat="48.33985" lon="-3.38433">
        <ele>229</ele>
        <time>2014-06-23T12:51:57Z</time>
      </trkpt>
      <trkpt lat="48.33986" lon="-3.38434">
        <ele>229</ele>
        <time>2014-06-23T12:51:58Z</time>
      </trkpt>
      <trkpt lat="48.33987" lon="-3.38437">
        <ele>228</ele>
        <time>2014-06-23T12:52:00Z</time>
      </trkpt>
      <trkpt lat="48.33987" lon="-3.38439">
        <ele>228</ele>
        <time>2014-06-23T12:52:01Z</time>
      </trkpt>
      <trkpt lat="48.33989" lon="-3.38441">
        <ele>228</ele>
        <time>2014-06-23T12:52:03Z</time>
      </trkpt>
      <trkpt lat="48.33991" lon="-3.38444">
        <ele>227</ele>
        <time>2014-06-23T12:52:05Z</time>
      </trkpt>
      <trkpt lat="48.33992" lon="-3.38445">
        <ele>227</ele>
        <time>2014-06-23T12:52:06Z</time>
      </trkpt>
      <trkpt lat="48.33994" lon="-3.38447">
        <ele>227</ele>
        <time>2014-06-23T12:52:08Z</time>
      </trkpt>
      <trkpt lat="48.33995" lon="-3.38448">
        <ele>226</ele>
        <time>2014-06-23T12:52:09Z</time>
      </trkpt>
      <trkpt lat="48.33997" lon="-3.3845">
        <ele>226</ele>
        <time>2014-06-23T12:52:11Z</time>
      </trkpt>
      <trkpt lat="48.33999" lon="-3.38452">
        <ele>225</ele>
        <time>2014-06-23T12:52:13Z</time>
      </trkpt>
      <trkpt lat="48.34001" lon="-3.38455">
        <ele>225</ele>
        <time>2014-06-23T12:52:15Z</time>
      </trkpt>
      <trkpt lat="48.34003" lon="-3.38457">
        <ele>225</ele>
        <time>2014-06-23T12:52:17Z</time>
      </trkpt>
      <trkpt lat="48.34004" lon="-3.38458">
        <ele>225</ele>
        <time>2014-06-23T12:52:19Z</time>
      </trkpt>
      <trkpt lat="48.34006" lon="-3.3846">
        <ele>225</ele>
        <time>2014-06-23T12:52:21Z</time>
      </trkpt>
      <trkpt lat="48.34007" lon="-3.38462">
        <ele>224</ele>
        <time>2014-06-23T12:52:23Z</time>
      </trkpt>
      <trkpt lat="48.34008" lon="-3.38465">
        <ele>224</ele>
        <time>2014-06-23T12:52:25Z</time>
      </trkpt>
      <trkpt lat="48.34009" lon="-3.38467">
        <ele>224</ele>
        <time>2014-06-23T12:52:26Z</time>
      </trkpt>
      <trkpt lat="48.3401" lon="-3.38468">
        <ele>224</ele>
        <time>2014-06-23T12:52:28Z</time>
      </trkpt>
      <trkpt lat="48.34011" lon="-3.3847">
        <ele>224</ele>
        <time>2014-06-23T12:52:30Z</time>
      </trkpt>
      <trkpt lat="48.34013" lon="-3.38472">
        <ele>224</ele>
        <time>2014-06-23T12:52:32Z</time>
      </trkpt>
      <trkpt lat="48.34014" lon="-3.38474">
        <ele>224</ele>
        <time>2014-06-23T12:52:34Z</time>
      </trkpt>
      <trkpt lat="48.34014" lon="-3.38476">
        <ele>223</ele>
        <time>2014-06-23T12:52:36Z</time>
      </trkpt>
      <trkpt lat="48.34015" lon="-3.38478">
        <ele>223</ele>
        <time>2014-06-23T12:52:38Z</time>
      </trkpt>
      <trkpt lat="48.34016" lon="-3.3848">
        <ele>223</ele>
        <time>2014-06-23T12:52:40Z</time>
      </trkpt>
      <trkpt lat="48.34017" lon="-3.38483">
        <ele>223</ele>
        <time>2014-06-23T12:52:42Z</time>
      </trkpt>
      <trkpt lat="48.34018" lon="-3.38485">
        <ele>223</ele>
        <time>2014-06-23T12:52:43Z</time>
      </trkpt>
      <trkpt lat="48.34018" lon="-3.38487">
        <ele>223</ele>
        <time>2014-06-23T12:52:48Z</time>
      </trkpt>
      <trkpt lat="48.34019" lon="-3.3849">
        <ele>223</ele>
        <time>2014-06-23T12:52:49Z</time>
      </trkpt>
      <trkpt lat="48.34021" lon="-3.38494">
        <ele>223</ele>
        <time>2014-06-23T12:52:50Z</time>
      </trkpt>
      <trkpt lat="48.34023" lon="-3.38495">
        <ele>223</ele>
        <time>2014-06-23T12:52:51Z</time>
      </trkpt>
      <trkpt lat="48.34024" lon="-3.38498">
        <ele>223</ele>
        <time>2014-06-23T12:52:52Z</time>
      </trkpt>
      <trkpt lat="48.34025" lon="-3.385">
        <ele>223</ele>
        <time>2014-06-23T12:52:54Z</time>
      </trkpt>
      <trkpt lat="48.34026" lon="-3.38502">
        <ele>223</ele>
        <time>2014-06-23T12:52:55Z</time>
      </trkpt>
      <trkpt lat="48.34027" lon="-3.38504">
        <ele>223</ele>
        <time>2014-06-23T12:52:56Z</time>
      </trkpt>
      <trkpt lat="48.34028" lon="-3.38505">
        <ele>223</ele>
        <time>2014-06-23T12:52:57Z</time>
      </trkpt>
      <trkpt lat="48.34029" lon="-3.38507">
        <ele>223</ele>
        <time>2014-06-23T12:52:58Z</time>
      </trkpt>
      <trkpt lat="48.34031" lon="-3.3851">
        <ele>223</ele>
        <time>2014-06-23T12:53:00Z</time>
      </trkpt>
      <trkpt lat="48.34032" lon="-3.38511">
        <ele>223</ele>
        <time>2014-06-23T12:53:01Z</time>
      </trkpt>
      <trkpt lat="48.34034" lon="-3.38513">
        <ele>223</ele>
        <time>2014-06-23T12:53:03Z</time>
      </trkpt>
      <trkpt lat="48.34036" lon="-3.38513">
        <ele>223</ele>
        <time>2014-06-23T12:53:04Z</time>
      </trkpt>
      <trkpt lat="48.34037" lon="-3.38513">
        <ele>223</ele>
        <time>2014-06-23T12:53:05Z</time>
      </trkpt>
      <trkpt lat="48.34039" lon="-3.38514">
        <ele>224</ele>
        <time>2014-06-23T12:53:07Z</time>
      </trkpt>
      <trkpt lat="48.3404" lon="-3.38513">
        <ele>224</ele>
        <time>2014-06-23T12:53:09Z</time>
      </trkpt>
      <trkpt lat="48.34042" lon="-3.38513">
        <ele>224</ele>
        <time>2014-06-23T12:53:11Z</time>
      </trkpt>
      <trkpt lat="48.34043" lon="-3.38513">
        <ele>225</ele>
        <time>2014-06-23T12:53:12Z</time>
      </trkpt>
      <trkpt lat="48.34045" lon="-3.38514">
        <ele>226</ele>
        <time>2014-06-23T12:53:14Z</time>
      </trkpt>
      <trkpt lat="48.34046" lon="-3.38516">
        <ele>226</ele>
        <time>2014-06-23T12:53:16Z</time>
      </trkpt>
      <trkpt lat="48.34047" lon="-3.38517">
        <ele>227</ele>
        <time>2014-06-23T12:53:18Z</time>
      </trkpt>
      <trkpt lat="48.34049" lon="-3.38518">
        <ele>227</ele>
        <time>2014-06-23T12:53:19Z</time>
      </trkpt>
      <trkpt lat="48.34051" lon="-3.3852">
        <ele>227</ele>
        <time>2014-06-23T12:53:20Z</time>
      </trkpt>
      <trkpt lat="48.34052" lon="-3.38521">
        <ele>228</ele>
        <time>2014-06-23T12:53:22Z</time>
      </trkpt>
      <trkpt lat="48.34053" lon="-3.38523">
        <ele>230</ele>
        <time>2014-06-23T12:53:25Z</time>
      </trkpt>
      <trkpt lat="48.34055" lon="-3.38524">
        <ele>231</ele>
        <time>2014-06-23T12:53:27Z</time>
      </trkpt>
      <trkpt lat="48.34056" lon="-3.38524">
        <ele>232</ele>
        <time>2014-06-23T12:53:28Z</time>
      </trkpt>
      <trkpt lat="48.34058" lon="-3.38525">
        <ele>233</ele>
        <time>2014-06-23T12:53:30Z</time>
      </trkpt>
      <trkpt lat="48.34059" lon="-3.38525">
        <ele>234</ele>
        <time>2014-06-23T12:53:31Z</time>
      </trkpt>
      <trkpt lat="48.34061" lon="-3.38525">
        <ele>234</ele>
        <time>2014-06-23T12:53:32Z</time>
      </trkpt>
      <trkpt lat="48.34062" lon="-3.38525">
        <ele>234</ele>
        <time>2014-06-23T12:53:33Z</time>
      </trkpt>
      <trkpt lat="48.34063" lon="-3.38525">
        <ele>234</ele>
        <time>2014-06-23T12:53:34Z</time>
      </trkpt>
      <trkpt lat="48.34065" lon="-3.38525">
        <ele>234</ele>
        <time>2014-06-23T12:53:35Z</time>
      </trkpt>
      <trkpt lat="48.34066" lon="-3.38525">
        <ele>234</ele>
        <time>2014-06-23T12:53:36Z</time>
      </trkpt>
      <trkpt lat="48.34068" lon="-3.38525">
        <ele>234</ele>
        <time>2014-06-23T12:53:38Z</time>
      </trkpt>
      <trkpt lat="48.3407" lon="-3.38525">
        <ele>234</ele>
        <time>2014-06-23T12:53:39Z</time>
      </trkpt>
      <trkpt lat="48.34071" lon="-3.38525">
        <ele>233</ele>
        <time>2014-06-23T12:53:40Z</time>
      </trkpt>
      <trkpt lat="48.34073" lon="-3.38525">
        <ele>232</ele>
        <time>2014-06-23T12:53:41Z</time>
      </trkpt>
      <trkpt lat="48.34074" lon="-3.38525">
        <ele>231</ele>
        <time>2014-06-23T12:53:43Z</time>
      </trkpt>
      <trkpt lat="48.34076" lon="-3.38524">
        <ele>230</ele>
        <time>2014-06-23T12:53:45Z</time>
      </trkpt>
      <trkpt lat="48.34077" lon="-3.38524">
        <ele>230</ele>
        <time>2014-06-23T12:53:47Z</time>
      </trkpt>
      <trkpt lat="48.34079" lon="-3.38523">
        <ele>230</ele>
        <time>2014-06-23T12:53:48Z</time>
      </trkpt>
      <trkpt lat="48.3408" lon="-3.38522">
        <ele>230</ele>
        <time>2014-06-23T12:53:49Z</time>
      </trkpt>
      <trkpt lat="48.34081" lon="-3.38522">
        <ele>230</ele>
        <time>2014-06-23T12:53:50Z</time>
      </trkpt>
      <trkpt lat="48.34082" lon="-3.38522">
        <ele>230</ele>
        <time>2014-06-23T12:53:51Z</time>
      </trkpt>
      <trkpt lat="48.34084" lon="-3.38522">
        <ele>230</ele>
        <time>2014-06-23T12:53:53Z</time>
      </trkpt>
      <trkpt lat="48.34085" lon="-3.3852">
        <ele>230</ele>
        <time>2014-06-23T12:53:55Z</time>
      </trkpt>
      <trkpt lat="48.34088" lon="-3.38519">
        <ele>230</ele>
        <time>2014-06-23T12:53:57Z</time>
      </trkpt>
      <trkpt lat="48.3409" lon="-3.38519">
        <ele>230</ele>
        <time>2014-06-23T12:53:58Z</time>
      </trkpt>
      <trkpt lat="48.34092" lon="-3.38518">
        <ele>230</ele>
        <time>2014-06-23T12:53:59Z</time>
      </trkpt>
      <trkpt lat="48.34093" lon="-3.38517">
        <ele>230</ele>
        <time>2014-06-23T12:54:01Z</time>
      </trkpt>
      <trkpt lat="48.34095" lon="-3.38516">
        <ele>230</ele>
        <time>2014-06-23T12:54:03Z</time>
      </trkpt>
      <trkpt lat="48.34096" lon="-3.38515">
        <ele>230</ele>
        <time>2014-06-23T12:54:05Z</time>
      </trkpt>
      <trkpt lat="48.34098" lon="-3.38515">
        <ele>230</ele>
        <time>2014-06-23T12:54:07Z</time>
      </trkpt>
      <trkpt lat="48.341" lon="-3.38514">
        <ele>230</ele>
        <time>2014-06-23T12:54:09Z</time>
      </trkpt>
      <trkpt lat="48.34101" lon="-3.38513">
        <ele>230</ele>
        <time>2014-06-23T12:54:10Z</time>
      </trkpt>
      <trkpt lat="48.34103" lon="-3.38511">
        <ele>230</ele>
        <time>2014-06-23T12:54:12Z</time>
      </trkpt>
      <trkpt lat="48.34104" lon="-3.38511">
        <ele>230</ele>
        <time>2014-06-23T12:54:13Z</time>
      </trkpt>
      <trkpt lat="48.34105" lon="-3.38512">
        <ele>230</ele>
        <time>2014-06-23T12:54:14Z</time>
      </trkpt>
      <trkpt lat="48.34106" lon="-3.38513">
        <ele>230</ele>
        <time>2014-06-23T12:54:18Z</time>
      </trkpt>
      <trkpt lat="48.34107" lon="-3.38515">
        <ele>231</ele>
        <time>2014-06-23T12:54:20Z</time>
      </trkpt>
      <trkpt lat="48.34109" lon="-3.38515">
        <ele>232</ele>
        <time>2014-06-23T12:54:22Z</time>
      </trkpt>
      <trkpt lat="48.3411" lon="-3.38516">
        <ele>233</ele>
        <time>2014-06-23T12:54:24Z</time>
      </trkpt>
      <trkpt lat="48.34111" lon="-3.38519">
        <ele>233</ele>
        <time>2014-06-23T12:54:26Z</time>
      </trkpt>
      <trkpt lat="48.34112" lon="-3.3852">
        <ele>233</ele>
        <time>2014-06-23T12:54:28Z</time>
      </trkpt>
      <trkpt lat="48.34114" lon="-3.38521">
        <ele>233</ele>
        <time>2014-06-23T12:54:31Z</time>
      </trkpt>
      <trkpt lat="48.34115" lon="-3.38522">
        <ele>233</ele>
        <time>2014-06-23T12:54:32Z</time>
      </trkpt>
      <trkpt lat="48.34116" lon="-3.38522">
        <ele>233</ele>
        <time>2014-06-23T12:54:33Z</time>
      </trkpt>
      <trkpt lat="48.34118" lon="-3.38522">
        <ele>233</ele>
        <time>2014-06-23T12:54:34Z</time>
      </trkpt>
      <trkpt lat="48.34119" lon="-3.38524">
        <ele>233</ele>
        <time>2014-06-23T12:54:37Z</time>
      </trkpt>
      <trkpt lat="48.3412" lon="-3.38527">
        <ele>233</ele>
        <time>2014-06-23T12:54:39Z</time>
      </trkpt>
      <trkpt lat="48.34121" lon="-3.38528">
        <ele>233</ele>
        <time>2014-06-23T12:54:41Z</time>
      </trkpt>
      <trkpt lat="48.34123" lon="-3.3853">
        <ele>233</ele>
        <time>2014-06-23T12:54:43Z</time>
      </trkpt>
      <trkpt lat="48.34125" lon="-3.3853">
        <ele>233</ele>
        <time>2014-06-23T12:54:45Z</time>
      </trkpt>
      <trkpt lat="48.34126" lon="-3.38531">
        <ele>233</ele>
        <time>2014-06-23T12:54:47Z</time>
      </trkpt>
      <trkpt lat="48.34127" lon="-3.38533">
        <ele>233</ele>
        <time>2014-06-23T12:54:49Z</time>
      </trkpt>
      <trkpt lat="48.34129" lon="-3.38534">
        <ele>233</ele>
        <time>2014-06-23T12:54:51Z</time>
      </trkpt>
      <trkpt lat="48.3413" lon="-3.38535">
        <ele>233</ele>
        <time>2014-06-23T12:54:52Z</time>
      </trkpt>
      <trkpt lat="48.34132" lon="-3.38536">
        <ele>233</ele>
        <time>2014-06-23T12:54:53Z</time>
      </trkpt>
      <trkpt lat="48.34134" lon="-3.38536">
        <ele>233</ele>
        <time>2014-06-23T12:54:55Z</time>
      </trkpt>
      <trkpt lat="48.34136" lon="-3.38535">
        <ele>233</ele>
        <time>2014-06-23T12:54:57Z</time>
      </trkpt>
      <trkpt lat="48.34137" lon="-3.38535">
        <ele>233</ele>
        <time>2014-06-23T12:54:59Z</time>
      </trkpt>
      <trkpt lat="48.34138" lon="-3.38537">
        <ele>233</ele>
        <time>2014-06-23T12:55:01Z</time>
      </trkpt>
      <trkpt lat="48.34139" lon="-3.38538">
        <ele>233</ele>
        <time>2014-06-23T12:55:03Z</time>
      </trkpt>
      <trkpt lat="48.34141" lon="-3.38539">
        <ele>233</ele>
        <time>2014-06-23T12:55:05Z</time>
      </trkpt>
      <trkpt lat="48.34142" lon="-3.3854">
        <ele>233</ele>
        <time>2014-06-23T12:55:07Z</time>
      </trkpt>
      <trkpt lat="48.34142" lon="-3.38542">
        <ele>233</ele>
        <time>2014-06-23T12:55:10Z</time>
      </trkpt>
      <trkpt lat="48.34143" lon="-3.38545">
        <ele>233</ele>
        <time>2014-06-23T12:55:14Z</time>
      </trkpt>
      <trkpt lat="48.34143" lon="-3.38546">
        <ele>233</ele>
        <time>2014-06-23T12:55:17Z</time>
      </trkpt>
      <trkpt lat="48.34143" lon="-3.38549">
        <ele>233</ele>
        <time>2014-06-23T12:55:21Z</time>
      </trkpt>
      <trkpt lat="48.34143" lon="-3.38547">
        <ele>229</ele>
        <time>2014-06-23T12:55:30Z</time>
      </trkpt>
      <trkpt lat="48.34142" lon="-3.38548">
        <ele>228</ele>
        <time>2014-06-23T12:55:35Z</time>
      </trkpt>
      <trkpt lat="48.34141" lon="-3.3855">
        <ele>228</ele>
        <time>2014-06-23T12:55:37Z</time>
      </trkpt>
      <trkpt lat="48.34141" lon="-3.38552">
        <ele>228</ele>
        <time>2014-06-23T12:55:38Z</time>
      </trkpt>
      <trkpt lat="48.3414" lon="-3.38555">
        <ele>228</ele>
        <time>2014-06-23T12:55:40Z</time>
      </trkpt>
      <trkpt lat="48.34139" lon="-3.38558">
        <ele>228</ele>
        <time>2014-06-23T12:55:41Z</time>
      </trkpt>
      <trkpt lat="48.34138" lon="-3.3856">
        <ele>228</ele>
        <time>2014-06-23T12:55:42Z</time>
      </trkpt>
      <trkpt lat="48.34139" lon="-3.38562">
        <ele>228</ele>
        <time>2014-06-23T12:55:43Z</time>
      </trkpt>
      <trkpt lat="48.34139" lon="-3.38564">
        <ele>228</ele>
        <time>2014-06-23T12:55:44Z</time>
      </trkpt>
      <trkpt lat="48.3414" lon="-3.38568">
        <ele>228</ele>
        <time>2014-06-23T12:55:46Z</time>
      </trkpt>
      <trkpt lat="48.34141" lon="-3.3857">
        <ele>227</ele>
        <time>2014-06-23T12:55:47Z</time>
      </trkpt>
      <trkpt lat="48.34141" lon="-3.38572">
        <ele>227</ele>
        <time>2014-06-23T12:55:48Z</time>
      </trkpt>
      <trkpt lat="48.34142" lon="-3.38574">
        <ele>226</ele>
        <time>2014-06-23T12:55:49Z</time>
      </trkpt>
      <trkpt lat="48.34143" lon="-3.38578">
        <ele>225</ele>
        <time>2014-06-23T12:55:51Z</time>
      </trkpt>
      <trkpt lat="48.34145" lon="-3.38581">
        <ele>225</ele>
        <time>2014-06-23T12:55:53Z</time>
      </trkpt>
      <trkpt lat="48.34147" lon="-3.38582">
        <ele>225</ele>
        <time>2014-06-23T12:55:55Z</time>
      </trkpt>
      <trkpt lat="48.34148" lon="-3.38584">
        <ele>225</ele>
        <time>2014-06-23T12:55:58Z</time>
      </trkpt>
      <trkpt lat="48.34149" lon="-3.38587">
        <ele>225</ele>
        <time>2014-06-23T12:56:00Z</time>
      </trkpt>
      <trkpt lat="48.3415" lon="-3.38589">
        <ele>225</ele>
        <time>2014-06-23T12:56:02Z</time>
      </trkpt>
      <trkpt lat="48.3415" lon="-3.38591">
        <ele>225</ele>
        <time>2014-06-23T12:56:03Z</time>
      </trkpt>
      <trkpt lat="48.3415" lon="-3.38593">
        <ele>225</ele>
        <time>2014-06-23T12:56:04Z</time>
      </trkpt>
      <trkpt lat="48.3415" lon="-3.38595">
        <ele>224</ele>
        <time>2014-06-23T12:56:06Z</time>
      </trkpt>
      <trkpt lat="48.3415" lon="-3.38596">
        <ele>223</ele>
        <time>2014-06-23T12:56:08Z</time>
      </trkpt>
      <trkpt lat="48.3415" lon="-3.38599">
        <ele>222</ele>
        <time>2014-06-23T12:56:10Z</time>
      </trkpt>
      <trkpt lat="48.34151" lon="-3.38601">
        <ele>220</ele>
        <time>2014-06-23T12:56:12Z</time>
      </trkpt>
      <trkpt lat="48.34152" lon="-3.38603">
        <ele>218</ele>
        <time>2014-06-23T12:56:15Z</time>
      </trkpt>
      <trkpt lat="48.34152" lon="-3.38605">
        <ele>217</ele>
        <time>2014-06-23T12:56:16Z</time>
      </trkpt>
      <trkpt lat="48.34152" lon="-3.38608">
        <ele>217</ele>
        <time>2014-06-23T12:56:18Z</time>
      </trkpt>
      <trkpt lat="48.34152" lon="-3.3861">
        <ele>216</ele>
        <time>2014-06-23T12:56:19Z</time>
      </trkpt>
      <trkpt lat="48.34152" lon="-3.38612">
        <ele>216</ele>
        <time>2014-06-23T12:56:20Z</time>
      </trkpt>
      <trkpt lat="48.34152" lon="-3.38614">
        <ele>216</ele>
        <time>2014-06-23T12:56:21Z</time>
      </trkpt>
      <trkpt lat="48.34152" lon="-3.38616">
        <ele>216</ele>
        <time>2014-06-23T12:56:22Z</time>
      </trkpt>
      <trkpt lat="48.34151" lon="-3.38618">
        <ele>216</ele>
        <time>2014-06-23T12:56:23Z</time>
      </trkpt>
      <trkpt lat="48.34152" lon="-3.38621">
        <ele>216</ele>
        <time>2014-06-23T12:56:25Z</time>
      </trkpt>
      <trkpt lat="48.34153" lon="-3.38623">
        <ele>216</ele>
        <time>2014-06-23T12:56:26Z</time>
      </trkpt>
      <trkpt lat="48.34153" lon="-3.38626">
        <ele>216</ele>
        <time>2014-06-23T12:56:27Z</time>
      </trkpt>
      <trkpt lat="48.34155" lon="-3.38627">
        <ele>216</ele>
        <time>2014-06-23T12:56:28Z</time>
      </trkpt>
      <trkpt lat="48.34156" lon="-3.3863">
        <ele>216</ele>
        <time>2014-06-23T12:56:30Z</time>
      </trkpt>
      <trkpt lat="48.34158" lon="-3.38633">
        <ele>216</ele>
        <time>2014-06-23T12:56:32Z</time>
      </trkpt>
      <trkpt lat="48.34159" lon="-3.38635">
        <ele>216</ele>
        <time>2014-06-23T12:56:34Z</time>
      </trkpt>
      <trkpt lat="48.34161" lon="-3.38637">
        <ele>216</ele>
        <time>2014-06-23T12:56:36Z</time>
      </trkpt>
      <trkpt lat="48.34162" lon="-3.38641">
        <ele>215</ele>
        <time>2014-06-23T12:56:38Z</time>
      </trkpt>
      <trkpt lat="48.34163" lon="-3.38642">
        <ele>215</ele>
        <time>2014-06-23T12:56:39Z</time>
      </trkpt>
      <trkpt lat="48.34164" lon="-3.38645">
        <ele>215</ele>
        <time>2014-06-23T12:56:41Z</time>
      </trkpt>
      <trkpt lat="48.34165" lon="-3.38647">
        <ele>215</ele>
        <time>2014-06-23T12:56:43Z</time>
      </trkpt>
      <trkpt lat="48.34167" lon="-3.3865">
        <ele>215</ele>
        <time>2014-06-23T12:56:45Z</time>
      </trkpt>
      <trkpt lat="48.34168" lon="-3.38652">
        <ele>214</ele>
        <time>2014-06-23T12:56:47Z</time>
      </trkpt>
      <trkpt lat="48.3417" lon="-3.38653">
        <ele>213</ele>
        <time>2014-06-23T12:56:49Z</time>
      </trkpt>
      <trkpt lat="48.34171" lon="-3.38654">
        <ele>212</ele>
        <time>2014-06-23T12:56:50Z</time>
      </trkpt>
      <trkpt lat="48.34172" lon="-3.38656">
        <ele>211</ele>
        <time>2014-06-23T12:56:51Z</time>
      </trkpt>
      <trkpt lat="48.34173" lon="-3.38657">
        <ele>211</ele>
        <time>2014-06-23T12:56:52Z</time>
      </trkpt>
      <trkpt lat="48.34175" lon="-3.38659">
        <ele>211</ele>
        <time>2014-06-23T12:56:54Z</time>
      </trkpt>
      <trkpt lat="48.34178" lon="-3.3866">
        <ele>211</ele>
        <time>2014-06-23T12:56:56Z</time>
      </trkpt>
      <trkpt lat="48.34179" lon="-3.38662">
        <ele>211</ele>
        <time>2014-06-23T12:56:57Z</time>
      </trkpt>
      <trkpt lat="48.34181" lon="-3.38664">
        <ele>211</ele>
        <time>2014-06-23T12:56:59Z</time>
      </trkpt>
      <trkpt lat="48.34183" lon="-3.38665">
        <ele>211</ele>
        <time>2014-06-23T12:57:01Z</time>
      </trkpt>
      <trkpt lat="48.34185" lon="-3.38666">
        <ele>211</ele>
        <time>2014-06-23T12:57:03Z</time>
      </trkpt>
      <trkpt lat="48.34186" lon="-3.38667">
        <ele>211</ele>
        <time>2014-06-23T12:57:05Z</time>
      </trkpt>
      <trkpt lat="48.34187" lon="-3.3867">
        <ele>211</ele>
        <time>2014-06-23T12:57:07Z</time>
      </trkpt>
      <trkpt lat="48.34188" lon="-3.38671">
        <ele>211</ele>
        <time>2014-06-23T12:57:09Z</time>
      </trkpt>
      <trkpt lat="48.3419" lon="-3.38671">
        <ele>211</ele>
        <time>2014-06-23T12:57:10Z</time>
      </trkpt>
      <trkpt lat="48.34193" lon="-3.38671">
        <ele>211</ele>
        <time>2014-06-23T12:57:12Z</time>
      </trkpt>
      <trkpt lat="48.34194" lon="-3.38671">
        <ele>211</ele>
        <time>2014-06-23T12:57:13Z</time>
      </trkpt>
      <trkpt lat="48.34195" lon="-3.38672">
        <ele>211</ele>
        <time>2014-06-23T12:57:14Z</time>
      </trkpt>
      <trkpt lat="48.34197" lon="-3.38674">
        <ele>211</ele>
        <time>2014-06-23T12:57:16Z</time>
      </trkpt>
      <trkpt lat="48.34198" lon="-3.38674">
        <ele>211</ele>
        <time>2014-06-23T12:57:17Z</time>
      </trkpt>
      <trkpt lat="48.342" lon="-3.38673">
        <ele>211</ele>
        <time>2014-06-23T12:57:18Z</time>
      </trkpt>
      <trkpt lat="48.34201" lon="-3.38672">
        <ele>211</ele>
        <time>2014-06-23T12:57:20Z</time>
      </trkpt>
      <trkpt lat="48.34203" lon="-3.38674">
        <ele>211</ele>
        <time>2014-06-23T12:57:22Z</time>
      </trkpt>
      <trkpt lat="48.34204" lon="-3.38673">
        <ele>211</ele>
        <time>2014-06-23T12:57:24Z</time>
      </trkpt>
      <trkpt lat="48.34206" lon="-3.38672">
        <ele>211</ele>
        <time>2014-06-23T12:57:26Z</time>
      </trkpt>
      <trkpt lat="48.34209" lon="-3.38672">
        <ele>211</ele>
        <time>2014-06-23T12:57:28Z</time>
      </trkpt>
      <trkpt lat="48.34211" lon="-3.3867">
        <ele>211</ele>
        <time>2014-06-23T12:57:29Z</time>
      </trkpt>
      <trkpt lat="48.34212" lon="-3.3867">
        <ele>211</ele>
        <time>2014-06-23T12:57:30Z</time>
      </trkpt>
      <trkpt lat="48.34214" lon="-3.38669">
        <ele>211</ele>
        <time>2014-06-23T12:57:31Z</time>
      </trkpt>
      <trkpt lat="48.34216" lon="-3.38668">
        <ele>210</ele>
        <time>2014-06-23T12:57:32Z</time>
      </trkpt>
      <trkpt lat="48.34217" lon="-3.38668">
        <ele>210</ele>
        <time>2014-06-23T12:57:34Z</time>
      </trkpt>
      <trkpt lat="48.34218" lon="-3.38668">
        <ele>209</ele>
        <time>2014-06-23T12:57:35Z</time>
      </trkpt>
      <trkpt lat="48.3422" lon="-3.38667">
        <ele>209</ele>
        <time>2014-06-23T12:57:37Z</time>
      </trkpt>
      <trkpt lat="48.34221" lon="-3.38666">
        <ele>208</ele>
        <time>2014-06-23T12:57:38Z</time>
      </trkpt>
      <trkpt lat="48.34222" lon="-3.38666">
        <ele>208</ele>
        <time>2014-06-23T12:57:39Z</time>
      </trkpt>
      <trkpt lat="48.34225" lon="-3.38666">
        <ele>207</ele>
        <time>2014-06-23T12:57:41Z</time>
      </trkpt>
      <trkpt lat="48.34227" lon="-3.38664">
        <ele>207</ele>
        <time>2014-06-23T12:57:43Z</time>
      </trkpt>
      <trkpt lat="48.3423" lon="-3.38662">
        <ele>207</ele>
        <time>2014-06-23T12:57:45Z</time>
      </trkpt>
      <trkpt lat="48.34231" lon="-3.38663">
        <ele>207</ele>
        <time>2014-06-23T12:57:47Z</time>
      </trkpt>
      <trkpt lat="48.34232" lon="-3.38664">
        <ele>207</ele>
        <time>2014-06-23T12:57:49Z</time>
      </trkpt>
      <trkpt lat="48.34234" lon="-3.38662">
        <ele>207</ele>
        <time>2014-06-23T12:57:51Z</time>
      </trkpt>
      <trkpt lat="48.34235" lon="-3.38661">
        <ele>207</ele>
        <time>2014-06-23T12:57:52Z</time>
      </trkpt>
      <trkpt lat="48.34237" lon="-3.38661">
        <ele>207</ele>
        <time>2014-06-23T12:57:54Z</time>
      </trkpt>
      <trkpt lat="48.34239" lon="-3.38661">
        <ele>207</ele>
        <time>2014-06-23T12:57:56Z</time>
      </trkpt>
      <trkpt lat="48.3424" lon="-3.38661">
        <ele>207</ele>
        <time>2014-06-23T12:58:00Z</time>
      </trkpt>
      <trkpt lat="48.34242" lon="-3.38661">
        <ele>207</ele>
        <time>2014-06-23T12:58:03Z</time>
      </trkpt>
      <trkpt lat="48.34243" lon="-3.38661">
        <ele>207</ele>
        <time>2014-06-23T12:58:07Z</time>
      </trkpt>
      <trkpt lat="48.34245" lon="-3.38661">
        <ele>207</ele>
        <time>2014-06-23T12:58:09Z</time>
      </trkpt>
      <trkpt lat="48.34247" lon="-3.3866">
        <ele>207</ele>
        <time>2014-06-23T12:58:11Z</time>
      </trkpt>
      <trkpt lat="48.34249" lon="-3.38659">
        <ele>207</ele>
        <time>2014-06-23T12:58:12Z</time>
      </trkpt>
      <trkpt lat="48.3425" lon="-3.38658">
        <ele>207</ele>
        <time>2014-06-23T12:58:14Z</time>
      </trkpt>
      <trkpt lat="48.34251" lon="-3.38658">
        <ele>207</ele>
        <time>2014-06-23T12:58:16Z</time>
      </trkpt>
      <trkpt lat="48.34253" lon="-3.38657">
        <ele>207</ele>
        <time>2014-06-23T12:58:18Z</time>
      </trkpt>
      <trkpt lat="48.34254" lon="-3.38658">
        <ele>207</ele>
        <time>2014-06-23T12:58:20Z</time>
      </trkpt>
      <trkpt lat="48.34256" lon="-3.38657">
        <ele>207</ele>
        <time>2014-06-23T12:58:22Z</time>
      </trkpt>
      <trkpt lat="48.34258" lon="-3.38658">
        <ele>207</ele>
        <time>2014-06-23T12:58:24Z</time>
      </trkpt>
      <trkpt lat="48.3426" lon="-3.38656">
        <ele>207</ele>
        <time>2014-06-23T12:58:28Z</time>
      </trkpt>
      <trkpt lat="48.34261" lon="-3.38655">
        <ele>209</ele>
        <time>2014-06-23T12:58:31Z</time>
      </trkpt>
      <trkpt lat="48.34262" lon="-3.38654">
        <ele>209</ele>
        <time>2014-06-23T12:58:35Z</time>
      </trkpt>
      <trkpt lat="48.34264" lon="-3.38653">
        <ele>209</ele>
        <time>2014-06-23T12:58:36Z</time>
      </trkpt>
      <trkpt lat="48.34266" lon="-3.38652">
        <ele>209</ele>
        <time>2014-06-23T12:58:37Z</time>
      </trkpt>
      <trkpt lat="48.34268" lon="-3.38652">
        <ele>209</ele>
        <time>2014-06-23T12:58:38Z</time>
      </trkpt>
      <trkpt lat="48.34269" lon="-3.3865">
        <ele>209</ele>
        <time>2014-06-23T12:58:39Z</time>
      </trkpt>
      <trkpt lat="48.3427" lon="-3.38648">
        <ele>209</ele>
        <time>2014-06-23T12:58:40Z</time>
      </trkpt>
      <trkpt lat="48.34271" lon="-3.38646">
        <ele>209</ele>
        <time>2014-06-23T12:58:42Z</time>
      </trkpt>
      <trkpt lat="48.3427" lon="-3.38648">
        <ele>209</ele>
        <time>2014-06-23T12:58:50Z</time>
      </trkpt>
      <trkpt lat="48.34271" lon="-3.38651">
        <ele>209</ele>
        <time>2014-06-23T12:58:52Z</time>
      </trkpt>
      <trkpt lat="48.34271" lon="-3.38653">
        <ele>209</ele>
        <time>2014-06-23T12:58:56Z</time>
      </trkpt>
      <trkpt lat="48.34271" lon="-3.38655">
        <ele>209</ele>
        <time>2014-06-23T12:58:58Z</time>
      </trkpt>
      <trkpt lat="48.34271" lon="-3.38657">
        <ele>209</ele>
        <time>2014-06-23T12:59:00Z</time>
      </trkpt>
      <trkpt lat="48.34272" lon="-3.38659">
        <ele>209</ele>
        <time>2014-06-23T12:59:02Z</time>
      </trkpt>
      <trkpt lat="48.34274" lon="-3.38661">
        <ele>209</ele>
        <time>2014-06-23T12:59:04Z</time>
      </trkpt>
      <trkpt lat="48.34274" lon="-3.38663">
        <ele>206</ele>
        <time>2014-06-23T12:59:07Z</time>
      </trkpt>
      <trkpt lat="48.34274" lon="-3.38665">
        <ele>205</ele>
        <time>2014-06-23T12:59:10Z</time>
      </trkpt>
      <trkpt lat="48.34275" lon="-3.38666">
        <ele>205</ele>
        <time>2014-06-23T12:59:12Z</time>
      </trkpt>
      <trkpt lat="48.34277" lon="-3.38668">
        <ele>204</ele>
        <time>2014-06-23T12:59:16Z</time>
      </trkpt>
      <trkpt lat="48.34278" lon="-3.38668">
        <ele>204</ele>
        <time>2014-06-23T12:59:18Z</time>
      </trkpt>
      <trkpt lat="48.34279" lon="-3.38668">
        <ele>203</ele>
        <time>2014-06-23T12:59:20Z</time>
      </trkpt>
      <trkpt lat="48.34278" lon="-3.38669">
        <ele>199</ele>
        <time>2014-06-23T12:59:26Z</time>
      </trkpt>
      <trkpt lat="48.34279" lon="-3.38671">
        <ele>199</ele>
        <time>2014-06-23T12:59:28Z</time>
      </trkpt>
      <trkpt lat="48.34278" lon="-3.38669">
        <ele>199</ele>
        <time>2014-06-23T12:59:31Z</time>
      </trkpt>
      <trkpt lat="48.34277" lon="-3.38668">
        <ele>199</ele>
        <time>2014-06-23T12:59:32Z</time>
      </trkpt>
      <trkpt lat="48.34276" lon="-3.38667">
        <ele>194</ele>
        <time>2014-06-23T12:59:37Z</time>
      </trkpt>
      <trkpt lat="48.34273" lon="-3.38664">
        <ele>194</ele>
        <time>2014-06-23T12:59:42Z</time>
      </trkpt>
      <trkpt lat="48.34272" lon="-3.38663">
        <ele>194</ele>
        <time>2014-06-23T12:59:44Z</time>
      </trkpt>
      <trkpt lat="48.34274" lon="-3.38665">
        <ele>194</ele>
        <time>2014-06-23T12:59:46Z</time>
      </trkpt>
      <trkpt lat="48.34275" lon="-3.38666">
        <ele>194</ele>
        <time>2014-06-23T12:59:47Z</time>
      </trkpt>
      <trkpt lat="48.34276" lon="-3.38667">
        <ele>194</ele>
        <time>2014-06-23T12:59:48Z</time>
      </trkpt>
      <trkpt lat="48.34277" lon="-3.38669">
        <ele>194</ele>
        <time>2014-06-23T12:59:50Z</time>
      </trkpt>
      <trkpt lat="48.34278" lon="-3.38669">
        <ele>193</ele>
        <time>2014-06-23T12:59:52Z</time>
      </trkpt>
      <trkpt lat="48.34278" lon="-3.38671">
        <ele>192</ele>
        <time>2014-06-23T12:59:53Z</time>
      </trkpt>
      <trkpt lat="48.34279" lon="-3.38673">
        <ele>192</ele>
        <time>2014-06-23T12:59:55Z</time>
      </trkpt>
      <trkpt lat="48.3428" lon="-3.38675">
        <ele>192</ele>
        <time>2014-06-23T12:59:58Z</time>
      </trkpt>
      <trkpt lat="48.3428" lon="-3.38678">
        <ele>192</ele>
        <time>2014-06-23T13:00:00Z</time>
      </trkpt>
      <trkpt lat="48.3428" lon="-3.38679">
        <ele>194</ele>
        <time>2014-06-23T13:00:05Z</time>
      </trkpt>
      <trkpt lat="48.34281" lon="-3.38681">
        <ele>196</ele>
        <time>2014-06-23T13:00:07Z</time>
      </trkpt>
      <trkpt lat="48.34282" lon="-3.3868">
        <ele>199</ele>
        <time>2014-06-23T13:00:17Z</time>
      </trkpt>
      <trkpt lat="48.34283" lon="-3.38679">
        <ele>199</ele>
        <time>2014-06-23T13:00:19Z</time>
      </trkpt>
      <trkpt lat="48.34284" lon="-3.38678">
        <ele>199</ele>
        <time>2014-06-23T13:00:21Z</time>
      </trkpt>
      <trkpt lat="48.34283" lon="-3.38678">
        <ele>201</ele>
        <time>2014-06-23T13:00:30Z</time>
      </trkpt>
      <trkpt lat="48.34283" lon="-3.3868">
        <ele>201</ele>
        <time>2014-06-23T13:00:39Z</time>
      </trkpt>
      <trkpt lat="48.34283" lon="-3.38682">
        <ele>201</ele>
        <time>2014-06-23T13:00:42Z</time>
      </trkpt>
      <trkpt lat="48.34284" lon="-3.38682">
        <ele>201</ele>
        <time>2014-06-23T13:00:50Z</time>
      </trkpt>
      <trkpt lat="48.34285" lon="-3.3868">
        <ele>199</ele>
        <time>2014-06-23T13:00:53Z</time>
      </trkpt>
      <trkpt lat="48.34284" lon="-3.38681">
        <ele>197</ele>
        <time>2014-06-23T13:00:55Z</time>
      </trkpt>
      <trkpt lat="48.34283" lon="-3.38683">
        <ele>196</ele>
        <time>2014-06-23T13:01:02Z</time>
      </trkpt>
      <trkpt lat="48.34283" lon="-3.38685">
        <ele>196</ele>
        <time>2014-06-23T13:01:09Z</time>
      </trkpt>
      <trkpt lat="48.34282" lon="-3.38686">
        <ele>196</ele>
        <time>2014-06-23T13:01:16Z</time>
      </trkpt>
      <trkpt lat="48.34282" lon="-3.38688">
        <ele>196</ele>
        <time>2014-06-23T13:01:18Z</time>
      </trkpt>
      <trkpt lat="48.34282" lon="-3.3869">
        <ele>196</ele>
        <time>2014-06-23T13:01:19Z</time>
      </trkpt>
      <trkpt lat="48.34283" lon="-3.38691">
        <ele>196</ele>
        <time>2014-06-23T13:01:21Z</time>
      </trkpt>
      <trkpt lat="48.34284" lon="-3.38692">
        <ele>197</ele>
        <time>2014-06-23T13:01:24Z</time>
      </trkpt>
      <trkpt lat="48.34285" lon="-3.38692">
        <ele>197</ele>
        <time>2014-06-23T13:01:27Z</time>
      </trkpt>
      <trkpt lat="48.34287" lon="-3.38692">
        <ele>197</ele>
        <time>2014-06-23T13:01:31Z</time>
      </trkpt>
      <trkpt lat="48.34288" lon="-3.3869">
        <ele>197</ele>
        <time>2014-06-23T13:01:36Z</time>
      </trkpt>
      <trkpt lat="48.3429" lon="-3.3869">
        <ele>196</ele>
        <time>2014-06-23T13:01:41Z</time>
      </trkpt>
      <trkpt lat="48.34291" lon="-3.3869">
        <ele>196</ele>
        <time>2014-06-23T13:01:43Z</time>
      </trkpt>
      <trkpt lat="48.34292" lon="-3.38688">
        <ele>195</ele>
        <time>2014-06-23T13:01:46Z</time>
      </trkpt>
      <trkpt lat="48.34291" lon="-3.38687">
        <ele>194</ele>
        <time>2014-06-23T13:01:50Z</time>
      </trkpt>
      <trkpt lat="48.34293" lon="-3.38685">
        <ele>193</ele>
        <time>2014-06-23T13:01:57Z</time>
      </trkpt>
      <trkpt lat="48.34294" lon="-3.38684">
        <ele>193</ele>
        <time>2014-06-23T13:02:00Z</time>
      </trkpt>
      <trkpt lat="48.34295" lon="-3.38682">
        <ele>193</ele>
        <time>2014-06-23T13:02:03Z</time>
      </trkpt>
      <trkpt lat="48.34295" lon="-3.3868">
        <ele>193</ele>
        <time>2014-06-23T13:02:05Z</time>
      </trkpt>
      <trkpt lat="48.34296" lon="-3.38678">
        <ele>193</ele>
        <time>2014-06-23T13:02:07Z</time>
      </trkpt>
      <trkpt lat="48.34297" lon="-3.38677">
        <ele>193</ele>
        <time>2014-06-23T13:02:11Z</time>
      </trkpt>
      <trkpt lat="48.34295" lon="-3.38676">
        <ele>194</ele>
        <time>2014-06-23T13:02:18Z</time>
      </trkpt>
      <trkpt lat="48.34293" lon="-3.38677">
        <ele>194</ele>
        <time>2014-06-23T13:02:22Z</time>
      </trkpt>
      <trkpt lat="48.34292" lon="-3.38675">
        <ele>194</ele>
        <time>2014-06-23T13:02:24Z</time>
      </trkpt>
      <trkpt lat="48.3429" lon="-3.38674">
        <ele>194</ele>
        <time>2014-06-23T13:02:26Z</time>
      </trkpt>
      <trkpt lat="48.3429" lon="-3.38677">
        <ele>193</ele>
        <time>2014-06-23T13:02:29Z</time>
      </trkpt>
      <trkpt lat="48.34291" lon="-3.38678">
        <ele>192</ele>
        <time>2014-06-23T13:02:31Z</time>
      </trkpt>
      <trkpt lat="48.34292" lon="-3.38676">
        <ele>192</ele>
        <time>2014-06-23T13:02:35Z</time>
      </trkpt>
      <trkpt lat="48.34295" lon="-3.38678">
        <ele>192</ele>
        <time>2014-06-23T13:02:42Z</time>
      </trkpt>
      <trkpt lat="48.34296" lon="-3.3868">
        <ele>192</ele>
        <time>2014-06-23T13:02:45Z</time>
      </trkpt>
      <trkpt lat="48.34296" lon="-3.38683">
        <ele>192</ele>
        <time>2014-06-23T13:02:47Z</time>
      </trkpt>
      <trkpt lat="48.34296" lon="-3.38685">
        <ele>192</ele>
        <time>2014-06-23T13:02:49Z</time>
      </trkpt>
      <trkpt lat="48.34295" lon="-3.38685">
        <ele>192</ele>
        <time>2014-06-23T13:02:57Z</time>
      </trkpt>
      <trkpt lat="48.34296" lon="-3.38687">
        <ele>192</ele>
        <time>2014-06-23T13:03:05Z</time>
      </trkpt>
      <trkpt lat="48.34298" lon="-3.38689">
        <ele>192</ele>
        <time>2014-06-23T13:03:07Z</time>
      </trkpt>
      <trkpt lat="48.34299" lon="-3.38689">
        <ele>192</ele>
        <time>2014-06-23T13:03:10Z</time>
      </trkpt>
      <trkpt lat="48.343" lon="-3.3869">
        <ele>192</ele>
        <time>2014-06-23T13:03:12Z</time>
      </trkpt>
      <trkpt lat="48.34302" lon="-3.38692">
        <ele>192</ele>
        <time>2014-06-23T13:03:14Z</time>
      </trkpt>
      <trkpt lat="48.34304" lon="-3.38695">
        <ele>192</ele>
        <time>2014-06-23T13:03:15Z</time>
      </trkpt>
      <trkpt lat="48.34303" lon="-3.38694">
        <ele>193</ele>
        <time>2014-06-23T13:03:22Z</time>
      </trkpt>
      <trkpt lat="48.34302" lon="-3.38692">
        <ele>193</ele>
        <time>2014-06-23T13:03:26Z</time>
      </trkpt>
      <trkpt lat="48.34301" lon="-3.3869">
        <ele>193</ele>
        <time>2014-06-23T13:03:28Z</time>
      </trkpt>
      <trkpt lat="48.343" lon="-3.38689">
        <ele>193</ele>
        <time>2014-06-23T13:03:30Z</time>
      </trkpt>
      <trkpt lat="48.34299" lon="-3.38686">
        <ele>193</ele>
        <time>2014-06-23T13:03:33Z</time>
      </trkpt>
      <trkpt lat="48.343" lon="-3.38689">
        <ele>193</ele>
        <time>2014-06-23T13:03:41Z</time>
      </trkpt>
      <trkpt lat="48.34299" lon="-3.38689">
        <ele>193</ele>
        <time>2014-06-23T13:03:45Z</time>
      </trkpt>
      <trkpt lat="48.34298" lon="-3.38689">
        <ele>193</ele>
        <time>2014-06-23T13:03:49Z</time>
      </trkpt>
      <trkpt lat="48.34297" lon="-3.38689">
        <ele>191</ele>
        <time>2014-06-23T13:03:53Z</time>
      </trkpt>
      <trkpt lat="48.34297" lon="-3.38687">
        <ele>190</ele>
        <time>2014-06-23T13:04:01Z</time>
      </trkpt>
      <trkpt lat="48.34297" lon="-3.38685">
        <ele>190</ele>
        <time>2014-06-23T13:04:04Z</time>
      </trkpt>
      <trkpt lat="48.34295" lon="-3.38683">
        <ele>190</ele>
        <time>2014-06-23T13:04:07Z</time>
      </trkpt>
      <trkpt lat="48.34297" lon="-3.38685">
        <ele>190</ele>
        <time>2014-06-23T13:04:13Z</time>
      </trkpt>
      <trkpt lat="48.34298" lon="-3.38685">
        <ele>190</ele>
        <time>2014-06-23T13:04:16Z</time>
      </trkpt>
      <trkpt lat="48.34299" lon="-3.38683">
        <ele>191</ele>
        <time>2014-06-23T13:04:19Z</time>
      </trkpt>
      <trkpt lat="48.34299" lon="-3.38681">
        <ele>193</ele>
        <time>2014-06-23T13:04:21Z</time>
      </trkpt>
      <trkpt lat="48.343" lon="-3.38683">
        <ele>197</ele>
        <time>2014-06-23T13:04:41Z</time>
      </trkpt>
      <trkpt lat="48.343" lon="-3.38685">
        <ele>197</ele>
        <time>2014-06-23T13:04:46Z</time>
      </trkpt>
      <trkpt lat="48.34301" lon="-3.38687">
        <ele>197</ele>
        <time>2014-06-23T13:04:48Z</time>
      </trkpt>
      <trkpt lat="48.343" lon="-3.38689">
        <ele>197</ele>
        <time>2014-06-23T13:04:49Z</time>
      </trkpt>
      <trkpt lat="48.34299" lon="-3.38687">
        <ele>197</ele>
        <time>2014-06-23T13:04:55Z</time>
      </trkpt>
      <trkpt lat="48.34297" lon="-3.38685">
        <ele>197</ele>
        <time>2014-06-23T13:05:00Z</time>
      </trkpt>
      <trkpt lat="48.34297" lon="-3.38683">
        <ele>197</ele>
        <time>2014-06-23T13:05:01Z</time>
      </trkpt>
      <trkpt lat="48.34296" lon="-3.38681">
        <ele>197</ele>
        <time>2014-06-23T13:05:02Z</time>
      </trkpt>
      <trkpt lat="48.34296" lon="-3.3868">
        <ele>197</ele>
        <time>2014-06-23T13:05:03Z</time>
      </trkpt>
      <trkpt lat="48.34295" lon="-3.38678">
        <ele>197</ele>
        <time>2014-06-23T13:05:05Z</time>
      </trkpt>
      <trkpt lat="48.34295" lon="-3.38676">
        <ele>197</ele>
        <time>2014-06-23T13:05:09Z</time>
      </trkpt>
      <trkpt lat="48.34296" lon="-3.38675">
        <ele>197</ele>
        <time>2014-06-23T13:05:13Z</time>
      </trkpt>
      <trkpt lat="48.34298" lon="-3.38677">
        <ele>197</ele>
        <time>2014-06-23T13:05:16Z</time>
      </trkpt>
      <trkpt lat="48.34299" lon="-3.38677">
        <ele>197</ele>
        <time>2014-06-23T13:05:19Z</time>
      </trkpt>
      <trkpt lat="48.343" lon="-3.38677">
        <ele>198</ele>
        <time>2014-06-23T13:05:22Z</time>
      </trkpt>
      <trkpt lat="48.34302" lon="-3.38677">
        <ele>199</ele>
        <time>2014-06-23T13:05:24Z</time>
      </trkpt>
      <trkpt lat="48.34303" lon="-3.38676">
        <ele>201</ele>
        <time>2014-06-23T13:05:29Z</time>
      </trkpt>
      <trkpt lat="48.34301" lon="-3.38676">
        <ele>202</ele>
        <time>2014-06-23T13:05:31Z</time>
      </trkpt>
      <trkpt lat="48.34299" lon="-3.38677">
        <ele>202</ele>
        <time>2014-06-23T13:05:33Z</time>
      </trkpt>
      <trkpt lat="48.34298" lon="-3.38677">
        <ele>202</ele>
        <time>2014-06-23T13:05:34Z</time>
      </trkpt>
      <trkpt lat="48.34297" lon="-3.38678">
        <ele>202</ele>
        <time>2014-06-23T13:05:36Z</time>
      </trkpt>
      <trkpt lat="48.34296" lon="-3.38678">
        <ele>200</ele>
        <time>2014-06-23T13:05:38Z</time>
      </trkpt>
      <trkpt lat="48.34295" lon="-3.38679">
        <ele>196</ele>
        <time>2014-06-23T13:05:45Z</time>
      </trkpt>
      <trkpt lat="48.34296" lon="-3.3868">
        <ele>196</ele>
        <time>2014-06-23T13:05:54Z</time>
      </trkpt>
      <trkpt lat="48.34297" lon="-3.38682">
        <ele>196</ele>
        <time>2014-06-23T13:05:57Z</time>
      </trkpt>
      <trkpt lat="48.34298" lon="-3.38684">
        <ele>196</ele>
        <time>2014-06-23T13:05:59Z</time>
      </trkpt>
      <trkpt lat="48.34296" lon="-3.38684">
        <ele>196</ele>
        <time>2014-06-23T13:06:05Z</time>
      </trkpt>
      <trkpt lat="48.34295" lon="-3.38685">
        <ele>196</ele>
        <time>2014-06-23T13:06:10Z</time>
      </trkpt>
      <trkpt lat="48.34294" lon="-3.38687">
        <ele>196</ele>
        <time>2014-06-23T13:06:14Z</time>
      </trkpt>
      <trkpt lat="48.34295" lon="-3.38689">
        <ele>195</ele>
        <time>2014-06-23T13:06:16Z</time>
      </trkpt>
      <trkpt lat="48.34295" lon="-3.38691">
        <ele>194</ele>
        <time>2014-06-23T13:06:19Z</time>
      </trkpt>
      <trkpt lat="48.34296" lon="-3.38693">
        <ele>194</ele>
        <time>2014-06-23T13:06:22Z</time>
      </trkpt>
      <trkpt lat="48.34297" lon="-3.38697">
        <ele>194</ele>
        <time>2014-06-23T13:06:28Z</time>
      </trkpt>
      <trkpt lat="48.34298" lon="-3.38698">
        <ele>194</ele>
        <time>2014-06-23T13:06:30Z</time>
      </trkpt>
      <trkpt lat="48.34298" lon="-3.38697">
        <ele>194</ele>
        <time>2014-06-23T13:06:33Z</time>
      </trkpt>
      <trkpt lat="48.343" lon="-3.38698">
        <ele>194</ele>
        <time>2014-06-23T13:06:36Z</time>
      </trkpt>
      <trkpt lat="48.34298" lon="-3.38697">
        <ele>194</ele>
        <time>2014-06-23T13:06:42Z</time>
      </trkpt>
      <trkpt lat="48.34297" lon="-3.38695">
        <ele>194</ele>
        <time>2014-06-23T13:06:44Z</time>
      </trkpt>
      <trkpt lat="48.34297" lon="-3.38692">
        <ele>194</ele>
        <time>2014-06-23T13:06:46Z</time>
      </trkpt>
      <trkpt lat="48.34298" lon="-3.38691">
        <ele>194</ele>
        <time>2014-06-23T13:06:49Z</time>
      </trkpt>
      <trkpt lat="48.34299" lon="-3.38691">
        <ele>194</ele>
        <time>2014-06-23T13:06:52Z</time>
      </trkpt>
      <trkpt lat="48.343" lon="-3.3869">
        <ele>195</ele>
        <time>2014-06-23T13:06:56Z</time>
      </trkpt>
      <trkpt lat="48.34301" lon="-3.3869">
        <ele>196</ele>
        <time>2014-06-23T13:06:57Z</time>
      </trkpt>
      <trkpt lat="48.34303" lon="-3.3869">
        <ele>198</ele>
        <time>2014-06-23T13:06:59Z</time>
      </trkpt>
      <trkpt lat="48.34305" lon="-3.3869">
        <ele>199</ele>
        <time>2014-06-23T13:07:01Z</time>
      </trkpt>
      <trkpt lat="48.34306" lon="-3.38691">
        <ele>199</ele>
        <time>2014-06-23T13:07:07Z</time>
      </trkpt>
      <trkpt lat="48.34307" lon="-3.38693">
        <ele>199</ele>
        <time>2014-06-23T13:07:17Z</time>
      </trkpt>
      <trkpt lat="48.34308" lon="-3.38693">
        <ele>195</ele>
        <time>2014-06-23T13:07:22Z</time>
      </trkpt>
      <trkpt lat="48.34307" lon="-3.38691">
        <ele>194</ele>
        <time>2014-06-23T13:07:27Z</time>
      </trkpt>
      <trkpt lat="48.3431" lon="-3.3869">
        <ele>193</ele>
        <time>2014-06-23T13:07:30Z</time>
      </trkpt>
      <trkpt lat="48.3431" lon="-3.38692">
        <ele>191</ele>
        <time>2014-06-23T13:07:34Z</time>
      </trkpt>
      <trkpt lat="48.3431" lon="-3.38695">
        <ele>190</ele>
        <time>2014-06-23T13:07:36Z</time>
      </trkpt>
      <trkpt lat="48.34311" lon="-3.38697">
        <ele>189</ele>
        <time>2014-06-23T13:07:38Z</time>
      </trkpt>
      <trkpt lat="48.34309" lon="-3.38697">
        <ele>189</ele>
        <time>2014-06-23T13:07:41Z</time>
      </trkpt>
      <trkpt lat="48.34308" lon="-3.38699">
        <ele>189</ele>
        <time>2014-06-23T13:07:43Z</time>
      </trkpt>
      <trkpt lat="48.34307" lon="-3.38701">
        <ele>189</ele>
        <time>2014-06-23T13:07:45Z</time>
      </trkpt>
      <trkpt lat="48.34309" lon="-3.38701">
        <ele>189</ele>
        <time>2014-06-23T13:07:48Z</time>
      </trkpt>
      <trkpt lat="48.3431" lon="-3.387">
        <ele>189</ele>
        <time>2014-06-23T13:07:50Z</time>
      </trkpt>
      <trkpt lat="48.3431" lon="-3.38698">
        <ele>190</ele>
        <time>2014-06-23T13:07:58Z</time>
      </trkpt>
      <trkpt lat="48.34311" lon="-3.38696">
        <ele>194</ele>
        <time>2014-06-23T13:08:02Z</time>
      </trkpt>
      <trkpt lat="48.34312" lon="-3.38696">
        <ele>195</ele>
        <time>2014-06-23T13:08:06Z</time>
      </trkpt>
      <trkpt lat="48.34312" lon="-3.38698">
        <ele>196</ele>
        <time>2014-06-23T13:08:09Z</time>
      </trkpt>
      <trkpt lat="48.34314" lon="-3.38699">
        <ele>196</ele>
        <time>2014-06-23T13:08:12Z</time>
      </trkpt>
      <trkpt lat="48.34315" lon="-3.387">
        <ele>196</ele>
        <time>2014-06-23T13:08:14Z</time>
      </trkpt>
      <trkpt lat="48.34316" lon="-3.38701">
        <ele>196</ele>
        <time>2014-06-23T13:08:16Z</time>
      </trkpt>
      <trkpt lat="48.34317" lon="-3.38702">
        <ele>196</ele>
        <time>2014-06-23T13:08:18Z</time>
      </trkpt>
      <trkpt lat="48.34319" lon="-3.38702">
        <ele>196</ele>
        <time>2014-06-23T13:08:21Z</time>
      </trkpt>
      <trkpt lat="48.34321" lon="-3.38702">
        <ele>196</ele>
        <time>2014-06-23T13:08:24Z</time>
      </trkpt>
      <trkpt lat="48.34323" lon="-3.38702">
        <ele>196</ele>
        <time>2014-06-23T13:08:25Z</time>
      </trkpt>
      <trkpt lat="48.34324" lon="-3.38702">
        <ele>196</ele>
        <time>2014-06-23T13:08:26Z</time>
      </trkpt>
      <trkpt lat="48.34325" lon="-3.38702">
        <ele>196</ele>
        <time>2014-06-23T13:08:27Z</time>
      </trkpt>
      <trkpt lat="48.34326" lon="-3.38702">
        <ele>196</ele>
        <time>2014-06-23T13:08:28Z</time>
      </trkpt>
      <trkpt lat="48.34328" lon="-3.38701">
        <ele>196</ele>
        <time>2014-06-23T13:08:30Z</time>
      </trkpt>
      <trkpt lat="48.34328" lon="-3.38698">
        <ele>196</ele>
        <time>2014-06-23T13:08:32Z</time>
      </trkpt>
      <trkpt lat="48.34329" lon="-3.38696">
        <ele>196</ele>
        <time>2014-06-23T13:08:34Z</time>
      </trkpt>
      <trkpt lat="48.3433" lon="-3.38695">
        <ele>196</ele>
        <time>2014-06-23T13:08:35Z</time>
      </trkpt>
      <trkpt lat="48.34332" lon="-3.38693">
        <ele>196</ele>
        <time>2014-06-23T13:08:36Z</time>
      </trkpt>
      <trkpt lat="48.34333" lon="-3.38693">
        <ele>196</ele>
        <time>2014-06-23T13:08:40Z</time>
      </trkpt>
      <trkpt lat="48.34335" lon="-3.38694">
        <ele>196</ele>
        <time>2014-06-23T13:08:42Z</time>
      </trkpt>
      <trkpt lat="48.34336" lon="-3.38695">
        <ele>196</ele>
        <time>2014-06-23T13:08:44Z</time>
      </trkpt>
      <trkpt lat="48.34338" lon="-3.38695">
        <ele>196</ele>
        <time>2014-06-23T13:08:46Z</time>
      </trkpt>
      <trkpt lat="48.3434" lon="-3.38695">
        <ele>196</ele>
        <time>2014-06-23T13:08:48Z</time>
      </trkpt>
      <trkpt lat="48.34341" lon="-3.38694">
        <ele>198</ele>
        <time>2014-06-23T13:08:51Z</time>
      </trkpt>
      <trkpt lat="48.34342" lon="-3.38695">
        <ele>200</ele>
        <time>2014-06-23T13:08:55Z</time>
      </trkpt>
      <trkpt lat="48.34343" lon="-3.38697">
        <ele>201</ele>
        <time>2014-06-23T13:08:57Z</time>
      </trkpt>
      <trkpt lat="48.34345" lon="-3.38697">
        <ele>202</ele>
        <time>2014-06-23T13:08:58Z</time>
      </trkpt>
      <trkpt lat="48.34346" lon="-3.38696">
        <ele>202</ele>
        <time>2014-06-23T13:08:59Z</time>
      </trkpt>
      <trkpt lat="48.34348" lon="-3.38696">
        <ele>202</ele>
        <time>2014-06-23T13:09:00Z</time>
      </trkpt>
      <trkpt lat="48.34349" lon="-3.38695">
        <ele>202</ele>
        <time>2014-06-23T13:09:01Z</time>
      </trkpt>
      <trkpt lat="48.3435" lon="-3.38694">
        <ele>204</ele>
        <time>2014-06-23T13:09:06Z</time>
      </trkpt>
      <trkpt lat="48.34351" lon="-3.38692">
        <ele>205</ele>
        <time>2014-06-23T13:09:10Z</time>
      </trkpt>
      <trkpt lat="48.34353" lon="-3.3869">
        <ele>206</ele>
        <time>2014-06-23T13:09:13Z</time>
      </trkpt>
      <trkpt lat="48.34354" lon="-3.38691">
        <ele>206</ele>
        <time>2014-06-23T13:09:17Z</time>
      </trkpt>
      <trkpt lat="48.34355" lon="-3.38693">
        <ele>207</ele>
        <time>2014-06-23T13:09:20Z</time>
      </trkpt>
      <trkpt lat="48.34357" lon="-3.38693">
        <ele>207</ele>
        <time>2014-06-23T13:09:25Z</time>
      </trkpt>
      <trkpt lat="48.34358" lon="-3.38693">
        <ele>207</ele>
        <time>2014-06-23T13:09:27Z</time>
      </trkpt>
      <trkpt lat="48.34359" lon="-3.38693">
        <ele>207</ele>
        <time>2014-06-23T13:09:29Z</time>
      </trkpt>
      <trkpt lat="48.34361" lon="-3.38693">
        <ele>207</ele>
        <time>2014-06-23T13:09:36Z</time>
      </trkpt>
      <trkpt lat="48.34364" lon="-3.38693">
        <ele>207</ele>
        <time>2014-06-23T13:09:37Z</time>
      </trkpt>
      <trkpt lat="48.34365" lon="-3.38693">
        <ele>207</ele>
        <time>2014-06-23T13:09:38Z</time>
      </trkpt>
      <trkpt lat="48.34366" lon="-3.38693">
        <ele>207</ele>
        <time>2014-06-23T13:09:40Z</time>
      </trkpt>
      <trkpt lat="48.34368" lon="-3.38692">
        <ele>207</ele>
        <time>2014-06-23T13:09:42Z</time>
      </trkpt>
      <trkpt lat="48.34368" lon="-3.38689">
        <ele>207</ele>
        <time>2014-06-23T13:09:44Z</time>
      </trkpt>
      <trkpt lat="48.34369" lon="-3.38687">
        <ele>207</ele>
        <time>2014-06-23T13:09:47Z</time>
      </trkpt>
      <trkpt lat="48.3437" lon="-3.38685">
        <ele>207</ele>
        <time>2014-06-23T13:09:50Z</time>
      </trkpt>
      <trkpt lat="48.34372" lon="-3.38685">
        <ele>207</ele>
        <time>2014-06-23T13:09:52Z</time>
      </trkpt>
      <trkpt lat="48.34374" lon="-3.38685">
        <ele>207</ele>
        <time>2014-06-23T13:09:55Z</time>
      </trkpt>
      <trkpt lat="48.34375" lon="-3.38683">
        <ele>207</ele>
        <time>2014-06-23T13:10:01Z</time>
      </trkpt>
      <trkpt lat="48.34375" lon="-3.38681">
        <ele>208</ele>
        <time>2014-06-23T13:10:03Z</time>
      </trkpt>
      <trkpt lat="48.34377" lon="-3.38679">
        <ele>208</ele>
        <time>2014-06-23T13:10:05Z</time>
      </trkpt>
      <trkpt lat="48.34378" lon="-3.38677">
        <ele>209</ele>
        <time>2014-06-23T13:10:07Z</time>
      </trkpt>
      <trkpt lat="48.34379" lon="-3.38675">
        <ele>210</ele>
        <time>2014-06-23T13:10:11Z</time>
      </trkpt>
      <trkpt lat="48.34381" lon="-3.38676">
        <ele>210</ele>
        <time>2014-06-23T13:10:14Z</time>
      </trkpt>
      <trkpt lat="48.34383" lon="-3.38677">
        <ele>210</ele>
        <time>2014-06-23T13:10:16Z</time>
      </trkpt>
      <trkpt lat="48.34384" lon="-3.38677">
        <ele>210</ele>
        <time>2014-06-23T13:10:18Z</time>
      </trkpt>
      <trkpt lat="48.34386" lon="-3.38677">
        <ele>210</ele>
        <time>2014-06-23T13:10:20Z</time>
      </trkpt>
      <trkpt lat="48.34387" lon="-3.38674">
        <ele>210</ele>
        <time>2014-06-23T13:10:22Z</time>
      </trkpt>
      <trkpt lat="48.34387" lon="-3.38671">
        <ele>210</ele>
        <time>2014-06-23T13:10:24Z</time>
      </trkpt>
      <trkpt lat="48.34387" lon="-3.3867">
        <ele>210</ele>
        <time>2014-06-23T13:10:26Z</time>
      </trkpt>
      <trkpt lat="48.34389" lon="-3.38668">
        <ele>210</ele>
        <time>2014-06-23T13:10:28Z</time>
      </trkpt>
      <trkpt lat="48.3439" lon="-3.38666">
        <ele>210</ele>
        <time>2014-06-23T13:10:30Z</time>
      </trkpt>
      <trkpt lat="48.34391" lon="-3.38663">
        <ele>210</ele>
        <time>2014-06-23T13:10:32Z</time>
      </trkpt>
      <trkpt lat="48.3439" lon="-3.38661">
        <ele>210</ele>
        <time>2014-06-23T13:10:33Z</time>
      </trkpt>
      <trkpt lat="48.34389" lon="-3.38659">
        <ele>210</ele>
        <time>2014-06-23T13:10:34Z</time>
      </trkpt>
      <trkpt lat="48.34389" lon="-3.38656">
        <ele>210</ele>
        <time>2014-06-23T13:10:35Z</time>
      </trkpt>
      <trkpt lat="48.34388" lon="-3.38653">
        <ele>210</ele>
        <time>2014-06-23T13:10:36Z</time>
      </trkpt>
      <trkpt lat="48.34388" lon="-3.38651">
        <ele>210</ele>
        <time>2014-06-23T13:10:37Z</time>
      </trkpt>
      <trkpt lat="48.34387" lon="-3.38649">
        <ele>210</ele>
        <time>2014-06-23T13:10:38Z</time>
      </trkpt>
      <trkpt lat="48.34389" lon="-3.38647">
        <ele>210</ele>
        <time>2014-06-23T13:10:40Z</time>
      </trkpt>
      <trkpt lat="48.34392" lon="-3.38645">
        <ele>210</ele>
        <time>2014-06-23T13:10:42Z</time>
      </trkpt>
      <trkpt lat="48.34393" lon="-3.38643">
        <ele>210</ele>
        <time>2014-06-23T13:10:44Z</time>
      </trkpt>
      <trkpt lat="48.34394" lon="-3.38642">
        <ele>210</ele>
        <time>2014-06-23T13:10:45Z</time>
      </trkpt>
      <trkpt lat="48.34396" lon="-3.38641">
        <ele>210</ele>
        <time>2014-06-23T13:10:46Z</time>
      </trkpt>
      <trkpt lat="48.34396" lon="-3.38639">
        <ele>210</ele>
        <time>2014-06-23T13:10:48Z</time>
      </trkpt>
      <trkpt lat="48.34397" lon="-3.38638">
        <ele>210</ele>
        <time>2014-06-23T13:10:49Z</time>
      </trkpt>
      <trkpt lat="48.34399" lon="-3.38637">
        <ele>210</ele>
        <time>2014-06-23T13:10:51Z</time>
      </trkpt>
      <trkpt lat="48.344" lon="-3.38635">
        <ele>210</ele>
        <time>2014-06-23T13:10:53Z</time>
      </trkpt>
      <trkpt lat="48.34402" lon="-3.38632">
        <ele>210</ele>
        <time>2014-06-23T13:10:55Z</time>
      </trkpt>
      <trkpt lat="48.34402" lon="-3.3863">
        <ele>210</ele>
        <time>2014-06-23T13:10:56Z</time>
      </trkpt>
      <trkpt lat="48.34403" lon="-3.38629">
        <ele>210</ele>
        <time>2014-06-23T13:10:57Z</time>
      </trkpt>
      <trkpt lat="48.34404" lon="-3.38627">
        <ele>210</ele>
        <time>2014-06-23T13:10:58Z</time>
      </trkpt>
      <trkpt lat="48.34406" lon="-3.38627">
        <ele>211</ele>
        <time>2014-06-23T13:11:02Z</time>
      </trkpt>
      <trkpt lat="48.34408" lon="-3.38625">
        <ele>211</ele>
        <time>2014-06-23T13:11:04Z</time>
      </trkpt>
      <trkpt lat="48.3441" lon="-3.38624">
        <ele>211</ele>
        <time>2014-06-23T13:11:06Z</time>
      </trkpt>
      <trkpt lat="48.3441" lon="-3.38621">
        <ele>211</ele>
        <time>2014-06-23T13:11:09Z</time>
      </trkpt>
      <trkpt lat="48.34411" lon="-3.3862">
        <ele>211</ele>
        <time>2014-06-23T13:11:11Z</time>
      </trkpt>
      <trkpt lat="48.34412" lon="-3.38619">
        <ele>212</ele>
        <time>2014-06-23T13:11:13Z</time>
      </trkpt>
      <trkpt lat="48.34414" lon="-3.38618">
        <ele>213</ele>
        <time>2014-06-23T13:11:15Z</time>
      </trkpt>
      <trkpt lat="48.34415" lon="-3.38615">
        <ele>213</ele>
        <time>2014-06-23T13:11:17Z</time>
      </trkpt>
      <trkpt lat="48.34416" lon="-3.38614">
        <ele>213</ele>
        <time>2014-06-23T13:11:18Z</time>
      </trkpt>
      <trkpt lat="48.34416" lon="-3.38612">
        <ele>213</ele>
        <time>2014-06-23T13:11:20Z</time>
      </trkpt>
      <trkpt lat="48.34415" lon="-3.3861">
        <ele>213</ele>
        <time>2014-06-23T13:11:21Z</time>
      </trkpt>
      <trkpt lat="48.34413" lon="-3.38609">
        <ele>214</ele>
        <time>2014-06-23T13:11:22Z</time>
      </trkpt>
      <trkpt lat="48.34412" lon="-3.38607">
        <ele>215</ele>
        <time>2014-06-23T13:11:23Z</time>
      </trkpt>
      <trkpt lat="48.34412" lon="-3.38604">
        <ele>216</ele>
        <time>2014-06-23T13:11:25Z</time>
      </trkpt>
      <trkpt lat="48.34412" lon="-3.38602">
        <ele>216</ele>
        <time>2014-06-23T13:11:26Z</time>
      </trkpt>
      <trkpt lat="48.34414" lon="-3.38601">
        <ele>217</ele>
        <time>2014-06-23T13:11:28Z</time>
      </trkpt>
      <trkpt lat="48.34414" lon="-3.38603">
        <ele>219</ele>
        <time>2014-06-23T13:11:31Z</time>
      </trkpt>
      <trkpt lat="48.34415" lon="-3.38605">
        <ele>219</ele>
        <time>2014-06-23T13:11:34Z</time>
      </trkpt>
      <trkpt lat="48.34416" lon="-3.38606">
        <ele>219</ele>
        <time>2014-06-23T13:11:36Z</time>
      </trkpt>
      <trkpt lat="48.34418" lon="-3.38603">
        <ele>219</ele>
        <time>2014-06-23T13:11:43Z</time>
      </trkpt>
      <trkpt lat="48.3442" lon="-3.38602">
        <ele>219</ele>
        <time>2014-06-23T13:11:44Z</time>
      </trkpt>
      <trkpt lat="48.34421" lon="-3.386">
        <ele>219</ele>
        <time>2014-06-23T13:11:46Z</time>
      </trkpt>
      <trkpt lat="48.34422" lon="-3.38598">
        <ele>219</ele>
        <time>2014-06-23T13:11:49Z</time>
      </trkpt>
      <trkpt lat="48.34424" lon="-3.38597">
        <ele>219</ele>
        <time>2014-06-23T13:11:51Z</time>
      </trkpt>
      <trkpt lat="48.34425" lon="-3.38595">
        <ele>219</ele>
        <time>2014-06-23T13:11:53Z</time>
      </trkpt>
      <trkpt lat="48.34426" lon="-3.38593">
        <ele>219</ele>
        <time>2014-06-23T13:11:55Z</time>
      </trkpt>
      <trkpt lat="48.34426" lon="-3.38589">
        <ele>218</ele>
        <time>2014-06-23T13:11:57Z</time>
      </trkpt>
      <trkpt lat="48.34425" lon="-3.38586">
        <ele>217</ele>
        <time>2014-06-23T13:11:59Z</time>
      </trkpt>
      <trkpt lat="48.34425" lon="-3.38584">
        <ele>217</ele>
        <time>2014-06-23T13:12:01Z</time>
      </trkpt>
      <trkpt lat="48.34425" lon="-3.38581">
        <ele>217</ele>
        <time>2014-06-23T13:12:03Z</time>
      </trkpt>
      <trkpt lat="48.34424" lon="-3.3858">
        <ele>217</ele>
        <time>2014-06-23T13:12:05Z</time>
      </trkpt>
      <trkpt lat="48.34423" lon="-3.38578">
        <ele>217</ele>
        <time>2014-06-23T13:12:07Z</time>
      </trkpt>
      <trkpt lat="48.34423" lon="-3.38576">
        <ele>217</ele>
        <time>2014-06-23T13:12:09Z</time>
      </trkpt>
      <trkpt lat="48.34424" lon="-3.38574">
        <ele>217</ele>
        <time>2014-06-23T13:12:11Z</time>
      </trkpt>
      <trkpt lat="48.34426" lon="-3.38573">
        <ele>217</ele>
        <time>2014-06-23T13:12:13Z</time>
      </trkpt>
      <trkpt lat="48.34428" lon="-3.3857">
        <ele>217</ele>
        <time>2014-06-23T13:12:15Z</time>
      </trkpt>
      <trkpt lat="48.34429" lon="-3.38569">
        <ele>217</ele>
        <time>2014-06-23T13:12:17Z</time>
      </trkpt>
      <trkpt lat="48.34429" lon="-3.38567">
        <ele>217</ele>
        <time>2014-06-23T13:12:21Z</time>
      </trkpt>
      <trkpt lat="48.3443" lon="-3.38565">
        <ele>217</ele>
        <time>2014-06-23T13:12:23Z</time>
      </trkpt>
      <trkpt lat="48.3443" lon="-3.38562">
        <ele>217</ele>
        <time>2014-06-23T13:12:25Z</time>
      </trkpt>
      <trkpt lat="48.3443" lon="-3.3856">
        <ele>217</ele>
        <time>2014-06-23T13:12:27Z</time>
      </trkpt>
      <trkpt lat="48.34431" lon="-3.38558">
        <ele>217</ele>
        <time>2014-06-23T13:12:28Z</time>
      </trkpt>
      <trkpt lat="48.34433" lon="-3.38555">
        <ele>217</ele>
        <time>2014-06-23T13:12:30Z</time>
      </trkpt>
      <trkpt lat="48.34433" lon="-3.38553">
        <ele>217</ele>
        <time>2014-06-23T13:12:31Z</time>
      </trkpt>
      <trkpt lat="48.34432" lon="-3.38551">
        <ele>217</ele>
        <time>2014-06-23T13:12:32Z</time>
      </trkpt>
      <trkpt lat="48.34434" lon="-3.38549">
        <ele>217</ele>
        <time>2014-06-23T13:12:34Z</time>
      </trkpt>
      <trkpt lat="48.34435" lon="-3.38547">
        <ele>217</ele>
        <time>2014-06-23T13:12:36Z</time>
      </trkpt>
      <trkpt lat="48.34437" lon="-3.38545">
        <ele>217</ele>
        <time>2014-06-23T13:12:38Z</time>
      </trkpt>
      <trkpt lat="48.34437" lon="-3.38543">
        <ele>217</ele>
        <time>2014-06-23T13:12:42Z</time>
      </trkpt>
      <trkpt lat="48.34439" lon="-3.38542">
        <ele>217</ele>
        <time>2014-06-23T13:12:44Z</time>
      </trkpt>
      <trkpt lat="48.3444" lon="-3.38541">
        <ele>217</ele>
        <time>2014-06-23T13:12:46Z</time>
      </trkpt>
      <trkpt lat="48.34441" lon="-3.38539">
        <ele>217</ele>
        <time>2014-06-23T13:12:48Z</time>
      </trkpt>
      <trkpt lat="48.34441" lon="-3.38537">
        <ele>217</ele>
        <time>2014-06-23T13:12:50Z</time>
      </trkpt>
      <trkpt lat="48.34442" lon="-3.38535">
        <ele>217</ele>
        <time>2014-06-23T13:12:51Z</time>
      </trkpt>
      <trkpt lat="48.34442" lon="-3.38533">
        <ele>217</ele>
        <time>2014-06-23T13:12:53Z</time>
      </trkpt>
      <trkpt lat="48.34443" lon="-3.38532">
        <ele>217</ele>
        <time>2014-06-23T13:12:54Z</time>
      </trkpt>
      <trkpt lat="48.34444" lon="-3.38532">
        <ele>217</ele>
        <time>2014-06-23T13:12:55Z</time>
      </trkpt>
      <trkpt lat="48.34443" lon="-3.3853">
        <ele>218</ele>
        <time>2014-06-23T13:12:58Z</time>
      </trkpt>
      <trkpt lat="48.34442" lon="-3.38529">
        <ele>220</ele>
        <time>2014-06-23T13:13:00Z</time>
      </trkpt>
      <trkpt lat="48.34442" lon="-3.38527">
        <ele>221</ele>
        <time>2014-06-23T13:13:02Z</time>
      </trkpt>
      <trkpt lat="48.34444" lon="-3.38525">
        <ele>222</ele>
        <time>2014-06-23T13:13:04Z</time>
      </trkpt>
      <trkpt lat="48.34446" lon="-3.38523">
        <ele>222</ele>
        <time>2014-06-23T13:13:06Z</time>
      </trkpt>
      <trkpt lat="48.34447" lon="-3.38521">
        <ele>222</ele>
        <time>2014-06-23T13:13:08Z</time>
      </trkpt>
      <trkpt lat="48.34447" lon="-3.38519">
        <ele>222</ele>
        <time>2014-06-23T13:13:09Z</time>
      </trkpt>
      <trkpt lat="48.34447" lon="-3.38516">
        <ele>222</ele>
        <time>2014-06-23T13:13:11Z</time>
      </trkpt>
      <trkpt lat="48.34447" lon="-3.38514">
        <ele>222</ele>
        <time>2014-06-23T13:13:12Z</time>
      </trkpt>
      <trkpt lat="48.34448" lon="-3.38512">
        <ele>222</ele>
        <time>2014-06-23T13:13:13Z</time>
      </trkpt>
      <trkpt lat="48.34449" lon="-3.3851">
        <ele>223</ele>
        <time>2014-06-23T13:13:15Z</time>
      </trkpt>
      <trkpt lat="48.3445" lon="-3.38508">
        <ele>223</ele>
        <time>2014-06-23T13:13:17Z</time>
      </trkpt>
      <trkpt lat="48.3445" lon="-3.38506">
        <ele>224</ele>
        <time>2014-06-23T13:13:19Z</time>
      </trkpt>
      <trkpt lat="48.34452" lon="-3.38504">
        <ele>226</ele>
        <time>2014-06-23T13:13:22Z</time>
      </trkpt>
      <trkpt lat="48.34454" lon="-3.38503">
        <ele>226</ele>
        <time>2014-06-23T13:13:23Z</time>
      </trkpt>
      <trkpt lat="48.34456" lon="-3.38503">
        <ele>226</ele>
        <time>2014-06-23T13:13:24Z</time>
      </trkpt>
      <trkpt lat="48.34456" lon="-3.385">
        <ele>226</ele>
        <time>2014-06-23T13:13:25Z</time>
      </trkpt>
      <trkpt lat="48.34457" lon="-3.38499">
        <ele>226</ele>
        <time>2014-06-23T13:13:26Z</time>
      </trkpt>
      <trkpt lat="48.34457" lon="-3.38497">
        <ele>227</ele>
        <time>2014-06-23T13:13:27Z</time>
      </trkpt>
      <trkpt lat="48.34458" lon="-3.38495">
        <ele>227</ele>
        <time>2014-06-23T13:13:28Z</time>
      </trkpt>
      <trkpt lat="48.34458" lon="-3.38493">
        <ele>227</ele>
        <time>2014-06-23T13:13:29Z</time>
      </trkpt>
      <trkpt lat="48.34458" lon="-3.38491">
        <ele>227</ele>
        <time>2014-06-23T13:13:30Z</time>
      </trkpt>
      <trkpt lat="48.3446" lon="-3.38491">
        <ele>227</ele>
        <time>2014-06-23T13:13:31Z</time>
      </trkpt>
      <trkpt lat="48.34462" lon="-3.38489">
        <ele>227</ele>
        <time>2014-06-23T13:13:33Z</time>
      </trkpt>
      <trkpt lat="48.34463" lon="-3.38487">
        <ele>227</ele>
        <time>2014-06-23T13:13:34Z</time>
      </trkpt>
      <trkpt lat="48.34464" lon="-3.38485">
        <ele>227</ele>
        <time>2014-06-23T13:13:35Z</time>
      </trkpt>
      <trkpt lat="48.34464" lon="-3.38483">
        <ele>227</ele>
        <time>2014-06-23T13:13:36Z</time>
      </trkpt>
      <trkpt lat="48.34465" lon="-3.38482">
        <ele>227</ele>
        <time>2014-06-23T13:13:37Z</time>
      </trkpt>
      <trkpt lat="48.34467" lon="-3.38479">
        <ele>227</ele>
        <time>2014-06-23T13:13:39Z</time>
      </trkpt>
      <trkpt lat="48.34468" lon="-3.38478">
        <ele>227</ele>
        <time>2014-06-23T13:13:42Z</time>
      </trkpt>
      <trkpt lat="48.3447" lon="-3.38476">
        <ele>225</ele>
        <time>2014-06-23T13:13:44Z</time>
      </trkpt>
      <trkpt lat="48.3447" lon="-3.38473">
        <ele>224</ele>
        <time>2014-06-23T13:13:46Z</time>
      </trkpt>
      <trkpt lat="48.3447" lon="-3.3847">
        <ele>224</ele>
        <time>2014-06-23T13:13:48Z</time>
      </trkpt>
      <trkpt lat="48.34471" lon="-3.38468">
        <ele>224</ele>
        <time>2014-06-23T13:13:49Z</time>
      </trkpt>
      <trkpt lat="48.34471" lon="-3.38466">
        <ele>224</ele>
        <time>2014-06-23T13:13:50Z</time>
      </trkpt>
      <trkpt lat="48.34471" lon="-3.38463">
        <ele>224</ele>
        <time>2014-06-23T13:13:52Z</time>
      </trkpt>
      <trkpt lat="48.34471" lon="-3.38461">
        <ele>224</ele>
        <time>2014-06-23T13:13:54Z</time>
      </trkpt>
      <trkpt lat="48.34471" lon="-3.38457">
        <ele>224</ele>
        <time>2014-06-23T13:13:56Z</time>
      </trkpt>
      <trkpt lat="48.34472" lon="-3.38456">
        <ele>224</ele>
        <time>2014-06-23T13:13:57Z</time>
      </trkpt>
      <trkpt lat="48.34472" lon="-3.38454">
        <ele>224</ele>
        <time>2014-06-23T13:13:58Z</time>
      </trkpt>
      <trkpt lat="48.34474" lon="-3.38451">
        <ele>224</ele>
        <time>2014-06-23T13:14:00Z</time>
      </trkpt>
      <trkpt lat="48.34475" lon="-3.3845">
        <ele>224</ele>
        <time>2014-06-23T13:14:01Z</time>
      </trkpt>
      <trkpt lat="48.34476" lon="-3.38448">
        <ele>224</ele>
        <time>2014-06-23T13:14:02Z</time>
      </trkpt>
      <trkpt lat="48.34478" lon="-3.38445">
        <ele>224</ele>
        <time>2014-06-23T13:14:04Z</time>
      </trkpt>
      <trkpt lat="48.34479" lon="-3.38442">
        <ele>224</ele>
        <time>2014-06-23T13:14:06Z</time>
      </trkpt>
      <trkpt lat="48.3448" lon="-3.38439">
        <ele>224</ele>
        <time>2014-06-23T13:14:08Z</time>
      </trkpt>
      <trkpt lat="48.3448" lon="-3.38436">
        <ele>224</ele>
        <time>2014-06-23T13:14:10Z</time>
      </trkpt>
      <trkpt lat="48.34481" lon="-3.38434">
        <ele>224</ele>
        <time>2014-06-23T13:14:12Z</time>
      </trkpt>
      <trkpt lat="48.34481" lon="-3.38431">
        <ele>224</ele>
        <time>2014-06-23T13:14:14Z</time>
      </trkpt>
      <trkpt lat="48.34483" lon="-3.38429">
        <ele>224</ele>
        <time>2014-06-23T13:14:16Z</time>
      </trkpt>
      <trkpt lat="48.34483" lon="-3.38427">
        <ele>224</ele>
        <time>2014-06-23T13:14:18Z</time>
      </trkpt>
      <trkpt lat="48.34485" lon="-3.38426">
        <ele>224</ele>
        <time>2014-06-23T13:14:20Z</time>
      </trkpt>
      <trkpt lat="48.34486" lon="-3.38425">
        <ele>224</ele>
        <time>2014-06-23T13:14:22Z</time>
      </trkpt>
      <trkpt lat="48.34487" lon="-3.38423">
        <ele>224</ele>
        <time>2014-06-23T13:14:24Z</time>
      </trkpt>
      <trkpt lat="48.34488" lon="-3.38422">
        <ele>224</ele>
        <time>2014-06-23T13:14:25Z</time>
      </trkpt>
      <trkpt lat="48.34489" lon="-3.38421">
        <ele>224</ele>
        <time>2014-06-23T13:14:26Z</time>
      </trkpt>
      <trkpt lat="48.34491" lon="-3.38419">
        <ele>224</ele>
        <time>2014-06-23T13:14:28Z</time>
      </trkpt>
      <trkpt lat="48.34492" lon="-3.38416">
        <ele>224</ele>
        <time>2014-06-23T13:14:30Z</time>
      </trkpt>
      <trkpt lat="48.34492" lon="-3.38414">
        <ele>224</ele>
        <time>2014-06-23T13:14:31Z</time>
      </trkpt>
      <trkpt lat="48.34492" lon="-3.38412">
        <ele>224</ele>
        <time>2014-06-23T13:14:32Z</time>
      </trkpt>
      <trkpt lat="48.34494" lon="-3.3841">
        <ele>224</ele>
        <time>2014-06-23T13:14:34Z</time>
      </trkpt>
      <trkpt lat="48.34496" lon="-3.3841">
        <ele>224</ele>
        <time>2014-06-23T13:14:36Z</time>
      </trkpt>
      <trkpt lat="48.34495" lon="-3.38407">
        <ele>224</ele>
        <time>2014-06-23T13:14:38Z</time>
      </trkpt>
      <trkpt lat="48.34495" lon="-3.38405">
        <ele>224</ele>
        <time>2014-06-23T13:14:40Z</time>
      </trkpt>
      <trkpt lat="48.34495" lon="-3.38403">
        <ele>224</ele>
        <time>2014-06-23T13:14:42Z</time>
      </trkpt>
      <trkpt lat="48.34495" lon="-3.38401">
        <ele>225</ele>
        <time>2014-06-23T13:14:44Z</time>
      </trkpt>
      <trkpt lat="48.34494" lon="-3.38399">
        <ele>227</ele>
        <time>2014-06-23T13:14:47Z</time>
      </trkpt>
      <trkpt lat="48.34493" lon="-3.38397">
        <ele>228</ele>
        <time>2014-06-23T13:14:48Z</time>
      </trkpt>
      <trkpt lat="48.34493" lon="-3.38395">
        <ele>229</ele>
        <time>2014-06-23T13:14:49Z</time>
      </trkpt>
      <trkpt lat="48.34493" lon="-3.38393">
        <ele>229</ele>
        <time>2014-06-23T13:14:50Z</time>
      </trkpt>
      <trkpt lat="48.34493" lon="-3.38391">
        <ele>230</ele>
        <time>2014-06-23T13:14:51Z</time>
      </trkpt>
      <trkpt lat="48.34494" lon="-3.38389">
        <ele>231</ele>
        <time>2014-06-23T13:14:53Z</time>
      </trkpt>
      <trkpt lat="48.34494" lon="-3.38386">
        <ele>231</ele>
        <time>2014-06-23T13:14:55Z</time>
      </trkpt>
      <trkpt lat="48.34496" lon="-3.38383">
        <ele>231</ele>
        <time>2014-06-23T13:14:57Z</time>
      </trkpt>
      <trkpt lat="48.34496" lon="-3.38381">
        <ele>231</ele>
        <time>2014-06-23T13:14:59Z</time>
      </trkpt>
      <trkpt lat="48.34498" lon="-3.3838">
        <ele>232</ele>
        <time>2014-06-23T13:15:01Z</time>
      </trkpt>
      <trkpt lat="48.34499" lon="-3.3838">
        <ele>232</ele>
        <time>2014-06-23T13:15:03Z</time>
      </trkpt>
      <trkpt lat="48.34499" lon="-3.38376">
        <ele>235</ele>
        <time>2014-06-23T13:15:10Z</time>
      </trkpt>
      <trkpt lat="48.34499" lon="-3.38375">
        <ele>235</ele>
        <time>2014-06-23T13:15:11Z</time>
      </trkpt>
      <trkpt lat="48.345" lon="-3.38373">
        <ele>235</ele>
        <time>2014-06-23T13:15:13Z</time>
      </trkpt>
      <trkpt lat="48.34502" lon="-3.38372">
        <ele>235</ele>
        <time>2014-06-23T13:15:15Z</time>
      </trkpt>
      <trkpt lat="48.34503" lon="-3.38371">
        <ele>235</ele>
        <time>2014-06-23T13:15:16Z</time>
      </trkpt>
      <trkpt lat="48.34504" lon="-3.38372">
        <ele>235</ele>
        <time>2014-06-23T13:15:17Z</time>
      </trkpt>
      <trkpt lat="48.34505" lon="-3.3837">
        <ele>237</ele>
        <time>2014-06-23T13:15:19Z</time>
      </trkpt>
      <trkpt lat="48.34507" lon="-3.38369">
        <ele>238</ele>
        <time>2014-06-23T13:15:21Z</time>
      </trkpt>
      <trkpt lat="48.34508" lon="-3.38367">
        <ele>239</ele>
        <time>2014-06-23T13:15:23Z</time>
      </trkpt>
      <trkpt lat="48.34508" lon="-3.38364">
        <ele>241</ele>
        <time>2014-06-23T13:15:25Z</time>
      </trkpt>
      <trkpt lat="48.34507" lon="-3.38363">
        <ele>242</ele>
        <time>2014-06-23T13:15:26Z</time>
      </trkpt>
      <trkpt lat="48.34505" lon="-3.38361">
        <ele>243</ele>
        <time>2014-06-23T13:15:28Z</time>
      </trkpt>
      <trkpt lat="48.34504" lon="-3.38358">
        <ele>243</ele>
        <time>2014-06-23T13:15:30Z</time>
      </trkpt>
      <trkpt lat="48.34503" lon="-3.38355">
        <ele>243</ele>
        <time>2014-06-23T13:15:32Z</time>
      </trkpt>
      <trkpt lat="48.34504" lon="-3.38352">
        <ele>243</ele>
        <time>2014-06-23T13:15:34Z</time>
      </trkpt>
      <trkpt lat="48.34504" lon="-3.3835">
        <ele>243</ele>
        <time>2014-06-23T13:15:35Z</time>
      </trkpt>
      <trkpt lat="48.34502" lon="-3.38347">
        <ele>243</ele>
        <time>2014-06-23T13:15:37Z</time>
      </trkpt>
      <trkpt lat="48.34501" lon="-3.38346">
        <ele>243</ele>
        <time>2014-06-23T13:15:38Z</time>
      </trkpt>
      <trkpt lat="48.34499" lon="-3.38343">
        <ele>244</ele>
        <time>2014-06-23T13:15:40Z</time>
      </trkpt>
      <trkpt lat="48.34499" lon="-3.38341">
        <ele>245</ele>
        <time>2014-06-23T13:15:43Z</time>
      </trkpt>
      <trkpt lat="48.34499" lon="-3.38338">
        <ele>245</ele>
        <time>2014-06-23T13:15:45Z</time>
      </trkpt>
      <trkpt lat="48.34499" lon="-3.38335">
        <ele>245</ele>
        <time>2014-06-23T13:15:47Z</time>
      </trkpt>
      <trkpt lat="48.34499" lon="-3.38332">
        <ele>245</ele>
        <time>2014-06-23T13:15:49Z</time>
      </trkpt>
      <trkpt lat="48.34499" lon="-3.3833">
        <ele>245</ele>
        <time>2014-06-23T13:15:51Z</time>
      </trkpt>
      <trkpt lat="48.34499" lon="-3.38328">
        <ele>245</ele>
        <time>2014-06-23T13:15:54Z</time>
      </trkpt>
      <trkpt lat="48.34499" lon="-3.38326">
        <ele>245</ele>
        <time>2014-06-23T13:15:56Z</time>
      </trkpt>
      <trkpt lat="48.34498" lon="-3.38324">
        <ele>245</ele>
        <time>2014-06-23T13:15:57Z</time>
      </trkpt>
      <trkpt lat="48.34498" lon="-3.38322">
        <ele>245</ele>
        <time>2014-06-23T13:15:58Z</time>
      </trkpt>
      <trkpt lat="48.34499" lon="-3.38321">
        <ele>245</ele>
        <time>2014-06-23T13:15:59Z</time>
      </trkpt>
      <trkpt lat="48.34499" lon="-3.38318">
        <ele>245</ele>
        <time>2014-06-23T13:16:01Z</time>
      </trkpt>
      <trkpt lat="48.345" lon="-3.38316">
        <ele>245</ele>
        <time>2014-06-23T13:16:03Z</time>
      </trkpt>
      <trkpt lat="48.345" lon="-3.38313">
        <ele>245</ele>
        <time>2014-06-23T13:16:05Z</time>
      </trkpt>
      <trkpt lat="48.34499" lon="-3.38311">
        <ele>244</ele>
        <time>2014-06-23T13:16:07Z</time>
      </trkpt>
      <trkpt lat="48.34501" lon="-3.38309">
        <ele>244</ele>
        <time>2014-06-23T13:16:11Z</time>
      </trkpt>
      <trkpt lat="48.34501" lon="-3.38307">
        <ele>244</ele>
        <time>2014-06-23T13:16:13Z</time>
      </trkpt>
      <trkpt lat="48.34501" lon="-3.38305">
        <ele>244</ele>
        <time>2014-06-23T13:16:16Z</time>
      </trkpt>
      <trkpt lat="48.34502" lon="-3.38303">
        <ele>244</ele>
        <time>2014-06-23T13:16:18Z</time>
      </trkpt>
      <trkpt lat="48.34502" lon="-3.38301">
        <ele>243</ele>
        <time>2014-06-23T13:16:21Z</time>
      </trkpt>
      <trkpt lat="48.345" lon="-3.383">
        <ele>242</ele>
        <time>2014-06-23T13:16:27Z</time>
      </trkpt>
      <trkpt lat="48.34499" lon="-3.38302">
        <ele>240</ele>
        <time>2014-06-23T13:16:31Z</time>
      </trkpt>
      <trkpt lat="48.34498" lon="-3.38304">
        <ele>238</ele>
        <time>2014-06-23T13:16:33Z</time>
      </trkpt>
      <trkpt lat="48.34498" lon="-3.38306">
        <ele>237</ele>
        <time>2014-06-23T13:16:34Z</time>
      </trkpt>
      <trkpt lat="48.34497" lon="-3.38307">
        <ele>236</ele>
        <time>2014-06-23T13:16:35Z</time>
      </trkpt>
      <trkpt lat="48.34495" lon="-3.38308">
        <ele>235</ele>
        <time>2014-06-23T13:16:36Z</time>
      </trkpt>
      <trkpt lat="48.34494" lon="-3.3831">
        <ele>232</ele>
        <time>2014-06-23T13:16:39Z</time>
      </trkpt>
      <trkpt lat="48.34491" lon="-3.3831">
        <ele>231</ele>
        <time>2014-06-23T13:16:42Z</time>
      </trkpt>
      <trkpt lat="48.34491" lon="-3.38312">
        <ele>231</ele>
        <time>2014-06-23T13:16:44Z</time>
      </trkpt>
      <trkpt lat="48.34491" lon="-3.38314">
        <ele>231</ele>
        <time>2014-06-23T13:16:46Z</time>
      </trkpt>
      <trkpt lat="48.34493" lon="-3.38314">
        <ele>231</ele>
        <time>2014-06-23T13:16:48Z</time>
      </trkpt>
      <trkpt lat="48.34494" lon="-3.38314">
        <ele>231</ele>
        <time>2014-06-23T13:16:50Z</time>
      </trkpt>
      <trkpt lat="48.34494" lon="-3.38316">
        <ele>231</ele>
        <time>2014-06-23T13:16:55Z</time>
      </trkpt>
      <trkpt lat="48.34495" lon="-3.38316">
        <ele>231</ele>
        <time>2014-06-23T13:16:58Z</time>
      </trkpt>
      <trkpt lat="48.34497" lon="-3.38315">
        <ele>231</ele>
        <time>2014-06-23T13:17:00Z</time>
      </trkpt>
      <trkpt lat="48.34496" lon="-3.38314">
        <ele>231</ele>
        <time>2014-06-23T13:17:04Z</time>
      </trkpt>
      <trkpt lat="48.34494" lon="-3.38314">
        <ele>232</ele>
        <time>2014-06-23T13:17:09Z</time>
      </trkpt>
      <trkpt lat="48.34493" lon="-3.38313">
        <ele>233</ele>
        <time>2014-06-23T13:17:10Z</time>
      </trkpt>
      <trkpt lat="48.34492" lon="-3.38314">
        <ele>235</ele>
        <time>2014-06-23T13:17:13Z</time>
      </trkpt>
      <trkpt lat="48.34491" lon="-3.38314">
        <ele>235</ele>
        <time>2014-06-23T13:17:14Z</time>
      </trkpt>
      <trkpt lat="48.34489" lon="-3.38314">
        <ele>237</ele>
        <time>2014-06-23T13:17:16Z</time>
      </trkpt>
      <trkpt lat="48.34488" lon="-3.38313">
        <ele>239</ele>
        <time>2014-06-23T13:17:18Z</time>
      </trkpt>
      <trkpt lat="48.34486" lon="-3.38313">
        <ele>242</ele>
        <time>2014-06-23T13:17:21Z</time>
      </trkpt>
      <trkpt lat="48.34484" lon="-3.38313">
        <ele>244</ele>
        <time>2014-06-23T13:17:23Z</time>
      </trkpt>
      <trkpt lat="48.34483" lon="-3.38313">
        <ele>246</ele>
        <time>2014-06-23T13:17:25Z</time>
      </trkpt>
      <trkpt lat="48.34481" lon="-3.38312">
        <ele>248</ele>
        <time>2014-06-23T13:17:27Z</time>
      </trkpt>
      <trkpt lat="48.3448" lon="-3.38312">
        <ele>248</ele>
        <time>2014-06-23T13:17:28Z</time>
      </trkpt>
      <trkpt lat="48.34478" lon="-3.38313">
        <ele>249</ele>
        <time>2014-06-23T13:17:31Z</time>
      </trkpt>
      <trkpt lat="48.34477" lon="-3.38314">
        <ele>249</ele>
        <time>2014-06-23T13:17:35Z</time>
      </trkpt>
      <trkpt lat="48.34475" lon="-3.38314">
        <ele>251</ele>
        <time>2014-06-23T13:17:37Z</time>
      </trkpt>
      <trkpt lat="48.34476" lon="-3.38317">
        <ele>254</ele>
        <time>2014-06-23T13:17:45Z</time>
      </trkpt>
      <trkpt lat="48.34477" lon="-3.38317">
        <ele>254</ele>
        <time>2014-06-23T13:17:46Z</time>
      </trkpt>
      <trkpt lat="48.34479" lon="-3.38318">
        <ele>254</ele>
        <time>2014-06-23T13:17:47Z</time>
      </trkpt>
      <trkpt lat="48.3448" lon="-3.38319">
        <ele>254</ele>
        <time>2014-06-23T13:17:48Z</time>
      </trkpt>
      <trkpt lat="48.34482" lon="-3.38319">
        <ele>254</ele>
        <time>2014-06-23T13:17:49Z</time>
      </trkpt>
      <trkpt lat="48.34483" lon="-3.38319">
        <ele>254</ele>
        <time>2014-06-23T13:17:50Z</time>
      </trkpt>
      <trkpt lat="48.34481" lon="-3.38318">
        <ele>254</ele>
        <time>2014-06-23T13:17:55Z</time>
      </trkpt>
      <trkpt lat="48.3448" lon="-3.38317">
        <ele>255</ele>
        <time>2014-06-23T13:17:58Z</time>
      </trkpt>
      <trkpt lat="48.34481" lon="-3.38316">
        <ele>257</ele>
        <time>2014-06-23T13:18:01Z</time>
      </trkpt>
      <trkpt lat="48.34482" lon="-3.38316">
        <ele>257</ele>
        <time>2014-06-23T13:18:03Z</time>
      </trkpt>
      <trkpt lat="48.34483" lon="-3.38312">
        <ele>257</ele>
        <time>2014-06-23T13:18:05Z</time>
      </trkpt>
      <trkpt lat="48.34481" lon="-3.38311">
        <ele>257</ele>
        <time>2014-06-23T13:18:07Z</time>
      </trkpt>
      <trkpt lat="48.34482" lon="-3.38312">
        <ele>257</ele>
        <time>2014-06-23T13:18:08Z</time>
      </trkpt>
      <trkpt lat="48.34483" lon="-3.38311">
        <ele>257</ele>
        <time>2014-06-23T13:18:10Z</time>
      </trkpt>
      <trkpt lat="48.34483" lon="-3.38313">
        <ele>255</ele>
        <time>2014-06-23T13:18:13Z</time>
      </trkpt>
      <trkpt lat="48.34485" lon="-3.38313">
        <ele>253</ele>
        <time>2014-06-23T13:18:15Z</time>
      </trkpt>
      <trkpt lat="48.34486" lon="-3.38314">
        <ele>251</ele>
        <time>2014-06-23T13:18:17Z</time>
      </trkpt>
      <trkpt lat="48.34486" lon="-3.38312">
        <ele>246</ele>
        <time>2014-06-23T13:18:22Z</time>
      </trkpt>
      <trkpt lat="48.34484" lon="-3.38312">
        <ele>246</ele>
        <time>2014-06-23T13:18:30Z</time>
      </trkpt>
      <trkpt lat="48.34483" lon="-3.38314">
        <ele>246</ele>
        <time>2014-06-23T13:18:31Z</time>
      </trkpt>
      <trkpt lat="48.34481" lon="-3.38314">
        <ele>246</ele>
        <time>2014-06-23T13:18:32Z</time>
      </trkpt>
      <trkpt lat="48.34479" lon="-3.38316">
        <ele>246</ele>
        <time>2014-06-23T13:18:33Z</time>
      </trkpt>
      <trkpt lat="48.34478" lon="-3.38317">
        <ele>246</ele>
        <time>2014-06-23T13:18:34Z</time>
      </trkpt>
      <trkpt lat="48.34478" lon="-3.38318">
        <ele>246</ele>
        <time>2014-06-23T13:18:36Z</time>
      </trkpt>
      <trkpt lat="48.34479" lon="-3.38317">
        <ele>246</ele>
        <time>2014-06-23T13:18:38Z</time>
      </trkpt>
      <trkpt lat="48.3448" lon="-3.38316">
        <ele>246</ele>
        <time>2014-06-23T13:18:39Z</time>
      </trkpt>
      <trkpt lat="48.3448" lon="-3.38314">
        <ele>246</ele>
        <time>2014-06-23T13:18:41Z</time>
      </trkpt>
      <trkpt lat="48.34481" lon="-3.38311">
        <ele>246</ele>
        <time>2014-06-23T13:18:43Z</time>
      </trkpt>
      <trkpt lat="48.34481" lon="-3.38309">
        <ele>246</ele>
        <time>2014-06-23T13:18:46Z</time>
      </trkpt>
      <trkpt lat="48.34482" lon="-3.38308">
        <ele>246</ele>
        <time>2014-06-23T13:18:48Z</time>
      </trkpt>
      <trkpt lat="48.34483" lon="-3.38305">
        <ele>246</ele>
        <time>2014-06-23T13:18:52Z</time>
      </trkpt>
      <trkpt lat="48.34482" lon="-3.38303">
        <ele>246</ele>
        <time>2014-06-23T13:18:55Z</time>
      </trkpt>
      <trkpt lat="48.34483" lon="-3.38301">
        <ele>247</ele>
        <time>2014-06-23T13:18:57Z</time>
      </trkpt>
      <trkpt lat="48.34483" lon="-3.38299">
        <ele>249</ele>
        <time>2014-06-23T13:19:00Z</time>
      </trkpt>
      <trkpt lat="48.34481" lon="-3.38297">
        <ele>249</ele>
        <time>2014-06-23T13:19:02Z</time>
      </trkpt>
      <trkpt lat="48.3448" lon="-3.38295">
        <ele>249</ele>
        <time>2014-06-23T13:19:03Z</time>
      </trkpt>
      <trkpt lat="48.34481" lon="-3.38293">
        <ele>249</ele>
        <time>2014-06-23T13:19:05Z</time>
      </trkpt>
      <trkpt lat="48.34481" lon="-3.38291">
        <ele>249</ele>
        <time>2014-06-23T13:19:07Z</time>
      </trkpt>
      <trkpt lat="48.34481" lon="-3.38289">
        <ele>247</ele>
        <time>2014-06-23T13:19:15Z</time>
      </trkpt>
      <trkpt lat="48.3448" lon="-3.38287">
        <ele>247</ele>
        <time>2014-06-23T13:19:17Z</time>
      </trkpt>
      <trkpt lat="48.3448" lon="-3.38285">
        <ele>247</ele>
        <time>2014-06-23T13:19:18Z</time>
      </trkpt>
      <trkpt lat="48.3448" lon="-3.38283">
        <ele>247</ele>
        <time>2014-06-23T13:19:20Z</time>
      </trkpt>
      <trkpt lat="48.34479" lon="-3.3828">
        <ele>247</ele>
        <time>2014-06-23T13:19:22Z</time>
      </trkpt>
      <trkpt lat="48.34478" lon="-3.38278">
        <ele>247</ele>
        <time>2014-06-23T13:19:24Z</time>
      </trkpt>
      <trkpt lat="48.3448" lon="-3.38276">
        <ele>247</ele>
        <time>2014-06-23T13:19:26Z</time>
      </trkpt>
      <trkpt lat="48.3448" lon="-3.38273">
        <ele>247</ele>
        <time>2014-06-23T13:19:28Z</time>
      </trkpt>
      <trkpt lat="48.3448" lon="-3.38271">
        <ele>247</ele>
        <time>2014-06-23T13:19:30Z</time>
      </trkpt>
      <trkpt lat="48.3448" lon="-3.38269">
        <ele>247</ele>
        <time>2014-06-23T13:19:32Z</time>
      </trkpt>
      <trkpt lat="48.34481" lon="-3.38267">
        <ele>247</ele>
        <time>2014-06-23T13:19:33Z</time>
      </trkpt>
      <trkpt lat="48.3448" lon="-3.38265">
        <ele>247</ele>
        <time>2014-06-23T13:19:35Z</time>
      </trkpt>
      <trkpt lat="48.34479" lon="-3.38263">
        <ele>246</ele>
        <time>2014-06-23T13:19:37Z</time>
      </trkpt>
      <trkpt lat="48.34478" lon="-3.38262">
        <ele>246</ele>
        <time>2014-06-23T13:19:38Z</time>
      </trkpt>
      <trkpt lat="48.34479" lon="-3.3826">
        <ele>245</ele>
        <time>2014-06-23T13:19:40Z</time>
      </trkpt>
      <trkpt lat="48.34478" lon="-3.38258">
        <ele>243</ele>
        <time>2014-06-23T13:19:42Z</time>
      </trkpt>
      <trkpt lat="48.34477" lon="-3.38255">
        <ele>243</ele>
        <time>2014-06-23T13:19:44Z</time>
      </trkpt>
      <trkpt lat="48.34477" lon="-3.38253">
        <ele>242</ele>
        <time>2014-06-23T13:19:47Z</time>
      </trkpt>
      <trkpt lat="48.34477" lon="-3.38251">
        <ele>241</ele>
        <time>2014-06-23T13:19:49Z</time>
      </trkpt>
      <trkpt lat="48.34475" lon="-3.38247">
        <ele>240</ele>
        <time>2014-06-23T13:19:51Z</time>
      </trkpt>
      <trkpt lat="48.34474" lon="-3.38245">
        <ele>240</ele>
        <time>2014-06-23T13:19:52Z</time>
      </trkpt>
      <trkpt lat="48.34475" lon="-3.38244">
        <ele>240</ele>
        <time>2014-06-23T13:19:53Z</time>
      </trkpt>
      <trkpt lat="48.34475" lon="-3.38241">
        <ele>240</ele>
        <time>2014-06-23T13:19:55Z</time>
      </trkpt>
      <trkpt lat="48.34474" lon="-3.38239">
        <ele>240</ele>
        <time>2014-06-23T13:19:57Z</time>
      </trkpt>
      <trkpt lat="48.34473" lon="-3.38238">
        <ele>240</ele>
        <time>2014-06-23T13:19:58Z</time>
      </trkpt>
      <trkpt lat="48.34472" lon="-3.38237">
        <ele>240</ele>
        <time>2014-06-23T13:19:59Z</time>
      </trkpt>
      <trkpt lat="48.34471" lon="-3.38234">
        <ele>240</ele>
        <time>2014-06-23T13:20:01Z</time>
      </trkpt>
      <trkpt lat="48.3447" lon="-3.38234">
        <ele>240</ele>
        <time>2014-06-23T13:20:02Z</time>
      </trkpt>
      <trkpt lat="48.34468" lon="-3.38233">
        <ele>240</ele>
        <time>2014-06-23T13:20:03Z</time>
      </trkpt>
      <trkpt lat="48.34467" lon="-3.38233">
        <ele>240</ele>
        <time>2014-06-23T13:20:04Z</time>
      </trkpt>
      <trkpt lat="48.34466" lon="-3.38232">
        <ele>240</ele>
        <time>2014-06-23T13:20:05Z</time>
      </trkpt>
      <trkpt lat="48.34465" lon="-3.3823">
        <ele>240</ele>
        <time>2014-06-23T13:20:07Z</time>
      </trkpt>
      <trkpt lat="48.34465" lon="-3.38228">
        <ele>240</ele>
        <time>2014-06-23T13:20:09Z</time>
      </trkpt>
      <trkpt lat="48.34463" lon="-3.38227">
        <ele>240</ele>
        <time>2014-06-23T13:20:11Z</time>
      </trkpt>
      <trkpt lat="48.34462" lon="-3.38225">
        <ele>240</ele>
        <time>2014-06-23T13:20:14Z</time>
      </trkpt>
      <trkpt lat="48.3446" lon="-3.38224">
        <ele>240</ele>
        <time>2014-06-23T13:20:16Z</time>
      </trkpt>
      <trkpt lat="48.3446" lon="-3.38222">
        <ele>240</ele>
        <time>2014-06-23T13:20:19Z</time>
      </trkpt>
      <trkpt lat="48.34458" lon="-3.38222">
        <ele>240</ele>
        <time>2014-06-23T13:20:21Z</time>
      </trkpt>
      <trkpt lat="48.34457" lon="-3.38221">
        <ele>239</ele>
        <time>2014-06-23T13:20:23Z</time>
      </trkpt>
      <trkpt lat="48.34456" lon="-3.38219">
        <ele>239</ele>
        <time>2014-06-23T13:20:25Z</time>
      </trkpt>
      <trkpt lat="48.34454" lon="-3.38218">
        <ele>238</ele>
        <time>2014-06-23T13:20:30Z</time>
      </trkpt>
      <trkpt lat="48.34452" lon="-3.38218">
        <ele>238</ele>
        <time>2014-06-23T13:20:31Z</time>
      </trkpt>
      <trkpt lat="48.3445" lon="-3.38217">
        <ele>238</ele>
        <time>2014-06-23T13:20:32Z</time>
      </trkpt>
      <trkpt lat="48.34448" lon="-3.38216">
        <ele>238</ele>
        <time>2014-06-23T13:20:34Z</time>
      </trkpt>
      <trkpt lat="48.3445" lon="-3.38217">
        <ele>238</ele>
        <time>2014-06-23T13:20:35Z</time>
      </trkpt>
      <trkpt lat="48.34452" lon="-3.38216">
        <ele>238</ele>
        <time>2014-06-23T13:20:37Z</time>
      </trkpt>
      <trkpt lat="48.34452" lon="-3.38214">
        <ele>238</ele>
        <time>2014-06-23T13:20:39Z</time>
      </trkpt>
      <trkpt lat="48.34451" lon="-3.38213">
        <ele>238</ele>
        <time>2014-06-23T13:20:40Z</time>
      </trkpt>
      <trkpt lat="48.34449" lon="-3.38212">
        <ele>238</ele>
        <time>2014-06-23T13:20:41Z</time>
      </trkpt>
      <trkpt lat="48.34449" lon="-3.3821">
        <ele>238</ele>
        <time>2014-06-23T13:20:43Z</time>
      </trkpt>
      <trkpt lat="48.34449" lon="-3.38208">
        <ele>238</ele>
        <time>2014-06-23T13:20:45Z</time>
      </trkpt>
      <trkpt lat="48.34448" lon="-3.38205">
        <ele>238</ele>
        <time>2014-06-23T13:20:47Z</time>
      </trkpt>
      <trkpt lat="48.34447" lon="-3.38204">
        <ele>238</ele>
        <time>2014-06-23T13:20:49Z</time>
      </trkpt>
      <trkpt lat="48.34445" lon="-3.38202">
        <ele>238</ele>
        <time>2014-06-23T13:20:51Z</time>
      </trkpt>
      <trkpt lat="48.34443" lon="-3.382">
        <ele>238</ele>
        <time>2014-06-23T13:20:52Z</time>
      </trkpt>
      <trkpt lat="48.34441" lon="-3.38198">
        <ele>238</ele>
        <time>2014-06-23T13:20:54Z</time>
      </trkpt>
      <trkpt lat="48.34439" lon="-3.38197">
        <ele>238</ele>
        <time>2014-06-23T13:20:55Z</time>
      </trkpt>
      <trkpt lat="48.34438" lon="-3.38194">
        <ele>238</ele>
        <time>2014-06-23T13:20:57Z</time>
      </trkpt>
      <trkpt lat="48.34438" lon="-3.38192">
        <ele>238</ele>
        <time>2014-06-23T13:20:59Z</time>
      </trkpt>
      <trkpt lat="48.34438" lon="-3.38189">
        <ele>238</ele>
        <time>2014-06-23T13:21:01Z</time>
      </trkpt>
      <trkpt lat="48.34436" lon="-3.38189">
        <ele>238</ele>
        <time>2014-06-23T13:21:04Z</time>
      </trkpt>
      <trkpt lat="48.34435" lon="-3.38188">
        <ele>238</ele>
        <time>2014-06-23T13:21:05Z</time>
      </trkpt>
      <trkpt lat="48.34433" lon="-3.38188">
        <ele>238</ele>
        <time>2014-06-23T13:21:06Z</time>
      </trkpt>
      <trkpt lat="48.34432" lon="-3.38187">
        <ele>238</ele>
        <time>2014-06-23T13:21:07Z</time>
      </trkpt>
      <trkpt lat="48.34431" lon="-3.38186">
        <ele>238</ele>
        <time>2014-06-23T13:21:09Z</time>
      </trkpt>
      <trkpt lat="48.3443" lon="-3.38184">
        <ele>238</ele>
        <time>2014-06-23T13:21:11Z</time>
      </trkpt>
      <trkpt lat="48.34429" lon="-3.38182">
        <ele>238</ele>
        <time>2014-06-23T13:21:13Z</time>
      </trkpt>
      <trkpt lat="48.34428" lon="-3.38178">
        <ele>239</ele>
        <time>2014-06-23T13:21:15Z</time>
      </trkpt>
      <trkpt lat="48.34427" lon="-3.38177">
        <ele>239</ele>
        <time>2014-06-23T13:21:16Z</time>
      </trkpt>
      <trkpt lat="48.34426" lon="-3.38174">
        <ele>240</ele>
        <time>2014-06-23T13:21:18Z</time>
      </trkpt>
      <trkpt lat="48.34426" lon="-3.38172">
        <ele>240</ele>
        <time>2014-06-23T13:21:19Z</time>
      </trkpt>
      <trkpt lat="48.34426" lon="-3.38171">
        <ele>240</ele>
        <time>2014-06-23T13:21:20Z</time>
      </trkpt>
      <trkpt lat="48.34425" lon="-3.38168">
        <ele>240</ele>
        <time>2014-06-23T13:21:22Z</time>
      </trkpt>
      <trkpt lat="48.34423" lon="-3.38166">
        <ele>240</ele>
        <time>2014-06-23T13:21:25Z</time>
      </trkpt>
      <trkpt lat="48.34422" lon="-3.38165">
        <ele>241</ele>
        <time>2014-06-23T13:21:26Z</time>
      </trkpt>
      <trkpt lat="48.34421" lon="-3.38165">
        <ele>242</ele>
        <time>2014-06-23T13:21:27Z</time>
      </trkpt>
      <trkpt lat="48.34419" lon="-3.38163">
        <ele>242</ele>
        <time>2014-06-23T13:21:28Z</time>
      </trkpt>
      <trkpt lat="48.34418" lon="-3.38161">
        <ele>243</ele>
        <time>2014-06-23T13:21:30Z</time>
      </trkpt>
      <trkpt lat="48.34416" lon="-3.38161">
        <ele>243</ele>
        <time>2014-06-23T13:21:31Z</time>
      </trkpt>
      <trkpt lat="48.34414" lon="-3.38159">
        <ele>243</ele>
        <time>2014-06-23T13:21:33Z</time>
      </trkpt>
      <trkpt lat="48.34414" lon="-3.38158">
        <ele>243</ele>
        <time>2014-06-23T13:21:36Z</time>
      </trkpt>
      <trkpt lat="48.34412" lon="-3.38156">
        <ele>243</ele>
        <time>2014-06-23T13:21:38Z</time>
      </trkpt>
      <trkpt lat="48.34411" lon="-3.38153">
        <ele>243</ele>
        <time>2014-06-23T13:21:40Z</time>
      </trkpt>
      <trkpt lat="48.3441" lon="-3.38151">
        <ele>243</ele>
        <time>2014-06-23T13:21:43Z</time>
      </trkpt>
      <trkpt lat="48.34408" lon="-3.38148">
        <ele>243</ele>
        <time>2014-06-23T13:21:46Z</time>
      </trkpt>
      <trkpt lat="48.34407" lon="-3.38146">
        <ele>242</ele>
        <time>2014-06-23T13:21:48Z</time>
      </trkpt>
      <trkpt lat="48.34406" lon="-3.38145">
        <ele>242</ele>
        <time>2014-06-23T13:21:49Z</time>
      </trkpt>
      <trkpt lat="48.34404" lon="-3.38143">
        <ele>240</ele>
        <time>2014-06-23T13:21:52Z</time>
      </trkpt>
      <trkpt lat="48.34403" lon="-3.38141">
        <ele>239</ele>
        <time>2014-06-23T13:21:54Z</time>
      </trkpt>
      <trkpt lat="48.34405" lon="-3.38138">
        <ele>238</ele>
        <time>2014-06-23T13:21:56Z</time>
      </trkpt>
      <trkpt lat="48.34406" lon="-3.38137">
        <ele>238</ele>
        <time>2014-06-23T13:21:57Z</time>
      </trkpt>
      <trkpt lat="48.34406" lon="-3.38135">
        <ele>238</ele>
        <time>2014-06-23T13:21:58Z</time>
      </trkpt>
      <trkpt lat="48.34404" lon="-3.38132">
        <ele>238</ele>
        <time>2014-06-23T13:22:00Z</time>
      </trkpt>
      <trkpt lat="48.34403" lon="-3.3813">
        <ele>237</ele>
        <time>2014-06-23T13:22:02Z</time>
      </trkpt>
      <trkpt lat="48.34404" lon="-3.38127">
        <ele>236</ele>
        <time>2014-06-23T13:22:04Z</time>
      </trkpt>
      <trkpt lat="48.34405" lon="-3.38125">
        <ele>235</ele>
        <time>2014-06-23T13:22:06Z</time>
      </trkpt>
      <trkpt lat="48.34406" lon="-3.38122">
        <ele>234</ele>
        <time>2014-06-23T13:22:08Z</time>
      </trkpt>
      <trkpt lat="48.34406" lon="-3.3812">
        <ele>233</ele>
        <time>2014-06-23T13:22:10Z</time>
      </trkpt>
      <trkpt lat="48.34407" lon="-3.38118">
        <ele>233</ele>
        <time>2014-06-23T13:22:12Z</time>
      </trkpt>
      <trkpt lat="48.34408" lon="-3.38115">
        <ele>233</ele>
        <time>2014-06-23T13:22:14Z</time>
      </trkpt>
      <trkpt lat="48.34409" lon="-3.38113">
        <ele>233</ele>
        <time>2014-06-23T13:22:16Z</time>
      </trkpt>
      <trkpt lat="48.3441" lon="-3.3811">
        <ele>233</ele>
        <time>2014-06-23T13:22:18Z</time>
      </trkpt>
      <trkpt lat="48.34412" lon="-3.38109">
        <ele>233</ele>
        <time>2014-06-23T13:22:20Z</time>
      </trkpt>
      <trkpt lat="48.34412" lon="-3.38107">
        <ele>233</ele>
        <time>2014-06-23T13:22:22Z</time>
      </trkpt>
      <trkpt lat="48.34412" lon="-3.38105">
        <ele>233</ele>
        <time>2014-06-23T13:22:24Z</time>
      </trkpt>
      <trkpt lat="48.34412" lon="-3.38103">
        <ele>232</ele>
        <time>2014-06-23T13:22:26Z</time>
      </trkpt>
      <trkpt lat="48.34413" lon="-3.381">
        <ele>232</ele>
        <time>2014-06-23T13:22:28Z</time>
      </trkpt>
      <trkpt lat="48.34412" lon="-3.38099">
        <ele>232</ele>
        <time>2014-06-23T13:22:29Z</time>
      </trkpt>
      <trkpt lat="48.34411" lon="-3.38096">
        <ele>232</ele>
        <time>2014-06-23T13:22:31Z</time>
      </trkpt>
      <trkpt lat="48.3441" lon="-3.38093">
        <ele>232</ele>
        <time>2014-06-23T13:22:33Z</time>
      </trkpt>
      <trkpt lat="48.34409" lon="-3.38091">
        <ele>232</ele>
        <time>2014-06-23T13:22:34Z</time>
      </trkpt>
      <trkpt lat="48.34409" lon="-3.38088">
        <ele>232</ele>
        <time>2014-06-23T13:22:36Z</time>
      </trkpt>
      <trkpt lat="48.34408" lon="-3.38086">
        <ele>232</ele>
        <time>2014-06-23T13:22:38Z</time>
      </trkpt>
      <trkpt lat="48.34408" lon="-3.38084">
        <ele>232</ele>
        <time>2014-06-23T13:22:42Z</time>
      </trkpt>
      <trkpt lat="48.34408" lon="-3.38081">
        <ele>232</ele>
        <time>2014-06-23T13:22:45Z</time>
      </trkpt>
      <trkpt lat="48.34407" lon="-3.38081">
        <ele>232</ele>
        <time>2014-06-23T13:22:47Z</time>
      </trkpt>
      <trkpt lat="48.34405" lon="-3.38081">
        <ele>232</ele>
        <time>2014-06-23T13:22:49Z</time>
      </trkpt>
      <trkpt lat="48.34404" lon="-3.3808">
        <ele>232</ele>
        <time>2014-06-23T13:22:51Z</time>
      </trkpt>
      <trkpt lat="48.34402" lon="-3.3808">
        <ele>232</ele>
        <time>2014-06-23T13:22:53Z</time>
      </trkpt>
      <trkpt lat="48.34402" lon="-3.38078">
        <ele>232</ele>
        <time>2014-06-23T13:23:00Z</time>
      </trkpt>
      <trkpt lat="48.34401" lon="-3.3808">
        <ele>232</ele>
        <time>2014-06-23T13:23:10Z</time>
      </trkpt>
      <trkpt lat="48.34401" lon="-3.38082">
        <ele>232</ele>
        <time>2014-06-23T13:23:14Z</time>
      </trkpt>
      <trkpt lat="48.34402" lon="-3.38083">
        <ele>232</ele>
        <time>2014-06-23T13:23:18Z</time>
      </trkpt>
      <trkpt lat="48.34405" lon="-3.38081">
        <ele>232</ele>
        <time>2014-06-23T13:23:20Z</time>
      </trkpt>
      <trkpt lat="48.34406" lon="-3.3808">
        <ele>232</ele>
        <time>2014-06-23T13:23:21Z</time>
      </trkpt>
      <trkpt lat="48.34407" lon="-3.38079">
        <ele>232</ele>
        <time>2014-06-23T13:23:22Z</time>
      </trkpt>
      <trkpt lat="48.34409" lon="-3.38078">
        <ele>232</ele>
        <time>2014-06-23T13:23:24Z</time>
      </trkpt>
      <trkpt lat="48.3441" lon="-3.38077">
        <ele>232</ele>
        <time>2014-06-23T13:23:26Z</time>
      </trkpt>
      <trkpt lat="48.34411" lon="-3.38075">
        <ele>232</ele>
        <time>2014-06-23T13:23:28Z</time>
      </trkpt>
      <trkpt lat="48.34412" lon="-3.38073">
        <ele>232</ele>
        <time>2014-06-23T13:23:31Z</time>
      </trkpt>
      <trkpt lat="48.34414" lon="-3.38072">
        <ele>232</ele>
        <time>2014-06-23T13:23:33Z</time>
      </trkpt>
      <trkpt lat="48.34415" lon="-3.3807">
        <ele>232</ele>
        <time>2014-06-23T13:23:35Z</time>
      </trkpt>
      <trkpt lat="48.34416" lon="-3.38068">
        <ele>232</ele>
        <time>2014-06-23T13:23:37Z</time>
      </trkpt>
      <trkpt lat="48.34415" lon="-3.38066">
        <ele>232</ele>
        <time>2014-06-23T13:23:39Z</time>
      </trkpt>
      <trkpt lat="48.34415" lon="-3.38063">
        <ele>232</ele>
        <time>2014-06-23T13:23:42Z</time>
      </trkpt>
      <trkpt lat="48.34416" lon="-3.3806">
        <ele>232</ele>
        <time>2014-06-23T13:23:44Z</time>
      </trkpt>
      <trkpt lat="48.34416" lon="-3.38058">
        <ele>232</ele>
        <time>2014-06-23T13:23:45Z</time>
      </trkpt>
      <trkpt lat="48.34416" lon="-3.38056">
        <ele>232</ele>
        <time>2014-06-23T13:23:46Z</time>
      </trkpt>
      <trkpt lat="48.34416" lon="-3.38055">
        <ele>232</ele>
        <time>2014-06-23T13:23:47Z</time>
      </trkpt>
      <trkpt lat="48.34415" lon="-3.38053">
        <ele>232</ele>
        <time>2014-06-23T13:23:48Z</time>
      </trkpt>
      <trkpt lat="48.34415" lon="-3.3805">
        <ele>232</ele>
        <time>2014-06-23T13:23:50Z</time>
      </trkpt>
      <trkpt lat="48.34416" lon="-3.38049">
        <ele>232</ele>
        <time>2014-06-23T13:23:51Z</time>
      </trkpt>
      <trkpt lat="48.34415" lon="-3.38045">
        <ele>232</ele>
        <time>2014-06-23T13:23:53Z</time>
      </trkpt>
      <trkpt lat="48.34415" lon="-3.38043">
        <ele>232</ele>
        <time>2014-06-23T13:23:55Z</time>
      </trkpt>
      <trkpt lat="48.34414" lon="-3.38041">
        <ele>232</ele>
        <time>2014-06-23T13:23:57Z</time>
      </trkpt>
      <trkpt lat="48.34415" lon="-3.38039">
        <ele>232</ele>
        <time>2014-06-23T13:24:00Z</time>
      </trkpt>
      <trkpt lat="48.34415" lon="-3.38036">
        <ele>232</ele>
        <time>2014-06-23T13:24:02Z</time>
      </trkpt>
      <trkpt lat="48.34415" lon="-3.38033">
        <ele>232</ele>
        <time>2014-06-23T13:24:04Z</time>
      </trkpt>
      <trkpt lat="48.34416" lon="-3.38031">
        <ele>232</ele>
        <time>2014-06-23T13:24:06Z</time>
      </trkpt>
      <trkpt lat="48.34418" lon="-3.38029">
        <ele>232</ele>
        <time>2014-06-23T13:24:08Z</time>
      </trkpt>
      <trkpt lat="48.34419" lon="-3.38026">
        <ele>232</ele>
        <time>2014-06-23T13:24:10Z</time>
      </trkpt>
      <trkpt lat="48.3442" lon="-3.38024">
        <ele>232</ele>
        <time>2014-06-23T13:24:14Z</time>
      </trkpt>
      <trkpt lat="48.34421" lon="-3.38022">
        <ele>232</ele>
        <time>2014-06-23T13:24:16Z</time>
      </trkpt>
      <trkpt lat="48.3442" lon="-3.3802">
        <ele>232</ele>
        <time>2014-06-23T13:24:17Z</time>
      </trkpt>
      <trkpt lat="48.3442" lon="-3.38018">
        <ele>232</ele>
        <time>2014-06-23T13:24:19Z</time>
      </trkpt>
      <trkpt lat="48.34422" lon="-3.38016">
        <ele>232</ele>
        <time>2014-06-23T13:24:21Z</time>
      </trkpt>
      <trkpt lat="48.34422" lon="-3.38013">
        <ele>232</ele>
        <time>2014-06-23T13:24:23Z</time>
      </trkpt>
      <trkpt lat="48.34421" lon="-3.38011">
        <ele>232</ele>
        <time>2014-06-23T13:24:25Z</time>
      </trkpt>
      <trkpt lat="48.3442" lon="-3.38008">
        <ele>232</ele>
        <time>2014-06-23T13:24:27Z</time>
      </trkpt>
      <trkpt lat="48.34419" lon="-3.38007">
        <ele>232</ele>
        <time>2014-06-23T13:24:29Z</time>
      </trkpt>
      <trkpt lat="48.34417" lon="-3.38005">
        <ele>232</ele>
        <time>2014-06-23T13:24:31Z</time>
      </trkpt>
      <trkpt lat="48.34416" lon="-3.38003">
        <ele>233</ele>
        <time>2014-06-23T13:24:33Z</time>
      </trkpt>
      <trkpt lat="48.34414" lon="-3.38002">
        <ele>233</ele>
        <time>2014-06-23T13:24:36Z</time>
      </trkpt>
      <trkpt lat="48.34413" lon="-3.38001">
        <ele>233</ele>
        <time>2014-06-23T13:24:37Z</time>
      </trkpt>
      <trkpt lat="48.34411" lon="-3.38">
        <ele>233</ele>
        <time>2014-06-23T13:24:39Z</time>
      </trkpt>
      <trkpt lat="48.3441" lon="-3.37998">
        <ele>233</ele>
        <time>2014-06-23T13:24:41Z</time>
      </trkpt>
      <trkpt lat="48.34413" lon="-3.37997">
        <ele>233</ele>
        <time>2014-06-23T13:24:45Z</time>
      </trkpt>
      <trkpt lat="48.34414" lon="-3.37995">
        <ele>233</ele>
        <time>2014-06-23T13:24:47Z</time>
      </trkpt>
      <trkpt lat="48.34414" lon="-3.37993">
        <ele>233</ele>
        <time>2014-06-23T13:24:50Z</time>
      </trkpt>
      <trkpt lat="48.34415" lon="-3.37992">
        <ele>233</ele>
        <time>2014-06-23T13:24:52Z</time>
      </trkpt>
      <trkpt lat="48.34417" lon="-3.3799">
        <ele>235</ele>
        <time>2014-06-23T13:24:55Z</time>
      </trkpt>
      <trkpt lat="48.34418" lon="-3.3799">
        <ele>236</ele>
        <time>2014-06-23T13:24:57Z</time>
      </trkpt>
      <trkpt lat="48.3442" lon="-3.37989">
        <ele>237</ele>
        <time>2014-06-23T13:24:58Z</time>
      </trkpt>
      <trkpt lat="48.3442" lon="-3.37987">
        <ele>238</ele>
        <time>2014-06-23T13:25:01Z</time>
      </trkpt>
      <trkpt lat="48.34419" lon="-3.37986">
        <ele>239</ele>
        <time>2014-06-23T13:25:03Z</time>
      </trkpt>
      <trkpt lat="48.3442" lon="-3.37983">
        <ele>239</ele>
        <time>2014-06-23T13:25:05Z</time>
      </trkpt>
      <trkpt lat="48.34419" lon="-3.37982">
        <ele>240</ele>
        <time>2014-06-23T13:25:06Z</time>
      </trkpt>
      <trkpt lat="48.34419" lon="-3.37979">
        <ele>240</ele>
        <time>2014-06-23T13:25:08Z</time>
      </trkpt>
      <trkpt lat="48.34421" lon="-3.37978">
        <ele>241</ele>
        <time>2014-06-23T13:25:10Z</time>
      </trkpt>
      <trkpt lat="48.34423" lon="-3.37977">
        <ele>241</ele>
        <time>2014-06-23T13:25:11Z</time>
      </trkpt>
      <trkpt lat="48.34424" lon="-3.37977">
        <ele>241</ele>
        <time>2014-06-23T13:25:12Z</time>
      </trkpt>
      <trkpt lat="48.34426" lon="-3.37974">
        <ele>241</ele>
        <time>2014-06-23T13:25:14Z</time>
      </trkpt>
      <trkpt lat="48.34428" lon="-3.37971">
        <ele>241</ele>
        <time>2014-06-23T13:25:17Z</time>
      </trkpt>
      <trkpt lat="48.34428" lon="-3.37969">
        <ele>241</ele>
        <time>2014-06-23T13:25:19Z</time>
      </trkpt>
      <trkpt lat="48.34429" lon="-3.37967">
        <ele>241</ele>
        <time>2014-06-23T13:25:21Z</time>
      </trkpt>
      <trkpt lat="48.3443" lon="-3.37965">
        <ele>241</ele>
        <time>2014-06-23T13:25:23Z</time>
      </trkpt>
      <trkpt lat="48.3443" lon="-3.37963">
        <ele>241</ele>
        <time>2014-06-23T13:25:24Z</time>
      </trkpt>
      <trkpt lat="48.3443" lon="-3.37961">
        <ele>241</ele>
        <time>2014-06-23T13:25:25Z</time>
      </trkpt>
      <trkpt lat="48.3443" lon="-3.3796">
        <ele>241</ele>
        <time>2014-06-23T13:25:26Z</time>
      </trkpt>
      <trkpt lat="48.3443" lon="-3.37958">
        <ele>241</ele>
        <time>2014-06-23T13:25:27Z</time>
      </trkpt>
      <trkpt lat="48.34431" lon="-3.37955">
        <ele>241</ele>
        <time>2014-06-23T13:25:29Z</time>
      </trkpt>
      <trkpt lat="48.34432" lon="-3.37953">
        <ele>241</ele>
        <time>2014-06-23T13:25:31Z</time>
      </trkpt>
      <trkpt lat="48.34432" lon="-3.37951">
        <ele>241</ele>
        <time>2014-06-23T13:25:33Z</time>
      </trkpt>
      <trkpt lat="48.34433" lon="-3.37949">
        <ele>241</ele>
        <time>2014-06-23T13:25:35Z</time>
      </trkpt>
      <trkpt lat="48.34433" lon="-3.37946">
        <ele>241</ele>
        <time>2014-06-23T13:25:37Z</time>
      </trkpt>
      <trkpt lat="48.34435" lon="-3.37944">
        <ele>241</ele>
        <time>2014-06-23T13:25:39Z</time>
      </trkpt>
      <trkpt lat="48.34434" lon="-3.37941">
        <ele>241</ele>
        <time>2014-06-23T13:25:41Z</time>
      </trkpt>
      <trkpt lat="48.34435" lon="-3.37938">
        <ele>241</ele>
        <time>2014-06-23T13:25:43Z</time>
      </trkpt>
      <trkpt lat="48.34435" lon="-3.37935">
        <ele>241</ele>
        <time>2014-06-23T13:25:45Z</time>
      </trkpt>
      <trkpt lat="48.34434" lon="-3.37933">
        <ele>241</ele>
        <time>2014-06-23T13:25:47Z</time>
      </trkpt>
      <trkpt lat="48.34436" lon="-3.37931">
        <ele>241</ele>
        <time>2014-06-23T13:25:49Z</time>
      </trkpt>
      <trkpt lat="48.34435" lon="-3.37929">
        <ele>241</ele>
        <time>2014-06-23T13:25:50Z</time>
      </trkpt>
      <trkpt lat="48.34435" lon="-3.37927">
        <ele>241</ele>
        <time>2014-06-23T13:25:52Z</time>
      </trkpt>
      <trkpt lat="48.34434" lon="-3.37925">
        <ele>241</ele>
        <time>2014-06-23T13:25:54Z</time>
      </trkpt>
      <trkpt lat="48.34433" lon="-3.37922">
        <ele>241</ele>
        <time>2014-06-23T13:25:56Z</time>
      </trkpt>
      <trkpt lat="48.34432" lon="-3.3792">
        <ele>241</ele>
        <time>2014-06-23T13:25:58Z</time>
      </trkpt>
      <trkpt lat="48.34431" lon="-3.37918">
        <ele>240</ele>
        <time>2014-06-23T13:26:00Z</time>
      </trkpt>
      <trkpt lat="48.34429" lon="-3.37916">
        <ele>240</ele>
        <time>2014-06-23T13:26:01Z</time>
      </trkpt>
      <trkpt lat="48.34428" lon="-3.37914">
        <ele>239</ele>
        <time>2014-06-23T13:26:04Z</time>
      </trkpt>
      <trkpt lat="48.34426" lon="-3.37912">
        <ele>239</ele>
        <time>2014-06-23T13:26:06Z</time>
      </trkpt>
      <trkpt lat="48.34425" lon="-3.3791">
        <ele>239</ele>
        <time>2014-06-23T13:26:08Z</time>
      </trkpt>
      <trkpt lat="48.34424" lon="-3.37909">
        <ele>239</ele>
        <time>2014-06-23T13:26:09Z</time>
      </trkpt>
      <trkpt lat="48.34422" lon="-3.37909">
        <ele>239</ele>
        <time>2014-06-23T13:26:11Z</time>
      </trkpt>
      <trkpt lat="48.34421" lon="-3.37909">
        <ele>239</ele>
        <time>2014-06-23T13:26:13Z</time>
      </trkpt>
      <trkpt lat="48.3442" lon="-3.37907">
        <ele>239</ele>
        <time>2014-06-23T13:26:15Z</time>
      </trkpt>
      <trkpt lat="48.34418" lon="-3.37904">
        <ele>239</ele>
        <time>2014-06-23T13:26:17Z</time>
      </trkpt>
      <trkpt lat="48.34417" lon="-3.37901">
        <ele>239</ele>
        <time>2014-06-23T13:26:19Z</time>
      </trkpt>
      <trkpt lat="48.34418" lon="-3.37899">
        <ele>239</ele>
        <time>2014-06-23T13:26:22Z</time>
      </trkpt>
      <trkpt lat="48.34418" lon="-3.37897">
        <ele>239</ele>
        <time>2014-06-23T13:26:24Z</time>
      </trkpt>
      <trkpt lat="48.34417" lon="-3.37894">
        <ele>239</ele>
        <time>2014-06-23T13:26:26Z</time>
      </trkpt>
      <trkpt lat="48.34417" lon="-3.37892">
        <ele>239</ele>
        <time>2014-06-23T13:26:29Z</time>
      </trkpt>
      <trkpt lat="48.34416" lon="-3.3789">
        <ele>239</ele>
        <time>2014-06-23T13:26:31Z</time>
      </trkpt>
      <trkpt lat="48.34417" lon="-3.37888">
        <ele>239</ele>
        <time>2014-06-23T13:26:33Z</time>
      </trkpt>
      <trkpt lat="48.34416" lon="-3.37886">
        <ele>239</ele>
        <time>2014-06-23T13:26:35Z</time>
      </trkpt>
      <trkpt lat="48.34417" lon="-3.37883">
        <ele>239</ele>
        <time>2014-06-23T13:26:38Z</time>
      </trkpt>
      <trkpt lat="48.34418" lon="-3.3788">
        <ele>239</ele>
        <time>2014-06-23T13:26:40Z</time>
      </trkpt>
      <trkpt lat="48.34419" lon="-3.37878">
        <ele>239</ele>
        <time>2014-06-23T13:26:42Z</time>
      </trkpt>
      <trkpt lat="48.3442" lon="-3.37876">
        <ele>239</ele>
        <time>2014-06-23T13:26:44Z</time>
      </trkpt>
      <trkpt lat="48.34419" lon="-3.37874">
        <ele>239</ele>
        <time>2014-06-23T13:26:46Z</time>
      </trkpt>
      <trkpt lat="48.34418" lon="-3.37872">
        <ele>239</ele>
        <time>2014-06-23T13:26:50Z</time>
      </trkpt>
      <trkpt lat="48.34417" lon="-3.3787">
        <ele>239</ele>
        <time>2014-06-23T13:26:52Z</time>
      </trkpt>
      <trkpt lat="48.34416" lon="-3.37868">
        <ele>239</ele>
        <time>2014-06-23T13:26:54Z</time>
      </trkpt>
      <trkpt lat="48.34415" lon="-3.37866">
        <ele>239</ele>
        <time>2014-06-23T13:26:56Z</time>
      </trkpt>
      <trkpt lat="48.34415" lon="-3.37863">
        <ele>239</ele>
        <time>2014-06-23T13:26:59Z</time>
      </trkpt>
      <trkpt lat="48.34414" lon="-3.37862">
        <ele>239</ele>
        <time>2014-06-23T13:27:00Z</time>
      </trkpt>
      <trkpt lat="48.34414" lon="-3.3786">
        <ele>239</ele>
        <time>2014-06-23T13:27:01Z</time>
      </trkpt>
      <trkpt lat="48.34412" lon="-3.37858">
        <ele>239</ele>
        <time>2014-06-23T13:27:02Z</time>
      </trkpt>
      <trkpt lat="48.34411" lon="-3.37856">
        <ele>239</ele>
        <time>2014-06-23T13:27:03Z</time>
      </trkpt>
      <trkpt lat="48.34409" lon="-3.37855">
        <ele>239</ele>
        <time>2014-06-23T13:27:05Z</time>
      </trkpt>
      <trkpt lat="48.34409" lon="-3.37852">
        <ele>239</ele>
        <time>2014-06-23T13:27:07Z</time>
      </trkpt>
      <trkpt lat="48.34407" lon="-3.37849">
        <ele>239</ele>
        <time>2014-06-23T13:27:09Z</time>
      </trkpt>
      <trkpt lat="48.34406" lon="-3.37849">
        <ele>239</ele>
        <time>2014-06-23T13:27:11Z</time>
      </trkpt>
      <trkpt lat="48.34405" lon="-3.37847">
        <ele>239</ele>
        <time>2014-06-23T13:27:13Z</time>
      </trkpt>
      <trkpt lat="48.34406" lon="-3.37845">
        <ele>239</ele>
        <time>2014-06-23T13:27:15Z</time>
      </trkpt>
      <trkpt lat="48.34405" lon="-3.37843">
        <ele>239</ele>
        <time>2014-06-23T13:27:16Z</time>
      </trkpt>
      <trkpt lat="48.34405" lon="-3.37841">
        <ele>239</ele>
        <time>2014-06-23T13:27:18Z</time>
      </trkpt>
      <trkpt lat="48.34404" lon="-3.37839">
        <ele>239</ele>
        <time>2014-06-23T13:27:21Z</time>
      </trkpt>
      <trkpt lat="48.34404" lon="-3.37837">
        <ele>239</ele>
        <time>2014-06-23T13:27:23Z</time>
      </trkpt>
      <trkpt lat="48.34403" lon="-3.37835">
        <ele>239</ele>
        <time>2014-06-23T13:27:25Z</time>
      </trkpt>
      <trkpt lat="48.34402" lon="-3.37833">
        <ele>239</ele>
        <time>2014-06-23T13:27:27Z</time>
      </trkpt>
      <trkpt lat="48.34401" lon="-3.37831">
        <ele>239</ele>
        <time>2014-06-23T13:27:29Z</time>
      </trkpt>
      <trkpt lat="48.344" lon="-3.37829">
        <ele>239</ele>
        <time>2014-06-23T13:27:32Z</time>
      </trkpt>
      <trkpt lat="48.34399" lon="-3.37827">
        <ele>239</ele>
        <time>2014-06-23T13:27:33Z</time>
      </trkpt>
      <trkpt lat="48.34399" lon="-3.37825">
        <ele>239</ele>
        <time>2014-06-23T13:27:34Z</time>
      </trkpt>
      <trkpt lat="48.34399" lon="-3.37823">
        <ele>239</ele>
        <time>2014-06-23T13:27:36Z</time>
      </trkpt>
      <trkpt lat="48.34398" lon="-3.3782">
        <ele>239</ele>
        <time>2014-06-23T13:27:38Z</time>
      </trkpt>
      <trkpt lat="48.34399" lon="-3.37819">
        <ele>239</ele>
        <time>2014-06-23T13:27:39Z</time>
      </trkpt>
      <trkpt lat="48.34398" lon="-3.37816">
        <ele>239</ele>
        <time>2014-06-23T13:27:40Z</time>
      </trkpt>
      <trkpt lat="48.34398" lon="-3.37813">
        <ele>239</ele>
        <time>2014-06-23T13:27:42Z</time>
      </trkpt>
      <trkpt lat="48.34396" lon="-3.3781">
        <ele>239</ele>
        <time>2014-06-23T13:27:44Z</time>
      </trkpt>
      <trkpt lat="48.34396" lon="-3.37808">
        <ele>239</ele>
        <time>2014-06-23T13:27:46Z</time>
      </trkpt>
      <trkpt lat="48.34394" lon="-3.37806">
        <ele>239</ele>
        <time>2014-06-23T13:27:49Z</time>
      </trkpt>
      <trkpt lat="48.34393" lon="-3.37804">
        <ele>239</ele>
        <time>2014-06-23T13:27:51Z</time>
      </trkpt>
      <trkpt lat="48.34391" lon="-3.37802">
        <ele>240</ele>
        <time>2014-06-23T13:27:54Z</time>
      </trkpt>
      <trkpt lat="48.3439" lon="-3.378">
        <ele>240</ele>
        <time>2014-06-23T13:27:56Z</time>
      </trkpt>
      <trkpt lat="48.34389" lon="-3.37797">
        <ele>241</ele>
        <time>2014-06-23T13:27:58Z</time>
      </trkpt>
      <trkpt lat="48.34388" lon="-3.37795">
        <ele>241</ele>
        <time>2014-06-23T13:28:00Z</time>
      </trkpt>
      <trkpt lat="48.34387" lon="-3.37793">
        <ele>241</ele>
        <time>2014-06-23T13:28:02Z</time>
      </trkpt>
      <trkpt lat="48.34386" lon="-3.3779">
        <ele>242</ele>
        <time>2014-06-23T13:28:05Z</time>
      </trkpt>
      <trkpt lat="48.34385" lon="-3.37788">
        <ele>242</ele>
        <time>2014-06-23T13:28:07Z</time>
      </trkpt>
      <trkpt lat="48.34385" lon="-3.37785">
        <ele>243</ele>
        <time>2014-06-23T13:28:09Z</time>
      </trkpt>
      <trkpt lat="48.34385" lon="-3.37783">
        <ele>244</ele>
        <time>2014-06-23T13:28:11Z</time>
      </trkpt>
      <trkpt lat="48.34384" lon="-3.3778">
        <ele>245</ele>
        <time>2014-06-23T13:28:13Z</time>
      </trkpt>
      <trkpt lat="48.34383" lon="-3.37777">
        <ele>246</ele>
        <time>2014-06-23T13:28:15Z</time>
      </trkpt>
      <trkpt lat="48.34382" lon="-3.37775">
        <ele>247</ele>
        <time>2014-06-23T13:28:17Z</time>
      </trkpt>
      <trkpt lat="48.34382" lon="-3.37773">
        <ele>248</ele>
        <time>2014-06-23T13:28:19Z</time>
      </trkpt>
      <trkpt lat="48.34383" lon="-3.37771">
        <ele>248</ele>
        <time>2014-06-23T13:28:21Z</time>
      </trkpt>
      <trkpt lat="48.34384" lon="-3.37771">
        <ele>249</ele>
        <time>2014-06-23T13:28:22Z</time>
      </trkpt>
      <trkpt lat="48.34386" lon="-3.3777">
        <ele>249</ele>
        <time>2014-06-23T13:28:23Z</time>
      </trkpt>
      <trkpt lat="48.34387" lon="-3.3777">
        <ele>249</ele>
        <time>2014-06-23T13:28:24Z</time>
      </trkpt>
      <trkpt lat="48.34389" lon="-3.37768">
        <ele>249</ele>
        <time>2014-06-23T13:28:26Z</time>
      </trkpt>
      <trkpt lat="48.34391" lon="-3.37766">
        <ele>249</ele>
        <time>2014-06-23T13:28:28Z</time>
      </trkpt>
      <trkpt lat="48.34393" lon="-3.37765">
        <ele>249</ele>
        <time>2014-06-23T13:28:30Z</time>
      </trkpt>
      <trkpt lat="48.34394" lon="-3.37762">
        <ele>249</ele>
        <time>2014-06-23T13:28:32Z</time>
      </trkpt>
      <trkpt lat="48.34396" lon="-3.3776">
        <ele>249</ele>
        <time>2014-06-23T13:28:34Z</time>
      </trkpt>
      <trkpt lat="48.34397" lon="-3.37758">
        <ele>249</ele>
        <time>2014-06-23T13:28:36Z</time>
      </trkpt>
      <trkpt lat="48.34398" lon="-3.37756">
        <ele>249</ele>
        <time>2014-06-23T13:28:38Z</time>
      </trkpt>
      <trkpt lat="48.34399" lon="-3.37754">
        <ele>249</ele>
        <time>2014-06-23T13:28:40Z</time>
      </trkpt>
      <trkpt lat="48.34401" lon="-3.37752">
        <ele>249</ele>
        <time>2014-06-23T13:28:42Z</time>
      </trkpt>
      <trkpt lat="48.34401" lon="-3.3775">
        <ele>248</ele>
        <time>2014-06-23T13:28:44Z</time>
      </trkpt>
      <trkpt lat="48.34402" lon="-3.37748">
        <ele>248</ele>
        <time>2014-06-23T13:28:46Z</time>
      </trkpt>
      <trkpt lat="48.34403" lon="-3.37745">
        <ele>248</ele>
        <time>2014-06-23T13:28:48Z</time>
      </trkpt>
      <trkpt lat="48.34405" lon="-3.37743">
        <ele>248</ele>
        <time>2014-06-23T13:28:50Z</time>
      </trkpt>
      <trkpt lat="48.34406" lon="-3.37741">
        <ele>248</ele>
        <time>2014-06-23T13:28:52Z</time>
      </trkpt>
      <trkpt lat="48.34407" lon="-3.37739">
        <ele>248</ele>
        <time>2014-06-23T13:28:54Z</time>
      </trkpt>
      <trkpt lat="48.34408" lon="-3.37736">
        <ele>247</ele>
        <time>2014-06-23T13:28:56Z</time>
      </trkpt>
      <trkpt lat="48.34409" lon="-3.37734">
        <ele>247</ele>
        <time>2014-06-23T13:28:58Z</time>
      </trkpt>
      <trkpt lat="48.34409" lon="-3.37732">
        <ele>247</ele>
        <time>2014-06-23T13:29:00Z</time>
      </trkpt>
      <trkpt lat="48.34409" lon="-3.3773">
        <ele>247</ele>
        <time>2014-06-23T13:29:02Z</time>
      </trkpt>
      <trkpt lat="48.34408" lon="-3.37727">
        <ele>247</ele>
        <time>2014-06-23T13:29:04Z</time>
      </trkpt>
      <trkpt lat="48.34407" lon="-3.37724">
        <ele>247</ele>
        <time>2014-06-23T13:29:06Z</time>
      </trkpt>
      <trkpt lat="48.34407" lon="-3.37722">
        <ele>247</ele>
        <time>2014-06-23T13:29:07Z</time>
      </trkpt>
      <trkpt lat="48.34408" lon="-3.37719">
        <ele>247</ele>
        <time>2014-06-23T13:29:09Z</time>
      </trkpt>
      <trkpt lat="48.34408" lon="-3.37717">
        <ele>247</ele>
        <time>2014-06-23T13:29:11Z</time>
      </trkpt>
      <trkpt lat="48.34409" lon="-3.37715">
        <ele>247</ele>
        <time>2014-06-23T13:29:13Z</time>
      </trkpt>
      <trkpt lat="48.34407" lon="-3.37712">
        <ele>247</ele>
        <time>2014-06-23T13:29:15Z</time>
      </trkpt>
      <trkpt lat="48.34406" lon="-3.37711">
        <ele>247</ele>
        <time>2014-06-23T13:29:17Z</time>
      </trkpt>
      <trkpt lat="48.34405" lon="-3.3771">
        <ele>247</ele>
        <time>2014-06-23T13:29:19Z</time>
      </trkpt>
      <trkpt lat="48.34404" lon="-3.37709">
        <ele>247</ele>
        <time>2014-06-23T13:29:21Z</time>
      </trkpt>
      <trkpt lat="48.34402" lon="-3.37708">
        <ele>247</ele>
        <time>2014-06-23T13:29:23Z</time>
      </trkpt>
      <trkpt lat="48.34401" lon="-3.37708">
        <ele>247</ele>
        <time>2014-06-23T13:29:24Z</time>
      </trkpt>
      <trkpt lat="48.34399" lon="-3.37708">
        <ele>247</ele>
        <time>2014-06-23T13:29:26Z</time>
      </trkpt>
      <trkpt lat="48.34398" lon="-3.37707">
        <ele>247</ele>
        <time>2014-06-23T13:29:28Z</time>
      </trkpt>
      <trkpt lat="48.34396" lon="-3.37706">
        <ele>247</ele>
        <time>2014-06-23T13:29:30Z</time>
      </trkpt>
      <trkpt lat="48.34395" lon="-3.37705">
        <ele>246</ele>
        <time>2014-06-23T13:29:32Z</time>
      </trkpt>
      <trkpt lat="48.34393" lon="-3.37704">
        <ele>246</ele>
        <time>2014-06-23T13:29:34Z</time>
      </trkpt>
      <trkpt lat="48.34391" lon="-3.37705">
        <ele>245</ele>
        <time>2014-06-23T13:29:38Z</time>
      </trkpt>
      <trkpt lat="48.3439" lon="-3.37703">
        <ele>244</ele>
        <time>2014-06-23T13:29:40Z</time>
      </trkpt>
      <trkpt lat="48.34389" lon="-3.37703">
        <ele>244</ele>
        <time>2014-06-23T13:29:42Z</time>
      </trkpt>
      <trkpt lat="48.34387" lon="-3.37703">
        <ele>244</ele>
        <time>2014-06-23T13:29:44Z</time>
      </trkpt>
      <trkpt lat="48.34386" lon="-3.37702">
        <ele>244</ele>
        <time>2014-06-23T13:29:46Z</time>
      </trkpt>
      <trkpt lat="48.34385" lon="-3.37701">
        <ele>244</ele>
        <time>2014-06-23T13:29:47Z</time>
      </trkpt>
      <trkpt lat="48.34384" lon="-3.377">
        <ele>244</ele>
        <time>2014-06-23T13:29:49Z</time>
      </trkpt>
      <trkpt lat="48.34382" lon="-3.37699">
        <ele>244</ele>
        <time>2014-06-23T13:29:51Z</time>
      </trkpt>
      <trkpt lat="48.34381" lon="-3.37696">
        <ele>244</ele>
        <time>2014-06-23T13:29:53Z</time>
      </trkpt>
      <trkpt lat="48.34381" lon="-3.37694">
        <ele>244</ele>
        <time>2014-06-23T13:29:55Z</time>
      </trkpt>
      <trkpt lat="48.34379" lon="-3.37692">
        <ele>244</ele>
        <time>2014-06-23T13:29:57Z</time>
      </trkpt>
      <trkpt lat="48.34378" lon="-3.37689">
        <ele>244</ele>
        <time>2014-06-23T13:30:00Z</time>
      </trkpt>
      <trkpt lat="48.34378" lon="-3.37687">
        <ele>244</ele>
        <time>2014-06-23T13:30:02Z</time>
      </trkpt>
      <trkpt lat="48.34377" lon="-3.37684">
        <ele>244</ele>
        <time>2014-06-23T13:30:04Z</time>
      </trkpt>
      <trkpt lat="48.34377" lon="-3.37682">
        <ele>244</ele>
        <time>2014-06-23T13:30:06Z</time>
      </trkpt>
      <trkpt lat="48.34377" lon="-3.3768">
        <ele>244</ele>
        <time>2014-06-23T13:30:07Z</time>
      </trkpt>
      <trkpt lat="48.34377" lon="-3.37678">
        <ele>244</ele>
        <time>2014-06-23T13:30:08Z</time>
      </trkpt>
      <trkpt lat="48.34376" lon="-3.37676">
        <ele>245</ele>
        <time>2014-06-23T13:30:10Z</time>
      </trkpt>
      <trkpt lat="48.34375" lon="-3.37673">
        <ele>245</ele>
        <time>2014-06-23T13:30:12Z</time>
      </trkpt>
      <trkpt lat="48.34375" lon="-3.37671">
        <ele>245</ele>
        <time>2014-06-23T13:30:13Z</time>
      </trkpt>
      <trkpt lat="48.34375" lon="-3.37669">
        <ele>245</ele>
        <time>2014-06-23T13:30:15Z</time>
      </trkpt>
      <trkpt lat="48.34375" lon="-3.37666">
        <ele>245</ele>
        <time>2014-06-23T13:30:17Z</time>
      </trkpt>
      <trkpt lat="48.34375" lon="-3.37664">
        <ele>245</ele>
        <time>2014-06-23T13:30:18Z</time>
      </trkpt>
      <trkpt lat="48.34375" lon="-3.37662">
        <ele>245</ele>
        <time>2014-06-23T13:30:20Z</time>
      </trkpt>
      <trkpt lat="48.34374" lon="-3.37659">
        <ele>245</ele>
        <time>2014-06-23T13:30:22Z</time>
      </trkpt>
      <trkpt lat="48.34374" lon="-3.37656">
        <ele>245</ele>
        <time>2014-06-23T13:30:24Z</time>
      </trkpt>
      <trkpt lat="48.34373" lon="-3.37654">
        <ele>245</ele>
        <time>2014-06-23T13:30:25Z</time>
      </trkpt>
      <trkpt lat="48.34371" lon="-3.37653">
        <ele>245</ele>
        <time>2014-06-23T13:30:26Z</time>
      </trkpt>
      <trkpt lat="48.3437" lon="-3.37651">
        <ele>245</ele>
        <time>2014-06-23T13:30:27Z</time>
      </trkpt>
      <trkpt lat="48.3437" lon="-3.37649">
        <ele>245</ele>
        <time>2014-06-23T13:30:29Z</time>
      </trkpt>
      <trkpt lat="48.3437" lon="-3.37647">
        <ele>245</ele>
        <time>2014-06-23T13:30:30Z</time>
      </trkpt>
      <trkpt lat="48.3437" lon="-3.37645">
        <ele>245</ele>
        <time>2014-06-23T13:30:32Z</time>
      </trkpt>
      <trkpt lat="48.3437" lon="-3.37643">
        <ele>245</ele>
        <time>2014-06-23T13:30:33Z</time>
      </trkpt>
      <trkpt lat="48.3437" lon="-3.3764">
        <ele>245</ele>
        <time>2014-06-23T13:30:35Z</time>
      </trkpt>
      <trkpt lat="48.34369" lon="-3.37637">
        <ele>245</ele>
        <time>2014-06-23T13:30:37Z</time>
      </trkpt>
      <trkpt lat="48.34369" lon="-3.37635">
        <ele>245</ele>
        <time>2014-06-23T13:30:38Z</time>
      </trkpt>
      <trkpt lat="48.34368" lon="-3.37632">
        <ele>245</ele>
        <time>2014-06-23T13:30:40Z</time>
      </trkpt>
      <trkpt lat="48.34367" lon="-3.3763">
        <ele>245</ele>
        <time>2014-06-23T13:30:42Z</time>
      </trkpt>
      <trkpt lat="48.34367" lon="-3.37628">
        <ele>245</ele>
        <time>2014-06-23T13:30:43Z</time>
      </trkpt>
      <trkpt lat="48.34367" lon="-3.37625">
        <ele>245</ele>
        <time>2014-06-23T13:30:45Z</time>
      </trkpt>
      <trkpt lat="48.34366" lon="-3.37623">
        <ele>245</ele>
        <time>2014-06-23T13:30:46Z</time>
      </trkpt>
      <trkpt lat="48.34366" lon="-3.37621">
        <ele>245</ele>
        <time>2014-06-23T13:30:47Z</time>
      </trkpt>
      <trkpt lat="48.34365" lon="-3.37618">
        <ele>245</ele>
        <time>2014-06-23T13:30:49Z</time>
      </trkpt>
      <trkpt lat="48.34364" lon="-3.37616">
        <ele>245</ele>
        <time>2014-06-23T13:30:51Z</time>
      </trkpt>
      <trkpt lat="48.34363" lon="-3.37614">
        <ele>245</ele>
        <time>2014-06-23T13:30:54Z</time>
      </trkpt>
      <trkpt lat="48.34362" lon="-3.37611">
        <ele>245</ele>
        <time>2014-06-23T13:30:56Z</time>
      </trkpt>
      <trkpt lat="48.34362" lon="-3.37609">
        <ele>245</ele>
        <time>2014-06-23T13:30:58Z</time>
      </trkpt>
      <trkpt lat="48.34362" lon="-3.37608">
        <ele>245</ele>
        <time>2014-06-23T13:31:00Z</time>
      </trkpt>
      <trkpt lat="48.3436" lon="-3.37607">
        <ele>245</ele>
        <time>2014-06-23T13:31:02Z</time>
      </trkpt>
      <trkpt lat="48.34359" lon="-3.37605">
        <ele>245</ele>
        <time>2014-06-23T13:31:04Z</time>
      </trkpt>
      <trkpt lat="48.34358" lon="-3.37603">
        <ele>245</ele>
        <time>2014-06-23T13:31:06Z</time>
      </trkpt>
      <trkpt lat="48.34357" lon="-3.376">
        <ele>245</ele>
        <time>2014-06-23T13:31:08Z</time>
      </trkpt>
      <trkpt lat="48.34355" lon="-3.37599">
        <ele>245</ele>
        <time>2014-06-23T13:31:09Z</time>
      </trkpt>
      <trkpt lat="48.34354" lon="-3.37596">
        <ele>245</ele>
        <time>2014-06-23T13:31:11Z</time>
      </trkpt>
      <trkpt lat="48.34354" lon="-3.37594">
        <ele>245</ele>
        <time>2014-06-23T13:31:12Z</time>
      </trkpt>
      <trkpt lat="48.34353" lon="-3.37593">
        <ele>245</ele>
        <time>2014-06-23T13:31:13Z</time>
      </trkpt>
      <trkpt lat="48.34353" lon="-3.37591">
        <ele>245</ele>
        <time>2014-06-23T13:31:14Z</time>
      </trkpt>
      <trkpt lat="48.34353" lon="-3.37589">
        <ele>245</ele>
        <time>2014-06-23T13:31:15Z</time>
      </trkpt>
      <trkpt lat="48.34351" lon="-3.37586">
        <ele>245</ele>
        <time>2014-06-23T13:31:17Z</time>
      </trkpt>
      <trkpt lat="48.34351" lon="-3.37584">
        <ele>245</ele>
        <time>2014-06-23T13:31:19Z</time>
      </trkpt>
      <trkpt lat="48.3435" lon="-3.37582">
        <ele>245</ele>
        <time>2014-06-23T13:31:21Z</time>
      </trkpt>
      <trkpt lat="48.34351" lon="-3.3758">
        <ele>245</ele>
        <time>2014-06-23T13:31:23Z</time>
      </trkpt>
      <trkpt lat="48.34349" lon="-3.37577">
        <ele>245</ele>
        <time>2014-06-23T13:31:26Z</time>
      </trkpt>
      <trkpt lat="48.34348" lon="-3.37574">
        <ele>245</ele>
        <time>2014-06-23T13:31:28Z</time>
      </trkpt>
      <trkpt lat="48.34346" lon="-3.37572">
        <ele>245</ele>
        <time>2014-06-23T13:31:30Z</time>
      </trkpt>
      <trkpt lat="48.34344" lon="-3.3757">
        <ele>245</ele>
        <time>2014-06-23T13:31:32Z</time>
      </trkpt>
      <trkpt lat="48.34345" lon="-3.37568">
        <ele>245</ele>
        <time>2014-06-23T13:31:34Z</time>
      </trkpt>
      <trkpt lat="48.34344" lon="-3.37567">
        <ele>245</ele>
        <time>2014-06-23T13:31:35Z</time>
      </trkpt>
      <trkpt lat="48.34343" lon="-3.37565">
        <ele>245</ele>
        <time>2014-06-23T13:31:36Z</time>
      </trkpt>
      <trkpt lat="48.34343" lon="-3.37563">
        <ele>245</ele>
        <time>2014-06-23T13:31:37Z</time>
      </trkpt>
      <trkpt lat="48.34342" lon="-3.37561">
        <ele>245</ele>
        <time>2014-06-23T13:31:38Z</time>
      </trkpt>
      <trkpt lat="48.34341" lon="-3.37559">
        <ele>245</ele>
        <time>2014-06-23T13:31:40Z</time>
      </trkpt>
      <trkpt lat="48.34339" lon="-3.37558">
        <ele>245</ele>
        <time>2014-06-23T13:31:41Z</time>
      </trkpt>
      <trkpt lat="48.34339" lon="-3.37556">
        <ele>245</ele>
        <time>2014-06-23T13:31:44Z</time>
      </trkpt>
      <trkpt lat="48.34338" lon="-3.37554">
        <ele>245</ele>
        <time>2014-06-23T13:31:46Z</time>
      </trkpt>
      <trkpt lat="48.34337" lon="-3.37552">
        <ele>245</ele>
        <time>2014-06-23T13:31:49Z</time>
      </trkpt>
      <trkpt lat="48.34335" lon="-3.37551">
        <ele>245</ele>
        <time>2014-06-23T13:31:51Z</time>
      </trkpt>
      <trkpt lat="48.34333" lon="-3.37553">
        <ele>245</ele>
        <time>2014-06-23T13:31:55Z</time>
      </trkpt>
      <trkpt lat="48.34331" lon="-3.37553">
        <ele>245</ele>
        <time>2014-06-23T13:31:57Z</time>
      </trkpt>
      <trkpt lat="48.3433" lon="-3.37552">
        <ele>245</ele>
        <time>2014-06-23T13:31:58Z</time>
      </trkpt>
      <trkpt lat="48.34328" lon="-3.37553">
        <ele>245</ele>
        <time>2014-06-23T13:32:01Z</time>
      </trkpt>
      <trkpt lat="48.34326" lon="-3.37553">
        <ele>245</ele>
        <time>2014-06-23T13:32:02Z</time>
      </trkpt>
      <trkpt lat="48.34324" lon="-3.37553">
        <ele>245</ele>
        <time>2014-06-23T13:32:04Z</time>
      </trkpt>
      <trkpt lat="48.34322" lon="-3.37552">
        <ele>245</ele>
        <time>2014-06-23T13:32:06Z</time>
      </trkpt>
      <trkpt lat="48.3432" lon="-3.37552">
        <ele>245</ele>
        <time>2014-06-23T13:32:08Z</time>
      </trkpt>
      <trkpt lat="48.34319" lon="-3.37552">
        <ele>245</ele>
        <time>2014-06-23T13:32:10Z</time>
      </trkpt>
      <trkpt lat="48.34317" lon="-3.37553">
        <ele>245</ele>
        <time>2014-06-23T13:32:14Z</time>
      </trkpt>
      <trkpt lat="48.34315" lon="-3.37553">
        <ele>244</ele>
        <time>2014-06-23T13:32:16Z</time>
      </trkpt>
      <trkpt lat="48.34314" lon="-3.37553">
        <ele>243</ele>
        <time>2014-06-23T13:32:17Z</time>
      </trkpt>
      <trkpt lat="48.34313" lon="-3.37553">
        <ele>243</ele>
        <time>2014-06-23T13:32:18Z</time>
      </trkpt>
      <trkpt lat="48.34311" lon="-3.37552">
        <ele>242</ele>
        <time>2014-06-23T13:32:19Z</time>
      </trkpt>
      <trkpt lat="48.34309" lon="-3.3755">
        <ele>242</ele>
        <time>2014-06-23T13:32:21Z</time>
      </trkpt>
      <trkpt lat="48.34307" lon="-3.37547">
        <ele>242</ele>
        <time>2014-06-23T13:32:23Z</time>
      </trkpt>
      <trkpt lat="48.34306" lon="-3.37546">
        <ele>242</ele>
        <time>2014-06-23T13:32:25Z</time>
      </trkpt>
      <trkpt lat="48.34304" lon="-3.37544">
        <ele>242</ele>
        <time>2014-06-23T13:32:27Z</time>
      </trkpt>
      <trkpt lat="48.34303" lon="-3.37542">
        <ele>242</ele>
        <time>2014-06-23T13:32:29Z</time>
      </trkpt>
      <trkpt lat="48.34301" lon="-3.3754">
        <ele>242</ele>
        <time>2014-06-23T13:32:31Z</time>
      </trkpt>
      <trkpt lat="48.343" lon="-3.37538">
        <ele>242</ele>
        <time>2014-06-23T13:32:33Z</time>
      </trkpt>
      <trkpt lat="48.34298" lon="-3.37537">
        <ele>242</ele>
        <time>2014-06-23T13:32:35Z</time>
      </trkpt>
      <trkpt lat="48.34298" lon="-3.37535">
        <ele>242</ele>
        <time>2014-06-23T13:32:37Z</time>
      </trkpt>
      <trkpt lat="48.34296" lon="-3.37532">
        <ele>242</ele>
        <time>2014-06-23T13:32:39Z</time>
      </trkpt>
      <trkpt lat="48.34295" lon="-3.3753">
        <ele>242</ele>
        <time>2014-06-23T13:32:41Z</time>
      </trkpt>
      <trkpt lat="48.34293" lon="-3.37527">
        <ele>242</ele>
        <time>2014-06-23T13:32:43Z</time>
      </trkpt>
      <trkpt lat="48.34292" lon="-3.37525">
        <ele>242</ele>
        <time>2014-06-23T13:32:45Z</time>
      </trkpt>
      <trkpt lat="48.34291" lon="-3.37523">
        <ele>242</ele>
        <time>2014-06-23T13:32:47Z</time>
      </trkpt>
      <trkpt lat="48.3429" lon="-3.37521">
        <ele>242</ele>
        <time>2014-06-23T13:32:49Z</time>
      </trkpt>
      <trkpt lat="48.34289" lon="-3.37519">
        <ele>242</ele>
        <time>2014-06-23T13:32:51Z</time>
      </trkpt>
      <trkpt lat="48.34288" lon="-3.37517">
        <ele>242</ele>
        <time>2014-06-23T13:32:53Z</time>
      </trkpt>
      <trkpt lat="48.34287" lon="-3.37514">
        <ele>242</ele>
        <time>2014-06-23T13:32:55Z</time>
      </trkpt>
      <trkpt lat="48.34286" lon="-3.37512">
        <ele>242</ele>
        <time>2014-06-23T13:32:57Z</time>
      </trkpt>
      <trkpt lat="48.34285" lon="-3.37511">
        <ele>242</ele>
        <time>2014-06-23T13:32:59Z</time>
      </trkpt>
      <trkpt lat="48.34285" lon="-3.37509">
        <ele>242</ele>
        <time>2014-06-23T13:33:01Z</time>
      </trkpt>
      <trkpt lat="48.34285" lon="-3.37506">
        <ele>242</ele>
        <time>2014-06-23T13:33:03Z</time>
      </trkpt>
      <trkpt lat="48.34284" lon="-3.37504">
        <ele>242</ele>
        <time>2014-06-23T13:33:05Z</time>
      </trkpt>
      <trkpt lat="48.34283" lon="-3.37502">
        <ele>242</ele>
        <time>2014-06-23T13:33:07Z</time>
      </trkpt>
      <trkpt lat="48.34283" lon="-3.37499">
        <ele>242</ele>
        <time>2014-06-23T13:33:09Z</time>
      </trkpt>
      <trkpt lat="48.34282" lon="-3.37497">
        <ele>242</ele>
        <time>2014-06-23T13:33:11Z</time>
      </trkpt>
      <trkpt lat="48.34281" lon="-3.37495">
        <ele>242</ele>
        <time>2014-06-23T13:33:13Z</time>
      </trkpt>
      <trkpt lat="48.3428" lon="-3.37493">
        <ele>242</ele>
        <time>2014-06-23T13:33:15Z</time>
      </trkpt>
      <trkpt lat="48.3428" lon="-3.37491">
        <ele>242</ele>
        <time>2014-06-23T13:33:17Z</time>
      </trkpt>
      <trkpt lat="48.34279" lon="-3.37488">
        <ele>242</ele>
        <time>2014-06-23T13:33:19Z</time>
      </trkpt>
      <trkpt lat="48.34279" lon="-3.37486">
        <ele>242</ele>
        <time>2014-06-23T13:33:21Z</time>
      </trkpt>
      <trkpt lat="48.34278" lon="-3.37484">
        <ele>242</ele>
        <time>2014-06-23T13:33:24Z</time>
      </trkpt>
      <trkpt lat="48.34278" lon="-3.37482">
        <ele>242</ele>
        <time>2014-06-23T13:33:26Z</time>
      </trkpt>
      <trkpt lat="48.34277" lon="-3.3748">
        <ele>242</ele>
        <time>2014-06-23T13:33:28Z</time>
      </trkpt>
      <trkpt lat="48.34276" lon="-3.37478">
        <ele>242</ele>
        <time>2014-06-23T13:33:30Z</time>
      </trkpt>
      <trkpt lat="48.34275" lon="-3.37477">
        <ele>242</ele>
        <time>2014-06-23T13:33:32Z</time>
      </trkpt>
      <trkpt lat="48.34274" lon="-3.37475">
        <ele>242</ele>
        <time>2014-06-23T13:33:34Z</time>
      </trkpt>
      <trkpt lat="48.34273" lon="-3.37473">
        <ele>242</ele>
        <time>2014-06-23T13:33:36Z</time>
      </trkpt>
      <trkpt lat="48.34271" lon="-3.37471">
        <ele>242</ele>
        <time>2014-06-23T13:33:38Z</time>
      </trkpt>
      <trkpt lat="48.3427" lon="-3.3747">
        <ele>242</ele>
        <time>2014-06-23T13:33:40Z</time>
      </trkpt>
      <trkpt lat="48.3427" lon="-3.37468">
        <ele>242</ele>
        <time>2014-06-23T13:33:42Z</time>
      </trkpt>
      <trkpt lat="48.34269" lon="-3.37465">
        <ele>243</ele>
        <time>2014-06-23T13:33:44Z</time>
      </trkpt>
      <trkpt lat="48.34269" lon="-3.37463">
        <ele>243</ele>
        <time>2014-06-23T13:33:46Z</time>
      </trkpt>
      <trkpt lat="48.34268" lon="-3.37461">
        <ele>243</ele>
        <time>2014-06-23T13:33:48Z</time>
      </trkpt>
      <trkpt lat="48.34267" lon="-3.37458">
        <ele>243</ele>
        <time>2014-06-23T13:33:50Z</time>
      </trkpt>
      <trkpt lat="48.34267" lon="-3.37456">
        <ele>243</ele>
        <time>2014-06-23T13:33:52Z</time>
      </trkpt>
      <trkpt lat="48.34266" lon="-3.37454">
        <ele>243</ele>
        <time>2014-06-23T13:33:54Z</time>
      </trkpt>
      <trkpt lat="48.34265" lon="-3.37451">
        <ele>243</ele>
        <time>2014-06-23T13:33:56Z</time>
      </trkpt>
      <trkpt lat="48.34265" lon="-3.3745">
        <ele>243</ele>
        <time>2014-06-23T13:33:57Z</time>
      </trkpt>
      <trkpt lat="48.34264" lon="-3.37447">
        <ele>243</ele>
        <time>2014-06-23T13:33:59Z</time>
      </trkpt>
      <trkpt lat="48.34264" lon="-3.37445">
        <ele>243</ele>
        <time>2014-06-23T13:34:00Z</time>
      </trkpt>
      <trkpt lat="48.34263" lon="-3.37443">
        <ele>244</ele>
        <time>2014-06-23T13:34:02Z</time>
      </trkpt>
      <trkpt lat="48.34263" lon="-3.37441">
        <ele>244</ele>
        <time>2014-06-23T13:34:03Z</time>
      </trkpt>
      <trkpt lat="48.34262" lon="-3.37438">
        <ele>244</ele>
        <time>2014-06-23T13:34:05Z</time>
      </trkpt>
      <trkpt lat="48.34262" lon="-3.37435">
        <ele>244</ele>
        <time>2014-06-23T13:34:07Z</time>
      </trkpt>
      <trkpt lat="48.34262" lon="-3.37433">
        <ele>244</ele>
        <time>2014-06-23T13:34:08Z</time>
      </trkpt>
      <trkpt lat="48.34262" lon="-3.37431">
        <ele>244</ele>
        <time>2014-06-23T13:34:10Z</time>
      </trkpt>
      <trkpt lat="48.34262" lon="-3.37428">
        <ele>244</ele>
        <time>2014-06-23T13:34:12Z</time>
      </trkpt>
      <trkpt lat="48.34262" lon="-3.37425">
        <ele>244</ele>
        <time>2014-06-23T13:34:14Z</time>
      </trkpt>
      <trkpt lat="48.34262" lon="-3.37422">
        <ele>245</ele>
        <time>2014-06-23T13:34:16Z</time>
      </trkpt>
      <trkpt lat="48.34262" lon="-3.3742">
        <ele>245</ele>
        <time>2014-06-23T13:34:18Z</time>
      </trkpt>
      <trkpt lat="48.34262" lon="-3.37417">
        <ele>245</ele>
        <time>2014-06-23T13:34:20Z</time>
      </trkpt>
      <trkpt lat="48.34262" lon="-3.37415">
        <ele>245</ele>
        <time>2014-06-23T13:34:22Z</time>
      </trkpt>
      <trkpt lat="48.34263" lon="-3.37412">
        <ele>245</ele>
        <time>2014-06-23T13:34:24Z</time>
      </trkpt>
      <trkpt lat="48.34263" lon="-3.37409">
        <ele>245</ele>
        <time>2014-06-23T13:34:26Z</time>
      </trkpt>
      <trkpt lat="48.34264" lon="-3.37407">
        <ele>245</ele>
        <time>2014-06-23T13:34:28Z</time>
      </trkpt>
      <trkpt lat="48.34264" lon="-3.37404">
        <ele>245</ele>
        <time>2014-06-23T13:34:30Z</time>
      </trkpt>
      <trkpt lat="48.34265" lon="-3.37402">
        <ele>245</ele>
        <time>2014-06-23T13:34:32Z</time>
      </trkpt>
      <trkpt lat="48.34266" lon="-3.374">
        <ele>245</ele>
        <time>2014-06-23T13:34:34Z</time>
      </trkpt>
      <trkpt lat="48.34267" lon="-3.37398">
        <ele>245</ele>
        <time>2014-06-23T13:34:36Z</time>
      </trkpt>
      <trkpt lat="48.34268" lon="-3.37396">
        <ele>245</ele>
        <time>2014-06-23T13:34:38Z</time>
      </trkpt>
      <trkpt lat="48.3427" lon="-3.37393">
        <ele>245</ele>
        <time>2014-06-23T13:34:40Z</time>
      </trkpt>
      <trkpt lat="48.34271" lon="-3.37391">
        <ele>245</ele>
        <time>2014-06-23T13:34:42Z</time>
      </trkpt>
      <trkpt lat="48.34272" lon="-3.37388">
        <ele>245</ele>
        <time>2014-06-23T13:34:44Z</time>
      </trkpt>
      <trkpt lat="48.34273" lon="-3.37386">
        <ele>245</ele>
        <time>2014-06-23T13:34:46Z</time>
      </trkpt>
      <trkpt lat="48.34274" lon="-3.37383">
        <ele>245</ele>
        <time>2014-06-23T13:34:48Z</time>
      </trkpt>
      <trkpt lat="48.34275" lon="-3.37381">
        <ele>245</ele>
        <time>2014-06-23T13:34:50Z</time>
      </trkpt>
      <trkpt lat="48.34276" lon="-3.37378">
        <ele>245</ele>
        <time>2014-06-23T13:34:52Z</time>
      </trkpt>
      <trkpt lat="48.34276" lon="-3.37376">
        <ele>245</ele>
        <time>2014-06-23T13:34:53Z</time>
      </trkpt>
      <trkpt lat="48.34277" lon="-3.37374">
        <ele>245</ele>
        <time>2014-06-23T13:34:54Z</time>
      </trkpt>
      <trkpt lat="48.34277" lon="-3.37371">
        <ele>245</ele>
        <time>2014-06-23T13:34:56Z</time>
      </trkpt>
      <trkpt lat="48.34278" lon="-3.37369">
        <ele>245</ele>
        <time>2014-06-23T13:34:58Z</time>
      </trkpt>
      <trkpt lat="48.34279" lon="-3.37366">
        <ele>245</ele>
        <time>2014-06-23T13:35:00Z</time>
      </trkpt>
      <trkpt lat="48.3428" lon="-3.37364">
        <ele>245</ele>
        <time>2014-06-23T13:35:02Z</time>
      </trkpt>
      <trkpt lat="48.34281" lon="-3.37361">
        <ele>245</ele>
        <time>2014-06-23T13:35:04Z</time>
      </trkpt>
      <trkpt lat="48.34282" lon="-3.37358">
        <ele>245</ele>
        <time>2014-06-23T13:35:06Z</time>
      </trkpt>
      <trkpt lat="48.34281" lon="-3.37355">
        <ele>245</ele>
        <time>2014-06-23T13:35:08Z</time>
      </trkpt>
      <trkpt lat="48.34281" lon="-3.37354">
        <ele>245</ele>
        <time>2014-06-23T13:35:09Z</time>
      </trkpt>
      <trkpt lat="48.34281" lon="-3.37351">
        <ele>245</ele>
        <time>2014-06-23T13:35:11Z</time>
      </trkpt>
      <trkpt lat="48.34281" lon="-3.3735">
        <ele>245</ele>
        <time>2014-06-23T13:35:12Z</time>
      </trkpt>
      <trkpt lat="48.34281" lon="-3.37347">
        <ele>245</ele>
        <time>2014-06-23T13:35:14Z</time>
      </trkpt>
      <trkpt lat="48.3428" lon="-3.37344">
        <ele>245</ele>
        <time>2014-06-23T13:35:16Z</time>
      </trkpt>
      <trkpt lat="48.3428" lon="-3.37341">
        <ele>245</ele>
        <time>2014-06-23T13:35:18Z</time>
      </trkpt>
      <trkpt lat="48.34279" lon="-3.37339">
        <ele>245</ele>
        <time>2014-06-23T13:35:20Z</time>
      </trkpt>
      <trkpt lat="48.34278" lon="-3.37336">
        <ele>245</ele>
        <time>2014-06-23T13:35:23Z</time>
      </trkpt>
      <trkpt lat="48.34277" lon="-3.37334">
        <ele>245</ele>
        <time>2014-06-23T13:35:25Z</time>
      </trkpt>
      <trkpt lat="48.34275" lon="-3.37332">
        <ele>245</ele>
        <time>2014-06-23T13:35:27Z</time>
      </trkpt>
      <trkpt lat="48.34273" lon="-3.37331">
        <ele>245</ele>
        <time>2014-06-23T13:35:29Z</time>
      </trkpt>
      <trkpt lat="48.34272" lon="-3.37331">
        <ele>245</ele>
        <time>2014-06-23T13:35:30Z</time>
      </trkpt>
      <trkpt lat="48.34271" lon="-3.3733">
        <ele>245</ele>
        <time>2014-06-23T13:35:31Z</time>
      </trkpt>
      <trkpt lat="48.3427" lon="-3.3733">
        <ele>245</ele>
        <time>2014-06-23T13:35:32Z</time>
      </trkpt>
      <trkpt lat="48.34269" lon="-3.37329">
        <ele>245</ele>
        <time>2014-06-23T13:35:33Z</time>
      </trkpt>
      <trkpt lat="48.34267" lon="-3.37329">
        <ele>245</ele>
        <time>2014-06-23T13:35:34Z</time>
      </trkpt>
      <trkpt lat="48.34266" lon="-3.37328">
        <ele>245</ele>
        <time>2014-06-23T13:35:35Z</time>
      </trkpt>
      <trkpt lat="48.34264" lon="-3.37327">
        <ele>245</ele>
        <time>2014-06-23T13:35:37Z</time>
      </trkpt>
      <trkpt lat="48.34262" lon="-3.37326">
        <ele>245</ele>
        <time>2014-06-23T13:35:39Z</time>
      </trkpt>
      <trkpt lat="48.34261" lon="-3.37325">
        <ele>245</ele>
        <time>2014-06-23T13:35:40Z</time>
      </trkpt>
      <trkpt lat="48.34259" lon="-3.37324">
        <ele>245</ele>
        <time>2014-06-23T13:35:42Z</time>
      </trkpt>
      <trkpt lat="48.34257" lon="-3.37322">
        <ele>245</ele>
        <time>2014-06-23T13:35:44Z</time>
      </trkpt>
      <trkpt lat="48.34256" lon="-3.37321">
        <ele>245</ele>
        <time>2014-06-23T13:35:45Z</time>
      </trkpt>
      <trkpt lat="48.34254" lon="-3.3732">
        <ele>245</ele>
        <time>2014-06-23T13:35:47Z</time>
      </trkpt>
      <trkpt lat="48.34252" lon="-3.37318">
        <ele>245</ele>
        <time>2014-06-23T13:35:49Z</time>
      </trkpt>
      <trkpt lat="48.3425" lon="-3.37317">
        <ele>244</ele>
        <time>2014-06-23T13:35:51Z</time>
      </trkpt>
      <trkpt lat="48.34248" lon="-3.37316">
        <ele>244</ele>
        <time>2014-06-23T13:35:53Z</time>
      </trkpt>
      <trkpt lat="48.34247" lon="-3.37315">
        <ele>244</ele>
        <time>2014-06-23T13:35:54Z</time>
      </trkpt>
      <trkpt lat="48.34245" lon="-3.37314">
        <ele>243</ele>
        <time>2014-06-23T13:35:56Z</time>
      </trkpt>
      <trkpt lat="48.34243" lon="-3.37313">
        <ele>243</ele>
        <time>2014-06-23T13:35:58Z</time>
      </trkpt>
      <trkpt lat="48.34241" lon="-3.37312">
        <ele>242</ele>
        <time>2014-06-23T13:36:00Z</time>
      </trkpt>
      <trkpt lat="48.3424" lon="-3.37311">
        <ele>242</ele>
        <time>2014-06-23T13:36:02Z</time>
      </trkpt>
      <trkpt lat="48.34238" lon="-3.3731">
        <ele>241</ele>
        <time>2014-06-23T13:36:04Z</time>
      </trkpt>
      <trkpt lat="48.34236" lon="-3.37309">
        <ele>241</ele>
        <time>2014-06-23T13:36:06Z</time>
      </trkpt>
      <trkpt lat="48.34234" lon="-3.37307">
        <ele>241</ele>
        <time>2014-06-23T13:36:08Z</time>
      </trkpt>
      <trkpt lat="48.34232" lon="-3.37305">
        <ele>241</ele>
        <time>2014-06-23T13:36:10Z</time>
      </trkpt>
      <trkpt lat="48.3423" lon="-3.37303">
        <ele>241</ele>
        <time>2014-06-23T13:36:12Z</time>
      </trkpt>
      <trkpt lat="48.34229" lon="-3.37301">
        <ele>241</ele>
        <time>2014-06-23T13:36:14Z</time>
      </trkpt>
      <trkpt lat="48.34227" lon="-3.37299">
        <ele>241</ele>
        <time>2014-06-23T13:36:16Z</time>
      </trkpt>
      <trkpt lat="48.34226" lon="-3.37297">
        <ele>241</ele>
        <time>2014-06-23T13:36:18Z</time>
      </trkpt>
      <trkpt lat="48.34225" lon="-3.37294">
        <ele>241</ele>
        <time>2014-06-23T13:36:20Z</time>
      </trkpt>
      <trkpt lat="48.34223" lon="-3.37292">
        <ele>241</ele>
        <time>2014-06-23T13:36:22Z</time>
      </trkpt>
      <trkpt lat="48.34222" lon="-3.37289">
        <ele>241</ele>
        <time>2014-06-23T13:36:24Z</time>
      </trkpt>
      <trkpt lat="48.34221" lon="-3.37287">
        <ele>241</ele>
        <time>2014-06-23T13:36:26Z</time>
      </trkpt>
      <trkpt lat="48.3422" lon="-3.37285">
        <ele>241</ele>
        <time>2014-06-23T13:36:28Z</time>
      </trkpt>
      <trkpt lat="48.34219" lon="-3.37283">
        <ele>241</ele>
        <time>2014-06-23T13:36:30Z</time>
      </trkpt>
      <trkpt lat="48.34218" lon="-3.37281">
        <ele>241</ele>
        <time>2014-06-23T13:36:32Z</time>
      </trkpt>
      <trkpt lat="48.34218" lon="-3.37279">
        <ele>241</ele>
        <time>2014-06-23T13:36:34Z</time>
      </trkpt>
      <trkpt lat="48.34217" lon="-3.37276">
        <ele>241</ele>
        <time>2014-06-23T13:36:36Z</time>
      </trkpt>
      <trkpt lat="48.34216" lon="-3.37275">
        <ele>241</ele>
        <time>2014-06-23T13:36:37Z</time>
      </trkpt>
      <trkpt lat="48.34216" lon="-3.37273">
        <ele>241</ele>
        <time>2014-06-23T13:36:38Z</time>
      </trkpt>
      <trkpt lat="48.34214" lon="-3.3727">
        <ele>241</ele>
        <time>2014-06-23T13:36:40Z</time>
      </trkpt>
      <trkpt lat="48.34214" lon="-3.37268">
        <ele>241</ele>
        <time>2014-06-23T13:36:41Z</time>
      </trkpt>
      <trkpt lat="48.34214" lon="-3.37266">
        <ele>241</ele>
        <time>2014-06-23T13:36:42Z</time>
      </trkpt>
      <trkpt lat="48.34213" lon="-3.37263">
        <ele>241</ele>
        <time>2014-06-23T13:36:44Z</time>
      </trkpt>
      <trkpt lat="48.34212" lon="-3.37261">
        <ele>241</ele>
        <time>2014-06-23T13:36:46Z</time>
      </trkpt>
      <trkpt lat="48.34211" lon="-3.37257">
        <ele>241</ele>
        <time>2014-06-23T13:36:48Z</time>
      </trkpt>
      <trkpt lat="48.34211" lon="-3.37254">
        <ele>241</ele>
        <time>2014-06-23T13:36:50Z</time>
      </trkpt>
      <trkpt lat="48.3421" lon="-3.37252">
        <ele>241</ele>
        <time>2014-06-23T13:36:51Z</time>
      </trkpt>
      <trkpt lat="48.34209" lon="-3.37249">
        <ele>241</ele>
        <time>2014-06-23T13:36:53Z</time>
      </trkpt>
      <trkpt lat="48.34208" lon="-3.37248">
        <ele>241</ele>
        <time>2014-06-23T13:36:54Z</time>
      </trkpt>
      <trkpt lat="48.34208" lon="-3.37245">
        <ele>241</ele>
        <time>2014-06-23T13:36:56Z</time>
      </trkpt>
      <trkpt lat="48.34206" lon="-3.37242">
        <ele>241</ele>
        <time>2014-06-23T13:36:58Z</time>
      </trkpt>
      <trkpt lat="48.34206" lon="-3.37239">
        <ele>241</ele>
        <time>2014-06-23T13:37:00Z</time>
      </trkpt>
      <trkpt lat="48.34205" lon="-3.37236">
        <ele>241</ele>
        <time>2014-06-23T13:37:02Z</time>
      </trkpt>
      <trkpt lat="48.34204" lon="-3.37234">
        <ele>241</ele>
        <time>2014-06-23T13:37:04Z</time>
      </trkpt>
      <trkpt lat="48.34203" lon="-3.37231">
        <ele>241</ele>
        <time>2014-06-23T13:37:06Z</time>
      </trkpt>
      <trkpt lat="48.34203" lon="-3.37228">
        <ele>241</ele>
        <time>2014-06-23T13:37:08Z</time>
      </trkpt>
      <trkpt lat="48.34203" lon="-3.37227">
        <ele>241</ele>
        <time>2014-06-23T13:37:09Z</time>
      </trkpt>
      <trkpt lat="48.34202" lon="-3.37224">
        <ele>241</ele>
        <time>2014-06-23T13:37:11Z</time>
      </trkpt>
      <trkpt lat="48.34202" lon="-3.37221">
        <ele>241</ele>
        <time>2014-06-23T13:37:13Z</time>
      </trkpt>
      <trkpt lat="48.34202" lon="-3.37218">
        <ele>241</ele>
        <time>2014-06-23T13:37:15Z</time>
      </trkpt>
      <trkpt lat="48.34202" lon="-3.37217">
        <ele>241</ele>
        <time>2014-06-23T13:37:16Z</time>
      </trkpt>
      <trkpt lat="48.34202" lon="-3.37215">
        <ele>241</ele>
        <time>2014-06-23T13:37:18Z</time>
      </trkpt>
      <trkpt lat="48.34202" lon="-3.37213">
        <ele>241</ele>
        <time>2014-06-23T13:37:19Z</time>
      </trkpt>
      <trkpt lat="48.34202" lon="-3.3721">
        <ele>241</ele>
        <time>2014-06-23T13:37:21Z</time>
      </trkpt>
      <trkpt lat="48.34202" lon="-3.37207">
        <ele>241</ele>
        <time>2014-06-23T13:37:23Z</time>
      </trkpt>
      <trkpt lat="48.34203" lon="-3.37204">
        <ele>241</ele>
        <time>2014-06-23T13:37:25Z</time>
      </trkpt>
      <trkpt lat="48.34203" lon="-3.37201">
        <ele>241</ele>
        <time>2014-06-23T13:37:27Z</time>
      </trkpt>
      <trkpt lat="48.34203" lon="-3.37199">
        <ele>241</ele>
        <time>2014-06-23T13:37:28Z</time>
      </trkpt>
      <trkpt lat="48.34203" lon="-3.37197">
        <ele>241</ele>
        <time>2014-06-23T13:37:29Z</time>
      </trkpt>
      <trkpt lat="48.34203" lon="-3.37196">
        <ele>241</ele>
        <time>2014-06-23T13:37:30Z</time>
      </trkpt>
      <trkpt lat="48.34203" lon="-3.37193">
        <ele>241</ele>
        <time>2014-06-23T13:37:32Z</time>
      </trkpt>
      <trkpt lat="48.34204" lon="-3.37191">
        <ele>241</ele>
        <time>2014-06-23T13:37:33Z</time>
      </trkpt>
      <trkpt lat="48.34204" lon="-3.37189">
        <ele>241</ele>
        <time>2014-06-23T13:37:34Z</time>
      </trkpt>
      <trkpt lat="48.34204" lon="-3.37188">
        <ele>241</ele>
        <time>2014-06-23T13:37:35Z</time>
      </trkpt>
      <trkpt lat="48.34205" lon="-3.37184">
        <ele>241</ele>
        <time>2014-06-23T13:37:37Z</time>
      </trkpt>
      <trkpt lat="48.34205" lon="-3.37183">
        <ele>241</ele>
        <time>2014-06-23T13:37:38Z</time>
      </trkpt>
      <trkpt lat="48.34206" lon="-3.3718">
        <ele>241</ele>
        <time>2014-06-23T13:37:40Z</time>
      </trkpt>
      <trkpt lat="48.34207" lon="-3.37177">
        <ele>241</ele>
        <time>2014-06-23T13:37:42Z</time>
      </trkpt>
      <trkpt lat="48.34207" lon="-3.37174">
        <ele>241</ele>
        <time>2014-06-23T13:37:44Z</time>
      </trkpt>
      <trkpt lat="48.34207" lon="-3.37172">
        <ele>241</ele>
        <time>2014-06-23T13:37:46Z</time>
      </trkpt>
      <trkpt lat="48.34208" lon="-3.37169">
        <ele>241</ele>
        <time>2014-06-23T13:37:48Z</time>
      </trkpt>
      <trkpt lat="48.34208" lon="-3.37167">
        <ele>241</ele>
        <time>2014-06-23T13:37:49Z</time>
      </trkpt>
      <trkpt lat="48.34208" lon="-3.37164">
        <ele>241</ele>
        <time>2014-06-23T13:37:51Z</time>
      </trkpt>
      <trkpt lat="48.34208" lon="-3.37162">
        <ele>241</ele>
        <time>2014-06-23T13:37:52Z</time>
      </trkpt>
      <trkpt lat="48.34208" lon="-3.3716">
        <ele>241</ele>
        <time>2014-06-23T13:37:53Z</time>
      </trkpt>
      <trkpt lat="48.34207" lon="-3.37158">
        <ele>241</ele>
        <time>2014-06-23T13:37:54Z</time>
      </trkpt>
      <trkpt lat="48.34207" lon="-3.37157">
        <ele>241</ele>
        <time>2014-06-23T13:37:55Z</time>
      </trkpt>
      <trkpt lat="48.34206" lon="-3.37155">
        <ele>241</ele>
        <time>2014-06-23T13:37:56Z</time>
      </trkpt>
      <trkpt lat="48.34205" lon="-3.37153">
        <ele>241</ele>
        <time>2014-06-23T13:37:58Z</time>
      </trkpt>
      <trkpt lat="48.34204" lon="-3.37152">
        <ele>241</ele>
        <time>2014-06-23T13:37:59Z</time>
      </trkpt>
      <trkpt lat="48.34203" lon="-3.37151">
        <ele>241</ele>
        <time>2014-06-23T13:38:00Z</time>
      </trkpt>
      <trkpt lat="48.342" lon="-3.37149">
        <ele>241</ele>
        <time>2014-06-23T13:38:02Z</time>
      </trkpt>
      <trkpt lat="48.34198" lon="-3.37146">
        <ele>241</ele>
        <time>2014-06-23T13:38:04Z</time>
      </trkpt>
      <trkpt lat="48.34197" lon="-3.37146">
        <ele>241</ele>
        <time>2014-06-23T13:38:05Z</time>
      </trkpt>
      <trkpt lat="48.34196" lon="-3.37145">
        <ele>241</ele>
        <time>2014-06-23T13:38:06Z</time>
      </trkpt>
      <trkpt lat="48.34194" lon="-3.37143">
        <ele>241</ele>
        <time>2014-06-23T13:38:08Z</time>
      </trkpt>
      <trkpt lat="48.34192" lon="-3.37142">
        <ele>241</ele>
        <time>2014-06-23T13:38:10Z</time>
      </trkpt>
      <trkpt lat="48.3419" lon="-3.37141">
        <ele>241</ele>
        <time>2014-06-23T13:38:12Z</time>
      </trkpt>
      <trkpt lat="48.34189" lon="-3.3714">
        <ele>241</ele>
        <time>2014-06-23T13:38:13Z</time>
      </trkpt>
      <trkpt lat="48.34187" lon="-3.37139">
        <ele>241</ele>
        <time>2014-06-23T13:38:15Z</time>
      </trkpt>
      <trkpt lat="48.34185" lon="-3.37138">
        <ele>241</ele>
        <time>2014-06-23T13:38:17Z</time>
      </trkpt>
      <trkpt lat="48.34184" lon="-3.37137">
        <ele>241</ele>
        <time>2014-06-23T13:38:19Z</time>
      </trkpt>
      <trkpt lat="48.34182" lon="-3.37136">
        <ele>241</ele>
        <time>2014-06-23T13:38:20Z</time>
      </trkpt>
      <trkpt lat="48.34181" lon="-3.37136">
        <ele>241</ele>
        <time>2014-06-23T13:38:21Z</time>
      </trkpt>
      <trkpt lat="48.3418" lon="-3.37135">
        <ele>241</ele>
        <time>2014-06-23T13:38:22Z</time>
      </trkpt>
      <trkpt lat="48.34178" lon="-3.37134">
        <ele>241</ele>
        <time>2014-06-23T13:38:24Z</time>
      </trkpt>
      <trkpt lat="48.34176" lon="-3.37133">
        <ele>241</ele>
        <time>2014-06-23T13:38:26Z</time>
      </trkpt>
      <trkpt lat="48.34174" lon="-3.37133">
        <ele>241</ele>
        <time>2014-06-23T13:38:28Z</time>
      </trkpt>
      <trkpt lat="48.34172" lon="-3.37132">
        <ele>241</ele>
        <time>2014-06-23T13:38:30Z</time>
      </trkpt>
      <trkpt lat="48.34171" lon="-3.37132">
        <ele>241</ele>
        <time>2014-06-23T13:38:31Z</time>
      </trkpt>
      <trkpt lat="48.34169" lon="-3.37132">
        <ele>241</ele>
        <time>2014-06-23T13:38:33Z</time>
      </trkpt>
      <trkpt lat="48.34167" lon="-3.37132">
        <ele>241</ele>
        <time>2014-06-23T13:38:35Z</time>
      </trkpt>
      <trkpt lat="48.34166" lon="-3.37131">
        <ele>241</ele>
        <time>2014-06-23T13:38:36Z</time>
      </trkpt>
      <trkpt lat="48.34164" lon="-3.37131">
        <ele>241</ele>
        <time>2014-06-23T13:38:38Z</time>
      </trkpt>
      <trkpt lat="48.34163" lon="-3.3713">
        <ele>241</ele>
        <time>2014-06-23T13:38:39Z</time>
      </trkpt>
      <trkpt lat="48.34161" lon="-3.3713">
        <ele>241</ele>
        <time>2014-06-23T13:38:40Z</time>
      </trkpt>
      <trkpt lat="48.3416" lon="-3.37129">
        <ele>241</ele>
        <time>2014-06-23T13:38:42Z</time>
      </trkpt>
      <trkpt lat="48.34158" lon="-3.37129">
        <ele>241</ele>
        <time>2014-06-23T13:38:44Z</time>
      </trkpt>
      <trkpt lat="48.34156" lon="-3.37128">
        <ele>241</ele>
        <time>2014-06-23T13:38:46Z</time>
      </trkpt>
      <trkpt lat="48.34154" lon="-3.37129">
        <ele>241</ele>
        <time>2014-06-23T13:38:48Z</time>
      </trkpt>
      <trkpt lat="48.34153" lon="-3.37129">
        <ele>241</ele>
        <time>2014-06-23T13:38:50Z</time>
      </trkpt>
      <trkpt lat="48.34151" lon="-3.37128">
        <ele>241</ele>
        <time>2014-06-23T13:38:52Z</time>
      </trkpt>
      <trkpt lat="48.3415" lon="-3.37128">
        <ele>241</ele>
        <time>2014-06-23T13:38:54Z</time>
      </trkpt>
      <trkpt lat="48.34148" lon="-3.37128">
        <ele>241</ele>
        <time>2014-06-23T13:38:56Z</time>
      </trkpt>
      <trkpt lat="48.34146" lon="-3.37128">
        <ele>241</ele>
        <time>2014-06-23T13:38:58Z</time>
      </trkpt>
      <trkpt lat="48.34145" lon="-3.37128">
        <ele>241</ele>
        <time>2014-06-23T13:39:00Z</time>
      </trkpt>
      <trkpt lat="48.34144" lon="-3.37127">
        <ele>241</ele>
        <time>2014-06-23T13:39:04Z</time>
      </trkpt>
      <trkpt lat="48.34143" lon="-3.37126">
        <ele>241</ele>
        <time>2014-06-23T13:39:08Z</time>
      </trkpt>
      <trkpt lat="48.34142" lon="-3.37126">
        <ele>242</ele>
        <time>2014-06-23T13:39:14Z</time>
      </trkpt>
      <trkpt lat="48.3414" lon="-3.37126">
        <ele>244</ele>
        <time>2014-06-23T13:39:16Z</time>
      </trkpt>
      <trkpt lat="48.34138" lon="-3.37127">
        <ele>247</ele>
        <time>2014-06-23T13:39:19Z</time>
      </trkpt>
      <trkpt lat="48.34137" lon="-3.37128">
        <ele>249</ele>
        <time>2014-06-23T13:39:21Z</time>
      </trkpt>
      <trkpt lat="48.34136" lon="-3.37129">
        <ele>253</ele>
        <time>2014-06-23T13:39:30Z</time>
      </trkpt>
      <trkpt lat="48.34135" lon="-3.37129">
        <ele>256</ele>
        <time>2014-06-23T13:39:37Z</time>
      </trkpt>
      <trkpt lat="48.34135" lon="-3.3713">
        <ele>258</ele>
        <time>2014-06-23T13:39:46Z</time>
      </trkpt>
      <trkpt lat="48.34135" lon="-3.37133">
        <ele>258</ele>
        <time>2014-06-23T13:39:51Z</time>
      </trkpt>
      <trkpt lat="48.34134" lon="-3.37134">
        <ele>258</ele>
        <time>2014-06-23T13:39:56Z</time>
      </trkpt>
      <trkpt lat="48.34133" lon="-3.37134">
        <ele>258</ele>
        <time>2014-06-23T13:39:58Z</time>
      </trkpt>
      <trkpt lat="48.34134" lon="-3.37134">
        <ele>258</ele>
        <time>2014-06-23T13:40:07Z</time>
      </trkpt>
      <trkpt lat="48.34135" lon="-3.37134">
        <ele>258</ele>
        <time>2014-06-23T13:40:10Z</time>
      </trkpt>
      <trkpt lat="48.34136" lon="-3.37132">
        <ele>258</ele>
        <time>2014-06-23T13:40:13Z</time>
      </trkpt>
      <trkpt lat="48.34136" lon="-3.3713">
        <ele>258</ele>
        <time>2014-06-23T13:40:15Z</time>
      </trkpt>
      <trkpt lat="48.34137" lon="-3.37128">
        <ele>256</ele>
        <time>2014-06-23T13:40:18Z</time>
      </trkpt>
      <trkpt lat="48.34137" lon="-3.37127">
        <ele>254</ele>
        <time>2014-06-23T13:40:22Z</time>
      </trkpt>
      <trkpt lat="48.34137" lon="-3.37125">
        <ele>251</ele>
        <time>2014-06-23T13:40:29Z</time>
      </trkpt>
      <trkpt lat="48.34136" lon="-3.37124">
        <ele>251</ele>
        <time>2014-06-23T13:40:52Z</time>
      </trkpt>
      <trkpt lat="48.34137" lon="-3.37125">
        <ele>251</ele>
        <time>2014-06-23T13:41:04Z</time>
      </trkpt>
      <trkpt lat="48.34138" lon="-3.37128">
        <ele>251</ele>
        <time>2014-06-23T13:41:07Z</time>
      </trkpt>
      <trkpt lat="48.34138" lon="-3.3713">
        <ele>251</ele>
        <time>2014-06-23T13:41:14Z</time>
      </trkpt>
      <trkpt lat="48.34138" lon="-3.37133">
        <ele>251</ele>
        <time>2014-06-23T13:41:17Z</time>
      </trkpt>
      <trkpt lat="48.34138" lon="-3.37135">
        <ele>251</ele>
        <time>2014-06-23T13:41:19Z</time>
      </trkpt>
      <trkpt lat="48.34137" lon="-3.37137">
        <ele>251</ele>
        <time>2014-06-23T13:41:24Z</time>
      </trkpt>
      <trkpt lat="48.34136" lon="-3.37138">
        <ele>251</ele>
        <time>2014-06-23T13:41:31Z</time>
      </trkpt>
      <trkpt lat="48.34135" lon="-3.37136">
        <ele>251</ele>
        <time>2014-06-23T13:41:39Z</time>
      </trkpt>
      <trkpt lat="48.34134" lon="-3.37135">
        <ele>252</ele>
        <time>2014-06-23T13:41:42Z</time>
      </trkpt>
      <trkpt lat="48.34132" lon="-3.37134">
        <ele>256</ele>
        <time>2014-06-23T13:41:46Z</time>
      </trkpt>
      <trkpt lat="48.34131" lon="-3.37133">
        <ele>258</ele>
        <time>2014-06-23T13:41:49Z</time>
      </trkpt>
      <trkpt lat="48.34132" lon="-3.37131">
        <ele>261</ele>
        <time>2014-06-23T13:42:00Z</time>
      </trkpt>
      <trkpt lat="48.34132" lon="-3.37129">
        <ele>261</ele>
        <time>2014-06-23T13:42:02Z</time>
      </trkpt>
      <trkpt lat="48.34134" lon="-3.37128">
        <ele>261</ele>
        <time>2014-06-23T13:42:14Z</time>
      </trkpt>
      <trkpt lat="48.34135" lon="-3.3713">
        <ele>259</ele>
        <time>2014-06-23T13:43:01Z</time>
      </trkpt>
      <trkpt lat="48.34136" lon="-3.3713">
        <ele>259</ele>
        <time>2014-06-23T13:43:08Z</time>
      </trkpt>
      <trkpt lat="48.34138" lon="-3.37131">
        <ele>259</ele>
        <time>2014-06-23T13:43:11Z</time>
      </trkpt>
      <trkpt lat="48.34139" lon="-3.37131">
        <ele>257</ele>
        <time>2014-06-23T13:43:13Z</time>
      </trkpt>
      <trkpt lat="48.3414" lon="-3.37131">
        <ele>253</ele>
        <time>2014-06-23T13:43:19Z</time>
      </trkpt>
      <trkpt lat="48.34142" lon="-3.3713">
        <ele>250</ele>
        <time>2014-06-23T13:43:26Z</time>
      </trkpt>
      <trkpt lat="48.34142" lon="-3.37128">
        <ele>250</ele>
        <time>2014-06-23T13:43:35Z</time>
      </trkpt>
      <trkpt lat="48.34141" lon="-3.37127">
        <ele>250</ele>
        <time>2014-06-23T13:43:37Z</time>
      </trkpt>
      <trkpt lat="48.34139" lon="-3.37126">
        <ele>250</ele>
        <time>2014-06-23T13:43:39Z</time>
      </trkpt>
      <trkpt lat="48.34137" lon="-3.37126">
        <ele>250</ele>
        <time>2014-06-23T13:43:41Z</time>
      </trkpt>
      <trkpt lat="48.34135" lon="-3.37125">
        <ele>250</ele>
        <time>2014-06-23T13:43:43Z</time>
      </trkpt>
      <trkpt lat="48.34134" lon="-3.37124">
        <ele>250</ele>
        <time>2014-06-23T13:43:45Z</time>
      </trkpt>
      <trkpt lat="48.34132" lon="-3.37123">
        <ele>250</ele>
        <time>2014-06-23T13:43:47Z</time>
      </trkpt>
      <trkpt lat="48.3413" lon="-3.37122">
        <ele>250</ele>
        <time>2014-06-23T13:43:49Z</time>
      </trkpt>
      <trkpt lat="48.34128" lon="-3.37122">
        <ele>250</ele>
        <time>2014-06-23T13:43:51Z</time>
      </trkpt>
      <trkpt lat="48.34127" lon="-3.37121">
        <ele>250</ele>
        <time>2014-06-23T13:43:52Z</time>
      </trkpt>
      <trkpt lat="48.34125" lon="-3.37121">
        <ele>250</ele>
        <time>2014-06-23T13:43:54Z</time>
      </trkpt>
      <trkpt lat="48.34123" lon="-3.3712">
        <ele>249</ele>
        <time>2014-06-23T13:43:56Z</time>
      </trkpt>
      <trkpt lat="48.34121" lon="-3.3712">
        <ele>249</ele>
        <time>2014-06-23T13:43:58Z</time>
      </trkpt>
      <trkpt lat="48.34119" lon="-3.3712">
        <ele>249</ele>
        <time>2014-06-23T13:44:00Z</time>
      </trkpt>
      <trkpt lat="48.34118" lon="-3.3712">
        <ele>249</ele>
        <time>2014-06-23T13:44:02Z</time>
      </trkpt>
      <trkpt lat="48.34117" lon="-3.37119">
        <ele>249</ele>
        <time>2014-06-23T13:44:03Z</time>
      </trkpt>
      <trkpt lat="48.34116" lon="-3.37118">
        <ele>249</ele>
        <time>2014-06-23T13:44:04Z</time>
      </trkpt>
      <trkpt lat="48.34114" lon="-3.37118">
        <ele>249</ele>
        <time>2014-06-23T13:44:06Z</time>
      </trkpt>
      <trkpt lat="48.34112" lon="-3.37117">
        <ele>249</ele>
        <time>2014-06-23T13:44:08Z</time>
      </trkpt>
      <trkpt lat="48.3411" lon="-3.37116">
        <ele>249</ele>
        <time>2014-06-23T13:44:10Z</time>
      </trkpt>
      <trkpt lat="48.34108" lon="-3.37116">
        <ele>249</ele>
        <time>2014-06-23T13:44:12Z</time>
      </trkpt>
      <trkpt lat="48.34106" lon="-3.37115">
        <ele>249</ele>
        <time>2014-06-23T13:44:14Z</time>
      </trkpt>
      <trkpt lat="48.34105" lon="-3.37115">
        <ele>249</ele>
        <time>2014-06-23T13:44:16Z</time>
      </trkpt>
      <trkpt lat="48.34103" lon="-3.37114">
        <ele>249</ele>
        <time>2014-06-23T13:44:18Z</time>
      </trkpt>
      <trkpt lat="48.34102" lon="-3.37114">
        <ele>249</ele>
        <time>2014-06-23T13:44:20Z</time>
      </trkpt>
      <trkpt lat="48.341" lon="-3.37113">
        <ele>249</ele>
        <time>2014-06-23T13:44:23Z</time>
      </trkpt>
      <trkpt lat="48.34098" lon="-3.37112">
        <ele>249</ele>
        <time>2014-06-23T13:44:25Z</time>
      </trkpt>
      <trkpt lat="48.34097" lon="-3.37112">
        <ele>249</ele>
        <time>2014-06-23T13:44:27Z</time>
      </trkpt>
      <trkpt lat="48.34095" lon="-3.37111">
        <ele>249</ele>
        <time>2014-06-23T13:44:29Z</time>
      </trkpt>
      <trkpt lat="48.34094" lon="-3.37111">
        <ele>249</ele>
        <time>2014-06-23T13:44:31Z</time>
      </trkpt>
      <trkpt lat="48.34093" lon="-3.37111">
        <ele>249</ele>
        <time>2014-06-23T13:44:33Z</time>
      </trkpt>
      <trkpt lat="48.34092" lon="-3.3711">
        <ele>249</ele>
        <time>2014-06-23T13:44:35Z</time>
      </trkpt>
      <trkpt lat="48.3409" lon="-3.3711">
        <ele>249</ele>
        <time>2014-06-23T13:44:37Z</time>
      </trkpt>
      <trkpt lat="48.34089" lon="-3.3711">
        <ele>249</ele>
        <time>2014-06-23T13:44:39Z</time>
      </trkpt>
      <trkpt lat="48.34088" lon="-3.37109">
        <ele>249</ele>
        <time>2014-06-23T13:44:41Z</time>
      </trkpt>
      <trkpt lat="48.34087" lon="-3.37109">
        <ele>249</ele>
        <time>2014-06-23T13:44:43Z</time>
      </trkpt>
      <trkpt lat="48.34085" lon="-3.37108">
        <ele>249</ele>
        <time>2014-06-23T13:44:45Z</time>
      </trkpt>
      <trkpt lat="48.34084" lon="-3.37108">
        <ele>249</ele>
        <time>2014-06-23T13:44:47Z</time>
      </trkpt>
      <trkpt lat="48.34082" lon="-3.37107">
        <ele>249</ele>
        <time>2014-06-23T13:44:49Z</time>
      </trkpt>
      <trkpt lat="48.34081" lon="-3.37107">
        <ele>249</ele>
        <time>2014-06-23T13:44:51Z</time>
      </trkpt>
      <trkpt lat="48.3408" lon="-3.37106">
        <ele>249</ele>
        <time>2014-06-23T13:44:53Z</time>
      </trkpt>
      <trkpt lat="48.34078" lon="-3.37105">
        <ele>249</ele>
        <time>2014-06-23T13:44:55Z</time>
      </trkpt>
      <trkpt lat="48.34077" lon="-3.37105">
        <ele>249</ele>
        <time>2014-06-23T13:44:57Z</time>
      </trkpt>
      <trkpt lat="48.34075" lon="-3.37105">
        <ele>249</ele>
        <time>2014-06-23T13:44:59Z</time>
      </trkpt>
      <trkpt lat="48.34074" lon="-3.37104">
        <ele>249</ele>
        <time>2014-06-23T13:45:01Z</time>
      </trkpt>
      <trkpt lat="48.34072" lon="-3.37104">
        <ele>249</ele>
        <time>2014-06-23T13:45:03Z</time>
      </trkpt>
      <trkpt lat="48.34071" lon="-3.37103">
        <ele>249</ele>
        <time>2014-06-23T13:45:05Z</time>
      </trkpt>
      <trkpt lat="48.34069" lon="-3.37102">
        <ele>249</ele>
        <time>2014-06-23T13:45:07Z</time>
      </trkpt>
      <trkpt lat="48.34068" lon="-3.37102">
        <ele>249</ele>
        <time>2014-06-23T13:45:09Z</time>
      </trkpt>
      <trkpt lat="48.34067" lon="-3.37102">
        <ele>249</ele>
        <time>2014-06-23T13:45:11Z</time>
      </trkpt>
      <trkpt lat="48.34065" lon="-3.37102">
        <ele>249</ele>
        <time>2014-06-23T13:45:13Z</time>
      </trkpt>
      <trkpt lat="48.34064" lon="-3.37102">
        <ele>249</ele>
        <time>2014-06-23T13:45:15Z</time>
      </trkpt>
      <trkpt lat="48.34062" lon="-3.37101">
        <ele>249</ele>
        <time>2014-06-23T13:45:17Z</time>
      </trkpt>
      <trkpt lat="48.34061" lon="-3.37101">
        <ele>249</ele>
        <time>2014-06-23T13:45:19Z</time>
      </trkpt>
      <trkpt lat="48.34059" lon="-3.371">
        <ele>250</ele>
        <time>2014-06-23T13:45:21Z</time>
      </trkpt>
      <trkpt lat="48.34057" lon="-3.371">
        <ele>250</ele>
        <time>2014-06-23T13:45:23Z</time>
      </trkpt>
      <trkpt lat="48.34056" lon="-3.37099">
        <ele>250</ele>
        <time>2014-06-23T13:45:25Z</time>
      </trkpt>
      <trkpt lat="48.34054" lon="-3.37099">
        <ele>251</ele>
        <time>2014-06-23T13:45:27Z</time>
      </trkpt>
      <trkpt lat="48.34053" lon="-3.37098">
        <ele>251</ele>
        <time>2014-06-23T13:45:29Z</time>
      </trkpt>
      <trkpt lat="48.34051" lon="-3.37098">
        <ele>251</ele>
        <time>2014-06-23T13:45:31Z</time>
      </trkpt>
      <trkpt lat="48.34049" lon="-3.37097">
        <ele>252</ele>
        <time>2014-06-23T13:45:33Z</time>
      </trkpt>
      <trkpt lat="48.34048" lon="-3.37097">
        <ele>252</ele>
        <time>2014-06-23T13:45:35Z</time>
      </trkpt>
      <trkpt lat="48.34046" lon="-3.37096">
        <ele>252</ele>
        <time>2014-06-23T13:45:37Z</time>
      </trkpt>
      <trkpt lat="48.34044" lon="-3.37095">
        <ele>252</ele>
        <time>2014-06-23T13:45:39Z</time>
      </trkpt>
      <trkpt lat="48.34042" lon="-3.37095">
        <ele>252</ele>
        <time>2014-06-23T13:45:41Z</time>
      </trkpt>
      <trkpt lat="48.34041" lon="-3.37093">
        <ele>252</ele>
        <time>2014-06-23T13:45:43Z</time>
      </trkpt>
      <trkpt lat="48.34039" lon="-3.37092">
        <ele>252</ele>
        <time>2014-06-23T13:45:45Z</time>
      </trkpt>
      <trkpt lat="48.34037" lon="-3.37092">
        <ele>253</ele>
        <time>2014-06-23T13:45:47Z</time>
      </trkpt>
      <trkpt lat="48.34036" lon="-3.37091">
        <ele>253</ele>
        <time>2014-06-23T13:45:49Z</time>
      </trkpt>
      <trkpt lat="48.34034" lon="-3.3709">
        <ele>253</ele>
        <time>2014-06-23T13:45:51Z</time>
      </trkpt>
      <trkpt lat="48.34032" lon="-3.3709">
        <ele>253</ele>
        <time>2014-06-23T13:45:53Z</time>
      </trkpt>
      <trkpt lat="48.34031" lon="-3.37089">
        <ele>253</ele>
        <time>2014-06-23T13:45:55Z</time>
      </trkpt>
      <trkpt lat="48.34029" lon="-3.37089">
        <ele>253</ele>
        <time>2014-06-23T13:45:57Z</time>
      </trkpt>
      <trkpt lat="48.34027" lon="-3.37089">
        <ele>253</ele>
        <time>2014-06-23T13:45:59Z</time>
      </trkpt>
      <trkpt lat="48.34026" lon="-3.37088">
        <ele>253</ele>
        <time>2014-06-23T13:46:01Z</time>
      </trkpt>
      <trkpt lat="48.34024" lon="-3.37087">
        <ele>254</ele>
        <time>2014-06-23T13:46:03Z</time>
      </trkpt>
      <trkpt lat="48.34022" lon="-3.37088">
        <ele>254</ele>
        <time>2014-06-23T13:46:05Z</time>
      </trkpt>
      <trkpt lat="48.34021" lon="-3.37087">
        <ele>254</ele>
        <time>2014-06-23T13:46:07Z</time>
      </trkpt>
      <trkpt lat="48.34019" lon="-3.37087">
        <ele>254</ele>
        <time>2014-06-23T13:46:09Z</time>
      </trkpt>
      <trkpt lat="48.34017" lon="-3.37087">
        <ele>254</ele>
        <time>2014-06-23T13:46:11Z</time>
      </trkpt>
      <trkpt lat="48.34016" lon="-3.37087">
        <ele>254</ele>
        <time>2014-06-23T13:46:13Z</time>
      </trkpt>
      <trkpt lat="48.34014" lon="-3.37087">
        <ele>254</ele>
        <time>2014-06-23T13:46:15Z</time>
      </trkpt>
      <trkpt lat="48.34012" lon="-3.37087">
        <ele>254</ele>
        <time>2014-06-23T13:46:17Z</time>
      </trkpt>
      <trkpt lat="48.3401" lon="-3.37086">
        <ele>255</ele>
        <time>2014-06-23T13:46:19Z</time>
      </trkpt>
      <trkpt lat="48.34008" lon="-3.37086">
        <ele>255</ele>
        <time>2014-06-23T13:46:21Z</time>
      </trkpt>
      <trkpt lat="48.34007" lon="-3.37085">
        <ele>255</ele>
        <time>2014-06-23T13:46:23Z</time>
      </trkpt>
      <trkpt lat="48.34005" lon="-3.37085">
        <ele>255</ele>
        <time>2014-06-23T13:46:25Z</time>
      </trkpt>
      <trkpt lat="48.34003" lon="-3.37085">
        <ele>255</ele>
        <time>2014-06-23T13:46:27Z</time>
      </trkpt>
      <trkpt lat="48.34002" lon="-3.37084">
        <ele>255</ele>
        <time>2014-06-23T13:46:29Z</time>
      </trkpt>
      <trkpt lat="48.34" lon="-3.37084">
        <ele>255</ele>
        <time>2014-06-23T13:46:31Z</time>
      </trkpt>
      <trkpt lat="48.33998" lon="-3.37083">
        <ele>255</ele>
        <time>2014-06-23T13:46:33Z</time>
      </trkpt>
      <trkpt lat="48.33996" lon="-3.37083">
        <ele>255</ele>
        <time>2014-06-23T13:46:35Z</time>
      </trkpt>
      <trkpt lat="48.33994" lon="-3.37082">
        <ele>256</ele>
        <time>2014-06-23T13:46:37Z</time>
      </trkpt>
      <trkpt lat="48.33992" lon="-3.37082">
        <ele>256</ele>
        <time>2014-06-23T13:46:39Z</time>
      </trkpt>
      <trkpt lat="48.33991" lon="-3.37082">
        <ele>256</ele>
        <time>2014-06-23T13:46:41Z</time>
      </trkpt>
      <trkpt lat="48.33989" lon="-3.37082">
        <ele>256</ele>
        <time>2014-06-23T13:46:43Z</time>
      </trkpt>
      <trkpt lat="48.33987" lon="-3.37081">
        <ele>256</ele>
        <time>2014-06-23T13:46:45Z</time>
      </trkpt>
      <trkpt lat="48.33985" lon="-3.37081">
        <ele>256</ele>
        <time>2014-06-23T13:46:47Z</time>
      </trkpt>
      <trkpt lat="48.33984" lon="-3.37081">
        <ele>256</ele>
        <time>2014-06-23T13:46:49Z</time>
      </trkpt>
      <trkpt lat="48.33982" lon="-3.37081">
        <ele>256</ele>
        <time>2014-06-23T13:46:51Z</time>
      </trkpt>
      <trkpt lat="48.3398" lon="-3.37081">
        <ele>256</ele>
        <time>2014-06-23T13:46:53Z</time>
      </trkpt>
      <trkpt lat="48.33978" lon="-3.37081">
        <ele>256</ele>
        <time>2014-06-23T13:46:55Z</time>
      </trkpt>
      <trkpt lat="48.33976" lon="-3.37082">
        <ele>256</ele>
        <time>2014-06-23T13:46:57Z</time>
      </trkpt>
      <trkpt lat="48.33975" lon="-3.37082">
        <ele>256</ele>
        <time>2014-06-23T13:46:58Z</time>
      </trkpt>
      <trkpt lat="48.33973" lon="-3.37081">
        <ele>256</ele>
        <time>2014-06-23T13:47:00Z</time>
      </trkpt>
      <trkpt lat="48.33971" lon="-3.37082">
        <ele>256</ele>
        <time>2014-06-23T13:47:02Z</time>
      </trkpt>
      <trkpt lat="48.3397" lon="-3.37081">
        <ele>256</ele>
        <time>2014-06-23T13:47:04Z</time>
      </trkpt>
      <trkpt lat="48.33968" lon="-3.37081">
        <ele>256</ele>
        <time>2014-06-23T13:47:05Z</time>
      </trkpt>
      <trkpt lat="48.33966" lon="-3.37081">
        <ele>256</ele>
        <time>2014-06-23T13:47:07Z</time>
      </trkpt>
      <trkpt lat="48.33965" lon="-3.37081">
        <ele>256</ele>
        <time>2014-06-23T13:47:09Z</time>
      </trkpt>
      <trkpt lat="48.33963" lon="-3.37081">
        <ele>256</ele>
        <time>2014-06-23T13:47:10Z</time>
      </trkpt>
      <trkpt lat="48.33961" lon="-3.37081">
        <ele>256</ele>
        <time>2014-06-23T13:47:12Z</time>
      </trkpt>
      <trkpt lat="48.33959" lon="-3.37081">
        <ele>256</ele>
        <time>2014-06-23T13:47:14Z</time>
      </trkpt>
      <trkpt lat="48.33958" lon="-3.37081">
        <ele>256</ele>
        <time>2014-06-23T13:47:16Z</time>
      </trkpt>
      <trkpt lat="48.33955" lon="-3.37081">
        <ele>256</ele>
        <time>2014-06-23T13:47:18Z</time>
      </trkpt>
      <trkpt lat="48.33953" lon="-3.37082">
        <ele>257</ele>
        <time>2014-06-23T13:47:20Z</time>
      </trkpt>
      <trkpt lat="48.33951" lon="-3.37082">
        <ele>257</ele>
        <time>2014-06-23T13:47:22Z</time>
      </trkpt>
      <trkpt lat="48.33949" lon="-3.37082">
        <ele>257</ele>
        <time>2014-06-23T13:47:24Z</time>
      </trkpt>
      <trkpt lat="48.33947" lon="-3.37082">
        <ele>257</ele>
        <time>2014-06-23T13:47:26Z</time>
      </trkpt>
      <trkpt lat="48.33945" lon="-3.37082">
        <ele>257</ele>
        <time>2014-06-23T13:47:28Z</time>
      </trkpt>
      <trkpt lat="48.33944" lon="-3.37081">
        <ele>257</ele>
        <time>2014-06-23T13:47:29Z</time>
      </trkpt>
      <trkpt lat="48.33943" lon="-3.37081">
        <ele>257</ele>
        <time>2014-06-23T13:47:30Z</time>
      </trkpt>
      <trkpt lat="48.33942" lon="-3.37081">
        <ele>257</ele>
        <time>2014-06-23T13:47:31Z</time>
      </trkpt>
      <trkpt lat="48.3394" lon="-3.37082">
        <ele>257</ele>
        <time>2014-06-23T13:47:33Z</time>
      </trkpt>
      <trkpt lat="48.33938" lon="-3.37082">
        <ele>257</ele>
        <time>2014-06-23T13:47:35Z</time>
      </trkpt>
      <trkpt lat="48.33936" lon="-3.37082">
        <ele>257</ele>
        <time>2014-06-23T13:47:37Z</time>
      </trkpt>
      <trkpt lat="48.33934" lon="-3.37083">
        <ele>257</ele>
        <time>2014-06-23T13:47:39Z</time>
      </trkpt>
      <trkpt lat="48.33933" lon="-3.37082">
        <ele>257</ele>
        <time>2014-06-23T13:47:40Z</time>
      </trkpt>
      <trkpt lat="48.33932" lon="-3.37082">
        <ele>257</ele>
        <time>2014-06-23T13:47:41Z</time>
      </trkpt>
      <trkpt lat="48.3393" lon="-3.37082">
        <ele>257</ele>
        <time>2014-06-23T13:47:43Z</time>
      </trkpt>
      <trkpt lat="48.33928" lon="-3.37082">
        <ele>257</ele>
        <time>2014-06-23T13:47:44Z</time>
      </trkpt>
      <trkpt lat="48.33926" lon="-3.37082">
        <ele>257</ele>
        <time>2014-06-23T13:47:46Z</time>
      </trkpt>
      <trkpt lat="48.33924" lon="-3.37082">
        <ele>258</ele>
        <time>2014-06-23T13:47:48Z</time>
      </trkpt>
      <trkpt lat="48.33923" lon="-3.37082">
        <ele>258</ele>
        <time>2014-06-23T13:47:49Z</time>
      </trkpt>
      <trkpt lat="48.33921" lon="-3.37082">
        <ele>258</ele>
        <time>2014-06-23T13:47:51Z</time>
      </trkpt>
      <trkpt lat="48.33919" lon="-3.37082">
        <ele>258</ele>
        <time>2014-06-23T13:47:53Z</time>
      </trkpt>
      <trkpt lat="48.33917" lon="-3.37082">
        <ele>259</ele>
        <time>2014-06-23T13:47:55Z</time>
      </trkpt>
      <trkpt lat="48.33916" lon="-3.37082">
        <ele>259</ele>
        <time>2014-06-23T13:47:56Z</time>
      </trkpt>
      <trkpt lat="48.33915" lon="-3.37082">
        <ele>259</ele>
        <time>2014-06-23T13:47:57Z</time>
      </trkpt>
      <trkpt lat="48.33913" lon="-3.37082">
        <ele>259</ele>
        <time>2014-06-23T13:47:59Z</time>
      </trkpt>
      <trkpt lat="48.3391" lon="-3.37083">
        <ele>259</ele>
        <time>2014-06-23T13:48:01Z</time>
      </trkpt>
      <trkpt lat="48.33908" lon="-3.37082">
        <ele>259</ele>
        <time>2014-06-23T13:48:03Z</time>
      </trkpt>
      <trkpt lat="48.33906" lon="-3.37082">
        <ele>259</ele>
        <time>2014-06-23T13:48:05Z</time>
      </trkpt>
      <trkpt lat="48.33905" lon="-3.37082">
        <ele>259</ele>
        <time>2014-06-23T13:48:07Z</time>
      </trkpt>
      <trkpt lat="48.33903" lon="-3.37082">
        <ele>259</ele>
        <time>2014-06-23T13:48:09Z</time>
      </trkpt>
      <trkpt lat="48.33902" lon="-3.37082">
        <ele>259</ele>
        <time>2014-06-23T13:48:10Z</time>
      </trkpt>
      <trkpt lat="48.33899" lon="-3.37081">
        <ele>259</ele>
        <time>2014-06-23T13:48:12Z</time>
      </trkpt>
      <trkpt lat="48.33898" lon="-3.37081">
        <ele>259</ele>
        <time>2014-06-23T13:48:13Z</time>
      </trkpt>
      <trkpt lat="48.33896" lon="-3.37081">
        <ele>259</ele>
        <time>2014-06-23T13:48:15Z</time>
      </trkpt>
      <trkpt lat="48.33895" lon="-3.37081">
        <ele>259</ele>
        <time>2014-06-23T13:48:16Z</time>
      </trkpt>
      <trkpt lat="48.33894" lon="-3.37081">
        <ele>259</ele>
        <time>2014-06-23T13:48:17Z</time>
      </trkpt>
      <trkpt lat="48.33892" lon="-3.37082">
        <ele>259</ele>
        <time>2014-06-23T13:48:19Z</time>
      </trkpt>
      <trkpt lat="48.33891" lon="-3.37082">
        <ele>259</ele>
        <time>2014-06-23T13:48:21Z</time>
      </trkpt>
      <trkpt lat="48.33889" lon="-3.37082">
        <ele>259</ele>
        <time>2014-06-23T13:48:23Z</time>
      </trkpt>
      <trkpt lat="48.33888" lon="-3.37082">
        <ele>259</ele>
        <time>2014-06-23T13:48:24Z</time>
      </trkpt>
      <trkpt lat="48.33886" lon="-3.37082">
        <ele>259</ele>
        <time>2014-06-23T13:48:26Z</time>
      </trkpt>
      <trkpt lat="48.33884" lon="-3.37082">
        <ele>259</ele>
        <time>2014-06-23T13:48:28Z</time>
      </trkpt>
      <trkpt lat="48.33883" lon="-3.37082">
        <ele>259</ele>
        <time>2014-06-23T13:48:29Z</time>
      </trkpt>
      <trkpt lat="48.33881" lon="-3.37082">
        <ele>259</ele>
        <time>2014-06-23T13:48:31Z</time>
      </trkpt>
      <trkpt lat="48.33879" lon="-3.37082">
        <ele>259</ele>
        <time>2014-06-23T13:48:33Z</time>
      </trkpt>
      <trkpt lat="48.33878" lon="-3.37083">
        <ele>259</ele>
        <time>2014-06-23T13:48:35Z</time>
      </trkpt>
      <trkpt lat="48.33876" lon="-3.37084">
        <ele>259</ele>
        <time>2014-06-23T13:48:37Z</time>
      </trkpt>
      <trkpt lat="48.33875" lon="-3.37085">
        <ele>259</ele>
        <time>2014-06-23T13:48:38Z</time>
      </trkpt>
      <trkpt lat="48.33873" lon="-3.37086">
        <ele>259</ele>
        <time>2014-06-23T13:48:39Z</time>
      </trkpt>
      <trkpt lat="48.33871" lon="-3.37086">
        <ele>259</ele>
        <time>2014-06-23T13:48:41Z</time>
      </trkpt>
      <trkpt lat="48.3387" lon="-3.37086">
        <ele>259</ele>
        <time>2014-06-23T13:48:43Z</time>
      </trkpt>
      <trkpt lat="48.33869" lon="-3.37087">
        <ele>259</ele>
        <time>2014-06-23T13:48:45Z</time>
      </trkpt>
      <trkpt lat="48.33867" lon="-3.37088">
        <ele>259</ele>
        <time>2014-06-23T13:48:47Z</time>
      </trkpt>
      <trkpt lat="48.33866" lon="-3.37089">
        <ele>259</ele>
        <time>2014-06-23T13:48:48Z</time>
      </trkpt>
      <trkpt lat="48.33864" lon="-3.37089">
        <ele>259</ele>
        <time>2014-06-23T13:48:49Z</time>
      </trkpt>
      <trkpt lat="48.33862" lon="-3.37087">
        <ele>259</ele>
        <time>2014-06-23T13:48:51Z</time>
      </trkpt>
      <trkpt lat="48.33861" lon="-3.37087">
        <ele>259</ele>
        <time>2014-06-23T13:48:53Z</time>
      </trkpt>
      <trkpt lat="48.33859" lon="-3.37087">
        <ele>259</ele>
        <time>2014-06-23T13:48:55Z</time>
      </trkpt>
      <trkpt lat="48.33858" lon="-3.37086">
        <ele>259</ele>
        <time>2014-06-23T13:48:57Z</time>
      </trkpt>
      <trkpt lat="48.33856" lon="-3.37087">
        <ele>259</ele>
        <time>2014-06-23T13:48:58Z</time>
      </trkpt>
      <trkpt lat="48.33855" lon="-3.37088">
        <ele>259</ele>
        <time>2014-06-23T13:48:59Z</time>
      </trkpt>
      <trkpt lat="48.33853" lon="-3.37088">
        <ele>259</ele>
        <time>2014-06-23T13:49:00Z</time>
      </trkpt>
      <trkpt lat="48.33851" lon="-3.37089">
        <ele>259</ele>
        <time>2014-06-23T13:49:01Z</time>
      </trkpt>
      <trkpt lat="48.33849" lon="-3.37091">
        <ele>259</ele>
        <time>2014-06-23T13:49:02Z</time>
      </trkpt>
      <trkpt lat="48.33847" lon="-3.37091">
        <ele>259</ele>
        <time>2014-06-23T13:49:03Z</time>
      </trkpt>
      <trkpt lat="48.33846" lon="-3.37092">
        <ele>259</ele>
        <time>2014-06-23T13:49:04Z</time>
      </trkpt>
      <trkpt lat="48.33844" lon="-3.37092">
        <ele>259</ele>
        <time>2014-06-23T13:49:05Z</time>
      </trkpt>
      <trkpt lat="48.33842" lon="-3.37093">
        <ele>259</ele>
        <time>2014-06-23T13:49:07Z</time>
      </trkpt>
      <trkpt lat="48.33841" lon="-3.37093">
        <ele>259</ele>
        <time>2014-06-23T13:49:08Z</time>
      </trkpt>
      <trkpt lat="48.33839" lon="-3.37093">
        <ele>259</ele>
        <time>2014-06-23T13:49:09Z</time>
      </trkpt>
      <trkpt lat="48.33838" lon="-3.37093">
        <ele>259</ele>
        <time>2014-06-23T13:49:10Z</time>
      </trkpt>
      <trkpt lat="48.33837" lon="-3.37093">
        <ele>259</ele>
        <time>2014-06-23T13:49:11Z</time>
      </trkpt>
      <trkpt lat="48.33835" lon="-3.37093">
        <ele>259</ele>
        <time>2014-06-23T13:49:12Z</time>
      </trkpt>
      <trkpt lat="48.33834" lon="-3.37092">
        <ele>259</ele>
        <time>2014-06-23T13:49:13Z</time>
      </trkpt>
      <trkpt lat="48.33832" lon="-3.37093">
        <ele>259</ele>
        <time>2014-06-23T13:49:15Z</time>
      </trkpt>
      <trkpt lat="48.3383" lon="-3.37093">
        <ele>259</ele>
        <time>2014-06-23T13:49:17Z</time>
      </trkpt>
      <trkpt lat="48.33828" lon="-3.37093">
        <ele>258</ele>
        <time>2014-06-23T13:49:19Z</time>
      </trkpt>
      <trkpt lat="48.33827" lon="-3.37093">
        <ele>258</ele>
        <time>2014-06-23T13:49:20Z</time>
      </trkpt>
      <trkpt lat="48.33825" lon="-3.37092">
        <ele>258</ele>
        <time>2014-06-23T13:49:22Z</time>
      </trkpt>
      <trkpt lat="48.33827" lon="-3.37093">
        <ele>258</ele>
        <time>2014-06-23T13:49:26Z</time>
      </trkpt>
      <trkpt lat="48.33826" lon="-3.37094">
        <ele>258</ele>
        <time>2014-06-23T13:49:29Z</time>
      </trkpt>
      <trkpt lat="48.33825" lon="-3.37094">
        <ele>258</ele>
        <time>2014-06-23T13:49:30Z</time>
      </trkpt>
      <trkpt lat="48.33823" lon="-3.37095">
        <ele>258</ele>
        <time>2014-06-23T13:49:31Z</time>
      </trkpt>
      <trkpt lat="48.33822" lon="-3.37095">
        <ele>258</ele>
        <time>2014-06-23T13:49:32Z</time>
      </trkpt>
      <trkpt lat="48.3382" lon="-3.37096">
        <ele>258</ele>
        <time>2014-06-23T13:49:33Z</time>
      </trkpt>
      <trkpt lat="48.33818" lon="-3.37096">
        <ele>258</ele>
        <time>2014-06-23T13:49:34Z</time>
      </trkpt>
      <trkpt lat="48.33817" lon="-3.37096">
        <ele>258</ele>
        <time>2014-06-23T13:49:35Z</time>
      </trkpt>
      <trkpt lat="48.33815" lon="-3.37097">
        <ele>258</ele>
        <time>2014-06-23T13:49:36Z</time>
      </trkpt>
      <trkpt lat="48.33814" lon="-3.37097">
        <ele>258</ele>
        <time>2014-06-23T13:49:37Z</time>
      </trkpt>
      <trkpt lat="48.33812" lon="-3.37097">
        <ele>258</ele>
        <time>2014-06-23T13:49:39Z</time>
      </trkpt>
      <trkpt lat="48.3381" lon="-3.37097">
        <ele>258</ele>
        <time>2014-06-23T13:49:40Z</time>
      </trkpt>
      <trkpt lat="48.33808" lon="-3.37098">
        <ele>257</ele>
        <time>2014-06-23T13:49:42Z</time>
      </trkpt>
      <trkpt lat="48.33807" lon="-3.37098">
        <ele>257</ele>
        <time>2014-06-23T13:49:43Z</time>
      </trkpt>
      <trkpt lat="48.33805" lon="-3.37097">
        <ele>257</ele>
        <time>2014-06-23T13:49:44Z</time>
      </trkpt>
      <trkpt lat="48.33804" lon="-3.37098">
        <ele>257</ele>
        <time>2014-06-23T13:49:45Z</time>
      </trkpt>
      <trkpt lat="48.33802" lon="-3.37098">
        <ele>257</ele>
        <time>2014-06-23T13:49:47Z</time>
      </trkpt>
      <trkpt lat="48.33801" lon="-3.37099">
        <ele>256</ele>
        <time>2014-06-23T13:49:48Z</time>
      </trkpt>
      <trkpt lat="48.33799" lon="-3.37099">
        <ele>256</ele>
        <time>2014-06-23T13:49:50Z</time>
      </trkpt>
      <trkpt lat="48.33797" lon="-3.371">
        <ele>256</ele>
        <time>2014-06-23T13:49:51Z</time>
      </trkpt>
      <trkpt lat="48.33795" lon="-3.371">
        <ele>256</ele>
        <time>2014-06-23T13:49:53Z</time>
      </trkpt>
      <trkpt lat="48.33794" lon="-3.371">
        <ele>256</ele>
        <time>2014-06-23T13:49:54Z</time>
      </trkpt>
      <trkpt lat="48.33792" lon="-3.371">
        <ele>256</ele>
        <time>2014-06-23T13:49:56Z</time>
      </trkpt>
      <trkpt lat="48.33791" lon="-3.371">
        <ele>256</ele>
        <time>2014-06-23T13:49:59Z</time>
      </trkpt>
      <trkpt lat="48.33789" lon="-3.37099">
        <ele>256</ele>
        <time>2014-06-23T13:50:01Z</time>
      </trkpt>
      <trkpt lat="48.33787" lon="-3.37099">
        <ele>256</ele>
        <time>2014-06-23T13:50:03Z</time>
      </trkpt>
      <trkpt lat="48.33784" lon="-3.371">
        <ele>256</ele>
        <time>2014-06-23T13:50:05Z</time>
      </trkpt>
      <trkpt lat="48.33783" lon="-3.371">
        <ele>256</ele>
        <time>2014-06-23T13:50:06Z</time>
      </trkpt>
      <trkpt lat="48.33781" lon="-3.371">
        <ele>256</ele>
        <time>2014-06-23T13:50:07Z</time>
      </trkpt>
      <trkpt lat="48.3378" lon="-3.37101">
        <ele>256</ele>
        <time>2014-06-23T13:50:08Z</time>
      </trkpt>
      <trkpt lat="48.33779" lon="-3.37101">
        <ele>256</ele>
        <time>2014-06-23T13:50:09Z</time>
      </trkpt>
      <trkpt lat="48.33778" lon="-3.37102">
        <ele>256</ele>
        <time>2014-06-23T13:50:10Z</time>
      </trkpt>
      <trkpt lat="48.33776" lon="-3.37102">
        <ele>256</ele>
        <time>2014-06-23T13:50:11Z</time>
      </trkpt>
      <trkpt lat="48.33775" lon="-3.37102">
        <ele>256</ele>
        <time>2014-06-23T13:50:12Z</time>
      </trkpt>
      <trkpt lat="48.33774" lon="-3.37102">
        <ele>256</ele>
        <time>2014-06-23T13:50:13Z</time>
      </trkpt>
      <trkpt lat="48.33773" lon="-3.37102">
        <ele>256</ele>
        <time>2014-06-23T13:50:14Z</time>
      </trkpt>
      <trkpt lat="48.3377" lon="-3.37103">
        <ele>256</ele>
        <time>2014-06-23T13:50:16Z</time>
      </trkpt>
      <trkpt lat="48.33769" lon="-3.37104">
        <ele>256</ele>
        <time>2014-06-23T13:50:17Z</time>
      </trkpt>
      <trkpt lat="48.33767" lon="-3.37104">
        <ele>256</ele>
        <time>2014-06-23T13:50:19Z</time>
      </trkpt>
      <trkpt lat="48.33765" lon="-3.37104">
        <ele>256</ele>
        <time>2014-06-23T13:50:21Z</time>
      </trkpt>
      <trkpt lat="48.33763" lon="-3.37104">
        <ele>256</ele>
        <time>2014-06-23T13:50:23Z</time>
      </trkpt>
      <trkpt lat="48.33761" lon="-3.37104">
        <ele>256</ele>
        <time>2014-06-23T13:50:25Z</time>
      </trkpt>
      <trkpt lat="48.33759" lon="-3.37104">
        <ele>256</ele>
        <time>2014-06-23T13:50:27Z</time>
      </trkpt>
      <trkpt lat="48.33758" lon="-3.37104">
        <ele>256</ele>
        <time>2014-06-23T13:50:28Z</time>
      </trkpt>
      <trkpt lat="48.33757" lon="-3.37105">
        <ele>256</ele>
        <time>2014-06-23T13:50:29Z</time>
      </trkpt>
      <trkpt lat="48.33754" lon="-3.37105">
        <ele>256</ele>
        <time>2014-06-23T13:50:31Z</time>
      </trkpt>
      <trkpt lat="48.33753" lon="-3.37105">
        <ele>256</ele>
        <time>2014-06-23T13:50:32Z</time>
      </trkpt>
      <trkpt lat="48.33752" lon="-3.37105">
        <ele>256</ele>
        <time>2014-06-23T13:50:33Z</time>
      </trkpt>
      <trkpt lat="48.3375" lon="-3.37106">
        <ele>256</ele>
        <time>2014-06-23T13:50:34Z</time>
      </trkpt>
      <trkpt lat="48.33749" lon="-3.37106">
        <ele>256</ele>
        <time>2014-06-23T13:50:35Z</time>
      </trkpt>
      <trkpt lat="48.33748" lon="-3.37106">
        <ele>256</ele>
        <time>2014-06-23T13:50:36Z</time>
      </trkpt>
      <trkpt lat="48.33746" lon="-3.37106">
        <ele>256</ele>
        <time>2014-06-23T13:50:37Z</time>
      </trkpt>
      <trkpt lat="48.33744" lon="-3.37105">
        <ele>255</ele>
        <time>2014-06-23T13:50:39Z</time>
      </trkpt>
      <trkpt lat="48.33743" lon="-3.37103">
        <ele>255</ele>
        <time>2014-06-23T13:50:40Z</time>
      </trkpt>
      <trkpt lat="48.33741" lon="-3.37103">
        <ele>255</ele>
        <time>2014-06-23T13:50:41Z</time>
      </trkpt>
      <trkpt lat="48.3374" lon="-3.37102">
        <ele>255</ele>
        <time>2014-06-23T13:50:42Z</time>
      </trkpt>
      <trkpt lat="48.33739" lon="-3.37102">
        <ele>255</ele>
        <time>2014-06-23T13:50:43Z</time>
      </trkpt>
      <trkpt lat="48.33738" lon="-3.37102">
        <ele>255</ele>
        <time>2014-06-23T13:50:44Z</time>
      </trkpt>
      <trkpt lat="48.33736" lon="-3.37102">
        <ele>255</ele>
        <time>2014-06-23T13:50:45Z</time>
      </trkpt>
      <trkpt lat="48.33735" lon="-3.37102">
        <ele>255</ele>
        <time>2014-06-23T13:50:46Z</time>
      </trkpt>
      <trkpt lat="48.33733" lon="-3.37102">
        <ele>255</ele>
        <time>2014-06-23T13:50:48Z</time>
      </trkpt>
      <trkpt lat="48.33731" lon="-3.37102">
        <ele>255</ele>
        <time>2014-06-23T13:50:49Z</time>
      </trkpt>
      <trkpt lat="48.33729" lon="-3.37101">
        <ele>255</ele>
        <time>2014-06-23T13:50:51Z</time>
      </trkpt>
      <trkpt lat="48.33727" lon="-3.371">
        <ele>255</ele>
        <time>2014-06-23T13:50:53Z</time>
      </trkpt>
      <trkpt lat="48.33726" lon="-3.371">
        <ele>255</ele>
        <time>2014-06-23T13:50:54Z</time>
      </trkpt>
      <trkpt lat="48.33725" lon="-3.37099">
        <ele>255</ele>
        <time>2014-06-23T13:50:55Z</time>
      </trkpt>
      <trkpt lat="48.33724" lon="-3.37098">
        <ele>255</ele>
        <time>2014-06-23T13:50:56Z</time>
      </trkpt>
      <trkpt lat="48.33723" lon="-3.37098">
        <ele>255</ele>
        <time>2014-06-23T13:50:57Z</time>
      </trkpt>
      <trkpt lat="48.3372" lon="-3.37097">
        <ele>255</ele>
        <time>2014-06-23T13:50:59Z</time>
      </trkpt>
      <trkpt lat="48.33719" lon="-3.37097">
        <ele>255</ele>
        <time>2014-06-23T13:51:00Z</time>
      </trkpt>
      <trkpt lat="48.33717" lon="-3.37096">
        <ele>256</ele>
        <time>2014-06-23T13:51:01Z</time>
      </trkpt>
      <trkpt lat="48.33716" lon="-3.37095">
        <ele>256</ele>
        <time>2014-06-23T13:51:02Z</time>
      </trkpt>
      <trkpt lat="48.33714" lon="-3.37094">
        <ele>257</ele>
        <time>2014-06-23T13:51:04Z</time>
      </trkpt>
      <trkpt lat="48.33712" lon="-3.37095">
        <ele>258</ele>
        <time>2014-06-23T13:51:06Z</time>
      </trkpt>
      <trkpt lat="48.3371" lon="-3.37094">
        <ele>258</ele>
        <time>2014-06-23T13:51:08Z</time>
      </trkpt>
      <trkpt lat="48.33708" lon="-3.37093">
        <ele>258</ele>
        <time>2014-06-23T13:51:10Z</time>
      </trkpt>
      <trkpt lat="48.33707" lon="-3.37092">
        <ele>258</ele>
        <time>2014-06-23T13:51:12Z</time>
      </trkpt>
      <trkpt lat="48.33704" lon="-3.37091">
        <ele>258</ele>
        <time>2014-06-23T13:51:14Z</time>
      </trkpt>
      <trkpt lat="48.33702" lon="-3.3709">
        <ele>258</ele>
        <time>2014-06-23T13:51:16Z</time>
      </trkpt>
      <trkpt lat="48.337" lon="-3.37089">
        <ele>258</ele>
        <time>2014-06-23T13:51:18Z</time>
      </trkpt>
      <trkpt lat="48.33698" lon="-3.37087">
        <ele>258</ele>
        <time>2014-06-23T13:51:20Z</time>
      </trkpt>
      <trkpt lat="48.33696" lon="-3.37086">
        <ele>258</ele>
        <time>2014-06-23T13:51:22Z</time>
      </trkpt>
      <trkpt lat="48.33694" lon="-3.37085">
        <ele>258</ele>
        <time>2014-06-23T13:51:24Z</time>
      </trkpt>
      <trkpt lat="48.33692" lon="-3.37084">
        <ele>258</ele>
        <time>2014-06-23T13:51:26Z</time>
      </trkpt>
      <trkpt lat="48.33691" lon="-3.37083">
        <ele>258</ele>
        <time>2014-06-23T13:51:27Z</time>
      </trkpt>
      <trkpt lat="48.33689" lon="-3.37081">
        <ele>258</ele>
        <time>2014-06-23T13:51:29Z</time>
      </trkpt>
      <trkpt lat="48.33688" lon="-3.3708">
        <ele>258</ele>
        <time>2014-06-23T13:51:31Z</time>
      </trkpt>
      <trkpt lat="48.33686" lon="-3.37078">
        <ele>258</ele>
        <time>2014-06-23T13:51:33Z</time>
      </trkpt>
      <trkpt lat="48.33684" lon="-3.37077">
        <ele>258</ele>
        <time>2014-06-23T13:51:35Z</time>
      </trkpt>
      <trkpt lat="48.33682" lon="-3.37075">
        <ele>258</ele>
        <time>2014-06-23T13:51:37Z</time>
      </trkpt>
      <trkpt lat="48.3368" lon="-3.37073">
        <ele>258</ele>
        <time>2014-06-23T13:51:39Z</time>
      </trkpt>
      <trkpt lat="48.33679" lon="-3.37072">
        <ele>258</ele>
        <time>2014-06-23T13:51:41Z</time>
      </trkpt>
      <trkpt lat="48.33677" lon="-3.3707">
        <ele>258</ele>
        <time>2014-06-23T13:51:43Z</time>
      </trkpt>
      <trkpt lat="48.33675" lon="-3.37068">
        <ele>258</ele>
        <time>2014-06-23T13:51:45Z</time>
      </trkpt>
      <trkpt lat="48.33673" lon="-3.37067">
        <ele>258</ele>
        <time>2014-06-23T13:51:47Z</time>
      </trkpt>
      <trkpt lat="48.33672" lon="-3.37065">
        <ele>258</ele>
        <time>2014-06-23T13:51:49Z</time>
      </trkpt>
      <trkpt lat="48.3367" lon="-3.37063">
        <ele>258</ele>
        <time>2014-06-23T13:51:51Z</time>
      </trkpt>
      <trkpt lat="48.33668" lon="-3.37062">
        <ele>258</ele>
        <time>2014-06-23T13:51:52Z</time>
      </trkpt>
      <trkpt lat="48.33667" lon="-3.3706">
        <ele>258</ele>
        <time>2014-06-23T13:51:54Z</time>
      </trkpt>
      <trkpt lat="48.33665" lon="-3.37058">
        <ele>258</ele>
        <time>2014-06-23T13:51:55Z</time>
      </trkpt>
      <trkpt lat="48.33664" lon="-3.37057">
        <ele>258</ele>
        <time>2014-06-23T13:51:57Z</time>
      </trkpt>
      <trkpt lat="48.33662" lon="-3.37056">
        <ele>258</ele>
        <time>2014-06-23T13:51:59Z</time>
      </trkpt>
      <trkpt lat="48.3366" lon="-3.37054">
        <ele>258</ele>
        <time>2014-06-23T13:52:01Z</time>
      </trkpt>
      <trkpt lat="48.33658" lon="-3.37052">
        <ele>258</ele>
        <time>2014-06-23T13:52:03Z</time>
      </trkpt>
      <trkpt lat="48.33657" lon="-3.3705">
        <ele>258</ele>
        <time>2014-06-23T13:52:05Z</time>
      </trkpt>
      <trkpt lat="48.33654" lon="-3.37049">
        <ele>258</ele>
        <time>2014-06-23T13:52:07Z</time>
      </trkpt>
      <trkpt lat="48.33653" lon="-3.37047">
        <ele>258</ele>
        <time>2014-06-23T13:52:09Z</time>
      </trkpt>
      <trkpt lat="48.33652" lon="-3.37045">
        <ele>258</ele>
        <time>2014-06-23T13:52:11Z</time>
      </trkpt>
      <trkpt lat="48.33651" lon="-3.37044">
        <ele>258</ele>
        <time>2014-06-23T13:52:13Z</time>
      </trkpt>
      <trkpt lat="48.33648" lon="-3.37042">
        <ele>258</ele>
        <time>2014-06-23T13:52:15Z</time>
      </trkpt>
      <trkpt lat="48.33647" lon="-3.37041">
        <ele>258</ele>
        <time>2014-06-23T13:52:16Z</time>
      </trkpt>
      <trkpt lat="48.33646" lon="-3.3704">
        <ele>258</ele>
        <time>2014-06-23T13:52:17Z</time>
      </trkpt>
      <trkpt lat="48.33644" lon="-3.37039">
        <ele>258</ele>
        <time>2014-06-23T13:52:19Z</time>
      </trkpt>
      <trkpt lat="48.33643" lon="-3.37038">
        <ele>258</ele>
        <time>2014-06-23T13:52:20Z</time>
      </trkpt>
      <trkpt lat="48.33641" lon="-3.37038">
        <ele>258</ele>
        <time>2014-06-23T13:52:22Z</time>
      </trkpt>
      <trkpt lat="48.33638" lon="-3.37036">
        <ele>258</ele>
        <time>2014-06-23T13:52:24Z</time>
      </trkpt>
      <trkpt lat="48.33637" lon="-3.37034">
        <ele>258</ele>
        <time>2014-06-23T13:52:26Z</time>
      </trkpt>
      <trkpt lat="48.33635" lon="-3.37032">
        <ele>258</ele>
        <time>2014-06-23T13:52:28Z</time>
      </trkpt>
      <trkpt lat="48.33633" lon="-3.37031">
        <ele>258</ele>
        <time>2014-06-23T13:52:30Z</time>
      </trkpt>
      <trkpt lat="48.33631" lon="-3.37029">
        <ele>258</ele>
        <time>2014-06-23T13:52:32Z</time>
      </trkpt>
      <trkpt lat="48.3363" lon="-3.37027">
        <ele>258</ele>
        <time>2014-06-23T13:52:34Z</time>
      </trkpt>
      <trkpt lat="48.33628" lon="-3.37026">
        <ele>258</ele>
        <time>2014-06-23T13:52:36Z</time>
      </trkpt>
      <trkpt lat="48.33627" lon="-3.37025">
        <ele>258</ele>
        <time>2014-06-23T13:52:38Z</time>
      </trkpt>
      <trkpt lat="48.33625" lon="-3.37024">
        <ele>258</ele>
        <time>2014-06-23T13:52:40Z</time>
      </trkpt>
      <trkpt lat="48.33624" lon="-3.37023">
        <ele>258</ele>
        <time>2014-06-23T13:52:42Z</time>
      </trkpt>
      <trkpt lat="48.33622" lon="-3.37021">
        <ele>258</ele>
        <time>2014-06-23T13:52:44Z</time>
      </trkpt>
      <trkpt lat="48.3362" lon="-3.3702">
        <ele>258</ele>
        <time>2014-06-23T13:52:46Z</time>
      </trkpt>
      <trkpt lat="48.33619" lon="-3.37018">
        <ele>258</ele>
        <time>2014-06-23T13:52:48Z</time>
      </trkpt>
      <trkpt lat="48.33617" lon="-3.37016">
        <ele>258</ele>
        <time>2014-06-23T13:52:50Z</time>
      </trkpt>
      <trkpt lat="48.33615" lon="-3.37014">
        <ele>258</ele>
        <time>2014-06-23T13:52:52Z</time>
      </trkpt>
      <trkpt lat="48.33614" lon="-3.37011">
        <ele>258</ele>
        <time>2014-06-23T13:52:54Z</time>
      </trkpt>
      <trkpt lat="48.33612" lon="-3.37009">
        <ele>258</ele>
        <time>2014-06-23T13:52:56Z</time>
      </trkpt>
      <trkpt lat="48.3361" lon="-3.37007">
        <ele>258</ele>
        <time>2014-06-23T13:52:58Z</time>
      </trkpt>
      <trkpt lat="48.33609" lon="-3.37005">
        <ele>259</ele>
        <time>2014-06-23T13:53:00Z</time>
      </trkpt>
      <trkpt lat="48.33608" lon="-3.37003">
        <ele>259</ele>
        <time>2014-06-23T13:53:02Z</time>
      </trkpt>
      <trkpt lat="48.33606" lon="-3.37001">
        <ele>259</ele>
        <time>2014-06-23T13:53:04Z</time>
      </trkpt>
      <trkpt lat="48.33604" lon="-3.37">
        <ele>259</ele>
        <time>2014-06-23T13:53:06Z</time>
      </trkpt>
      <trkpt lat="48.33603" lon="-3.36998">
        <ele>259</ele>
        <time>2014-06-23T13:53:08Z</time>
      </trkpt>
      <trkpt lat="48.33601" lon="-3.36997">
        <ele>259</ele>
        <time>2014-06-23T13:53:10Z</time>
      </trkpt>
      <trkpt lat="48.336" lon="-3.36995">
        <ele>259</ele>
        <time>2014-06-23T13:53:12Z</time>
      </trkpt>
      <trkpt lat="48.33598" lon="-3.36993">
        <ele>259</ele>
        <time>2014-06-23T13:53:14Z</time>
      </trkpt>
      <trkpt lat="48.33597" lon="-3.36991">
        <ele>259</ele>
        <time>2014-06-23T13:53:16Z</time>
      </trkpt>
      <trkpt lat="48.33595" lon="-3.36989">
        <ele>259</ele>
        <time>2014-06-23T13:53:18Z</time>
      </trkpt>
      <trkpt lat="48.33593" lon="-3.36988">
        <ele>259</ele>
        <time>2014-06-23T13:53:20Z</time>
      </trkpt>
      <trkpt lat="48.33592" lon="-3.36987">
        <ele>259</ele>
        <time>2014-06-23T13:53:22Z</time>
      </trkpt>
      <trkpt lat="48.3359" lon="-3.36985">
        <ele>259</ele>
        <time>2014-06-23T13:53:24Z</time>
      </trkpt>
      <trkpt lat="48.33589" lon="-3.36983">
        <ele>259</ele>
        <time>2014-06-23T13:53:26Z</time>
      </trkpt>
      <trkpt lat="48.33587" lon="-3.36982">
        <ele>260</ele>
        <time>2014-06-23T13:53:27Z</time>
      </trkpt>
      <trkpt lat="48.33585" lon="-3.36981">
        <ele>260</ele>
        <time>2014-06-23T13:53:29Z</time>
      </trkpt>
      <trkpt lat="48.33584" lon="-3.36979">
        <ele>260</ele>
        <time>2014-06-23T13:53:31Z</time>
      </trkpt>
      <trkpt lat="48.33583" lon="-3.36978">
        <ele>260</ele>
        <time>2014-06-23T13:53:33Z</time>
      </trkpt>
      <trkpt lat="48.3358" lon="-3.36976">
        <ele>261</ele>
        <time>2014-06-23T13:53:35Z</time>
      </trkpt>
      <trkpt lat="48.33579" lon="-3.36975">
        <ele>261</ele>
        <time>2014-06-23T13:53:37Z</time>
      </trkpt>
      <trkpt lat="48.33578" lon="-3.36973">
        <ele>261</ele>
        <time>2014-06-23T13:53:39Z</time>
      </trkpt>
      <trkpt lat="48.33576" lon="-3.36971">
        <ele>261</ele>
        <time>2014-06-23T13:53:41Z</time>
      </trkpt>
      <trkpt lat="48.33574" lon="-3.36969">
        <ele>261</ele>
        <time>2014-06-23T13:53:43Z</time>
      </trkpt>
      <trkpt lat="48.33572" lon="-3.36967">
        <ele>261</ele>
        <time>2014-06-23T13:53:45Z</time>
      </trkpt>
      <trkpt lat="48.3357" lon="-3.36966">
        <ele>261</ele>
        <time>2014-06-23T13:53:47Z</time>
      </trkpt>
      <trkpt lat="48.33569" lon="-3.36964">
        <ele>261</ele>
        <time>2014-06-23T13:53:49Z</time>
      </trkpt>
      <trkpt lat="48.33567" lon="-3.36963">
        <ele>261</ele>
        <time>2014-06-23T13:53:51Z</time>
      </trkpt>
      <trkpt lat="48.33565" lon="-3.36962">
        <ele>261</ele>
        <time>2014-06-23T13:53:53Z</time>
      </trkpt>
      <trkpt lat="48.33564" lon="-3.3696">
        <ele>261</ele>
        <time>2014-06-23T13:53:55Z</time>
      </trkpt>
      <trkpt lat="48.33562" lon="-3.36958">
        <ele>261</ele>
        <time>2014-06-23T13:53:57Z</time>
      </trkpt>
      <trkpt lat="48.33561" lon="-3.36956">
        <ele>262</ele>
        <time>2014-06-23T13:53:58Z</time>
      </trkpt>
      <trkpt lat="48.3356" lon="-3.36956">
        <ele>262</ele>
        <time>2014-06-23T13:53:59Z</time>
      </trkpt>
      <trkpt lat="48.33559" lon="-3.36955">
        <ele>262</ele>
        <time>2014-06-23T13:54:00Z</time>
      </trkpt>
      <trkpt lat="48.33557" lon="-3.36953">
        <ele>263</ele>
        <time>2014-06-23T13:54:02Z</time>
      </trkpt>
      <trkpt lat="48.33556" lon="-3.36951">
        <ele>263</ele>
        <time>2014-06-23T13:54:04Z</time>
      </trkpt>
      <trkpt lat="48.33554" lon="-3.36949">
        <ele>263</ele>
        <time>2014-06-23T13:54:06Z</time>
      </trkpt>
      <trkpt lat="48.33552" lon="-3.36947">
        <ele>263</ele>
        <time>2014-06-23T13:54:08Z</time>
      </trkpt>
      <trkpt lat="48.3355" lon="-3.36946">
        <ele>263</ele>
        <time>2014-06-23T13:54:10Z</time>
      </trkpt>
      <trkpt lat="48.33548" lon="-3.36945">
        <ele>263</ele>
        <time>2014-06-23T13:54:12Z</time>
      </trkpt>
      <trkpt lat="48.33546" lon="-3.36943">
        <ele>263</ele>
        <time>2014-06-23T13:54:14Z</time>
      </trkpt>
      <trkpt lat="48.33545" lon="-3.36941">
        <ele>263</ele>
        <time>2014-06-23T13:54:16Z</time>
      </trkpt>
      <trkpt lat="48.33543" lon="-3.3694">
        <ele>263</ele>
        <time>2014-06-23T13:54:18Z</time>
      </trkpt>
      <trkpt lat="48.33541" lon="-3.36939">
        <ele>263</ele>
        <time>2014-06-23T13:54:20Z</time>
      </trkpt>
      <trkpt lat="48.3354" lon="-3.36938">
        <ele>263</ele>
        <time>2014-06-23T13:54:21Z</time>
      </trkpt>
      <trkpt lat="48.33538" lon="-3.36937">
        <ele>263</ele>
        <time>2014-06-23T13:54:23Z</time>
      </trkpt>
      <trkpt lat="48.33537" lon="-3.36936">
        <ele>263</ele>
        <time>2014-06-23T13:54:25Z</time>
      </trkpt>
      <trkpt lat="48.33535" lon="-3.36934">
        <ele>263</ele>
        <time>2014-06-23T13:54:27Z</time>
      </trkpt>
      <trkpt lat="48.33533" lon="-3.36932">
        <ele>263</ele>
        <time>2014-06-23T13:54:29Z</time>
      </trkpt>
      <trkpt lat="48.33532" lon="-3.36931">
        <ele>263</ele>
        <time>2014-06-23T13:54:31Z</time>
      </trkpt>
      <trkpt lat="48.3353" lon="-3.36929">
        <ele>263</ele>
        <time>2014-06-23T13:54:33Z</time>
      </trkpt>
      <trkpt lat="48.33528" lon="-3.36927">
        <ele>263</ele>
        <time>2014-06-23T13:54:35Z</time>
      </trkpt>
      <trkpt lat="48.33527" lon="-3.36926">
        <ele>263</ele>
        <time>2014-06-23T13:54:36Z</time>
      </trkpt>
      <trkpt lat="48.33526" lon="-3.36925">
        <ele>263</ele>
        <time>2014-06-23T13:54:37Z</time>
      </trkpt>
      <trkpt lat="48.33524" lon="-3.36923">
        <ele>263</ele>
        <time>2014-06-23T13:54:39Z</time>
      </trkpt>
      <trkpt lat="48.33522" lon="-3.36921">
        <ele>263</ele>
        <time>2014-06-23T13:54:41Z</time>
      </trkpt>
      <trkpt lat="48.33521" lon="-3.36919">
        <ele>263</ele>
        <time>2014-06-23T13:54:43Z</time>
      </trkpt>
      <trkpt lat="48.33519" lon="-3.36916">
        <ele>263</ele>
        <time>2014-06-23T13:54:45Z</time>
      </trkpt>
      <trkpt lat="48.33517" lon="-3.36914">
        <ele>263</ele>
        <time>2014-06-23T13:54:47Z</time>
      </trkpt>
      <trkpt lat="48.33515" lon="-3.36912">
        <ele>263</ele>
        <time>2014-06-23T13:54:49Z</time>
      </trkpt>
      <trkpt lat="48.33514" lon="-3.36911">
        <ele>263</ele>
        <time>2014-06-23T13:54:51Z</time>
      </trkpt>
      <trkpt lat="48.33512" lon="-3.36908">
        <ele>263</ele>
        <time>2014-06-23T13:54:53Z</time>
      </trkpt>
      <trkpt lat="48.3351" lon="-3.36906">
        <ele>263</ele>
        <time>2014-06-23T13:54:55Z</time>
      </trkpt>
      <trkpt lat="48.33508" lon="-3.36904">
        <ele>263</ele>
        <time>2014-06-23T13:54:57Z</time>
      </trkpt>
      <trkpt lat="48.33506" lon="-3.36902">
        <ele>263</ele>
        <time>2014-06-23T13:54:59Z</time>
      </trkpt>
      <trkpt lat="48.33504" lon="-3.369">
        <ele>263</ele>
        <time>2014-06-23T13:55:01Z</time>
      </trkpt>
      <trkpt lat="48.33503" lon="-3.36898">
        <ele>263</ele>
        <time>2014-06-23T13:55:03Z</time>
      </trkpt>
      <trkpt lat="48.335" lon="-3.36897">
        <ele>263</ele>
        <time>2014-06-23T13:55:05Z</time>
      </trkpt>
      <trkpt lat="48.33498" lon="-3.36895">
        <ele>263</ele>
        <time>2014-06-23T13:55:07Z</time>
      </trkpt>
      <trkpt lat="48.33496" lon="-3.36893">
        <ele>263</ele>
        <time>2014-06-23T13:55:09Z</time>
      </trkpt>
      <trkpt lat="48.33494" lon="-3.36891">
        <ele>263</ele>
        <time>2014-06-23T13:55:11Z</time>
      </trkpt>
      <trkpt lat="48.33492" lon="-3.36889">
        <ele>263</ele>
        <time>2014-06-23T13:55:13Z</time>
      </trkpt>
      <trkpt lat="48.3349" lon="-3.36887">
        <ele>263</ele>
        <time>2014-06-23T13:55:15Z</time>
      </trkpt>
      <trkpt lat="48.33488" lon="-3.36885">
        <ele>263</ele>
        <time>2014-06-23T13:55:17Z</time>
      </trkpt>
      <trkpt lat="48.33487" lon="-3.36884">
        <ele>263</ele>
        <time>2014-06-23T13:55:19Z</time>
      </trkpt>
      <trkpt lat="48.33485" lon="-3.36882">
        <ele>263</ele>
        <time>2014-06-23T13:55:21Z</time>
      </trkpt>
      <trkpt lat="48.33483" lon="-3.3688">
        <ele>263</ele>
        <time>2014-06-23T13:55:23Z</time>
      </trkpt>
      <trkpt lat="48.33481" lon="-3.36878">
        <ele>263</ele>
        <time>2014-06-23T13:55:25Z</time>
      </trkpt>
      <trkpt lat="48.3348" lon="-3.36877">
        <ele>263</ele>
        <time>2014-06-23T13:55:26Z</time>
      </trkpt>
      <trkpt lat="48.33479" lon="-3.36876">
        <ele>263</ele>
        <time>2014-06-23T13:55:28Z</time>
      </trkpt>
      <trkpt lat="48.33477" lon="-3.36874">
        <ele>263</ele>
        <time>2014-06-23T13:55:30Z</time>
      </trkpt>
      <trkpt lat="48.33476" lon="-3.36873">
        <ele>263</ele>
        <time>2014-06-23T13:55:31Z</time>
      </trkpt>
      <trkpt lat="48.33474" lon="-3.36871">
        <ele>263</ele>
        <time>2014-06-23T13:55:33Z</time>
      </trkpt>
      <trkpt lat="48.33472" lon="-3.36869">
        <ele>263</ele>
        <time>2014-06-23T13:55:35Z</time>
      </trkpt>
      <trkpt lat="48.33471" lon="-3.36867">
        <ele>263</ele>
        <time>2014-06-23T13:55:37Z</time>
      </trkpt>
      <trkpt lat="48.33469" lon="-3.36865">
        <ele>263</ele>
        <time>2014-06-23T13:55:39Z</time>
      </trkpt>
      <trkpt lat="48.33467" lon="-3.36863">
        <ele>263</ele>
        <time>2014-06-23T13:55:41Z</time>
      </trkpt>
      <trkpt lat="48.33466" lon="-3.36861">
        <ele>263</ele>
        <time>2014-06-23T13:55:43Z</time>
      </trkpt>
      <trkpt lat="48.33464" lon="-3.36859">
        <ele>263</ele>
        <time>2014-06-23T13:55:45Z</time>
      </trkpt>
      <trkpt lat="48.33462" lon="-3.36858">
        <ele>263</ele>
        <time>2014-06-23T13:55:47Z</time>
      </trkpt>
      <trkpt lat="48.3346" lon="-3.36856">
        <ele>263</ele>
        <time>2014-06-23T13:55:49Z</time>
      </trkpt>
      <trkpt lat="48.33458" lon="-3.36854">
        <ele>263</ele>
        <time>2014-06-23T13:55:51Z</time>
      </trkpt>
      <trkpt lat="48.33456" lon="-3.36852">
        <ele>263</ele>
        <time>2014-06-23T13:55:53Z</time>
      </trkpt>
      <trkpt lat="48.33455" lon="-3.36851">
        <ele>263</ele>
        <time>2014-06-23T13:55:54Z</time>
      </trkpt>
      <trkpt lat="48.33453" lon="-3.36849">
        <ele>263</ele>
        <time>2014-06-23T13:55:56Z</time>
      </trkpt>
      <trkpt lat="48.33452" lon="-3.36846">
        <ele>263</ele>
        <time>2014-06-23T13:55:58Z</time>
      </trkpt>
      <trkpt lat="48.3345" lon="-3.36844">
        <ele>263</ele>
        <time>2014-06-23T13:56:00Z</time>
      </trkpt>
      <trkpt lat="48.33448" lon="-3.36842">
        <ele>263</ele>
        <time>2014-06-23T13:56:02Z</time>
      </trkpt>
      <trkpt lat="48.33447" lon="-3.36839">
        <ele>263</ele>
        <time>2014-06-23T13:56:04Z</time>
      </trkpt>
      <trkpt lat="48.33445" lon="-3.36838">
        <ele>263</ele>
        <time>2014-06-23T13:56:06Z</time>
      </trkpt>
      <trkpt lat="48.33443" lon="-3.36836">
        <ele>263</ele>
        <time>2014-06-23T13:56:08Z</time>
      </trkpt>
      <trkpt lat="48.33441" lon="-3.36834">
        <ele>263</ele>
        <time>2014-06-23T13:56:10Z</time>
      </trkpt>
      <trkpt lat="48.33439" lon="-3.36831">
        <ele>263</ele>
        <time>2014-06-23T13:56:12Z</time>
      </trkpt>
      <trkpt lat="48.33437" lon="-3.36829">
        <ele>263</ele>
        <time>2014-06-23T13:56:14Z</time>
      </trkpt>
      <trkpt lat="48.33436" lon="-3.36827">
        <ele>263</ele>
        <time>2014-06-23T13:56:16Z</time>
      </trkpt>
      <trkpt lat="48.33434" lon="-3.36825">
        <ele>263</ele>
        <time>2014-06-23T13:56:18Z</time>
      </trkpt>
      <trkpt lat="48.33432" lon="-3.36823">
        <ele>263</ele>
        <time>2014-06-23T13:56:20Z</time>
      </trkpt>
      <trkpt lat="48.3343" lon="-3.36821">
        <ele>263</ele>
        <time>2014-06-23T13:56:22Z</time>
      </trkpt>
      <trkpt lat="48.33428" lon="-3.36819">
        <ele>263</ele>
        <time>2014-06-23T13:56:24Z</time>
      </trkpt>
      <trkpt lat="48.33427" lon="-3.36817">
        <ele>263</ele>
        <time>2014-06-23T13:56:26Z</time>
      </trkpt>
      <trkpt lat="48.33424" lon="-3.36814">
        <ele>263</ele>
        <time>2014-06-23T13:56:28Z</time>
      </trkpt>
      <trkpt lat="48.33423" lon="-3.36812">
        <ele>263</ele>
        <time>2014-06-23T13:56:30Z</time>
      </trkpt>
      <trkpt lat="48.33421" lon="-3.3681">
        <ele>263</ele>
        <time>2014-06-23T13:56:32Z</time>
      </trkpt>
      <trkpt lat="48.33419" lon="-3.36808">
        <ele>263</ele>
        <time>2014-06-23T13:56:34Z</time>
      </trkpt>
      <trkpt lat="48.33417" lon="-3.36806">
        <ele>263</ele>
        <time>2014-06-23T13:56:36Z</time>
      </trkpt>
      <trkpt lat="48.33415" lon="-3.36804">
        <ele>263</ele>
        <time>2014-06-23T13:56:38Z</time>
      </trkpt>
      <trkpt lat="48.33413" lon="-3.36802">
        <ele>263</ele>
        <time>2014-06-23T13:56:40Z</time>
      </trkpt>
      <trkpt lat="48.33411" lon="-3.368">
        <ele>263</ele>
        <time>2014-06-23T13:56:42Z</time>
      </trkpt>
      <trkpt lat="48.3341" lon="-3.36798">
        <ele>263</ele>
        <time>2014-06-23T13:56:44Z</time>
      </trkpt>
      <trkpt lat="48.33408" lon="-3.36796">
        <ele>263</ele>
        <time>2014-06-23T13:56:46Z</time>
      </trkpt>
      <trkpt lat="48.33406" lon="-3.36794">
        <ele>263</ele>
        <time>2014-06-23T13:56:48Z</time>
      </trkpt>
      <trkpt lat="48.33404" lon="-3.36792">
        <ele>263</ele>
        <time>2014-06-23T13:56:50Z</time>
      </trkpt>
      <trkpt lat="48.33402" lon="-3.3679">
        <ele>263</ele>
        <time>2014-06-23T13:56:52Z</time>
      </trkpt>
      <trkpt lat="48.334" lon="-3.36789">
        <ele>263</ele>
        <time>2014-06-23T13:56:54Z</time>
      </trkpt>
      <trkpt lat="48.33399" lon="-3.36786">
        <ele>263</ele>
        <time>2014-06-23T13:56:56Z</time>
      </trkpt>
      <trkpt lat="48.33397" lon="-3.36784">
        <ele>263</ele>
        <time>2014-06-23T13:56:58Z</time>
      </trkpt>
      <trkpt lat="48.33395" lon="-3.36782">
        <ele>263</ele>
        <time>2014-06-23T13:57:00Z</time>
      </trkpt>
      <trkpt lat="48.33394" lon="-3.36781">
        <ele>263</ele>
        <time>2014-06-23T13:57:01Z</time>
      </trkpt>
      <trkpt lat="48.33392" lon="-3.36779">
        <ele>263</ele>
        <time>2014-06-23T13:57:03Z</time>
      </trkpt>
      <trkpt lat="48.3339" lon="-3.36778">
        <ele>263</ele>
        <time>2014-06-23T13:57:05Z</time>
      </trkpt>
      <trkpt lat="48.33388" lon="-3.36776">
        <ele>263</ele>
        <time>2014-06-23T13:57:07Z</time>
      </trkpt>
      <trkpt lat="48.33387" lon="-3.36774">
        <ele>263</ele>
        <time>2014-06-23T13:57:09Z</time>
      </trkpt>
      <trkpt lat="48.33385" lon="-3.36772">
        <ele>263</ele>
        <time>2014-06-23T13:57:11Z</time>
      </trkpt>
      <trkpt lat="48.33383" lon="-3.3677">
        <ele>263</ele>
        <time>2014-06-23T13:57:13Z</time>
      </trkpt>
      <trkpt lat="48.33381" lon="-3.36768">
        <ele>263</ele>
        <time>2014-06-23T13:57:15Z</time>
      </trkpt>
      <trkpt lat="48.33379" lon="-3.36766">
        <ele>263</ele>
        <time>2014-06-23T13:57:17Z</time>
      </trkpt>
      <trkpt lat="48.33377" lon="-3.36764">
        <ele>263</ele>
        <time>2014-06-23T13:57:19Z</time>
      </trkpt>
      <trkpt lat="48.33376" lon="-3.36762">
        <ele>263</ele>
        <time>2014-06-23T13:57:21Z</time>
      </trkpt>
      <trkpt lat="48.33374" lon="-3.3676">
        <ele>263</ele>
        <time>2014-06-23T13:57:23Z</time>
      </trkpt>
      <trkpt lat="48.33372" lon="-3.36758">
        <ele>263</ele>
        <time>2014-06-23T13:57:25Z</time>
      </trkpt>
      <trkpt lat="48.33371" lon="-3.36756">
        <ele>263</ele>
        <time>2014-06-23T13:57:27Z</time>
      </trkpt>
      <trkpt lat="48.33369" lon="-3.36754">
        <ele>263</ele>
        <time>2014-06-23T13:57:29Z</time>
      </trkpt>
      <trkpt lat="48.33367" lon="-3.36752">
        <ele>263</ele>
        <time>2014-06-23T13:57:31Z</time>
      </trkpt>
      <trkpt lat="48.33366" lon="-3.3675">
        <ele>263</ele>
        <time>2014-06-23T13:57:33Z</time>
      </trkpt>
      <trkpt lat="48.33364" lon="-3.36748">
        <ele>263</ele>
        <time>2014-06-23T13:57:35Z</time>
      </trkpt>
      <trkpt lat="48.33363" lon="-3.36747">
        <ele>263</ele>
        <time>2014-06-23T13:57:37Z</time>
      </trkpt>
      <trkpt lat="48.33361" lon="-3.36745">
        <ele>263</ele>
        <time>2014-06-23T13:57:39Z</time>
      </trkpt>
      <trkpt lat="48.3336" lon="-3.36744">
        <ele>263</ele>
        <time>2014-06-23T13:57:41Z</time>
      </trkpt>
      <trkpt lat="48.33358" lon="-3.36742">
        <ele>263</ele>
        <time>2014-06-23T13:57:43Z</time>
      </trkpt>
      <trkpt lat="48.33357" lon="-3.3674">
        <ele>263</ele>
        <time>2014-06-23T13:57:45Z</time>
      </trkpt>
      <trkpt lat="48.33355" lon="-3.36738">
        <ele>263</ele>
        <time>2014-06-23T13:57:47Z</time>
      </trkpt>
      <trkpt lat="48.33354" lon="-3.36736">
        <ele>263</ele>
        <time>2014-06-23T13:57:49Z</time>
      </trkpt>
      <trkpt lat="48.33353" lon="-3.36734">
        <ele>263</ele>
        <time>2014-06-23T13:57:51Z</time>
      </trkpt>
      <trkpt lat="48.33352" lon="-3.36731">
        <ele>263</ele>
        <time>2014-06-23T13:57:53Z</time>
      </trkpt>
      <trkpt lat="48.33352" lon="-3.36729">
        <ele>263</ele>
        <time>2014-06-23T13:57:55Z</time>
      </trkpt>
      <trkpt lat="48.33351" lon="-3.36727">
        <ele>263</ele>
        <time>2014-06-23T13:57:57Z</time>
      </trkpt>
      <trkpt lat="48.3335" lon="-3.36725">
        <ele>263</ele>
        <time>2014-06-23T13:57:59Z</time>
      </trkpt>
      <trkpt lat="48.3335" lon="-3.36723">
        <ele>263</ele>
        <time>2014-06-23T13:58:01Z</time>
      </trkpt>
      <trkpt lat="48.3335" lon="-3.3672">
        <ele>263</ele>
        <time>2014-06-23T13:58:03Z</time>
      </trkpt>
      <trkpt lat="48.3335" lon="-3.36717">
        <ele>263</ele>
        <time>2014-06-23T13:58:05Z</time>
      </trkpt>
      <trkpt lat="48.33351" lon="-3.36715">
        <ele>263</ele>
        <time>2014-06-23T13:58:07Z</time>
      </trkpt>
      <trkpt lat="48.3335" lon="-3.36714">
        <ele>263</ele>
        <time>2014-06-23T13:58:15Z</time>
      </trkpt>
      <trkpt lat="48.33349" lon="-3.36714">
        <ele>265</ele>
        <time>2014-06-23T13:58:20Z</time>
      </trkpt>
      <trkpt lat="48.33347" lon="-3.36713">
        <ele>267</ele>
        <time>2014-06-23T13:58:29Z</time>
      </trkpt>
      <trkpt lat="48.33346" lon="-3.36713">
        <ele>267</ele>
        <time>2014-06-23T13:58:50Z</time>
      </trkpt>
      <trkpt lat="48.33346" lon="-3.36712">
        <ele>267</ele>
        <time>2014-06-23T13:59:00Z</time>
      </trkpt>
    </trkseg>
  </trk>
</gpx>